<?xml version='1.0' encoding='UTF-8'?><gpx version="1.1" creator="JPX - https://github.com/jenetics/jpx" xmlns="http://www.topografix.com/GPX/1/1"><trk><trkseg><trkpt lat="14.558020675802613" lon="120.99546041183379"><ele>9.0</ele><time>2026-04-21T06:46:05.002Z</time></trkpt><trkpt lat="14.55795481470479" lon="120.99548098950505"><ele>9.0</ele><time>2026-04-21T06:46:06.002Z</time></trkpt><trkpt lat="14.557859609146005" lon="120.9955061769545"><ele>9.0</ele><time>2026-04-21T06:46:08.001Z</time></trkpt><trkpt lat="14.557773584865803" lon="120.9955438889933"><ele>9.0</ele><time>2026-04-21T06:46:10.001Z</time></trkpt><trkpt lat="14.557678895595261" lon="120.99558334993111"><ele>9.0</ele><time>2026-04-21T06:46:12.054Z</time></trkpt><trkpt lat="14.557646993580349" lon="120.99498471610327"><ele>8.857142857142858</ele><time>2026-04-21T06:48:02.002Z</time></trkpt><trkpt lat="14.557712715334654" lon="120.99499470008719"><ele>8.714285714285715</ele><time>2026-04-21T06:48:08.003Z</time></trkpt><trkpt lat="14.557744550071837" lon="120.99505325937241"><ele>8.571428571428571</ele><time>2026-04-21T06:48:28.001Z</time></trkpt><trkpt lat="14.557720113196087" lon="120.9949886357335"><ele>8.428571428571429</ele><time>2026-04-21T06:48:34.001Z</time></trkpt><trkpt lat="14.55766337542067" lon="120.99493496890597"><ele>8.285714285714285</ele><time>2026-04-21T06:48:59.001Z</time></trkpt><trkpt lat="14.55764928778854" lon="120.99487022419669"><ele>8.142857142857142</ele><time>2026-04-21T06:49:07.001Z</time></trkpt><trkpt lat="14.557585281523853" lon="120.99487846123328"><ele>8.0</ele><time>2026-04-21T06:49:16.001Z</time></trkpt><trkpt lat="14.55750315566145" lon="120.99482116147145"><ele>8.0</ele><time>2026-04-21T06:49:21.001Z</time></trkpt><trkpt lat="14.557406329765913" lon="120.99477775991981"><ele>8.0</ele><time>2026-04-21T06:49:23.031Z</time></trkpt><trkpt lat="14.55731775881339" lon="120.9947276487175"><ele>8.0</ele><time>2026-04-21T06:49:25.029Z</time></trkpt><trkpt lat="14.557241050486269" lon="120.99471300195502"><ele>8.0</ele><time>2026-04-21T06:49:27.031Z</time></trkpt><trkpt lat="14.55730199571296" lon="120.99479608744983"><ele>8.0</ele><time>2026-04-21T06:49:29.032Z</time></trkpt><trkpt lat="14.557407935856506" lon="120.99487473021934"><ele>8.0</ele><time>2026-04-21T06:49:31.001Z</time></trkpt><trkpt lat="14.557535853124895" lon="120.99494858906091"><ele>8.0</ele><time>2026-04-21T06:49:32.001Z</time></trkpt><trkpt lat="14.557652161409948" lon="120.99501660793719"><ele>8.0</ele><time>2026-04-21T06:49:36.001Z</time></trkpt><trkpt lat="14.55766736482425" lon="120.99486962598023"><ele>8.0</ele><time>2026-04-21T06:51:08.001Z</time></trkpt><trkpt lat="14.557602702404905" lon="120.99489841621788"><ele>8.0</ele><time>2026-04-21T06:51:37.001Z</time></trkpt><trkpt lat="14.557655298822384" lon="120.99494936340805"><ele>8.0</ele><time>2026-04-21T06:51:45.001Z</time></trkpt><trkpt lat="14.557871041206692" lon="120.99487499783154"><ele>8.0</ele><time>2026-04-21T06:52:44Z</time></trkpt><trkpt lat="14.557934388860229" lon="120.99485329089248"><ele>8.0</ele><time>2026-04-21T06:52:46Z</time></trkpt><trkpt lat="14.558024341665377" lon="120.99481940432975"><ele>7.999999999999999</ele><time>2026-04-21T06:52:50Z</time></trkpt><trkpt lat="14.5580999480918" lon="120.99480846795039"><ele>8.0</ele><time>2026-04-21T06:52:52Z</time></trkpt><trkpt lat="14.558167194772578" lon="120.99479614372221"><ele>8.0</ele><time>2026-04-21T06:52:53Z</time></trkpt><trkpt lat="14.558300114261337" lon="120.99477869315632"><ele>8.0</ele><time>2026-04-21T06:52:55Z</time></trkpt><trkpt lat="14.558374681289553" lon="120.99476530420651"><ele>7.999999999999999</ele><time>2026-04-21T06:52:56Z</time></trkpt><trkpt lat="14.558445060450742" lon="120.99475786263436"><ele>8.0</ele><time>2026-04-21T06:52:57Z</time></trkpt><trkpt lat="14.558521907777969" lon="120.99474753296153"><ele>7.999999999999999</ele><time>2026-04-21T06:52:58Z</time></trkpt><trkpt lat="14.558591139970982" lon="120.99473848911869"><ele>8.0</ele><time>2026-04-21T06:52:59Z</time></trkpt><trkpt lat="14.55868774181194" lon="120.99473057437194"><ele>8.0</ele><time>2026-04-21T06:53:01Z</time></trkpt><trkpt lat="14.558766155679104" lon="120.99471894257576"><ele>8.0</ele><time>2026-04-21T06:53:04Z</time></trkpt><trkpt lat="14.558865788223258" lon="120.99470896997208"><ele>7.999999999999999</ele><time>2026-04-21T06:53:06Z</time></trkpt><trkpt lat="14.558929599412016" lon="120.99469853089796"><ele>8.0</ele><time>2026-04-21T06:53:07Z</time></trkpt><trkpt lat="14.559067403705777" lon="120.99467959467886"><ele>8.166666666666666</ele><time>2026-04-21T06:53:09Z</time></trkpt><trkpt lat="14.559141233119618" lon="120.99467152654037"><ele>8.333333333333332</ele><time>2026-04-21T06:53:10Z</time></trkpt><trkpt lat="14.559212941791817" lon="120.99466788426774"><ele>8.5</ele><time>2026-04-21T06:53:11Z</time></trkpt><trkpt lat="14.559295014786032" lon="120.99466575595348"><ele>8.666666666666666</ele><time>2026-04-21T06:53:12Z</time></trkpt><trkpt lat="14.559370143911885" lon="120.9946362683623"><ele>8.833333333333334</ele><time>2026-04-21T06:53:13Z</time></trkpt><trkpt lat="14.559457900389239" lon="120.9946229386049"><ele>9.0</ele><time>2026-04-21T06:53:14Z</time></trkpt><trkpt lat="14.55953541285804" lon="120.99461134758147"><ele>9.166666666666666</ele><time>2026-04-21T06:53:15Z</time></trkpt><trkpt lat="14.55961847060429" lon="120.99461385389968"><ele>9.333333333333334</ele><time>2026-04-21T06:53:16Z</time></trkpt><trkpt lat="14.559698019125047" lon="120.99459233311592"><ele>9.5</ele><time>2026-04-21T06:53:17Z</time></trkpt><trkpt lat="14.559771199677966" lon="120.99457860860505"><ele>9.666666666666668</ele><time>2026-04-21T06:53:18Z</time></trkpt><trkpt lat="14.559882395930142" lon="120.9945568896056"><ele>9.833333333333334</ele><time>2026-04-21T06:53:20Z</time></trkpt><trkpt lat="14.559950840315175" lon="120.99454498862202"><ele>10.0</ele><time>2026-04-21T06:53:22Z</time></trkpt><trkpt lat="14.560030679563763" lon="120.99451923229037"><ele>10.0</ele><time>2026-04-21T06:53:30Z</time></trkpt><trkpt lat="14.560101043058177" lon="120.99449775193524"><ele>10.0</ele><time>2026-04-21T06:53:36Z</time></trkpt><trkpt lat="14.560162447562673" lon="120.99447351277881"><ele>10.0</ele><time>2026-04-21T06:53:38.001Z</time></trkpt><trkpt lat="14.560245789619243" lon="120.99442762123226"><ele>10.0</ele><time>2026-04-21T06:53:40.001Z</time></trkpt><trkpt lat="14.56031163060733" lon="120.99439218703066"><ele>10.0</ele><time>2026-04-21T06:53:42.001Z</time></trkpt><trkpt lat="14.560384678085112" lon="120.99436536606328"><ele>10.0</ele><time>2026-04-21T06:53:44.001Z</time></trkpt><trkpt lat="14.560483510824781" lon="120.994321695042"><ele>10.0</ele><time>2026-04-21T06:53:46.001Z</time></trkpt><trkpt lat="14.560590351493625" lon="120.99425445767358"><ele>10.0</ele><time>2026-04-21T06:53:48.001Z</time></trkpt><trkpt lat="14.560696095794075" lon="120.99419764708641"><ele>10.0</ele><time>2026-04-21T06:53:50.001Z</time></trkpt><trkpt lat="14.560757313687622" lon="120.99415457841546"><ele>10.0</ele><time>2026-04-21T06:53:51.001Z</time></trkpt><trkpt lat="14.56084729673465" lon="120.99410661920808"><ele>10.0</ele><time>2026-04-21T06:53:53.001Z</time></trkpt><trkpt lat="14.560938254689306" lon="120.99406517590553"><ele>10.0</ele><time>2026-04-21T06:53:55.001Z</time></trkpt><trkpt lat="14.561032774176258" lon="120.99401980420205"><ele>10.0</ele><time>2026-04-21T06:53:57.001Z</time></trkpt><trkpt lat="14.561117068132411" lon="120.99396851727016"><ele>10.0</ele><time>2026-04-21T06:53:59.001Z</time></trkpt><trkpt lat="14.561178637854077" lon="120.99394289746111"><ele>10.0</ele><time>2026-04-21T06:54:02.001Z</time></trkpt><trkpt lat="14.561260666384609" lon="120.99399961023067"><ele>10.0</ele><time>2026-04-21T06:54:08.001Z</time></trkpt><trkpt lat="14.561301962620337" lon="120.99405023223083"><ele>10.0</ele><time>2026-04-21T06:54:11.001Z</time></trkpt><trkpt lat="14.561357774905083" lon="120.9941144837787"><ele>10.0</ele><time>2026-04-21T06:54:14.001Z</time></trkpt><trkpt lat="14.561359187395478" lon="120.99388144066957"><ele>10.0</ele><time>2026-04-21T06:54:19.001Z</time></trkpt><trkpt lat="14.5613295691827" lon="120.99381715635172"><ele>10.0</ele><time>2026-04-21T06:54:20.001Z</time></trkpt><trkpt lat="14.561286996438632" lon="120.99369476652984"><ele>10.0</ele><time>2026-04-21T06:54:22.001Z</time></trkpt><trkpt lat="14.561259985042165" lon="120.99361926467888"><ele>10.0</ele><time>2026-04-21T06:54:23.001Z</time></trkpt><trkpt lat="14.561235219731541" lon="120.9935412318097"><ele>10.0</ele><time>2026-04-21T06:54:24.001Z</time></trkpt><trkpt lat="14.561220530430385" lon="120.99345810941506"><ele>10.0</ele><time>2026-04-21T06:54:25.001Z</time></trkpt><trkpt lat="14.561202324692442" lon="120.99335814457703"><ele>10.0</ele><time>2026-04-21T06:54:26.001Z</time></trkpt><trkpt lat="14.561191685461422" lon="120.99328836162034"><ele>10.0</ele><time>2026-04-21T06:54:27.001Z</time></trkpt><trkpt lat="14.56117211670115" lon="120.99320913238222"><ele>10.0</ele><time>2026-04-21T06:54:28.001Z</time></trkpt><trkpt lat="14.561155851041532" lon="120.99312895068334"><ele>10.0</ele><time>2026-04-21T06:54:29.001Z</time></trkpt><trkpt lat="14.561140561933561" lon="120.99304747988809"><ele>10.0</ele><time>2026-04-21T06:54:30.001Z</time></trkpt><trkpt lat="14.561123865535043" lon="120.99297408554285"><ele>10.0</ele><time>2026-04-21T06:54:30.999Z</time></trkpt><trkpt lat="14.561092041189747" lon="120.99285467773096"><ele>10.0</ele><time>2026-04-21T06:54:32.999Z</time></trkpt><trkpt lat="14.561072891089685" lon="120.99278641601617"><ele>10.0</ele><time>2026-04-21T06:54:33.999Z</time></trkpt><trkpt lat="14.561056953305226" lon="120.99271753738714"><ele>10.0</ele><time>2026-04-21T06:54:34.999Z</time></trkpt><trkpt lat="14.561037877856764" lon="120.99265339898251"><ele>10.0</ele><time>2026-04-21T06:54:35.999Z</time></trkpt><trkpt lat="14.561017533457019" lon="120.99257845020018"><ele>10.0</ele><time>2026-04-21T06:54:36.999Z</time></trkpt><trkpt lat="14.560992060971467" lon="120.99249451441635"><ele>10.0</ele><time>2026-04-21T06:54:37.999Z</time></trkpt><trkpt lat="14.560967162355078" lon="120.99240606926467"><ele>10.0</ele><time>2026-04-21T06:54:38.999Z</time></trkpt><trkpt lat="14.560942775541703" lon="120.99231251340564"><ele>10.0</ele><time>2026-04-21T06:54:39.999Z</time></trkpt><trkpt lat="14.560915182567019" lon="120.99220773576872"><ele>10.0</ele><time>2026-04-21T06:54:40.999Z</time></trkpt><trkpt lat="14.560890863902252" lon="120.99210968259861"><ele>10.0</ele><time>2026-04-21T06:54:42Z</time></trkpt><trkpt lat="14.560860508256491" lon="120.99200015256812"><ele>10.0</ele><time>2026-04-21T06:54:43Z</time></trkpt><trkpt lat="14.560832228687778" lon="120.99188413539416"><ele>10.0</ele><time>2026-04-21T06:54:43.999Z</time></trkpt><trkpt lat="14.56080351630414" lon="120.99176216644024"><ele>10.0</ele><time>2026-04-21T06:54:45Z</time></trkpt><trkpt lat="14.5607737737786" lon="120.99164073374976"><ele>10.2</ele><time>2026-04-21T06:54:46Z</time></trkpt><trkpt lat="14.560747114933296" lon="120.99152734400748"><ele>10.4</ele><time>2026-04-21T06:54:47Z</time></trkpt><trkpt lat="14.56071558869633" lon="120.99140982471887"><ele>10.600000000000001</ele><time>2026-04-21T06:54:48Z</time></trkpt><trkpt lat="14.560693095493177" lon="120.99130944274707"><ele>10.8</ele><time>2026-04-21T06:54:49Z</time></trkpt><trkpt lat="14.560664868869896" lon="120.99121530186795"><ele>11.0</ele><time>2026-04-21T06:54:50Z</time></trkpt><trkpt lat="14.560645132372189" lon="120.99112551472031"><ele>11.0</ele><time>2026-04-21T06:54:51Z</time></trkpt><trkpt lat="14.560622802648531" lon="120.99103191987179"><ele>11.0</ele><time>2026-04-21T06:54:52Z</time></trkpt><trkpt lat="14.560599768874336" lon="120.99094108755335"><ele>11.0</ele><time>2026-04-21T06:54:53Z</time></trkpt><trkpt lat="14.560571776413674" lon="120.9908452761566"><ele>11.0</ele><time>2026-04-21T06:54:54Z</time></trkpt><trkpt lat="14.560551410493765" lon="120.99075347892558"><ele>11.0</ele><time>2026-04-21T06:54:55Z</time></trkpt><trkpt lat="14.560527388331609" lon="120.99065538174136"><ele>11.600000000000001</ele><time>2026-04-21T06:54:56Z</time></trkpt><trkpt lat="14.560505052872708" lon="120.99055761525906"><ele>12.2</ele><time>2026-04-21T06:54:57Z</time></trkpt><trkpt lat="14.560478573846007" lon="120.99045441180908"><ele>12.799999999999999</ele><time>2026-04-21T06:54:58Z</time></trkpt><trkpt lat="14.560453545123808" lon="120.9903453952119"><ele>13.399999999999999</ele><time>2026-04-21T06:54:59Z</time></trkpt><trkpt lat="14.560433478103281" lon="120.99024237477742"><ele>14.0</ele><time>2026-04-21T06:55:00Z</time></trkpt><trkpt lat="14.560412851834363" lon="120.9901431039842"><ele>14.000000000000002</ele><time>2026-04-21T06:55:01Z</time></trkpt><trkpt lat="14.5603864652479" lon="120.99004290618173"><ele>14.0</ele><time>2026-04-21T06:55:02Z</time></trkpt><trkpt lat="14.56036085494805" lon="120.98995149208167"><ele>14.0</ele><time>2026-04-21T06:55:03Z</time></trkpt><trkpt lat="14.560340386514167" lon="120.98988254447282"><ele>14.0</ele><time>2026-04-21T06:55:04Z</time></trkpt><trkpt lat="14.56031482850189" lon="120.98979609467918"><ele>14.000000000000002</ele><time>2026-04-21T06:55:06Z</time></trkpt><trkpt lat="14.560293241357046" lon="120.98972094408317"><ele>14.0</ele><time>2026-04-21T06:55:10Z</time></trkpt><trkpt lat="14.56029932021376" lon="120.98964257898089"><ele>13.833333333333334</ele><time>2026-04-21T06:55:14Z</time></trkpt><trkpt lat="14.560272572028381" lon="120.98956979217483"><ele>13.666666666666668</ele><time>2026-04-21T06:55:30Z</time></trkpt><trkpt lat="14.560256471099715" lon="120.98948822956665"><ele>13.5</ele><time>2026-04-21T06:55:32Z</time></trkpt><trkpt lat="14.560238747375934" lon="120.98941643089866"><ele>13.333333333333332</ele><time>2026-04-21T06:55:33Z</time></trkpt><trkpt lat="14.56020680556952" lon="120.9893253966628"><ele>13.166666666666666</ele><time>2026-04-21T06:55:34Z</time></trkpt><trkpt lat="14.560166845451269" lon="120.98922148309735"><ele>13.0</ele><time>2026-04-21T06:55:35Z</time></trkpt><trkpt lat="14.56013460539391" lon="120.9891210541614"><ele>13.0</ele><time>2026-04-21T06:55:36Z</time></trkpt><trkpt lat="14.560103667826294" lon="120.98900968651398"><ele>13.0</ele><time>2026-04-21T06:55:37Z</time></trkpt><trkpt lat="14.560068042318926" lon="120.98889143605518"><ele>13.0</ele><time>2026-04-21T06:55:38Z</time></trkpt><trkpt lat="14.560037237712917" lon="120.98877867937641"><ele>13.0</ele><time>2026-04-21T06:55:39Z</time></trkpt><trkpt lat="14.560009938537517" lon="120.98867257137148"><ele>13.0</ele><time>2026-04-21T06:55:40Z</time></trkpt><trkpt lat="14.559987666652223" lon="120.98856668213291"><ele>13.0</ele><time>2026-04-21T06:55:41Z</time></trkpt><trkpt lat="14.559962951855242" lon="120.98847499031427"><ele>13.0</ele><time>2026-04-21T06:55:42Z</time></trkpt><trkpt lat="14.559936109957661" lon="120.98837830386414"><ele>13.0</ele><time>2026-04-21T06:55:43Z</time></trkpt><trkpt lat="14.559907283113509" lon="120.98828633907284"><ele>13.0</ele><time>2026-04-21T06:55:44Z</time></trkpt><trkpt lat="14.559876723640139" lon="120.98818703746949"><ele>13.0</ele><time>2026-04-21T06:55:45Z</time></trkpt><trkpt lat="14.559842818348354" lon="120.98808449711684"><ele>13.0</ele><time>2026-04-21T06:55:46Z</time></trkpt><trkpt lat="14.559826926760197" lon="120.98797410551342"><ele>13.0</ele><time>2026-04-21T06:55:47Z</time></trkpt><trkpt lat="14.559808392606648" lon="120.98785780399805"><ele>13.0</ele><time>2026-04-21T06:55:48Z</time></trkpt><trkpt lat="14.55978844766373" lon="120.98773723980173"><ele>13.0</ele><time>2026-04-21T06:55:49Z</time></trkpt><trkpt lat="14.559761098894244" lon="120.98764038107095"><ele>12.999999999999998</ele><time>2026-04-21T06:55:50Z</time></trkpt><trkpt lat="14.559730303642386" lon="120.987558364591"><ele>13.0</ele><time>2026-04-21T06:55:51Z</time></trkpt><trkpt lat="14.559703395438515" lon="120.98748981734869"><ele>13.0</ele><time>2026-04-21T06:57:40Z</time></trkpt><trkpt lat="14.559675626325731" lon="120.98736197461498"><ele>13.0</ele><time>2026-04-21T06:57:42Z</time></trkpt><trkpt lat="14.559633731021504" lon="120.9872927005676"><ele>12.999999999999998</ele><time>2026-04-21T06:57:43Z</time></trkpt><trkpt lat="14.559628587221512" lon="120.98722384052765"><ele>13.0</ele><time>2026-04-21T06:57:44Z</time></trkpt><trkpt lat="14.559610295691007" lon="120.98710815150672"><ele>12.0</ele><time>2026-04-21T06:57:46Z</time></trkpt><trkpt lat="14.559360645083082" lon="120.98713247269211"><ele>11.0</ele><time>2026-04-21T06:57:48Z</time></trkpt><trkpt lat="14.559292406139223" lon="120.98714858805265"><ele>10.0</ele><time>2026-04-21T06:57:49Z</time></trkpt><trkpt lat="14.559208582079325" lon="120.98718682184455"><ele>9.0</ele><time>2026-04-21T06:57:50Z</time></trkpt><trkpt lat="14.559113274910228" lon="120.98723423939428"><ele>9.0</ele><time>2026-04-21T06:57:51Z</time></trkpt><trkpt lat="14.559021214357697" lon="120.98727474069184"><ele>9.0</ele><time>2026-04-21T06:57:52Z</time></trkpt><trkpt lat="14.558907439223999" lon="120.98732584778126"><ele>9.0</ele><time>2026-04-21T06:57:53Z</time></trkpt><trkpt lat="14.558801288233534" lon="120.98737131774432"><ele>9.0</ele><time>2026-04-21T06:57:54Z</time></trkpt><trkpt lat="14.558684584838888" lon="120.98742639805585"><ele>9.0</ele><time>2026-04-21T06:57:55Z</time></trkpt><trkpt lat="14.55856088698286" lon="120.98747973304873"><ele>9.0</ele><time>2026-04-21T06:57:56Z</time></trkpt><trkpt lat="14.55842360780952" lon="120.98752911582234"><ele>9.0</ele><time>2026-04-21T06:57:57Z</time></trkpt><trkpt lat="14.558284833613426" lon="120.98757468766338"><ele>9.0</ele><time>2026-04-21T06:57:58Z</time></trkpt><trkpt lat="14.558147131299677" lon="120.98761892587278"><ele>8.0</ele><time>2026-04-21T06:57:59Z</time></trkpt><trkpt lat="14.55799731478068" lon="120.98766882931439"><ele>7.0</ele><time>2026-04-21T06:58:00Z</time></trkpt><trkpt lat="14.557857695254649" lon="120.9877148703413"><ele>6.0</ele><time>2026-04-21T06:58:01Z</time></trkpt><trkpt lat="14.557702341231485" lon="120.98776612268051"><ele>6.0</ele><time>2026-04-21T06:58:02Z</time></trkpt><trkpt lat="14.557546798449934" lon="120.98780821507299"><ele>6.0</ele><time>2026-04-21T06:58:03Z</time></trkpt><trkpt lat="14.557389514121878" lon="120.98786355402515"><ele>6.0</ele><time>2026-04-21T06:58:04Z</time></trkpt><trkpt lat="14.557240702897309" lon="120.98791175503112"><ele>6.0</ele><time>2026-04-21T06:58:05Z</time></trkpt><trkpt lat="14.55709007478285" lon="120.98796103377569"><ele>6.0</ele><time>2026-04-21T06:58:06Z</time></trkpt><trkpt lat="14.556963342641826" lon="120.98799818307215"><ele>6.0</ele><time>2026-04-21T06:58:07Z</time></trkpt><trkpt lat="14.556840676568326" lon="120.98803780981837"><ele>6.0</ele><time>2026-04-21T06:58:08Z</time></trkpt><trkpt lat="14.556704668741077" lon="120.98807474915147"><ele>6.75</ele><time>2026-04-21T06:58:09Z</time></trkpt><trkpt lat="14.55658429284338" lon="120.9881108038271"><ele>7.5</ele><time>2026-04-21T06:58:10Z</time></trkpt><trkpt lat="14.556466915648208" lon="120.98814600786147"><ele>8.25</ele><time>2026-04-21T06:58:11Z</time></trkpt><trkpt lat="14.556358652634005" lon="120.98817601042091"><ele>9.0</ele><time>2026-04-21T06:58:12Z</time></trkpt><trkpt lat="14.556247051365865" lon="120.98820950848945"><ele>8.8</ele><time>2026-04-21T06:58:13Z</time></trkpt><trkpt lat="14.556142516643774" lon="120.98824314651638"><ele>8.600000000000001</ele><time>2026-04-21T06:58:14Z</time></trkpt><trkpt lat="14.556045870414449" lon="120.98827634686383"><ele>8.4</ele><time>2026-04-21T06:58:15Z</time></trkpt><trkpt lat="14.555939453393425" lon="120.98831289961595"><ele>8.200000000000001</ele><time>2026-04-21T06:58:16Z</time></trkpt><trkpt lat="14.555854777050092" lon="120.98833834616546"><ele>8.0</ele><time>2026-04-21T06:58:17Z</time></trkpt><trkpt lat="14.555771056498212" lon="120.98836621022473"><ele>7.999999999999999</ele><time>2026-04-21T06:58:18Z</time></trkpt><trkpt lat="14.555697660757518" lon="120.98838709123909"><ele>8.0</ele><time>2026-04-21T06:58:19.001Z</time></trkpt><trkpt lat="14.555624308245058" lon="120.98840735864161"><ele>8.0</ele><time>2026-04-21T06:58:20.001Z</time></trkpt><trkpt lat="14.555536652429305" lon="120.98844138615557"><ele>8.0</ele><time>2026-04-21T06:58:21.001Z</time></trkpt><trkpt lat="14.555464296833705" lon="120.98845856067395"><ele>7.999999999999999</ele><time>2026-04-21T06:58:22.001Z</time></trkpt><trkpt lat="14.555365215367853" lon="120.98849422421715"><ele>8.0</ele><time>2026-04-21T06:58:23.001Z</time></trkpt><trkpt lat="14.555283890521638" lon="120.98852226230822"><ele>7.6000000000000005</ele><time>2026-04-21T06:58:24.001Z</time></trkpt><trkpt lat="14.555195036943898" lon="120.98854645770503"><ele>7.200000000000001</ele><time>2026-04-21T06:58:25.001Z</time></trkpt><trkpt lat="14.555096635285073" lon="120.98857291545927"><ele>6.8</ele><time>2026-04-21T06:58:26.001Z</time></trkpt><trkpt lat="14.55500447962942" lon="120.98860304584332"><ele>6.4</ele><time>2026-04-21T06:58:27.001Z</time></trkpt><trkpt lat="14.554913856598043" lon="120.98862229279835"><ele>6.0</ele><time>2026-04-21T06:58:28.001Z</time></trkpt><trkpt lat="14.554835515461258" lon="120.98864546991071"><ele>6.0</ele><time>2026-04-21T06:58:29.001Z</time></trkpt><trkpt lat="14.554732096515554" lon="120.98867159758747"><ele>6.0</ele><time>2026-04-21T06:58:30.001Z</time></trkpt><trkpt lat="14.554644624415543" lon="120.98869402233755"><ele>6.0</ele><time>2026-04-21T06:58:31.001Z</time></trkpt><trkpt lat="14.554538511219876" lon="120.98873140362205"><ele>6.0</ele><time>2026-04-21T06:58:32.001Z</time></trkpt><trkpt lat="14.554440374670227" lon="120.9887628918603"><ele>6.0</ele><time>2026-04-21T06:58:33.001Z</time></trkpt><trkpt lat="14.554343726605959" lon="120.98878979929927"><ele>6.166666666666667</ele><time>2026-04-21T06:58:34.001Z</time></trkpt><trkpt lat="14.554259692373149" lon="120.98881785944451"><ele>6.333333333333334</ele><time>2026-04-21T06:58:35.001Z</time></trkpt><trkpt lat="14.5541871599274" lon="120.98884687237874"><ele>6.5</ele><time>2026-04-21T06:58:36.001Z</time></trkpt><trkpt lat="14.554116199909723" lon="120.98886577824966"><ele>6.666666666666667</ele><time>2026-04-21T06:58:37.001Z</time></trkpt><trkpt lat="14.554036886283873" lon="120.98889132424478"><ele>6.833333333333334</ele><time>2026-04-21T06:58:38.001Z</time></trkpt><trkpt lat="14.553968876869442" lon="120.98891544212347"><ele>7.0</ele><time>2026-04-21T06:58:39.001Z</time></trkpt><trkpt lat="14.553880202545908" lon="120.98894176856294"><ele>7.0</ele><time>2026-04-21T06:58:40.001Z</time></trkpt><trkpt lat="14.553790964220306" lon="120.98896994556087"><ele>6.999999999999999</ele><time>2026-04-21T06:58:41.001Z</time></trkpt><trkpt lat="14.553708790120803" lon="120.98899792976586"><ele>6.999999999999999</ele><time>2026-04-21T06:58:41.999Z</time></trkpt><trkpt lat="14.553646578684187" lon="120.98901761568804"><ele>7.0</ele><time>2026-04-21T06:58:42.999Z</time></trkpt><trkpt lat="14.55354221829782" lon="120.98905707798808"><ele>7.0</ele><time>2026-04-21T06:58:44.999Z</time></trkpt><trkpt lat="14.553433276590896" lon="120.98909418570389"><ele>6.8</ele><time>2026-04-21T06:58:46.999Z</time></trkpt><trkpt lat="14.553355700048359" lon="120.98911911457454"><ele>6.6</ele><time>2026-04-21T06:58:48.999Z</time></trkpt><trkpt lat="14.553273269193612" lon="120.98914386272551"><ele>6.3999999999999995</ele><time>2026-04-21T06:58:50.999Z</time></trkpt><trkpt lat="14.553184617181547" lon="120.98917786446769"><ele>6.199999999999999</ele><time>2026-04-21T06:58:52.999Z</time></trkpt><trkpt lat="14.553080643187908" lon="120.98921625131243"><ele>6.0</ele><time>2026-04-21T06:58:54.999Z</time></trkpt><trkpt lat="14.552973158719489" lon="120.989257279201"><ele>6.5</ele><time>2026-04-21T06:58:56.999Z</time></trkpt><trkpt lat="14.55290777097433" lon="120.98928144270688"><ele>7.0</ele><time>2026-04-21T06:58:57.999Z</time></trkpt><trkpt lat="14.552835662089933" lon="120.98930670063167"><ele>7.5</ele><time>2026-04-21T06:58:58.999Z</time></trkpt><trkpt lat="14.552771073924037" lon="120.9893374737728"><ele>8.0</ele><time>2026-04-21T06:58:59.999Z</time></trkpt><trkpt lat="14.55270568429506" lon="120.98936442444692"><ele>8.5</ele><time>2026-04-21T06:59:00.999Z</time></trkpt><trkpt lat="14.552636628111308" lon="120.98938625110904"><ele>9.0</ele><time>2026-04-21T06:59:01.999Z</time></trkpt><trkpt lat="14.552529245539684" lon="120.98941338144634"><ele>9.2</ele><time>2026-04-21T06:59:02.999Z</time></trkpt><trkpt lat="14.552445078759076" lon="120.98944081607289"><ele>9.4</ele><time>2026-04-21T06:59:03.999Z</time></trkpt><trkpt lat="14.552356132968347" lon="120.98946686285709"><ele>9.6</ele><time>2026-04-21T06:59:05Z</time></trkpt><trkpt lat="14.552267516626491" lon="120.98949965518193"><ele>9.8</ele><time>2026-04-21T06:59:06Z</time></trkpt><trkpt lat="14.55217690950988" lon="120.98952861687201"><ele>10.0</ele><time>2026-04-21T06:59:07Z</time></trkpt><trkpt lat="14.552088128130865" lon="120.98955858761202"><ele>9.75</ele><time>2026-04-21T06:59:08Z</time></trkpt><trkpt lat="14.551992727205409" lon="120.98958153540394"><ele>9.5</ele><time>2026-04-21T06:59:09Z</time></trkpt><trkpt lat="14.551893689513655" lon="120.98960602903873"><ele>9.25</ele><time>2026-04-21T06:59:10Z</time></trkpt><trkpt lat="14.551775082013997" lon="120.98963951065544"><ele>9.0</ele><time>2026-04-21T06:59:11Z</time></trkpt><trkpt lat="14.551649484986958" lon="120.9896731881073"><ele>9.0</ele><time>2026-04-21T06:59:12Z</time></trkpt><trkpt lat="14.551522875098525" lon="120.98970201921566"><ele>9.0</ele><time>2026-04-21T06:59:13Z</time></trkpt><trkpt lat="14.551401902514007" lon="120.98973240382082"><ele>9.0</ele><time>2026-04-21T06:59:14Z</time></trkpt><trkpt lat="14.551285812691251" lon="120.98975837900913"><ele>9.0</ele><time>2026-04-21T06:59:15Z</time></trkpt><trkpt lat="14.55118811648817" lon="120.98977959595251"><ele>8.6</ele><time>2026-04-21T06:59:16Z</time></trkpt><trkpt lat="14.551097740657168" lon="120.9898026259387"><ele>8.2</ele><time>2026-04-21T06:59:17Z</time></trkpt><trkpt lat="14.550994627683075" lon="120.98982937489171"><ele>7.799999999999999</ele><time>2026-04-21T06:59:18Z</time></trkpt><trkpt lat="14.550907463818607" lon="120.98985209497182"><ele>7.3999999999999995</ele><time>2026-04-21T06:59:19Z</time></trkpt><trkpt lat="14.55081042253374" lon="120.98987513842246"><ele>7.0</ele><time>2026-04-21T06:59:20Z</time></trkpt><trkpt lat="14.550704180217695" lon="120.98990176650398"><ele>7.0</ele><time>2026-04-21T06:59:21Z</time></trkpt><trkpt lat="14.55060255972907" lon="120.98992535579164"><ele>6.999999999999999</ele><time>2026-04-21T06:59:22Z</time></trkpt><trkpt lat="14.550499356285687" lon="120.98994530780003"><ele>6.999999999999999</ele><time>2026-04-21T06:59:23Z</time></trkpt><trkpt lat="14.550398546169939" lon="120.98997336078968"><ele>7.0</ele><time>2026-04-21T06:59:24Z</time></trkpt><trkpt lat="14.550298246759331" lon="120.98999212006599"><ele>7.0</ele><time>2026-04-21T06:59:25Z</time></trkpt><trkpt lat="14.550195037721483" lon="120.99001926697001"><ele>7.5</ele><time>2026-04-21T06:59:26Z</time></trkpt><trkpt lat="14.550092710360959" lon="120.99003604961962"><ele>8.0</ele><time>2026-04-21T06:59:27Z</time></trkpt><trkpt lat="14.549978048505686" lon="120.99006618053153"><ele>8.5</ele><time>2026-04-21T06:59:28Z</time></trkpt><trkpt lat="14.549859234288338" lon="120.99010046970265"><ele>9.0</ele><time>2026-04-21T06:59:29Z</time></trkpt><trkpt lat="14.549725350060122" lon="120.99012792266436"><ele>9.0</ele><time>2026-04-21T06:59:30Z</time></trkpt><trkpt lat="14.549579297381214" lon="120.99016866608133"><ele>9.0</ele><time>2026-04-21T06:59:31Z</time></trkpt><trkpt lat="14.54942313305785" lon="120.99021061936612"><ele>9.0</ele><time>2026-04-21T06:59:32Z</time></trkpt><trkpt lat="14.549283616134305" lon="120.99023524121975"><ele>8.75</ele><time>2026-04-21T06:59:33Z</time></trkpt><trkpt lat="14.549147027617504" lon="120.99026567096067"><ele>8.5</ele><time>2026-04-21T06:59:34Z</time></trkpt><trkpt lat="14.549025194464344" lon="120.99029715917604"><ele>8.25</ele><time>2026-04-21T06:59:35Z</time></trkpt><trkpt lat="14.548913198962515" lon="120.9903231896357"><ele>8.0</ele><time>2026-04-21T06:59:36Z</time></trkpt><trkpt lat="14.548796529800285" lon="120.99035014596872"><ele>9.75</ele><time>2026-04-21T06:59:37Z</time></trkpt><trkpt lat="14.548697455158932" lon="120.99037365875975"><ele>11.5</ele><time>2026-04-21T06:59:38Z</time></trkpt><trkpt lat="14.548597825782517" lon="120.9903988224821"><ele>13.25</ele><time>2026-04-21T06:59:39Z</time></trkpt><trkpt lat="14.548481287426211" lon="120.99043047736401"><ele>15.0</ele><time>2026-04-21T06:59:40Z</time></trkpt><trkpt lat="14.54834590152558" lon="120.99046760560162"><ele>15.0</ele><time>2026-04-21T06:59:41Z</time></trkpt><trkpt lat="14.548194239897725" lon="120.99048432274995"><ele>15.0</ele><time>2026-04-21T06:59:42Z</time></trkpt><trkpt lat="14.548084989443293" lon="120.99052258018489"><ele>15.0</ele><time>2026-04-21T06:59:43Z</time></trkpt><trkpt lat="14.547948238093825" lon="120.99055473793149"><ele>15.0</ele><time>2026-04-21T06:59:44Z</time></trkpt><trkpt lat="14.547807465834927" lon="120.99058920870586"><ele>13.25</ele><time>2026-04-21T06:59:45Z</time></trkpt><trkpt lat="14.547666422989504" lon="120.99062620845997"><ele>11.5</ele><time>2026-04-21T06:59:46Z</time></trkpt><trkpt lat="14.547525714970034" lon="120.99065975363887"><ele>9.75</ele><time>2026-04-21T06:59:47Z</time></trkpt><trkpt lat="14.54737613747808" lon="120.99069362868876"><ele>8.0</ele><time>2026-04-21T06:59:48Z</time></trkpt><trkpt lat="14.54723435765841" lon="120.99072540342557"><ele>8.0</ele><time>2026-04-21T06:59:49Z</time></trkpt><trkpt lat="14.547088472241022" lon="120.99076657544133"><ele>8.0</ele><time>2026-04-21T06:59:50Z</time></trkpt><trkpt lat="14.546943774545463" lon="120.99080581866356"><ele>8.0</ele><time>2026-04-21T06:59:51Z</time></trkpt><trkpt lat="14.546802906672271" lon="120.99083688481512"><ele>8.0</ele><time>2026-04-21T06:59:52Z</time></trkpt><trkpt lat="14.546657969599071" lon="120.99087401902979"><ele>9.333333333333332</ele><time>2026-04-21T06:59:53Z</time></trkpt><trkpt lat="14.546516012735813" lon="120.99090606157007"><ele>10.666666666666666</ele><time>2026-04-21T06:59:54Z</time></trkpt><trkpt lat="14.546367565370963" lon="120.99094349897516"><ele>12.0</ele><time>2026-04-21T06:59:55Z</time></trkpt><trkpt lat="14.546219249670349" lon="120.99098145887554"><ele>10.333333333333334</ele><time>2026-04-21T06:59:56Z</time></trkpt><trkpt lat="14.546061690084382" lon="120.99102376053534"><ele>8.666666666666668</ele><time>2026-04-21T06:59:57Z</time></trkpt><trkpt lat="14.545920883469462" lon="120.9910520139456"><ele>7.0</ele><time>2026-04-21T06:59:58Z</time></trkpt><trkpt lat="14.545772029337408" lon="120.99108858888685"><ele>7.0</ele><time>2026-04-21T06:59:59Z</time></trkpt><trkpt lat="14.545620669288107" lon="120.99112748610716"><ele>7.0</ele><time>2026-04-21T07:00:00Z</time></trkpt><trkpt lat="14.54545469487023" lon="120.99115116902738"><ele>7.0</ele><time>2026-04-21T07:00:01Z</time></trkpt><trkpt lat="14.545304244935371" lon="120.99118672995783"><ele>8.333333333333334</ele><time>2026-04-21T07:00:02Z</time></trkpt><trkpt lat="14.545163497926383" lon="120.99123586540367"><ele>9.666666666666666</ele><time>2026-04-21T07:00:03Z</time></trkpt><trkpt lat="14.545006689426533" lon="120.9912726774432"><ele>11.0</ele><time>2026-04-21T07:00:04Z</time></trkpt><trkpt lat="14.5448550152069" lon="120.99130502756668"><ele>11.0</ele><time>2026-04-21T07:00:05Z</time></trkpt><trkpt lat="14.54470640027821" lon="120.99132984270435"><ele>11.0</ele><time>2026-04-21T07:00:06Z</time></trkpt><trkpt lat="14.544548239390862" lon="120.99135656847086"><ele>11.0</ele><time>2026-04-21T07:00:07Z</time></trkpt><trkpt lat="14.544383350253138" lon="120.99138835194802"><ele>10.0</ele><time>2026-04-21T07:00:08Z</time></trkpt><trkpt lat="14.54422822039593" lon="120.99141611162305"><ele>9.0</ele><time>2026-04-21T07:00:09Z</time></trkpt><trkpt lat="14.544068382954606" lon="120.99144606210714"><ele>8.0</ele><time>2026-04-21T07:00:10Z</time></trkpt><trkpt lat="14.54391469983229" lon="120.99147004709843"><ele>8.0</ele><time>2026-04-21T07:00:11Z</time></trkpt><trkpt lat="14.54375566525706" lon="120.99150194003906"><ele>8.0</ele><time>2026-04-21T07:00:12.001Z</time></trkpt><trkpt lat="14.543608096464672" lon="120.99152791535515"><ele>8.0</ele><time>2026-04-21T07:00:13.001Z</time></trkpt><trkpt lat="14.543455922500197" lon="120.9915533806843"><ele>7.5</ele><time>2026-04-21T07:00:14.001Z</time></trkpt><trkpt lat="14.543312417602886" lon="120.99157772070421"><ele>7.0</ele><time>2026-04-21T07:00:15.001Z</time></trkpt><trkpt lat="14.543173231693668" lon="120.9916017615812"><ele>6.5</ele><time>2026-04-21T07:00:16.001Z</time></trkpt><trkpt lat="14.543038869201183" lon="120.9916249315662"><ele>6.0</ele><time>2026-04-21T07:00:17.001Z</time></trkpt><trkpt lat="14.542918928792181" lon="120.99164638088183"><ele>5.75</ele><time>2026-04-21T07:00:18.001Z</time></trkpt><trkpt lat="14.542801699923887" lon="120.99166701175683"><ele>5.5</ele><time>2026-04-21T07:00:19.001Z</time></trkpt><trkpt lat="14.542688201162482" lon="120.99168727613113"><ele>5.25</ele><time>2026-04-21T07:00:20.001Z</time></trkpt><trkpt lat="14.542581499318468" lon="120.9917056967391"><ele>5.0</ele><time>2026-04-21T07:00:21.001Z</time></trkpt><trkpt lat="14.542457971108751" lon="120.99172897266519"><ele>5.5</ele><time>2026-04-21T07:00:22.001Z</time></trkpt><trkpt lat="14.542330024608754" lon="120.99175224555596"><ele>6.0</ele><time>2026-04-21T07:00:23.001Z</time></trkpt><trkpt lat="14.542201150726257" lon="120.99177333265416"><ele>6.5</ele><time>2026-04-21T07:00:24.001Z</time></trkpt><trkpt lat="14.542068266772588" lon="120.99179778890289"><ele>7.0</ele><time>2026-04-21T07:00:25.001Z</time></trkpt><trkpt lat="14.541930974562023" lon="120.99182550765873"><ele>7.0</ele><time>2026-04-21T07:00:26.001Z</time></trkpt><trkpt lat="14.541804949409952" lon="120.99184671475707"><ele>7.0</ele><time>2026-04-21T07:00:27.001Z</time></trkpt><trkpt lat="14.54168406488415" lon="120.99186914373426"><ele>7.0</ele><time>2026-04-21T07:00:28.001Z</time></trkpt><trkpt lat="14.541567221639891" lon="120.9918889691382"><ele>7.0</ele><time>2026-04-21T07:00:29.001Z</time></trkpt><trkpt lat="14.541460826335783" lon="120.99190868839747"><ele>7.0</ele><time>2026-04-21T07:00:30.001Z</time></trkpt><trkpt lat="14.541367397538904" lon="120.9919237032052"><ele>6.999999999999999</ele><time>2026-04-21T07:00:31.001Z</time></trkpt><trkpt lat="14.541273348936212" lon="120.991942427472"><ele>6.999999999999999</ele><time>2026-04-21T07:00:32.001Z</time></trkpt><trkpt lat="14.541163064625094" lon="120.99196082645214"><ele>7.0</ele><time>2026-04-21T07:00:33.001Z</time></trkpt><trkpt lat="14.541044401620317" lon="120.99197886986029"><ele>7.0</ele><time>2026-04-21T07:00:34.001Z</time></trkpt><trkpt lat="14.540914154859598" lon="120.99200229935595"><ele>7.5</ele><time>2026-04-21T07:00:35.001Z</time></trkpt><trkpt lat="14.540788976154783" lon="120.99202106720942"><ele>8.0</ele><time>2026-04-21T07:00:36.001Z</time></trkpt><trkpt lat="14.540646071486067" lon="120.9920504506032"><ele>8.5</ele><time>2026-04-21T07:00:37.001Z</time></trkpt><trkpt lat="14.54049431769844" lon="120.99205267866783"><ele>9.0</ele><time>2026-04-21T07:00:38.001Z</time></trkpt><trkpt lat="14.540368117342823" lon="120.99208331854665"><ele>9.0</ele><time>2026-04-21T07:00:39.001Z</time></trkpt><trkpt lat="14.540225665493894" lon="120.99209935588769"><ele>9.0</ele><time>2026-04-21T07:00:40.001Z</time></trkpt><trkpt lat="14.540075531207709" lon="120.99210590056981"><ele>9.0</ele><time>2026-04-21T07:00:41.001Z</time></trkpt><trkpt lat="14.539940729923979" lon="120.99213543075096"><ele>9.0</ele><time>2026-04-21T07:00:42.001Z</time></trkpt><trkpt lat="14.5398252031558" lon="120.99214306911924"><ele>9.0</ele><time>2026-04-21T07:00:43.001Z</time></trkpt><trkpt lat="14.539721626159428" lon="120.99215527345618"><ele>9.0</ele><time>2026-04-21T07:00:44.001Z</time></trkpt><trkpt lat="14.539615912422667" lon="120.99214706273054"><ele>9.0</ele><time>2026-04-21T07:00:45.001Z</time></trkpt><trkpt lat="14.539500725965082" lon="120.99214112559596"><ele>9.0</ele><time>2026-04-21T07:00:46.001Z</time></trkpt><trkpt lat="14.539392047554868" lon="120.99215277105777"><ele>9.0</ele><time>2026-04-21T07:00:47.001Z</time></trkpt><trkpt lat="14.539279517905515" lon="120.99219509478219"><ele>8.25</ele><time>2026-04-21T07:00:47.999Z</time></trkpt><trkpt lat="14.53916931007431" lon="120.99218720613727"><ele>7.5</ele><time>2026-04-21T07:00:48.999Z</time></trkpt><trkpt lat="14.539039195507828" lon="120.99221028435257"><ele>6.75</ele><time>2026-04-21T07:00:49.999Z</time></trkpt><trkpt lat="14.538907813436799" lon="120.9922305834675"><ele>6.0</ele><time>2026-04-21T07:00:50.999Z</time></trkpt><trkpt lat="14.538774878408274" lon="120.99224418013615"><ele>6.75</ele><time>2026-04-21T07:00:51.999Z</time></trkpt><trkpt lat="14.538634870079553" lon="120.99226057090426"><ele>7.5</ele><time>2026-04-21T07:00:52.999Z</time></trkpt><trkpt lat="14.538495108137806" lon="120.99228580734186"><ele>8.25</ele><time>2026-04-21T07:00:53.999Z</time></trkpt><trkpt lat="14.538360829699544" lon="120.99229977342493"><ele>9.0</ele><time>2026-04-21T07:00:54.999Z</time></trkpt><trkpt lat="14.538235763089864" lon="120.99231977414395"><ele>9.0</ele><time>2026-04-21T07:00:55.999Z</time></trkpt><trkpt lat="14.538120036696425" lon="120.99233844389113"><ele>9.0</ele><time>2026-04-21T07:00:56.999Z</time></trkpt><trkpt lat="14.537995891724814" lon="120.99234231581491"><ele>9.0</ele><time>2026-04-21T07:00:57.999Z</time></trkpt><trkpt lat="14.537858340354434" lon="120.99235286453462"><ele>9.0</ele><time>2026-04-21T07:00:58.999Z</time></trkpt><trkpt lat="14.537712696284688" lon="120.9923720678929"><ele>8.0</ele><time>2026-04-21T07:00:59.999Z</time></trkpt><trkpt lat="14.537568752712925" lon="120.99238889410337"><ele>7.0</ele><time>2026-04-21T07:01:00.999Z</time></trkpt><trkpt lat="14.537430750583214" lon="120.99240234985831"><ele>6.0</ele><time>2026-04-21T07:01:01.999Z</time></trkpt><trkpt lat="14.537284372389415" lon="120.99242090947374"><ele>5.0</ele><time>2026-04-21T07:01:02.999Z</time></trkpt><trkpt lat="14.537139404633846" lon="120.99243915815812"><ele>4.75</ele><time>2026-04-21T07:01:03.999Z</time></trkpt><trkpt lat="14.536998493131755" lon="120.99245644828724"><ele>4.5</ele><time>2026-04-21T07:01:04.999Z</time></trkpt><trkpt lat="14.53685621909597" lon="120.99247468423297"><ele>4.25</ele><time>2026-04-21T07:01:05.999Z</time></trkpt><trkpt lat="14.536719452073909" lon="120.99249201164173"><ele>4.0</ele><time>2026-04-21T07:01:06.999Z</time></trkpt><trkpt lat="14.53659228428284" lon="120.99250664702909"><ele>5.25</ele><time>2026-04-21T07:01:07.999Z</time></trkpt><trkpt lat="14.536464236901322" lon="120.99252115265497"><ele>6.5</ele><time>2026-04-21T07:01:09Z</time></trkpt><trkpt lat="14.5363157135334" lon="120.99253846954747"><ele>7.75</ele><time>2026-04-21T07:01:10Z</time></trkpt><trkpt lat="14.536192554690277" lon="120.99255304428388"><ele>9.0</ele><time>2026-04-21T07:01:11Z</time></trkpt><trkpt lat="14.536078533525519" lon="120.99256650163584"><ele>9.0</ele><time>2026-04-21T07:01:12Z</time></trkpt><trkpt lat="14.535966261892634" lon="120.99258062757963"><ele>9.0</ele><time>2026-04-21T07:01:13Z</time></trkpt><trkpt lat="14.53584336245192" lon="120.9925944832353"><ele>9.0</ele><time>2026-04-21T07:01:14Z</time></trkpt><trkpt lat="14.535729723099355" lon="120.99260703928447"><ele>9.0</ele><time>2026-04-21T07:01:15Z</time></trkpt><trkpt lat="14.535625568622136" lon="120.99262174866783"><ele>9.0</ele><time>2026-04-21T07:01:16Z</time></trkpt><trkpt lat="14.535509767103136" lon="120.99263694137915"><ele>9.0</ele><time>2026-04-21T07:01:17Z</time></trkpt><trkpt lat="14.535399014074349" lon="120.9926491922999"><ele>9.0</ele><time>2026-04-21T07:01:18Z</time></trkpt><trkpt lat="14.535287096952576" lon="120.99266080315157"><ele>9.0</ele><time>2026-04-21T07:01:19Z</time></trkpt><trkpt lat="14.535176851885174" lon="120.99267331231661"><ele>9.0</ele><time>2026-04-21T07:01:20Z</time></trkpt><trkpt lat="14.53506198759839" lon="120.99268532404085"><ele>9.0</ele><time>2026-04-21T07:01:21Z</time></trkpt><trkpt lat="14.534931876191544" lon="120.99270227100376"><ele>9.0</ele><time>2026-04-21T07:01:22Z</time></trkpt><trkpt lat="14.534799263916636" lon="120.99271646021266"><ele>9.0</ele><time>2026-04-21T07:01:23Z</time></trkpt><trkpt lat="14.53467168397071" lon="120.99272608714844"><ele>8.5</ele><time>2026-04-21T07:01:24Z</time></trkpt><trkpt lat="14.534519201707221" lon="120.99273908445298"><ele>8.0</ele><time>2026-04-21T07:01:25Z</time></trkpt><trkpt lat="14.53438420973989" lon="120.99275520677888"><ele>7.5</ele><time>2026-04-21T07:01:26Z</time></trkpt><trkpt lat="14.534245804470144" lon="120.99277055853962"><ele>7.0</ele><time>2026-04-21T07:01:27Z</time></trkpt><trkpt lat="14.534104454831338" lon="120.99278912520064"><ele>7.0</ele><time>2026-04-21T07:01:28Z</time></trkpt><trkpt lat="14.533952138128356" lon="120.99280926218314"><ele>7.0</ele><time>2026-04-21T07:01:29Z</time></trkpt><trkpt lat="14.53378500937953" lon="120.99282949148915"><ele>7.0</ele><time>2026-04-21T07:01:30Z</time></trkpt><trkpt lat="14.533629375090063" lon="120.9928490990745"><ele>9.0</ele><time>2026-04-21T07:01:31Z</time></trkpt><trkpt lat="14.533464809728589" lon="120.99287330703135"><ele>11.0</ele><time>2026-04-21T07:01:32Z</time></trkpt><trkpt lat="14.533290814602784" lon="120.99289071837978"><ele>13.0</ele><time>2026-04-21T07:01:33Z</time></trkpt><trkpt lat="14.53313030578235" lon="120.99290284920271"><ele>13.0</ele><time>2026-04-21T07:01:34Z</time></trkpt><trkpt lat="14.532990067251184" lon="120.99292817795242"><ele>13.0</ele><time>2026-04-21T07:01:35Z</time></trkpt><trkpt lat="14.532848314210698" lon="120.99294303141086"><ele>13.0</ele><time>2026-04-21T07:01:36Z</time></trkpt><trkpt lat="14.532704987371467" lon="120.99296364866878"><ele>13.0</ele><time>2026-04-21T07:01:37Z</time></trkpt><trkpt lat="14.532560810158943" lon="120.99298061164187"><ele>11.75</ele><time>2026-04-21T07:01:38Z</time></trkpt><trkpt lat="14.532419260329352" lon="120.99299888947479"><ele>10.5</ele><time>2026-04-21T07:01:39Z</time></trkpt><trkpt lat="14.53227764008202" lon="120.99301598478583"><ele>9.25</ele><time>2026-04-21T07:01:40Z</time></trkpt><trkpt lat="14.532150187495946" lon="120.99302625395786"><ele>8.0</ele><time>2026-04-21T07:01:41Z</time></trkpt><trkpt lat="14.532026792040996" lon="120.9930381816875"><ele>7.5</ele><time>2026-04-21T07:01:42Z</time></trkpt><trkpt lat="14.531907936028176" lon="120.99304986671616"><ele>7.0</ele><time>2026-04-21T07:01:43Z</time></trkpt><trkpt lat="14.53179568701215" lon="120.99306790396437"><ele>6.5</ele><time>2026-04-21T07:01:44Z</time></trkpt><trkpt lat="14.531693002219914" lon="120.99308534756796"><ele>6.0</ele><time>2026-04-21T07:01:45Z</time></trkpt><trkpt lat="14.531579221623371" lon="120.99310000971168"><ele>6.0</ele><time>2026-04-21T07:01:46Z</time></trkpt><trkpt lat="14.531476258002696" lon="120.99311597936378"><ele>6.0</ele><time>2026-04-21T07:01:47Z</time></trkpt><trkpt lat="14.53136109742423" lon="120.9931334797628"><ele>6.0</ele><time>2026-04-21T07:01:48Z</time></trkpt><trkpt lat="14.531250097471343" lon="120.99312923579957"><ele>6.0</ele><time>2026-04-21T07:01:49Z</time></trkpt><trkpt lat="14.531145304104195" lon="120.99314031802504"><ele>6.0</ele><time>2026-04-21T07:01:50Z</time></trkpt><trkpt lat="14.531034096835581" lon="120.99315332983852"><ele>5.25</ele><time>2026-04-21T07:01:51Z</time></trkpt><trkpt lat="14.530928489956507" lon="120.99316815525565"><ele>4.5</ele><time>2026-04-21T07:01:52Z</time></trkpt><trkpt lat="14.53082324503035" lon="120.99318263565986"><ele>3.75</ele><time>2026-04-21T07:01:53Z</time></trkpt><trkpt lat="14.530704267913068" lon="120.9931985836385"><ele>3.0</ele><time>2026-04-21T07:01:54Z</time></trkpt><trkpt lat="14.530584458214996" lon="120.99321464325413"><ele>3.0</ele><time>2026-04-21T07:01:55Z</time></trkpt><trkpt lat="14.530473110292244" lon="120.99324363420729"><ele>3.0</ele><time>2026-04-21T07:01:56Z</time></trkpt><trkpt lat="14.530360625827289" lon="120.99325762177492"><ele>3.0</ele><time>2026-04-21T07:01:57Z</time></trkpt><trkpt lat="14.530229479615546" lon="120.99327399256144"><ele>3.0</ele><time>2026-04-21T07:01:58Z</time></trkpt><trkpt lat="14.530111622466942" lon="120.99328790181411"><ele>4.0</ele><time>2026-04-21T07:01:59Z</time></trkpt><trkpt lat="14.529977638070937" lon="120.99330232763263"><ele>5.0</ele><time>2026-04-21T07:02:00Z</time></trkpt><trkpt lat="14.529841303212546" lon="120.99330896398583"><ele>6.0</ele><time>2026-04-21T07:02:01Z</time></trkpt><trkpt lat="14.529710025428438" lon="120.99331253678517"><ele>7.0</ele><time>2026-04-21T07:02:02Z</time></trkpt><trkpt lat="14.529582845370026" lon="120.99332271088637"><ele>7.0</ele><time>2026-04-21T07:02:03Z</time></trkpt><trkpt lat="14.529461097348639" lon="120.99333162367718"><ele>7.0</ele><time>2026-04-21T07:02:04Z</time></trkpt><trkpt lat="14.529343577399898" lon="120.99334033550501"><ele>7.0</ele><time>2026-04-21T07:02:05Z</time></trkpt><trkpt lat="14.529235695104227" lon="120.99334036880848"><ele>7.0</ele><time>2026-04-21T07:02:06.001Z</time></trkpt><trkpt lat="14.529112355519539" lon="120.99334716763262"><ele>7.0</ele><time>2026-04-21T07:02:07.001Z</time></trkpt><trkpt lat="14.529001219211652" lon="120.99335011749048"><ele>6.999999999999999</ele><time>2026-04-21T07:02:08.001Z</time></trkpt><trkpt lat="14.528900794753426" lon="120.99335706593567"><ele>6.999999999999999</ele><time>2026-04-21T07:02:09.001Z</time></trkpt><trkpt lat="14.528783001849108" lon="120.99336977516361"><ele>7.0</ele><time>2026-04-21T07:02:10.001Z</time></trkpt><trkpt lat="14.528684393698635" lon="120.99337342389316"><ele>7.0</ele><time>2026-04-21T07:02:11.001Z</time></trkpt><trkpt lat="14.528587570039036" lon="120.9933836278245"><ele>7.3999999999999995</ele><time>2026-04-21T07:02:12.001Z</time></trkpt><trkpt lat="14.528500999438446" lon="120.9933902383696"><ele>7.799999999999999</ele><time>2026-04-21T07:02:13.001Z</time></trkpt><trkpt lat="14.528417894862383" lon="120.99339919682212"><ele>8.2</ele><time>2026-04-21T07:02:14.001Z</time></trkpt><trkpt lat="14.528298870782178" lon="120.99341098834432"><ele>8.6</ele><time>2026-04-21T07:02:16.001Z</time></trkpt><trkpt lat="14.528207551270718" lon="120.99342794075027"><ele>9.0</ele><time>2026-04-21T07:02:18.001Z</time></trkpt><trkpt lat="14.528118019659638" lon="120.99344150687739"><ele>9.0</ele><time>2026-04-21T07:02:22.001Z</time></trkpt><trkpt lat="14.528042075500842" lon="120.99345210043661"><ele>9.0</ele><time>2026-04-21T07:02:24.001Z</time></trkpt><trkpt lat="14.527975769813496" lon="120.99346417058133"><ele>9.0</ele><time>2026-04-21T07:02:55.999Z</time></trkpt><trkpt lat="14.527909003612036" lon="120.99347266491424"><ele>9.0</ele><time>2026-04-21T07:02:58.999Z</time></trkpt><trkpt lat="14.527812504069988" lon="120.99348315860873"><ele>9.0</ele><time>2026-04-21T07:03:02.999Z</time></trkpt><trkpt lat="14.527725877344789" lon="120.99349084690171"><ele>9.0</ele><time>2026-04-21T07:03:04.999Z</time></trkpt><trkpt lat="14.527612931831198" lon="120.99349358478467"><ele>9.166666666666666</ele><time>2026-04-21T07:03:06.999Z</time></trkpt><trkpt lat="14.527543559500904" lon="120.99349098986593"><ele>9.333333333333334</ele><time>2026-04-21T07:03:07.999Z</time></trkpt><trkpt lat="14.5274545350931" lon="120.99349952050828"><ele>9.5</ele><time>2026-04-21T07:03:08.999Z</time></trkpt><trkpt lat="14.527368932323673" lon="120.99351422465796"><ele>9.666666666666668</ele><time>2026-04-21T07:03:09.999Z</time></trkpt><trkpt lat="14.527286403783464" lon="120.99353250845465"><ele>9.833333333333334</ele><time>2026-04-21T07:03:10.999Z</time></trkpt><trkpt lat="14.52719777326681" lon="120.99354583310472"><ele>10.0</ele><time>2026-04-21T07:03:11.999Z</time></trkpt><trkpt lat="14.527115906023226" lon="120.99354895670737"><ele>9.5</ele><time>2026-04-21T07:03:12.999Z</time></trkpt><trkpt lat="14.527027512243404" lon="120.99355576806667"><ele>9.0</ele><time>2026-04-21T07:03:14Z</time></trkpt><trkpt lat="14.52693584242629" lon="120.99356275928213"><ele>8.5</ele><time>2026-04-21T07:03:15Z</time></trkpt><trkpt lat="14.526851505280161" lon="120.99356976462407"><ele>8.0</ele><time>2026-04-21T07:03:16Z</time></trkpt><trkpt lat="14.52676907696232" lon="120.99357427495872"><ele>7.500000000000001</ele><time>2026-04-21T07:03:17Z</time></trkpt><trkpt lat="14.526701842050022" lon="120.99358020785394"><ele>7.0</ele><time>2026-04-21T07:03:18Z</time></trkpt><trkpt lat="14.526632705608469" lon="120.99358820588208"><ele>7.000000000000001</ele><time>2026-04-21T07:03:19Z</time></trkpt><trkpt lat="14.526558486900537" lon="120.99359114560208"><ele>7.0</ele><time>2026-04-21T07:03:20Z</time></trkpt><trkpt lat="14.526480216581477" lon="120.99359600049063"><ele>7.0</ele><time>2026-04-21T07:03:21Z</time></trkpt><trkpt lat="14.526406787435535" lon="120.99360110580639"><ele>7.0</ele><time>2026-04-21T07:03:22Z</time></trkpt><trkpt lat="14.526316210236187" lon="120.9936072439121"><ele>7.000000000000001</ele><time>2026-04-21T07:03:23Z</time></trkpt><trkpt lat="14.526219722183392" lon="120.99361382036115"><ele>7.0</ele><time>2026-04-21T07:03:24Z</time></trkpt><trkpt lat="14.526122162794374" lon="120.99362332911605"><ele>8.6</ele><time>2026-04-21T07:03:25Z</time></trkpt><trkpt lat="14.526019118858095" lon="120.99363075397808"><ele>10.2</ele><time>2026-04-21T07:03:26Z</time></trkpt><trkpt lat="14.525921291438658" lon="120.99363305284939"><ele>11.8</ele><time>2026-04-21T07:03:27Z</time></trkpt><trkpt lat="14.52582072545025" lon="120.99363836609324"><ele>13.4</ele><time>2026-04-21T07:03:28Z</time></trkpt><trkpt lat="14.525731260843223" lon="120.9936408511022"><ele>15.0</ele><time>2026-04-21T07:03:29Z</time></trkpt><trkpt lat="14.525610451009461" lon="120.99363667847145"><ele>15.0</ele><time>2026-04-21T07:03:30Z</time></trkpt><trkpt lat="14.525486344231341" lon="120.99363045575629"><ele>15.0</ele><time>2026-04-21T07:03:31Z</time></trkpt><trkpt lat="14.525364794305684" lon="120.99362574352358"><ele>15.0</ele><time>2026-04-21T07:03:32Z</time></trkpt><trkpt lat="14.525253838515049" lon="120.99362530818655"><ele>15.0</ele><time>2026-04-21T07:03:33Z</time></trkpt><trkpt lat="14.525137871426534" lon="120.99362047694147"><ele>13.5</ele><time>2026-04-21T07:03:34Z</time></trkpt><trkpt lat="14.525019398264467" lon="120.9936165644938"><ele>12.0</ele><time>2026-04-21T07:03:35Z</time></trkpt><trkpt lat="14.524908890165419" lon="120.99361017517666"><ele>10.5</ele><time>2026-04-21T07:03:36Z</time></trkpt><trkpt lat="14.524797396415899" lon="120.993606072944"><ele>9.0</ele><time>2026-04-21T07:03:37Z</time></trkpt><trkpt lat="14.524682605677816" lon="120.99360361872264"><ele>8.75</ele><time>2026-04-21T07:03:38Z</time></trkpt><trkpt lat="14.524550055765111" lon="120.99360599088213"><ele>8.5</ele><time>2026-04-21T07:03:39Z</time></trkpt><trkpt lat="14.524422382963953" lon="120.99360602775101"><ele>8.25</ele><time>2026-04-21T07:03:40Z</time></trkpt><trkpt lat="14.524286841429653" lon="120.9936103437771"><ele>8.0</ele><time>2026-04-21T07:03:41Z</time></trkpt><trkpt lat="14.524156012219624" lon="120.99360602805592"><ele>8.0</ele><time>2026-04-21T07:03:42Z</time></trkpt><trkpt lat="14.524009859627801" lon="120.99361153072644"><ele>8.0</ele><time>2026-04-21T07:03:43Z</time></trkpt><trkpt lat="14.523865036461345" lon="120.99360667941612"><ele>8.0</ele><time>2026-04-21T07:03:44Z</time></trkpt><trkpt lat="14.523716709113822" lon="120.99360233863656"><ele>8.0</ele><time>2026-04-21T07:03:45Z</time></trkpt><trkpt lat="14.523570106641634" lon="120.99359679203816"><ele>8.0</ele><time>2026-04-21T07:03:46Z</time></trkpt><trkpt lat="14.523413716579537" lon="120.99359925123134"><ele>8.0</ele><time>2026-04-21T07:03:47Z</time></trkpt><trkpt lat="14.523254232717838" lon="120.99359934149741"><ele>8.0</ele><time>2026-04-21T07:03:48Z</time></trkpt><trkpt lat="14.523098550605322" lon="120.99359635168156"><ele>8.0</ele><time>2026-04-21T07:03:49Z</time></trkpt><trkpt lat="14.522944352970857" lon="120.99359442418971"><ele>8.0</ele><time>2026-04-21T07:03:50Z</time></trkpt><trkpt lat="14.522796420292769" lon="120.99359248321603"><ele>8.0</ele><time>2026-04-21T07:03:51Z</time></trkpt><trkpt lat="14.522646430327876" lon="120.99359559154371"><ele>7.25</ele><time>2026-04-21T07:03:52Z</time></trkpt><trkpt lat="14.52250510813373" lon="120.99359195697866"><ele>6.5</ele><time>2026-04-21T07:03:53Z</time></trkpt><trkpt lat="14.522359393271254" lon="120.99358938330373"><ele>5.75</ele><time>2026-04-21T07:03:54Z</time></trkpt><trkpt lat="14.52222034473072" lon="120.9935820667753"><ele>5.0</ele><time>2026-04-21T07:03:55Z</time></trkpt><trkpt lat="14.522062024237602" lon="120.99358805256487"><ele>5.0</ele><time>2026-04-21T07:03:56Z</time></trkpt><trkpt lat="14.521920260841881" lon="120.99357855365216"><ele>5.0</ele><time>2026-04-21T07:03:57Z</time></trkpt><trkpt lat="14.521770481260292" lon="120.9935705983094"><ele>5.0</ele><time>2026-04-21T07:03:58Z</time></trkpt><trkpt lat="14.52162061137897" lon="120.99355741626529"><ele>5.0</ele><time>2026-04-21T07:03:59Z</time></trkpt><trkpt lat="14.521477093053301" lon="120.99354118524313"><ele>5.0</ele><time>2026-04-21T07:04:00Z</time></trkpt><trkpt lat="14.521325636102521" lon="120.99352987114395"><ele>5.0</ele><time>2026-04-21T07:04:01Z</time></trkpt><trkpt lat="14.521179657563296" lon="120.99351906663061"><ele>5.0</ele><time>2026-04-21T07:04:02Z</time></trkpt><trkpt lat="14.52104162051349" lon="120.99350690348464"><ele>5.0</ele><time>2026-04-21T07:04:03Z</time></trkpt><trkpt lat="14.52091151382216" lon="120.99349973662878"><ele>5.0</ele><time>2026-04-21T07:04:04Z</time></trkpt><trkpt lat="14.52078819874246" lon="120.99349217132725"><ele>5.0</ele><time>2026-04-21T07:04:05Z</time></trkpt><trkpt lat="14.520688044656671" lon="120.99347846050856"><ele>5.0</ele><time>2026-04-21T07:04:06Z</time></trkpt><trkpt lat="14.520581091720935" lon="120.9934715045378"><ele>5.0</ele><time>2026-04-21T07:04:07Z</time></trkpt><trkpt lat="14.520481313405465" lon="120.99346345462969"><ele>5.0</ele><time>2026-04-21T07:04:08.001Z</time></trkpt><trkpt lat="14.52038251336482" lon="120.993450186569"><ele>5.6</ele><time>2026-04-21T07:04:09.001Z</time></trkpt><trkpt lat="14.520276946120934" lon="120.99344142590031"><ele>6.2</ele><time>2026-04-21T07:04:10.001Z</time></trkpt><trkpt lat="14.520168570862149" lon="120.99343287768565"><ele>6.800000000000001</ele><time>2026-04-21T07:04:11.001Z</time></trkpt><trkpt lat="14.520067166843962" lon="120.99342518899837"><ele>7.4</ele><time>2026-04-21T07:04:12.001Z</time></trkpt><trkpt lat="14.519962978583576" lon="120.99341629604942"><ele>8.0</ele><time>2026-04-21T07:04:13.001Z</time></trkpt><trkpt lat="14.519864466843416" lon="120.99340920977276"><ele>8.0</ele><time>2026-04-21T07:04:14.001Z</time></trkpt><trkpt lat="14.519752388325298" lon="120.9934031097475"><ele>8.0</ele><time>2026-04-21T07:04:15.001Z</time></trkpt><trkpt lat="14.519648451535458" lon="120.99339427112126"><ele>8.0</ele><time>2026-04-21T07:04:16.001Z</time></trkpt><trkpt lat="14.51954335750226" lon="120.99337970620002"><ele>8.0</ele><time>2026-04-21T07:04:17.001Z</time></trkpt><trkpt lat="14.51945168784945" lon="120.99336303400274"><ele>8.0</ele><time>2026-04-21T07:04:18.001Z</time></trkpt><trkpt lat="14.51935273222982" lon="120.99334366640483"><ele>9.166666666666666</ele><time>2026-04-21T07:04:19.001Z</time></trkpt><trkpt lat="14.519263564970885" lon="120.99334531341361"><ele>10.333333333333332</ele><time>2026-04-21T07:04:20.001Z</time></trkpt><trkpt lat="14.519182426616345" lon="120.99334060240524"><ele>11.5</ele><time>2026-04-21T07:04:21.001Z</time></trkpt><trkpt lat="14.519108319286563" lon="120.99333629962642"><ele>12.666666666666666</ele><time>2026-04-21T07:04:22.001Z</time></trkpt><trkpt lat="14.519039608719343" lon="120.9933321950147"><ele>13.833333333333334</ele><time>2026-04-21T07:04:23.001Z</time></trkpt><trkpt lat="14.51895864967806" lon="120.99332507238968"><ele>15.0</ele><time>2026-04-21T07:04:24.001Z</time></trkpt><trkpt lat="14.518886278411538" lon="120.99331870530285"><ele>15.0</ele><time>2026-04-21T07:04:25.001Z</time></trkpt><trkpt lat="14.518817332433596" lon="120.99331235872778"><ele>15.0</ele><time>2026-04-21T07:04:26.001Z</time></trkpt><trkpt lat="14.51873936381593" lon="120.99330500160215"><ele>15.0</ele><time>2026-04-21T07:04:27.001Z</time></trkpt><trkpt lat="14.518662443635433" lon="120.99329711231749"><ele>15.0</ele><time>2026-04-21T07:04:28.001Z</time></trkpt><trkpt lat="14.5185975381225" lon="120.99328836528224"><ele>15.0</ele><time>2026-04-21T07:04:29.001Z</time></trkpt><trkpt lat="14.518486235944241" lon="120.9932733655697"><ele>15.0</ele><time>2026-04-21T07:04:31.001Z</time></trkpt><trkpt lat="14.518407330406324" lon="120.99326273180846"><ele>14.0</ele><time>2026-04-21T07:04:32.001Z</time></trkpt><trkpt lat="14.518335550826313" lon="120.99325305837675"><ele>13.0</ele><time>2026-04-21T07:04:33.001Z</time></trkpt><trkpt lat="14.518257153475506" lon="120.99324079121472"><ele>12.0</ele><time>2026-04-21T07:04:34.001Z</time></trkpt><trkpt lat="14.518177310627967" lon="120.9932279114622"><ele>11.0</ele><time>2026-04-21T07:04:35.001Z</time></trkpt><trkpt lat="14.518093345847914" lon="120.99321436677245"><ele>10.0</ele><time>2026-04-21T07:04:37.001Z</time></trkpt><trkpt lat="14.51796963161591" lon="120.99319440989682"><ele>9.0</ele><time>2026-04-21T07:04:39.001Z</time></trkpt><trkpt lat="14.517879414607286" lon="120.99317463529107"><ele>8.5</ele><time>2026-04-21T07:04:41.001Z</time></trkpt><trkpt lat="14.51784995630464" lon="120.99311435882716"><ele>8.0</ele><time>2026-04-21T07:04:42.001Z</time></trkpt><trkpt lat="14.5177882824424" lon="120.99305232281596"><ele>7.5</ele><time>2026-04-21T07:04:44.001Z</time></trkpt><trkpt lat="14.517732819979354" lon="120.99299526355276"><ele>7.0</ele><time>2026-04-21T07:04:46.001Z</time></trkpt><trkpt lat="14.517681704270036" lon="120.9929144408043"><ele>6.5</ele><time>2026-04-21T07:04:48.001Z</time></trkpt><trkpt lat="14.517641101470758" lon="120.99284683570976"><ele>6.0</ele><time>2026-04-21T07:04:50.001Z</time></trkpt><trkpt lat="14.517637098707317" lon="120.99273999971047"><ele>6.0</ele><time>2026-04-21T07:04:52.001Z</time></trkpt><trkpt lat="14.517627824781774" lon="120.9925930370443"><ele>6.0</ele><time>2026-04-21T07:04:54.001Z</time></trkpt><trkpt lat="14.51762058050093" lon="120.99249801305024"><ele>6.0</ele><time>2026-04-21T07:04:55.001Z</time></trkpt><trkpt lat="14.517616934291432" lon="120.99235086826381"><ele>6.0</ele><time>2026-04-21T07:04:56.001Z</time></trkpt><trkpt lat="14.51760295376999" lon="120.99226197267066"><ele>6.5</ele><time>2026-04-21T07:04:57.001Z</time></trkpt><trkpt lat="14.51758434474713" lon="120.992143646826"><ele>7.0</ele><time>2026-04-21T07:04:58.001Z</time></trkpt><trkpt lat="14.51756581624711" lon="120.99202583301101"><ele>7.5</ele><time>2026-04-21T07:04:59.001Z</time></trkpt><trkpt lat="14.51754649293698" lon="120.99190296539369"><ele>8.0</ele><time>2026-04-21T07:04:59.999Z</time></trkpt><trkpt lat="14.517529342281636" lon="120.99178873403942"><ele>8.0</ele><time>2026-04-21T07:05:00.999Z</time></trkpt><trkpt lat="14.517509580044042" lon="120.99167900089111"><ele>8.0</ele><time>2026-04-21T07:05:01.999Z</time></trkpt><trkpt lat="14.517487707579336" lon="120.99156332498116"><ele>8.0</ele><time>2026-04-21T07:05:02.999Z</time></trkpt><trkpt lat="14.517471511757662" lon="120.99147814424218"><ele>8.0</ele><time>2026-04-21T07:05:03.999Z</time></trkpt><trkpt lat="14.517456611609344" lon="120.99139977800877"><ele>8.0</ele><time>2026-04-21T07:05:04.999Z</time></trkpt><trkpt lat="14.51744191404818" lon="120.99132247725946"><ele>7.999999999999999</ele><time>2026-04-21T07:05:05.999Z</time></trkpt><trkpt lat="14.517427963938015" lon="120.99124910766776"><ele>8.0</ele><time>2026-04-21T07:05:06.999Z</time></trkpt><trkpt lat="14.517416647868465" lon="120.99118007072961"><ele>8.0</ele><time>2026-04-21T07:05:08.999Z</time></trkpt><trkpt lat="14.517339493094827" lon="120.99114590889498"><ele>8.0</ele><time>2026-04-21T07:05:49Z</time></trkpt><trkpt lat="14.517317106348065" lon="120.99104826714563"><ele>7.999999999999999</ele><time>2026-04-21T07:06:41.001Z</time></trkpt><trkpt lat="14.51730949195793" lon="120.99095741191954"><ele>8.0</ele><time>2026-04-21T07:06:43.001Z</time></trkpt><trkpt lat="14.517312020539356" lon="120.99087352556894"><ele>8.25</ele><time>2026-04-21T07:06:45.001Z</time></trkpt><trkpt lat="14.517363049703995" lon="120.9907692156668"><ele>8.5</ele><time>2026-04-21T07:06:47.001Z</time></trkpt><trkpt lat="14.517356040465575" lon="120.99070216226619"><ele>8.75</ele><time>2026-04-21T07:06:48.001Z</time></trkpt><trkpt lat="14.517119152418553" lon="120.99061800157585"><ele>9.0</ele><time>2026-04-21T07:06:50.001Z</time></trkpt><trkpt lat="14.517037606044601" lon="120.9906119336418"><ele>9.4</ele><time>2026-04-21T07:06:51.001Z</time></trkpt><trkpt lat="14.516942945219085" lon="120.99058960094824"><ele>9.8</ele><time>2026-04-21T07:06:52.001Z</time></trkpt><trkpt lat="14.516841222655032" lon="120.99057963091944"><ele>10.200000000000001</ele><time>2026-04-21T07:06:53.001Z</time></trkpt><trkpt lat="14.516722662564622" lon="120.99056953481818"><ele>10.600000000000001</ele><time>2026-04-21T07:06:54.001Z</time></trkpt><trkpt lat="14.516614102484859" lon="120.99056319384079"><ele>11.0</ele><time>2026-04-21T07:06:55.001Z</time></trkpt><trkpt lat="14.516489061861185" lon="120.99055456865224"><ele>11.0</ele><time>2026-04-21T07:06:56.001Z</time></trkpt><trkpt lat="14.51634960751038" lon="120.99051940122469"><ele>11.0</ele><time>2026-04-21T07:06:57.001Z</time></trkpt><trkpt lat="14.51620758042085" lon="120.99049929632422"><ele>11.0</ele><time>2026-04-21T07:06:58.001Z</time></trkpt><trkpt lat="14.51604833551831" lon="120.99047668162144"><ele>11.0</ele><time>2026-04-21T07:06:59.001Z</time></trkpt><trkpt lat="14.51588491762668" lon="120.99045328532705"><ele>11.333333333333332</ele><time>2026-04-21T07:07:00.001Z</time></trkpt><trkpt lat="14.515717977858577" lon="120.99043003578645"><ele>11.666666666666666</ele><time>2026-04-21T07:07:01.001Z</time></trkpt><trkpt lat="14.5155532045948" lon="120.99040705274987"><ele>12.0</ele><time>2026-04-21T07:07:02.001Z</time></trkpt><trkpt lat="14.515382403688353" lon="120.99038346436225"><ele>12.0</ele><time>2026-04-21T07:07:03.001Z</time></trkpt><trkpt lat="14.515222359873109" lon="120.99036241778298"><ele>12.0</ele><time>2026-04-21T07:07:04.001Z</time></trkpt><trkpt lat="14.51505880306938" lon="120.99034064791807"><ele>12.0</ele><time>2026-04-21T07:07:05.001Z</time></trkpt><trkpt lat="14.514918658136844" lon="120.99032190732588"><ele>12.0</ele><time>2026-04-21T07:07:06Z</time></trkpt><trkpt lat="14.514781196963561" lon="120.99030492409574"><ele>12.0</ele><time>2026-04-21T07:07:07Z</time></trkpt><trkpt lat="14.514647531446627" lon="120.99028879498094"><ele>12.0</ele><time>2026-04-21T07:07:08Z</time></trkpt><trkpt lat="14.514510910597505" lon="120.99027104822311"><ele>12.0</ele><time>2026-04-21T07:07:09Z</time></trkpt><trkpt lat="14.514374355637418" lon="120.99025438062031"><ele>10.333333333333334</ele><time>2026-04-21T07:07:10Z</time></trkpt><trkpt lat="14.514224818677286" lon="120.99023588237766"><ele>8.666666666666668</ele><time>2026-04-21T07:07:11Z</time></trkpt><trkpt lat="14.5140731688882" lon="120.99021679797525"><ele>7.0</ele><time>2026-04-21T07:07:12Z</time></trkpt><trkpt lat="14.513920723247788" lon="120.99020266290592"><ele>7.0</ele><time>2026-04-21T07:07:13Z</time></trkpt><trkpt lat="14.513766661206484" lon="120.99019079766207"><ele>7.0</ele><time>2026-04-21T07:07:14Z</time></trkpt><trkpt lat="14.513607054638308" lon="120.99017261346533"><ele>7.0</ele><time>2026-04-21T07:07:15Z</time></trkpt><trkpt lat="14.513450225459874" lon="120.99014975820678"><ele>6.666666666666667</ele><time>2026-04-21T07:07:16Z</time></trkpt><trkpt lat="14.513297946905833" lon="120.99012323551842"><ele>6.333333333333334</ele><time>2026-04-21T07:07:17Z</time></trkpt><trkpt lat="14.513147117725708" lon="120.99009314008066"><ele>6.0</ele><time>2026-04-21T07:07:18Z</time></trkpt><trkpt lat="14.513004177825177" lon="120.99007931692127"><ele>5.5</ele><time>2026-04-21T07:07:19Z</time></trkpt><trkpt lat="14.512873389562984" lon="120.99002304612073"><ele>5.0</ele><time>2026-04-21T07:07:20Z</time></trkpt><trkpt lat="14.512741288995667" lon="120.9899836193785"><ele>4.5</ele><time>2026-04-21T07:07:21Z</time></trkpt><trkpt lat="14.512612054073221" lon="120.98995914585149"><ele>4.0</ele><time>2026-04-21T07:07:22Z</time></trkpt><trkpt lat="14.512485980957383" lon="120.98991304190194"><ele>3.75</ele><time>2026-04-21T07:07:23Z</time></trkpt><trkpt lat="14.512354364396668" lon="120.98986694823188"><ele>3.5</ele><time>2026-04-21T07:07:24Z</time></trkpt><trkpt lat="14.512222901051931" lon="120.98982606785296"><ele>3.25</ele><time>2026-04-21T07:07:25Z</time></trkpt><trkpt lat="14.512086965511747" lon="120.98978013786592"><ele>3.0</ele><time>2026-04-21T07:07:26Z</time></trkpt><trkpt lat="14.511944020613818" lon="120.98973532474227"><ele>3.0</ele><time>2026-04-21T07:07:27Z</time></trkpt><trkpt lat="14.511799820105013" lon="120.98969115481862"><ele>3.0</ele><time>2026-04-21T07:07:28Z</time></trkpt><trkpt lat="14.511652041274065" lon="120.98964252039026"><ele>3.0</ele><time>2026-04-21T07:07:29Z</time></trkpt><trkpt lat="14.511497064433703" lon="120.9895977811292"><ele>3.0</ele><time>2026-04-21T07:07:30Z</time></trkpt><trkpt lat="14.511354809307528" lon="120.98955269060502"><ele>3.0</ele><time>2026-04-21T07:07:31Z</time></trkpt><trkpt lat="14.511196358053896" lon="120.98950566614747"><ele>3.0</ele><time>2026-04-21T07:07:32Z</time></trkpt><trkpt lat="14.511042655271554" lon="120.98946405975015"><ele>2.3333333333333335</ele><time>2026-04-21T07:07:33Z</time></trkpt><trkpt lat="14.510884347797612" lon="120.98941816164724"><ele>1.6666666666666665</ele><time>2026-04-21T07:07:34Z</time></trkpt><trkpt lat="14.510725746685749" lon="120.98937355273416"><ele>1.0</ele><time>2026-04-21T07:07:35Z</time></trkpt><trkpt lat="14.510562667331891" lon="120.98932920719976"><ele>1.0</ele><time>2026-04-21T07:07:36Z</time></trkpt><trkpt lat="14.51039678859634" lon="120.98928216244214"><ele>1.0</ele><time>2026-04-21T07:07:37Z</time></trkpt><trkpt lat="14.510227632174855" lon="120.98923626157676"><ele>1.0</ele><time>2026-04-21T07:07:38Z</time></trkpt><trkpt lat="14.510053986330844" lon="120.98916692530022"><ele>2.3333333333333335</ele><time>2026-04-21T07:07:39Z</time></trkpt><trkpt lat="14.509875986788307" lon="120.98911141040541"><ele>3.666666666666667</ele><time>2026-04-21T07:07:40Z</time></trkpt><trkpt lat="14.509690834540844" lon="120.98905366470629"><ele>5.0</ele><time>2026-04-21T07:07:41Z</time></trkpt><trkpt lat="14.509508264966085" lon="120.98899514881757"><ele>6.333333333333334</ele><time>2026-04-21T07:07:42Z</time></trkpt><trkpt lat="14.509318911752771" lon="120.98893183088597"><ele>7.666666666666667</ele><time>2026-04-21T07:07:43Z</time></trkpt><trkpt lat="14.509141977843804" lon="120.98887266585267"><ele>9.0</ele><time>2026-04-21T07:07:44Z</time></trkpt><trkpt lat="14.508974449089745" lon="120.98881614790119"><ele>9.0</ele><time>2026-04-21T07:07:45Z</time></trkpt><trkpt lat="14.508814512735439" lon="120.98877328279013"><ele>9.0</ele><time>2026-04-21T07:07:46Z</time></trkpt><trkpt lat="14.508679399473822" lon="120.98872048458044"><ele>9.0</ele><time>2026-04-21T07:07:47Z</time></trkpt><trkpt lat="14.508558497165891" lon="120.98867927671212"><ele>9.0</ele><time>2026-04-21T07:07:48Z</time></trkpt><trkpt lat="14.508456207943365" lon="120.98862231096312"><ele>8.6</ele><time>2026-04-21T07:07:49Z</time></trkpt><trkpt lat="14.50835085502617" lon="120.98858202171004"><ele>8.2</ele><time>2026-04-21T07:07:50Z</time></trkpt><trkpt lat="14.508269542454464" lon="120.98855092600618"><ele>7.799999999999999</ele><time>2026-04-21T07:07:51Z</time></trkpt><trkpt lat="14.50818168025746" lon="120.9885173255885"><ele>7.3999999999999995</ele><time>2026-04-21T07:07:52Z</time></trkpt><trkpt lat="14.508091715657567" lon="120.9884829211098"><ele>7.0</ele><time>2026-04-21T07:07:53Z</time></trkpt><trkpt lat="14.507999606882908" lon="120.98844425563492"><ele>7.25</ele><time>2026-04-21T07:07:54Z</time></trkpt><trkpt lat="14.50789152499199" lon="120.98840046799462"><ele>7.5</ele><time>2026-04-21T07:07:55Z</time></trkpt><trkpt lat="14.507781652528326" lon="120.98835595493107"><ele>7.75</ele><time>2026-04-21T07:07:56Z</time></trkpt><trkpt lat="14.507661996536976" lon="120.98830747823025"><ele>8.0</ele><time>2026-04-21T07:07:57Z</time></trkpt><trkpt lat="14.507530993190827" lon="120.98825440432897"><ele>8.333333333333332</ele><time>2026-04-21T07:07:58.001Z</time></trkpt><trkpt lat="14.50739089376342" lon="120.98819764529506"><ele>8.666666666666666</ele><time>2026-04-21T07:07:59.001Z</time></trkpt><trkpt lat="14.507249350189811" lon="120.98814030119271"><ele>9.0</ele><time>2026-04-21T07:08:00.001Z</time></trkpt><trkpt lat="14.50709652230731" lon="120.98809554177396"><ele>9.0</ele><time>2026-04-21T07:08:01.001Z</time></trkpt><trkpt lat="14.506957265064091" lon="120.98802971813606"><ele>9.0</ele><time>2026-04-21T07:08:02.001Z</time></trkpt><trkpt lat="14.506817398203122" lon="120.98796501688511"><ele>9.0</ele><time>2026-04-21T07:08:03.001Z</time></trkpt><trkpt lat="14.506674845211021" lon="120.98790821228482"><ele>9.0</ele><time>2026-04-21T07:08:04.001Z</time></trkpt><trkpt lat="14.506547576165746" lon="120.98785587633449"><ele>9.0</ele><time>2026-04-21T07:08:05.001Z</time></trkpt><trkpt lat="14.50642536463827" lon="120.98780610747889"><ele>9.0</ele><time>2026-04-21T07:08:06.001Z</time></trkpt><trkpt lat="14.50631146169337" lon="120.98776041807724"><ele>9.0</ele><time>2026-04-21T07:08:07.001Z</time></trkpt><trkpt lat="14.506208868785963" lon="120.98772084263547"><ele>8.833333333333334</ele><time>2026-04-21T07:08:08.001Z</time></trkpt><trkpt lat="14.506119961972992" lon="120.98768092025553"><ele>8.666666666666666</ele><time>2026-04-21T07:08:09.001Z</time></trkpt><trkpt lat="14.506049555904838" lon="120.98763027164122"><ele>8.5</ele><time>2026-04-21T07:08:10.001Z</time></trkpt><trkpt lat="14.505973081831126" lon="120.98759410526485"><ele>8.333333333333332</ele><time>2026-04-21T07:08:11.001Z</time></trkpt><trkpt lat="14.505912654455711" lon="120.9875649488132"><ele>8.166666666666666</ele><time>2026-04-21T07:08:12.001Z</time></trkpt><trkpt lat="14.505838730545728" lon="120.98752958550702"><ele>8.0</ele><time>2026-04-21T07:08:13.001Z</time></trkpt><trkpt lat="14.505778397340789" lon="120.98744497683514"><ele>7.75</ele><time>2026-04-21T07:08:14.001Z</time></trkpt><trkpt lat="14.505631048567754" lon="120.98750403212964"><ele>7.5</ele><time>2026-04-21T07:08:15.001Z</time></trkpt><trkpt lat="14.50553601636798" lon="120.98744948453812"><ele>7.25</ele><time>2026-04-21T07:08:16.001Z</time></trkpt><trkpt lat="14.505430941300768" lon="120.98739196167696"><ele>7.0</ele><time>2026-04-21T07:08:17.001Z</time></trkpt><trkpt lat="14.50532075599458" lon="120.98733171902386"><ele>7.0</ele><time>2026-04-21T07:08:18.001Z</time></trkpt><trkpt lat="14.505196773581742" lon="120.98726742617052"><ele>7.0</ele><time>2026-04-21T07:08:19.001Z</time></trkpt><trkpt lat="14.505066423346637" lon="120.98719703196386"><ele>7.0</ele><time>2026-04-21T07:08:20.001Z</time></trkpt><trkpt lat="14.504945359912169" lon="120.98712862356896"><ele>7.0</ele><time>2026-04-21T07:08:21.001Z</time></trkpt><trkpt lat="14.504808615683734" lon="120.98705496968434"><ele>7.0</ele><time>2026-04-21T07:08:22.001Z</time></trkpt><trkpt lat="14.504671113174584" lon="120.9869799453481"><ele>7.0</ele><time>2026-04-21T07:08:23.001Z</time></trkpt><trkpt lat="14.504545392127485" lon="120.98691318275947"><ele>7.0</ele><time>2026-04-21T07:08:24.001Z</time></trkpt><trkpt lat="14.504412576013788" lon="120.98683608250246"><ele>7.0</ele><time>2026-04-21T07:08:25.001Z</time></trkpt><trkpt lat="14.504295501738792" lon="120.98677121708661"><ele>7.5</ele><time>2026-04-21T07:08:26.001Z</time></trkpt><trkpt lat="14.504183587910752" lon="120.98671163404272"><ele>8.0</ele><time>2026-04-21T07:08:27.001Z</time></trkpt><trkpt lat="14.504075395982879" lon="120.98665075174593"><ele>8.5</ele><time>2026-04-21T07:08:28.001Z</time></trkpt><trkpt lat="14.503973009468003" lon="120.98659181879937"><ele>9.0</ele><time>2026-04-21T07:08:29.001Z</time></trkpt><trkpt lat="14.50389143666246" lon="120.98654882258049"><ele>9.2</ele><time>2026-04-21T07:08:30.001Z</time></trkpt><trkpt lat="14.50381160222352" lon="120.98650525939838"><ele>9.4</ele><time>2026-04-21T07:08:31.001Z</time></trkpt><trkpt lat="14.503748664162417" lon="120.98647348811615"><ele>9.6</ele><time>2026-04-21T07:08:32.001Z</time></trkpt><trkpt lat="14.503646112968086" lon="120.9864497954823"><ele>9.8</ele><time>2026-04-21T07:08:34.001Z</time></trkpt><trkpt lat="14.503577068574131" lon="120.98650449090935"><ele>10.0</ele><time>2026-04-21T07:08:36.001Z</time></trkpt><trkpt lat="14.503537331126335" lon="120.98661672960642"><ele>9.166666666666668</ele><time>2026-04-21T07:08:38.001Z</time></trkpt><trkpt lat="14.503520938841456" lon="120.98668567060056"><ele>8.333333333333334</ele><time>2026-04-21T07:08:39.001Z</time></trkpt><trkpt lat="14.503499116065477" lon="120.98676147988135"><ele>7.5</ele><time>2026-04-21T07:08:40.001Z</time></trkpt><trkpt lat="14.503482950815144" lon="120.98683266355518"><ele>6.666666666666667</ele><time>2026-04-21T07:08:41.001Z</time></trkpt><trkpt lat="14.50345112446757" lon="120.98692038517697"><ele>5.833333333333334</ele><time>2026-04-21T07:08:42.001Z</time></trkpt><trkpt lat="14.503416262679451" lon="120.98703579832893"><ele>5.0</ele><time>2026-04-21T07:08:44.001Z</time></trkpt><trkpt lat="14.503398520214041" lon="120.98710328089034"><ele>5.0</ele><time>2026-04-21T07:08:45.001Z</time></trkpt><trkpt lat="14.50337291168512" lon="120.98717687770221"><ele>5.0</ele><time>2026-04-21T07:08:46.001Z</time></trkpt><trkpt lat="14.503353275875483" lon="120.98724498427073"><ele>5.0</ele><time>2026-04-21T07:08:47.001Z</time></trkpt><trkpt lat="14.503329472853618" lon="120.98731790770424"><ele>5.0</ele><time>2026-04-21T07:08:48.001Z</time></trkpt><trkpt lat="14.503310839810663" lon="120.98738129342516"><ele>5.0</ele><time>2026-04-21T07:08:49.001Z</time></trkpt><trkpt lat="14.503286492930512" lon="120.98745947850263"><ele>5.0</ele><time>2026-04-21T07:08:50.001Z</time></trkpt><trkpt lat="14.503262007065935" lon="120.98754188772523"><ele>5.0</ele><time>2026-04-21T07:08:51.001Z</time></trkpt><trkpt lat="14.503237729635773" lon="120.98761878166833"><ele>5.4</ele><time>2026-04-21T07:08:52.001Z</time></trkpt><trkpt lat="14.50321269981352" lon="120.98770357321997"><ele>5.8</ele><time>2026-04-21T07:08:53.001Z</time></trkpt><trkpt lat="14.503184376333216" lon="120.98780084071824"><ele>6.199999999999999</ele><time>2026-04-21T07:08:54.001Z</time></trkpt><trkpt lat="14.50315730951124" lon="120.9878933350707"><ele>6.6</ele><time>2026-04-21T07:08:55.001Z</time></trkpt><trkpt lat="14.503126864314009" lon="120.98798896313654"><ele>7.0</ele><time>2026-04-21T07:08:56.001Z</time></trkpt><trkpt lat="14.503100558383304" lon="120.98808130895766"><ele>7.000000000000001</ele><time>2026-04-21T07:08:57.001Z</time></trkpt><trkpt lat="14.503076380906737" lon="120.988161989342"><ele>7.0</ele><time>2026-04-21T07:08:58.001Z</time></trkpt><trkpt lat="14.503051744272385" lon="120.98824479142056"><ele>7.0</ele><time>2026-04-21T07:08:59.002Z</time></trkpt><trkpt lat="14.503030304746709" lon="120.98832689594032"><ele>7.0</ele><time>2026-04-21T07:09:00.002Z</time></trkpt><trkpt lat="14.503016500888174" lon="120.98840374596232"><ele>7.000000000000001</ele><time>2026-04-21T07:09:01.002Z</time></trkpt><trkpt lat="14.50300279624088" lon="120.98849038151269"><ele>7.0</ele><time>2026-04-21T07:09:02.002Z</time></trkpt><trkpt lat="14.503002960012758" lon="120.98857562793148"><ele>6.500000000000001</ele><time>2026-04-21T07:09:03.002Z</time></trkpt><trkpt lat="14.503007424052827" lon="120.98866264082638"><ele>6.0</ele><time>2026-04-21T07:09:04.002Z</time></trkpt><trkpt lat="14.503005420598978" lon="120.98873876655416"><ele>5.5</ele><time>2026-04-21T07:09:05.002Z</time></trkpt><trkpt lat="14.503000574545718" lon="120.98881665697965"><ele>5.0</ele><time>2026-04-21T07:09:06.002Z</time></trkpt><trkpt lat="14.502987081342683" lon="120.98889913788325"><ele>4.5</ele><time>2026-04-21T07:09:07.002Z</time></trkpt><trkpt lat="14.502962882247527" lon="120.98898242468634"><ele>4.0</ele><time>2026-04-21T07:09:08.002Z</time></trkpt><trkpt lat="14.50293369064261" lon="120.98907977741098"><ele>3.4999999999999996</ele><time>2026-04-21T07:09:09.002Z</time></trkpt><trkpt lat="14.502912875682375" lon="120.98914768108888"><ele>3.0</ele><time>2026-04-21T07:09:10.002Z</time></trkpt><trkpt lat="14.50288867468428" lon="120.98923962494416"><ele>2.5</ele><time>2026-04-21T07:09:11.002Z</time></trkpt><trkpt lat="14.50286556210309" lon="120.9893022559302"><ele>2.0</ele><time>2026-04-21T07:09:12Z</time></trkpt><trkpt lat="14.50284570480685" lon="120.98938126435297"><ele>1.5</ele><time>2026-04-21T07:09:13Z</time></trkpt><trkpt lat="14.502804166876023" lon="120.98949917792551"><ele>1.0</ele><time>2026-04-21T07:09:15Z</time></trkpt><trkpt lat="14.502769441915639" lon="120.98955665069658"><ele>1.0</ele><time>2026-04-21T07:09:16Z</time></trkpt><trkpt lat="14.502715266364955" lon="120.9896074179227"><ele>0.9999999999999999</ele><time>2026-04-21T07:09:17Z</time></trkpt><trkpt lat="14.502651138758104" lon="120.98963689079389"><ele>1.0</ele><time>2026-04-21T07:09:18Z</time></trkpt><trkpt lat="14.502571149586185" lon="120.98961995312406"><ele>1.0</ele><time>2026-04-21T07:09:19Z</time></trkpt><trkpt lat="14.502506646316904" lon="120.9895991410921"><ele>0.9999999999999999</ele><time>2026-04-21T07:09:20Z</time></trkpt><trkpt lat="14.502440836722963" lon="120.98957766629653"><ele>1.0</ele><time>2026-04-21T07:09:21Z</time></trkpt><trkpt lat="14.50235924702731" lon="120.9895536226088"><ele>1.0</ele><time>2026-04-21T07:09:22Z</time></trkpt><trkpt lat="14.502272928582368" lon="120.98952793449423"><ele>1.0</ele><time>2026-04-21T07:09:23Z</time></trkpt><trkpt lat="14.50217798143265" lon="120.98950190768913"><ele>1.0</ele><time>2026-04-21T07:09:24Z</time></trkpt><trkpt lat="14.502090311569074" lon="120.9894869768206"><ele>1.0</ele><time>2026-04-21T07:09:25Z</time></trkpt><trkpt lat="14.501992266823407" lon="120.98949931449707"><ele>1.0</ele><time>2026-04-21T07:09:26Z</time></trkpt><trkpt lat="14.501898312235337" lon="120.98948369512078"><ele>1.0</ele><time>2026-04-21T07:09:27Z</time></trkpt><trkpt lat="14.501803270106405" lon="120.98947952303504"><ele>1.6666666666666665</ele><time>2026-04-21T07:09:28Z</time></trkpt><trkpt lat="14.501713501300193" lon="120.98946320833512"><ele>2.3333333333333335</ele><time>2026-04-21T07:09:29Z</time></trkpt><trkpt lat="14.501630757898354" lon="120.98944151289291"><ele>3.0</ele><time>2026-04-21T07:09:30Z</time></trkpt><trkpt lat="14.501541510438656" lon="120.98941565100573"><ele>3.666666666666667</ele><time>2026-04-21T07:09:31Z</time></trkpt><trkpt lat="14.501468852864187" lon="120.9893945964853"><ele>4.333333333333334</ele><time>2026-04-21T07:09:32Z</time></trkpt><trkpt lat="14.501375818836083" lon="120.98936763766201"><ele>5.0</ele><time>2026-04-21T07:09:33Z</time></trkpt><trkpt lat="14.501273796713436" lon="120.9893541912023"><ele>5.8</ele><time>2026-04-21T07:09:34Z</time></trkpt><trkpt lat="14.501173966936804" lon="120.98932253869373"><ele>6.6</ele><time>2026-04-21T07:09:35Z</time></trkpt><trkpt lat="14.501075743834077" lon="120.98929082159857"><ele>7.4</ele><time>2026-04-21T07:09:36Z</time></trkpt><trkpt lat="14.500985112444448" lon="120.9892605824416"><ele>8.2</ele><time>2026-04-21T07:09:37Z</time></trkpt><trkpt lat="14.500911063298837" lon="120.98923601870918"><ele>9.0</ele><time>2026-04-21T07:09:38Z</time></trkpt><trkpt lat="14.50083994556526" lon="120.9892135664001"><ele>9.0</ele><time>2026-04-21T07:09:39Z</time></trkpt><trkpt lat="14.500772839896474" lon="120.98919823366916"><ele>9.0</ele><time>2026-04-21T07:09:40Z</time></trkpt><trkpt lat="14.50068742897823" lon="120.9891701953271"><ele>9.0</ele><time>2026-04-21T07:09:42Z</time></trkpt><trkpt lat="14.500624884310668" lon="120.9891479539669"><ele>9.0</ele><time>2026-04-21T07:09:44Z</time></trkpt><trkpt lat="14.500773764152333" lon="120.98914241467176"><ele>9.0</ele><time>2026-04-21T07:09:49Z</time></trkpt><trkpt lat="14.50085515859293" lon="120.98917179270543"><ele>9.0</ele><time>2026-04-21T07:09:50Z</time></trkpt><trkpt lat="14.500927506748832" lon="120.98919381590697"><ele>9.0</ele><time>2026-04-21T07:09:51Z</time></trkpt><trkpt lat="14.501037165016475" lon="120.98922719633516"><ele>9.0</ele><time>2026-04-21T07:09:52.001Z</time></trkpt><trkpt lat="14.501151886816974" lon="120.98926206982254"><ele>9.0</ele><time>2026-04-21T07:09:53.001Z</time></trkpt><trkpt lat="14.501256188271991" lon="120.98929151838014"><ele>9.0</ele><time>2026-04-21T07:09:54.001Z</time></trkpt><trkpt lat="14.5013633374433" lon="120.98932328017163"><ele>8.333333333333334</ele><time>2026-04-21T07:09:55.001Z</time></trkpt><trkpt lat="14.501450310959791" lon="120.989335921873"><ele>7.666666666666667</ele><time>2026-04-21T07:09:56.001Z</time></trkpt><trkpt lat="14.5015268100214" lon="120.98936099992959"><ele>7.0</ele><time>2026-04-21T07:09:57.001Z</time></trkpt><trkpt lat="14.501592425256685" lon="120.98938251844748"><ele>6.333333333333334</ele><time>2026-04-21T07:09:58.001Z</time></trkpt><trkpt lat="14.501660157061357" lon="120.98940546499185"><ele>5.666666666666667</ele><time>2026-04-21T07:09:59.001Z</time></trkpt><trkpt lat="14.501769148534857" lon="120.9894434435602"><ele>5.0</ele><time>2026-04-21T07:10:01.001Z</time></trkpt><trkpt lat="14.501866088242219" lon="120.98948815922571"><ele>5.0</ele><time>2026-04-21T07:10:03.001Z</time></trkpt><trkpt lat="14.50194554645444" lon="120.9895610335891"><ele>5.0</ele><time>2026-04-21T07:10:05.001Z</time></trkpt><trkpt lat="14.501972153038343" lon="120.98963895935638"><ele>5.0</ele><time>2026-04-21T07:10:07.001Z</time></trkpt><trkpt lat="14.501981439873711" lon="120.98972306223025"><ele>5.0</ele><time>2026-04-21T07:10:09.001Z</time></trkpt><trkpt lat="14.501970873556" lon="120.98979210281713"><ele>5.0</ele><time>2026-04-21T07:10:12.001Z</time></trkpt><trkpt lat="14.501958848205737" lon="120.98987080531924"><ele>5.0</ele><time>2026-04-21T07:10:15.001Z</time></trkpt><trkpt lat="14.501945891189111" lon="120.9899555839225"><ele>5.0</ele><time>2026-04-21T07:10:17.001Z</time></trkpt><trkpt lat="14.501934985933616" lon="120.99002684095059"><ele>5.0</ele><time>2026-04-21T07:10:19.001Z</time></trkpt><trkpt lat="14.501837734456139" lon="120.99005115931554"><ele>5.0</ele><time>2026-04-21T07:10:20.001Z</time></trkpt><trkpt lat="14.5017547082882" lon="120.99002215358897"><ele>5.0</ele><time>2026-04-21T07:10:22.001Z</time></trkpt><trkpt lat="14.501672971534987" lon="120.98998447266543"><ele>5.0</ele><time>2026-04-21T07:10:24.001Z</time></trkpt><trkpt lat="14.501587882556176" lon="120.98996820666474"><ele>5.0</ele><time>2026-04-21T07:10:26.001Z</time></trkpt><trkpt lat="14.501502849276163" lon="120.98994956132768"><ele>5.0</ele><time>2026-04-21T07:10:28.001Z</time></trkpt><trkpt lat="14.501414727232433" lon="120.98991890252177"><ele>5.0</ele><time>2026-04-21T07:10:30.001Z</time></trkpt><trkpt lat="14.501299520390136" lon="120.98987877021659"><ele>5.0</ele><time>2026-04-21T07:10:32.001Z</time></trkpt><trkpt lat="14.501203344504926" lon="120.98984683715696"><ele>5.0</ele><time>2026-04-21T07:10:34.001Z</time></trkpt><trkpt lat="14.501111715027745" lon="120.98981691744379"><ele>5.0</ele><time>2026-04-21T07:10:36.001Z</time></trkpt><trkpt lat="14.501006441928725" lon="120.98978701735675"><ele>5.8</ele><time>2026-04-21T07:10:38.001Z</time></trkpt><trkpt lat="14.500895808092945" lon="120.98975200873822"><ele>6.6</ele><time>2026-04-21T07:10:40.001Z</time></trkpt><trkpt lat="14.50083103725493" lon="120.98973212120899"><ele>7.4</ele><time>2026-04-21T07:10:41.001Z</time></trkpt><trkpt lat="14.500747271876419" lon="120.98970808198793"><ele>8.2</ele><time>2026-04-21T07:10:42.001Z</time></trkpt><trkpt lat="14.500618466244065" lon="120.98966831234384"><ele>9.0</ele><time>2026-04-21T07:10:44.001Z</time></trkpt><trkpt lat="14.500496589695665" lon="120.9896167103977"><ele>9.000000000000002</ele><time>2026-04-21T07:10:46.001Z</time></trkpt><trkpt lat="14.50042695740261" lon="120.98961211583857"><ele>9.0</ele><time>2026-04-21T07:10:47.001Z</time></trkpt><trkpt lat="14.500371682562074" lon="120.98957810346015"><ele>9.0</ele><time>2026-04-21T07:10:48.001Z</time></trkpt><trkpt lat="14.500292563292899" lon="120.98956868685214"><ele>9.0</ele><time>2026-04-21T07:10:49.001Z</time></trkpt><trkpt lat="14.500222575561986" lon="120.98954569633695"><ele>9.0</ele><time>2026-04-21T07:10:50.001Z</time></trkpt><trkpt lat="14.500141451528913" lon="120.9895196891292"><ele>9.000000000000002</ele><time>2026-04-21T07:10:51.001Z</time></trkpt><trkpt lat="14.500072023639367" lon="120.98949213018497"><ele>9.0</ele><time>2026-04-21T07:10:52.001Z</time></trkpt><trkpt lat="14.499989901237111" lon="120.98946517583727"><ele>8.8</ele><time>2026-04-21T07:10:53.001Z</time></trkpt><trkpt lat="14.499906511298272" lon="120.98943922528548"><ele>8.600000000000001</ele><time>2026-04-21T07:10:54.001Z</time></trkpt><trkpt lat="14.499820196699218" lon="120.98941006466751"><ele>8.4</ele><time>2026-04-21T07:10:55.001Z</time></trkpt><trkpt lat="14.499736873080145" lon="120.98938079817968"><ele>8.200000000000001</ele><time>2026-04-21T07:10:56.002Z</time></trkpt><trkpt lat="14.499647512369165" lon="120.98935363831183"><ele>8.0</ele><time>2026-04-21T07:10:57.002Z</time></trkpt><trkpt lat="14.499545638426477" lon="120.98932693027393"><ele>7.999999999999999</ele><time>2026-04-21T07:10:58.002Z</time></trkpt><trkpt lat="14.499446920975704" lon="120.98929552130387"><ele>8.0</ele><time>2026-04-21T07:10:59.002Z</time></trkpt><trkpt lat="14.499364379619273" lon="120.98926875058135"><ele>8.0</ele><time>2026-04-21T07:11:00.002Z</time></trkpt><trkpt lat="14.499277767985612" lon="120.98924111311659"><ele>8.0</ele><time>2026-04-21T07:11:01.002Z</time></trkpt><trkpt lat="14.499203016409352" lon="120.98922055815083"><ele>7.999999999999999</ele><time>2026-04-21T07:11:02.002Z</time></trkpt><trkpt lat="14.499121773746706" lon="120.98919932732365"><ele>8.0</ele><time>2026-04-21T07:11:03.002Z</time></trkpt><trkpt lat="14.49902772433915" lon="120.9891710713846"><ele>7.6000000000000005</ele><time>2026-04-21T07:11:04.002Z</time></trkpt><trkpt lat="14.498944373373503" lon="120.9891432307453"><ele>7.200000000000001</ele><time>2026-04-21T07:11:05.002Z</time></trkpt><trkpt lat="14.498860451158734" lon="120.98911728404488"><ele>6.8</ele><time>2026-04-21T07:11:06.002Z</time></trkpt><trkpt lat="14.498751876913968" lon="120.98908806619802"><ele>6.4</ele><time>2026-04-21T07:11:07.002Z</time></trkpt><trkpt lat="14.498668955915837" lon="120.98906016870104"><ele>6.0</ele><time>2026-04-21T07:11:08.002Z</time></trkpt><trkpt lat="14.498562565057664" lon="120.98903410103908"><ele>6.0</ele><time>2026-04-21T07:11:09.002Z</time></trkpt><trkpt lat="14.498478183999428" lon="120.98900667908539"><ele>6.0</ele><time>2026-04-21T07:11:10.002Z</time></trkpt><trkpt lat="14.498379554482996" lon="120.98897868124867"><ele>6.0</ele><time>2026-04-21T07:11:11.002Z</time></trkpt><trkpt lat="14.498290507868163" lon="120.98895124847598"><ele>6.0</ele><time>2026-04-21T07:11:12.002Z</time></trkpt><trkpt lat="14.498187214433049" lon="120.988917114499"><ele>6.0</ele><time>2026-04-21T07:11:13.002Z</time></trkpt><trkpt lat="14.498090436765674" lon="120.98888754721797"><ele>6.0</ele><time>2026-04-21T07:11:14.002Z</time></trkpt><trkpt lat="14.497998190304717" lon="120.98884400861994"><ele>6.0</ele><time>2026-04-21T07:11:15.002Z</time></trkpt><trkpt lat="14.49790333604259" lon="120.98883226867949"><ele>6.0</ele><time>2026-04-21T07:11:16.002Z</time></trkpt><trkpt lat="14.497808603041825" lon="120.98880196778734"><ele>6.0</ele><time>2026-04-21T07:11:17.002Z</time></trkpt><trkpt lat="14.497710361411459" lon="120.98877198416889"><ele>6.0</ele><time>2026-04-21T07:11:18Z</time></trkpt><trkpt lat="14.497612997640871" lon="120.98872851083443"><ele>6.199999999999999</ele><time>2026-04-21T07:11:19Z</time></trkpt><trkpt lat="14.497507642062798" lon="120.98871394549448"><ele>6.3999999999999995</ele><time>2026-04-21T07:11:20Z</time></trkpt><trkpt lat="14.49740762795212" lon="120.98866811316219"><ele>6.6</ele><time>2026-04-21T07:11:21Z</time></trkpt><trkpt lat="14.497302044081964" lon="120.98865250729449"><ele>6.8</ele><time>2026-04-21T07:11:22Z</time></trkpt><trkpt lat="14.497206067074432" lon="120.98862141189224"><ele>7.0</ele><time>2026-04-21T07:11:23Z</time></trkpt><trkpt lat="14.497111024709923" lon="120.98859180654998"><ele>7.0</ele><time>2026-04-21T07:11:24Z</time></trkpt><trkpt lat="14.497027066673695" lon="120.98856903129494"><ele>6.999999999999999</ele><time>2026-04-21T07:11:25Z</time></trkpt><trkpt lat="14.496930111205597" lon="120.9885385900023"><ele>6.999999999999999</ele><time>2026-04-21T07:11:26Z</time></trkpt><trkpt lat="14.496837230631943" lon="120.98849979637653"><ele>7.0</ele><time>2026-04-21T07:11:27Z</time></trkpt><trkpt lat="14.496754883345552" lon="120.9884736804384"><ele>7.0</ele><time>2026-04-21T07:11:28Z</time></trkpt><trkpt lat="14.496680717407132" lon="120.98845015889854"><ele>7.0</ele><time>2026-04-21T07:11:29Z</time></trkpt><trkpt lat="14.496588066500523" lon="120.98841982106089"><ele>6.999999999999999</ele><time>2026-04-21T07:11:30Z</time></trkpt><trkpt lat="14.49652596596068" lon="120.98839897141077"><ele>6.999999999999999</ele><time>2026-04-21T07:11:31Z</time></trkpt><trkpt lat="14.496449352331256" lon="120.98837324914474"><ele>7.0</ele><time>2026-04-21T07:11:32Z</time></trkpt><trkpt lat="14.496331419373497" lon="120.98834849644177"><ele>7.0</ele><time>2026-04-21T07:11:34Z</time></trkpt><trkpt lat="14.49623289400494" lon="120.98831231718358"><ele>6.833333333333334</ele><time>2026-04-21T07:11:36Z</time></trkpt><trkpt lat="14.496158429900255" lon="120.98829044207434"><ele>6.666666666666667</ele><time>2026-04-21T07:11:37Z</time></trkpt><trkpt lat="14.496041304603482" lon="120.98824285364584"><ele>6.5</ele><time>2026-04-21T07:11:39Z</time></trkpt><trkpt lat="14.49596917303721" lon="120.98821259654159"><ele>6.333333333333334</ele><time>2026-04-21T07:11:40Z</time></trkpt><trkpt lat="14.495898968074869" lon="120.98819095800617"><ele>6.166666666666667</ele><time>2026-04-21T07:11:41Z</time></trkpt><trkpt lat="14.495833983838041" lon="120.98816726352587"><ele>6.0</ele><time>2026-04-21T07:11:42Z</time></trkpt><trkpt lat="14.495727446770012" lon="120.98812646991958"><ele>6.0</ele><time>2026-04-21T07:11:44Z</time></trkpt><trkpt lat="14.495617589712339" lon="120.98808197163625"><ele>6.0</ele><time>2026-04-21T07:11:46Z</time></trkpt><trkpt lat="14.495497038741936" lon="120.98803619260089"><ele>6.0</ele><time>2026-04-21T07:11:48Z</time></trkpt><trkpt lat="14.495387232911575" lon="120.98799142937224"><ele>6.0</ele><time>2026-04-21T07:11:50Z</time></trkpt><trkpt lat="14.49530427465257" lon="120.98795655716366"><ele>6.0</ele><time>2026-04-21T07:11:52Z</time></trkpt><trkpt lat="14.495208048877632" lon="120.9879168189373"><ele>6.0</ele><time>2026-04-21T07:11:54Z</time></trkpt><trkpt lat="14.495155265217463" lon="120.98787518066177"><ele>6.0</ele><time>2026-04-21T07:11:55Z</time></trkpt><trkpt lat="14.49509662502169" lon="120.98784851896656"><ele>6.0</ele><time>2026-04-21T07:11:56Z</time></trkpt><trkpt lat="14.494982914836324" lon="120.98781106480784"><ele>6.0</ele><time>2026-04-21T07:11:58Z</time></trkpt><trkpt lat="14.494892264809026" lon="120.98777053634062"><ele>6.0</ele><time>2026-04-21T07:12:00Z</time></trkpt><trkpt lat="14.494787599659746" lon="120.98772430063693"><ele>6.0</ele><time>2026-04-21T07:12:02Z</time></trkpt><trkpt lat="14.494675324005009" lon="120.98767324087042"><ele>6.0</ele><time>2026-04-21T07:12:04Z</time></trkpt><trkpt lat="14.49461745840032" lon="120.98764450392983"><ele>6.0</ele><time>2026-04-21T07:12:05.001Z</time></trkpt><trkpt lat="14.494517823228602" lon="120.98759734136053"><ele>6.0</ele><time>2026-04-21T07:12:07.001Z</time></trkpt><trkpt lat="14.494440857561813" lon="120.98755874509175"><ele>6.166666666666667</ele><time>2026-04-21T07:12:09.001Z</time></trkpt><trkpt lat="14.494353046176448" lon="120.98752122110506"><ele>6.333333333333334</ele><time>2026-04-21T07:12:11.001Z</time></trkpt><trkpt lat="14.494282720918534" lon="120.98749312210337"><ele>6.5</ele><time>2026-04-21T07:12:13.001Z</time></trkpt><trkpt lat="14.494173956959067" lon="120.98743952819365"><ele>6.666666666666667</ele><time>2026-04-21T07:12:15.001Z</time></trkpt><trkpt lat="14.494116020178732" lon="120.98738205117725"><ele>6.833333333333334</ele><time>2026-04-21T07:12:16.001Z</time></trkpt><trkpt lat="14.494055210676091" lon="120.98735108881027"><ele>7.0</ele><time>2026-04-21T07:12:17.001Z</time></trkpt><trkpt lat="14.493984143120487" lon="120.98731490334413"><ele>6.857142857142857</ele><time>2026-04-21T07:12:18.001Z</time></trkpt><trkpt lat="14.493909098037394" lon="120.98727669266142"><ele>6.714285714285714</ele><time>2026-04-21T07:12:19.001Z</time></trkpt><trkpt lat="14.493842761589681" lon="120.98724291616399"><ele>6.571428571428571</ele><time>2026-04-21T07:12:20.001Z</time></trkpt><trkpt lat="14.493769835487385" lon="120.98722264216052"><ele>6.428571428571429</ele><time>2026-04-21T07:12:21.001Z</time></trkpt><trkpt lat="14.493707185413486" lon="120.98719271239348"><ele>6.285714285714286</ele><time>2026-04-21T07:12:22.001Z</time></trkpt><trkpt lat="14.493652743152774" lon="120.98714616450341"><ele>6.142857142857142</ele><time>2026-04-21T07:12:23.001Z</time></trkpt><trkpt lat="14.49359061867279" lon="120.98713196808328"><ele>6.0</ele><time>2026-04-21T07:12:24.001Z</time></trkpt><trkpt lat="14.493494492407704" lon="120.98707916089926"><ele>6.0</ele><time>2026-04-21T07:12:26.001Z</time></trkpt><trkpt lat="14.493419864850603" lon="120.9870395291097"><ele>6.0</ele><time>2026-04-21T07:12:28.001Z</time></trkpt><trkpt lat="14.493319735845764" lon="120.98698434492468"><ele>6.0</ele><time>2026-04-21T07:12:30.001Z</time></trkpt><trkpt lat="14.493209870960117" lon="120.98692066729686"><ele>6.0</ele><time>2026-04-21T07:12:32.001Z</time></trkpt><trkpt lat="14.493142605054432" lon="120.98691542439467"><ele>6.0</ele><time>2026-04-21T07:12:33.001Z</time></trkpt><trkpt lat="14.493037858507117" lon="120.98689134779218"><ele>6.0</ele><time>2026-04-21T07:12:35.001Z</time></trkpt><trkpt lat="14.492975713806842" lon="120.9868731726786"><ele>6.0</ele><time>2026-04-21T07:12:38.001Z</time></trkpt><trkpt lat="14.492899408748405" lon="120.98684867700662"><ele>6.0</ele><time>2026-04-21T07:12:42.001Z</time></trkpt><trkpt lat="14.49280401453816" lon="120.98682713549518"><ele>6.0</ele><time>2026-04-21T07:12:44.001Z</time></trkpt><trkpt lat="14.492727557341041" lon="120.98679321725473"><ele>6.0</ele><time>2026-04-21T07:12:46.001Z</time></trkpt><trkpt lat="14.492664910462427" lon="120.98677829619719"><ele>6.0</ele><time>2026-04-21T07:12:47.001Z</time></trkpt><trkpt lat="14.492590942452292" lon="120.98674897311058"><ele>6.0</ele><time>2026-04-21T07:12:49.001Z</time></trkpt><trkpt lat="14.492565291239869" lon="120.9866367941243"><ele>6.0</ele><time>2026-04-21T07:12:54.001Z</time></trkpt><trkpt lat="14.492589304774025" lon="120.98655512296047"><ele>6.0</ele><time>2026-04-21T07:12:56.001Z</time></trkpt><trkpt lat="14.492527039237753" lon="120.98649481655788"><ele>6.0</ele><time>2026-04-21T07:12:58.001Z</time></trkpt><trkpt lat="14.492407983705325" lon="120.98643586307146"><ele>6.0</ele><time>2026-04-21T07:13:00.001Z</time></trkpt><trkpt lat="14.492349320666651" lon="120.98640352655104"><ele>6.0</ele><time>2026-04-21T07:13:01.001Z</time></trkpt><trkpt lat="14.492284148406357" lon="120.98636644268261"><ele>6.0</ele><time>2026-04-21T07:13:02.001Z</time></trkpt><trkpt lat="14.492225708785499" lon="120.98633910583337"><ele>6.0</ele><time>2026-04-21T07:13:03.001Z</time></trkpt><trkpt lat="14.492153814746441" lon="120.98630087193264"><ele>6.0</ele><time>2026-04-21T07:13:04.001Z</time></trkpt><trkpt lat="14.49208072535561" lon="120.98625895900288"><ele>6.0</ele><time>2026-04-21T07:13:05.001Z</time></trkpt><trkpt lat="14.49200250568896" lon="120.98621390611201"><ele>6.0</ele><time>2026-04-21T07:13:06.001Z</time></trkpt><trkpt lat="14.491914073043741" lon="120.98615253152227"><ele>5.75</ele><time>2026-04-21T07:13:07.001Z</time></trkpt><trkpt lat="14.491841850548662" lon="120.98606167026117"><ele>5.5</ele><time>2026-04-21T07:13:08.001Z</time></trkpt><trkpt lat="14.491737921309628" lon="120.98598073110556"><ele>5.25</ele><time>2026-04-21T07:13:09.001Z</time></trkpt><trkpt lat="14.491634322864916" lon="120.98589723161794"><ele>5.0</ele><time>2026-04-21T07:13:10.001Z</time></trkpt><trkpt lat="14.491553169102785" lon="120.98582760491065"><ele>5.0</ele><time>2026-04-21T07:13:11.001Z</time></trkpt><trkpt lat="14.49147411187576" lon="120.9857783660944"><ele>5.0</ele><time>2026-04-21T07:13:12.002Z</time></trkpt><trkpt lat="14.491423114319744" lon="120.98572507094332"><ele>5.0</ele><time>2026-04-21T07:13:13.002Z</time></trkpt><trkpt lat="14.491350758277575" lon="120.98566298023026"><ele>5.0</ele><time>2026-04-21T07:13:15.002Z</time></trkpt><trkpt lat="14.491287869126825" lon="120.98561129974466"><ele>5.0</ele><time>2026-04-21T07:13:18.002Z</time></trkpt><trkpt lat="14.491222697321748" lon="120.9855535155392"><ele>5.0</ele><time>2026-04-21T07:13:20.002Z</time></trkpt><trkpt lat="14.491154553550576" lon="120.98549704280789"><ele>5.333333333333334</ele><time>2026-04-21T07:13:22.002Z</time></trkpt><trkpt lat="14.491064360447375" lon="120.9854322411242"><ele>5.666666666666667</ele><time>2026-04-21T07:13:25Z</time></trkpt><trkpt lat="14.491006800364355" lon="120.98539013118783"><ele>6.0</ele><time>2026-04-21T07:13:26Z</time></trkpt><trkpt lat="14.490945699727028" lon="120.9853473365929"><ele>6.333333333333334</ele><time>2026-04-21T07:13:27Z</time></trkpt><trkpt lat="14.490866548071326" lon="120.98528111301219"><ele>6.666666666666667</ele><time>2026-04-21T07:13:29Z</time></trkpt><trkpt lat="14.490800900188846" lon="120.98524907221454"><ele>7.0</ele><time>2026-04-21T07:13:31Z</time></trkpt><trkpt lat="14.490692928246665" lon="120.9852031519054"><ele>7.000000000000001</ele><time>2026-04-21T07:13:33Z</time></trkpt><trkpt lat="14.49058658632694" lon="120.98513966808571"><ele>7.0</ele><time>2026-04-21T07:13:35Z</time></trkpt><trkpt lat="14.49051864729251" lon="120.9851037438479"><ele>7.0</ele><time>2026-04-21T07:13:36Z</time></trkpt><trkpt lat="14.49046140844818" lon="120.98507012191071"><ele>7.0</ele><time>2026-04-21T07:13:37Z</time></trkpt><trkpt lat="14.490397340221918" lon="120.98502024348305"><ele>7.000000000000001</ele><time>2026-04-21T07:13:38Z</time></trkpt><trkpt lat="14.49034777564263" lon="120.98496252010803"><ele>7.0</ele><time>2026-04-21T07:13:39Z</time></trkpt><trkpt lat="14.49030012972861" lon="120.9848949174346"><ele>6.8</ele><time>2026-04-21T07:13:40Z</time></trkpt><trkpt lat="14.49028255239558" lon="120.9847987724275"><ele>6.6</ele><time>2026-04-21T07:13:41Z</time></trkpt><trkpt lat="14.490237783553193" lon="120.98471051934257"><ele>6.3999999999999995</ele><time>2026-04-21T07:13:42Z</time></trkpt><trkpt lat="14.490177217912166" lon="120.98461779658902"><ele>6.199999999999999</ele><time>2026-04-21T07:13:43Z</time></trkpt><trkpt lat="14.490135172325324" lon="120.98452422992236"><ele>6.0</ele><time>2026-04-21T07:13:44Z</time></trkpt><trkpt lat="14.490042042582996" lon="120.98445604527588"><ele>6.0</ele><time>2026-04-21T07:13:45Z</time></trkpt><trkpt lat="14.489962125937689" lon="120.98438141542412"><ele>6.0</ele><time>2026-04-21T07:13:46Z</time></trkpt><trkpt lat="14.489892174752883" lon="120.98431929383395"><ele>6.0</ele><time>2026-04-21T07:13:47Z</time></trkpt><trkpt lat="14.489843712321866" lon="120.9842510889552"><ele>6.0</ele><time>2026-04-21T07:13:48Z</time></trkpt><trkpt lat="14.489806044747118" lon="120.98419757963893"><ele>6.0</ele><time>2026-04-21T07:13:49Z</time></trkpt><trkpt lat="14.489678869054625" lon="120.98414373341242"><ele>6.0</ele><time>2026-04-21T07:13:50Z</time></trkpt><trkpt lat="14.489624789304786" lon="120.98410066778862"><ele>6.0</ele><time>2026-04-21T07:13:51Z</time></trkpt><trkpt lat="14.489499933156846" lon="120.98412933605786"><ele>6.0</ele><time>2026-04-21T07:13:53Z</time></trkpt><trkpt lat="14.489451035793989" lon="120.98418772674017"><ele>6.0</ele><time>2026-04-21T07:13:54Z</time></trkpt><trkpt lat="14.489439846169821" lon="120.98427333254155"><ele>6.0</ele><time>2026-04-21T07:13:55Z</time></trkpt><trkpt lat="14.489394034617145" lon="120.98435428731288"><ele>6.0</ele><time>2026-04-21T07:13:56Z</time></trkpt><trkpt lat="14.489362968991076" lon="120.98442286509517"><ele>6.199999999999999</ele><time>2026-04-21T07:13:57Z</time></trkpt><trkpt lat="14.489283465164442" lon="120.98454204064775"><ele>6.3999999999999995</ele><time>2026-04-21T07:13:59Z</time></trkpt><trkpt lat="14.489236872693832" lon="120.98461144612199"><ele>6.6</ele><time>2026-04-21T07:14:01Z</time></trkpt><trkpt lat="14.48917379272986" lon="120.98459925709929"><ele>6.8</ele><time>2026-04-21T07:14:03Z</time></trkpt><trkpt lat="14.489087994858032" lon="120.98451677120184"><ele>7.0</ele><time>2026-04-21T07:14:05Z</time></trkpt><trkpt lat="14.48901163169543" lon="120.98446972565485"><ele>7.0</ele><time>2026-04-21T07:14:07Z</time></trkpt><trkpt lat="14.488950486094538" lon="120.98443092505688"><ele>6.999999999999999</ele><time>2026-04-21T07:14:11.001Z</time></trkpt><trkpt lat="14.488857851675764" lon="120.98437375737223"><ele>6.999999999999999</ele><time>2026-04-21T07:14:13.001Z</time></trkpt><trkpt lat="14.48876730734156" lon="120.9843045418088"><ele>7.0</ele><time>2026-04-21T07:14:15.001Z</time></trkpt><trkpt lat="14.488705955429303" lon="120.98426650077849"><ele>7.0</ele><time>2026-04-21T07:14:18.001Z</time></trkpt><trkpt lat="14.48860691354967" lon="120.98421403814666"><ele>7.000000000000001</ele><time>2026-04-21T07:14:21.001Z</time></trkpt><trkpt lat="14.488545329604536" lon="120.98418014087025"><ele>7.0</ele><time>2026-04-21T07:14:22.001Z</time></trkpt><trkpt lat="14.488488122675475" lon="120.98412350191273"><ele>7.0</ele><time>2026-04-21T07:14:23.001Z</time></trkpt><trkpt lat="14.488410867476516" lon="120.98409126906243"><ele>7.0</ele><time>2026-04-21T07:14:24.001Z</time></trkpt><trkpt lat="14.48834091409189" lon="120.98404223134806"><ele>7.000000000000001</ele><time>2026-04-21T07:14:25.001Z</time></trkpt><trkpt lat="14.48826395230808" lon="120.98399276987493"><ele>7.0</ele><time>2026-04-21T07:14:26.001Z</time></trkpt><trkpt lat="14.488198280824133" lon="120.98393678068047"><ele>7.0</ele><time>2026-04-21T07:14:27.001Z</time></trkpt><trkpt lat="14.488129476899852" lon="120.98388532065543"><ele>6.999999999999999</ele><time>2026-04-21T07:14:28.001Z</time></trkpt><trkpt lat="14.488043452699962" lon="120.9838216813757"><ele>6.999999999999999</ele><time>2026-04-21T07:14:29.001Z</time></trkpt><trkpt lat="14.487965646909583" lon="120.98375949223022"><ele>7.0</ele><time>2026-04-21T07:14:30.001Z</time></trkpt><trkpt lat="14.487873766281483" lon="120.98368688687"><ele>7.0</ele><time>2026-04-21T07:14:31.001Z</time></trkpt><trkpt lat="14.487783326107019" lon="120.98361513568118"><ele>7.0</ele><time>2026-04-21T07:14:32.001Z</time></trkpt><trkpt lat="14.487700328480342" lon="120.98354928911033"><ele>6.999999999999999</ele><time>2026-04-21T07:14:33.001Z</time></trkpt><trkpt lat="14.487616372256067" lon="120.98348268199479"><ele>6.999999999999999</ele><time>2026-04-21T07:14:34.001Z</time></trkpt><trkpt lat="14.487518850303937" lon="120.98340531246603"><ele>7.0</ele><time>2026-04-21T07:14:35.001Z</time></trkpt><trkpt lat="14.487424107032176" lon="120.9833511946348"><ele>7.0</ele><time>2026-04-21T07:14:36.001Z</time></trkpt><trkpt lat="14.487333547615078" lon="120.98327818352244"><ele>7.0</ele><time>2026-04-21T07:14:37.001Z</time></trkpt><trkpt lat="14.48725400658896" lon="120.98319533256712"><ele>6.999999999999999</ele><time>2026-04-21T07:14:38.001Z</time></trkpt><trkpt lat="14.487163830207141" lon="120.98313516858865"><ele>6.999999999999999</ele><time>2026-04-21T07:14:39.001Z</time></trkpt><trkpt lat="14.48707085366741" lon="120.9830563799497"><ele>7.0</ele><time>2026-04-21T07:14:40.001Z</time></trkpt><trkpt lat="14.486987957793438" lon="120.98299536785618"><ele>7.0</ele><time>2026-04-21T07:14:41.001Z</time></trkpt><trkpt lat="14.486891964452065" lon="120.98292370684305"><ele>7.166666666666667</ele><time>2026-04-21T07:14:42.001Z</time></trkpt><trkpt lat="14.486820810987933" lon="120.98286415744663"><ele>7.333333333333334</ele><time>2026-04-21T07:14:43.001Z</time></trkpt><trkpt lat="14.486754396092977" lon="120.98280838895172"><ele>7.5</ele><time>2026-04-21T07:14:44.001Z</time></trkpt><trkpt lat="14.486681318198414" lon="120.98276211760609"><ele>7.666666666666666</ele><time>2026-04-21T07:14:45.001Z</time></trkpt><trkpt lat="14.486625621528294" lon="120.98271651269052"><ele>7.833333333333333</ele><time>2026-04-21T07:14:46.001Z</time></trkpt><trkpt lat="14.486582653607522" lon="120.98266310570268"><ele>8.0</ele><time>2026-04-21T07:14:47.001Z</time></trkpt><trkpt lat="14.486518780312014" lon="120.98261246900927"><ele>8.0</ele><time>2026-04-21T07:14:49.001Z</time></trkpt><trkpt lat="14.486457275882852" lon="120.9825759390488"><ele>8.0</ele><time>2026-04-21T07:14:56.001Z</time></trkpt><trkpt lat="14.48636627606837" lon="120.9825061069421"><ele>8.0</ele><time>2026-04-21T07:14:58.001Z</time></trkpt><trkpt lat="14.486252716292316" lon="120.98242990635129"><ele>8.0</ele><time>2026-04-21T07:15:00.001Z</time></trkpt><trkpt lat="14.486197960971332" lon="120.98239151575584"><ele>8.0</ele><time>2026-04-21T07:15:01.001Z</time></trkpt><trkpt lat="14.48612085410486" lon="120.98234943332425"><ele>7.499999999999999</ele><time>2026-04-21T07:15:02.001Z</time></trkpt><trkpt lat="14.486041700266414" lon="120.98231935324418"><ele>7.0</ele><time>2026-04-21T07:15:03.001Z</time></trkpt><trkpt lat="14.485952312410706" lon="120.98229129742823"><ele>6.5</ele><time>2026-04-21T07:15:04.001Z</time></trkpt><trkpt lat="14.485874585513315" lon="120.9822627014235"><ele>6.0</ele><time>2026-04-21T07:15:05.001Z</time></trkpt><trkpt lat="14.485788557595772" lon="120.98221682399263"><ele>5.5</ele><time>2026-04-21T07:15:06.001Z</time></trkpt><trkpt lat="14.485730367722494" lon="120.98215593463506"><ele>5.0</ele><time>2026-04-21T07:15:07.001Z</time></trkpt><trkpt lat="14.48567139564271" lon="120.98210529718185"><ele>5.0</ele><time>2026-04-21T07:15:08.001Z</time></trkpt><trkpt lat="14.485555192024096" lon="120.98202245443967"><ele>5.0</ele><time>2026-04-21T07:15:09.001Z</time></trkpt><trkpt lat="14.485457139034843" lon="120.98193177290732"><ele>5.0</ele><time>2026-04-21T07:15:10.001Z</time></trkpt><trkpt lat="14.485401830997612" lon="120.98187138176496"><ele>5.0</ele><time>2026-04-21T07:15:11.001Z</time></trkpt><trkpt lat="14.485316718311513" lon="120.98178970507799"><ele>6.0</ele><time>2026-04-21T07:15:12.001Z</time></trkpt><trkpt lat="14.485229417102179" lon="120.98169788709683"><ele>7.0</ele><time>2026-04-21T07:15:13.001Z</time></trkpt><trkpt lat="14.48513630735373" lon="120.98160438956451"><ele>8.0</ele><time>2026-04-21T07:15:14.001Z</time></trkpt><trkpt lat="14.485042081396415" lon="120.98151010007496"><ele>9.0</ele><time>2026-04-21T07:15:15.001Z</time></trkpt><trkpt lat="14.484947541644932" lon="120.98142462467248"><ele>9.0</ele><time>2026-04-21T07:15:16.001Z</time></trkpt><trkpt lat="14.484853146275386" lon="120.98134505072049"><ele>9.0</ele><time>2026-04-21T07:15:17.001Z</time></trkpt><trkpt lat="14.484769352555768" lon="120.98126517356307"><ele>9.0</ele><time>2026-04-21T07:15:18.002Z</time></trkpt><trkpt lat="14.484691549308646" lon="120.98119703604887"><ele>9.0</ele><time>2026-04-21T07:15:19.002Z</time></trkpt><trkpt lat="14.48463435942145" lon="120.98113954867324"><ele>9.0</ele><time>2026-04-21T07:15:20.002Z</time></trkpt><trkpt lat="14.484585297711206" lon="120.98109671706494"><ele>9.0</ele><time>2026-04-21T07:15:24.002Z</time></trkpt><trkpt lat="14.484503298040536" lon="120.98100910139648"><ele>9.0</ele><time>2026-04-21T07:15:27.002Z</time></trkpt><trkpt lat="14.48445417981683" lon="120.98096494659357"><ele>9.0</ele><time>2026-04-21T07:15:28.002Z</time></trkpt><trkpt lat="14.48440111488274" lon="120.98091719545663"><ele>9.0</ele><time>2026-04-21T07:15:29.002Z</time></trkpt><trkpt lat="14.484343295310188" lon="120.98086516587918"><ele>9.0</ele><time>2026-04-21T07:15:30Z</time></trkpt><trkpt lat="14.48427969872106" lon="120.98080793776118"><ele>9.0</ele><time>2026-04-21T07:15:31Z</time></trkpt><trkpt lat="14.484214149434553" lon="120.9807489525231"><ele>9.0</ele><time>2026-04-21T07:15:32Z</time></trkpt><trkpt lat="14.48414531655256" lon="120.98068701249548"><ele>9.0</ele><time>2026-04-21T07:15:33Z</time></trkpt><trkpt lat="14.484069065477339" lon="120.9806183970724"><ele>9.0</ele><time>2026-04-21T07:15:34Z</time></trkpt><trkpt lat="14.483992611351475" lon="120.98054959899082"><ele>9.0</ele><time>2026-04-21T07:15:35Z</time></trkpt><trkpt lat="14.483919877797362" lon="120.98048414888795"><ele>9.0</ele><time>2026-04-21T07:15:36Z</time></trkpt><trkpt lat="14.483841648672689" lon="120.98041375352399"><ele>8.8</ele><time>2026-04-21T07:15:37Z</time></trkpt><trkpt lat="14.483760634817305" lon="120.98034085229577"><ele>8.600000000000001</ele><time>2026-04-21T07:15:38Z</time></trkpt><trkpt lat="14.483687861030994" lon="120.98027536600257"><ele>8.4</ele><time>2026-04-21T07:15:39Z</time></trkpt><trkpt lat="14.483622417218331" lon="120.98021647569622"><ele>8.200000000000001</ele><time>2026-04-21T07:15:40Z</time></trkpt><trkpt lat="14.483560880061946" lon="120.98016110075712"><ele>8.0</ele><time>2026-04-21T07:15:41Z</time></trkpt><trkpt lat="14.483496924790364" lon="120.98010354988632"><ele>8.0</ele><time>2026-04-21T07:15:42Z</time></trkpt><trkpt lat="14.48342463085904" lon="120.98003849537415"><ele>8.0</ele><time>2026-04-21T07:15:43Z</time></trkpt><trkpt lat="14.483361224135045" lon="120.97998143812075"><ele>8.0</ele><time>2026-04-21T07:15:44Z</time></trkpt><trkpt lat="14.48328736499152" lon="120.97991497516865"><ele>8.0</ele><time>2026-04-21T07:15:45Z</time></trkpt><trkpt lat="14.483217257119437" lon="120.9798518877994"><ele>8.0</ele><time>2026-04-21T07:15:46Z</time></trkpt><trkpt lat="14.48315308848974" lon="120.9797941449494"><ele>7.999999999999999</ele><time>2026-04-21T07:15:47Z</time></trkpt><trkpt lat="14.483103236809413" lon="120.97974928534998"><ele>8.0</ele><time>2026-04-21T07:15:48Z</time></trkpt><trkpt lat="14.483042372637225" lon="120.97969451604189"><ele>8.0</ele><time>2026-04-21T07:15:50Z</time></trkpt><trkpt lat="14.482975500750356" lon="120.97965483202279"><ele>8.0</ele><time>2026-04-21T07:15:54Z</time></trkpt><trkpt lat="14.482912050215983" lon="120.97959409615665"><ele>7.999999999999999</ele><time>2026-04-21T07:15:56Z</time></trkpt><trkpt lat="14.48284892744321" lon="120.97953791871929"><ele>8.0</ele><time>2026-04-21T07:16:01Z</time></trkpt><trkpt lat="14.48276563293212" lon="120.97947439597681"><ele>7.999999999999999</ele><time>2026-04-21T07:16:03Z</time></trkpt><trkpt lat="14.482719639366216" lon="120.97941307566522"><ele>8.0</ele><time>2026-04-21T07:16:04Z</time></trkpt><trkpt lat="14.482658396933719" lon="120.97936068067877"><ele>8.0</ele><time>2026-04-21T07:16:05Z</time></trkpt><trkpt lat="14.482588817561918" lon="120.97932336260654"><ele>8.0</ele><time>2026-04-21T07:16:06Z</time></trkpt><trkpt lat="14.48253668098725" lon="120.97926589083818"><ele>7.999999999999999</ele><time>2026-04-21T07:16:07Z</time></trkpt><trkpt lat="14.4824701392476" lon="120.97921181070089"><ele>8.0</ele><time>2026-04-21T07:16:08Z</time></trkpt><trkpt lat="14.482398144775255" lon="120.97914735446902"><ele>7.999999999999999</ele><time>2026-04-21T07:16:09Z</time></trkpt><trkpt lat="14.482321332650843" lon="120.97909442437178"><ele>8.0</ele><time>2026-04-21T07:16:10Z</time></trkpt><trkpt lat="14.482261560199092" lon="120.97902117343932"><ele>8.0</ele><time>2026-04-21T07:16:11Z</time></trkpt><trkpt lat="14.482205118733665" lon="120.97897288585537"><ele>8.0</ele><time>2026-04-21T07:16:12Z</time></trkpt><trkpt lat="14.48213936905057" lon="120.97893408162038"><ele>7.999999999999999</ele><time>2026-04-21T07:16:13Z</time></trkpt><trkpt lat="14.482088139519714" lon="120.97888084081475"><ele>8.0</ele><time>2026-04-21T07:16:14Z</time></trkpt><trkpt lat="14.482040452013152" lon="120.97883200774464"><ele>7.999999999999999</ele><time>2026-04-21T07:16:15Z</time></trkpt><trkpt lat="14.481975783592706" lon="120.97877939347231"><ele>8.0</ele><time>2026-04-21T07:16:16Z</time></trkpt><trkpt lat="14.481908622973696" lon="120.97872427063722"><ele>8.0</ele><time>2026-04-21T07:16:17Z</time></trkpt><trkpt lat="14.481840700154828" lon="120.97866852189902"><ele>8.0</ele><time>2026-04-21T07:16:18Z</time></trkpt><trkpt lat="14.481768218377317" lon="120.97861068286234"><ele>7.999999999999999</ele><time>2026-04-21T07:16:19Z</time></trkpt><trkpt lat="14.481701630509175" lon="120.97855947515612"><ele>8.0</ele><time>2026-04-21T07:16:20Z</time></trkpt><trkpt lat="14.481629916293448" lon="120.97851603576471"><ele>7.999999999999999</ele><time>2026-04-21T07:16:21Z</time></trkpt><trkpt lat="14.481541025642649" lon="120.97850372848302"><ele>8.0</ele><time>2026-04-21T07:16:22Z</time></trkpt><trkpt lat="14.481436058667754" lon="120.97846466911173"><ele>8.0</ele><time>2026-04-21T07:16:24.001Z</time></trkpt><trkpt lat="14.481390263072457" lon="120.97841811130884"><ele>8.0</ele><time>2026-04-21T07:16:28.001Z</time></trkpt><trkpt lat="14.481319543259467" lon="120.97835778519926"><ele>7.999999999999999</ele><time>2026-04-21T07:16:31.001Z</time></trkpt><trkpt lat="14.481250257116224" lon="120.9783177560044"><ele>8.0</ele><time>2026-04-21T07:16:35.001Z</time></trkpt><trkpt lat="14.481181016754105" lon="120.97823961796348"><ele>7.800000000000001</ele><time>2026-04-21T07:16:37.001Z</time></trkpt><trkpt lat="14.481111367348149" lon="120.97817693996994"><ele>7.6000000000000005</ele><time>2026-04-21T07:16:39.001Z</time></trkpt><trkpt lat="14.481033147066402" lon="120.97810474372555"><ele>7.3999999999999995</ele><time>2026-04-21T07:16:41.001Z</time></trkpt><trkpt lat="14.480950738538002" lon="120.97802868176038"><ele>7.199999999999999</ele><time>2026-04-21T07:16:43.001Z</time></trkpt><trkpt lat="14.480867450612706" lon="120.97795473117586"><ele>7.0</ele><time>2026-04-21T07:16:45.001Z</time></trkpt><trkpt lat="14.480804129978237" lon="120.97792246678964"><ele>7.000000000000001</ele><time>2026-04-21T07:16:46.001Z</time></trkpt><trkpt lat="14.480740749718237" lon="120.97786024166902"><ele>7.0</ele><time>2026-04-21T07:16:47.001Z</time></trkpt><trkpt lat="14.48067605847059" lon="120.97781145010889"><ele>7.0</ele><time>2026-04-21T07:16:48.001Z</time></trkpt><trkpt lat="14.480615237941139" lon="120.97775343808011"><ele>7.0</ele><time>2026-04-21T07:16:49.001Z</time></trkpt><trkpt lat="14.480537803425248" lon="120.97769055427304"><ele>7.000000000000001</ele><time>2026-04-21T07:16:50.001Z</time></trkpt><trkpt lat="14.480462319182527" lon="120.97763434918143"><ele>7.0</ele><time>2026-04-21T07:16:51.001Z</time></trkpt><trkpt lat="14.480375844294674" lon="120.97755560316615"><ele>7.199999999999999</ele><time>2026-04-21T07:16:52.001Z</time></trkpt><trkpt lat="14.480300356029" lon="120.97749325599516"><ele>7.3999999999999995</ele><time>2026-04-21T07:16:53.001Z</time></trkpt><trkpt lat="14.480228417066005" lon="120.97742997659134"><ele>7.6000000000000005</ele><time>2026-04-21T07:16:54.001Z</time></trkpt><trkpt lat="14.480148627337366" lon="120.97735231710728"><ele>7.800000000000001</ele><time>2026-04-21T07:16:55.001Z</time></trkpt><trkpt lat="14.480067481580178" lon="120.97726722413984"><ele>8.0</ele><time>2026-04-21T07:16:56.001Z</time></trkpt><trkpt lat="14.479999538222472" lon="120.9771887281296"><ele>7.999999999999999</ele><time>2026-04-21T07:16:57.001Z</time></trkpt><trkpt lat="14.4799358011283" lon="120.97712048332812"><ele>8.0</ele><time>2026-04-21T07:16:58.001Z</time></trkpt><trkpt lat="14.479872577538442" lon="120.97703745083922"><ele>8.0</ele><time>2026-04-21T07:16:59.001Z</time></trkpt><trkpt lat="14.479816087677627" lon="120.97697239483254"><ele>8.0</ele><time>2026-04-21T07:17:00.001Z</time></trkpt><trkpt lat="14.479761098161195" lon="120.97691241727301"><ele>7.999999999999999</ele><time>2026-04-21T07:17:01.001Z</time></trkpt><trkpt lat="14.479704325765912" lon="120.97684924210776"><ele>8.0</ele><time>2026-04-21T07:17:02.001Z</time></trkpt><trkpt lat="14.479642208815266" lon="120.97678113743957"><ele>7.6000000000000005</ele><time>2026-04-21T07:17:03.001Z</time></trkpt><trkpt lat="14.479595265189882" lon="120.97670860359288"><ele>7.200000000000001</ele><time>2026-04-21T07:17:04.001Z</time></trkpt><trkpt lat="14.479535674669139" lon="120.97663910998469"><ele>6.8</ele><time>2026-04-21T07:17:05.001Z</time></trkpt><trkpt lat="14.479461598665791" lon="120.97657247687025"><ele>6.4</ele><time>2026-04-21T07:17:06.001Z</time></trkpt><trkpt lat="14.479399654754994" lon="120.97649651448245"><ele>6.0</ele><time>2026-04-21T07:17:07.001Z</time></trkpt><trkpt lat="14.479330765040496" lon="120.97641398991581"><ele>5.75</ele><time>2026-04-21T07:17:08.001Z</time></trkpt><trkpt lat="14.479262621037595" lon="120.97632324428128"><ele>5.5</ele><time>2026-04-21T07:17:09.001Z</time></trkpt><trkpt lat="14.479201902376548" lon="120.97623167671885"><ele>5.25</ele><time>2026-04-21T07:17:10.001Z</time></trkpt><trkpt lat="14.47912532942681" lon="120.97613654204612"><ele>5.0</ele><time>2026-04-21T07:17:11.001Z</time></trkpt><trkpt lat="14.479053221935967" lon="120.97604729419804"><ele>5.0</ele><time>2026-04-21T07:17:12.001Z</time></trkpt><trkpt lat="14.478975957890006" lon="120.97595295611787"><ele>5.0</ele><time>2026-04-21T07:17:13.001Z</time></trkpt><trkpt lat="14.478904877956616" lon="120.97586497183453"><ele>5.0</ele><time>2026-04-21T07:17:14.001Z</time></trkpt><trkpt lat="14.478839221771137" lon="120.97578341518643"><ele>5.0</ele><time>2026-04-21T07:17:15.001Z</time></trkpt><trkpt lat="14.47878659754294" lon="120.97571814060545"><ele>5.0</ele><time>2026-04-21T07:17:16.001Z</time></trkpt><trkpt lat="14.478730519655024" lon="120.97564883382265"><ele>5.4</ele><time>2026-04-21T07:17:18.001Z</time></trkpt><trkpt lat="14.478670495124394" lon="120.97557464929584"><ele>5.8</ele><time>2026-04-21T07:17:23.001Z</time></trkpt><trkpt lat="14.478613850443178" lon="120.97552789091334"><ele>6.199999999999999</ele><time>2026-04-21T07:17:27.001Z</time></trkpt><trkpt lat="14.47856538246029" lon="120.97544597452288"><ele>6.6</ele><time>2026-04-21T07:17:29.001Z</time></trkpt><trkpt lat="14.478484354839617" lon="120.97534673930286"><ele>7.0</ele><time>2026-04-21T07:17:31.001Z</time></trkpt><trkpt lat="14.478435876383633" lon="120.97528736699803"><ele>7.000000000000001</ele><time>2026-04-21T07:17:32.001Z</time></trkpt><trkpt lat="14.478392841236612" lon="120.97522100579798"><ele>7.0</ele><time>2026-04-21T07:17:33.001Z</time></trkpt><trkpt lat="14.478350825903437" lon="120.97515230194743"><ele>7.0</ele><time>2026-04-21T07:17:34.002Z</time></trkpt><trkpt lat="14.478306033057352" lon="120.97507404690403"><ele>7.0</ele><time>2026-04-21T07:17:35.002Z</time></trkpt><trkpt lat="14.478260710342006" lon="120.97502419908456"><ele>7.000000000000001</ele><time>2026-04-21T07:17:36Z</time></trkpt><trkpt lat="14.478228394462437" lon="120.97495744640561"><ele>7.0</ele><time>2026-04-21T07:17:37Z</time></trkpt><trkpt lat="14.478178726278383" lon="120.97489139162937"><ele>7.25</ele><time>2026-04-21T07:17:39Z</time></trkpt><trkpt lat="14.478062436140387" lon="120.974960206063"><ele>7.5</ele><time>2026-04-21T07:17:40Z</time></trkpt><trkpt lat="14.477985737021218" lon="120.97492325634931"><ele>7.75</ele><time>2026-04-21T07:17:42Z</time></trkpt><trkpt lat="14.477921454796881" lon="120.97479973548441"><ele>8.0</ele><time>2026-04-21T07:17:44Z</time></trkpt><trkpt lat="14.477859007650544" lon="120.97472159186533"><ele>7.999999999999999</ele><time>2026-04-21T07:17:45Z</time></trkpt><trkpt lat="14.477796444724186" lon="120.97464330328525"><ele>8.0</ele><time>2026-04-21T07:17:46Z</time></trkpt><trkpt lat="14.477744028723011" lon="120.97457769844576"><ele>8.0</ele><time>2026-04-21T07:17:47Z</time></trkpt><trkpt lat="14.4776924588313" lon="120.97451300554003"><ele>8.0</ele><time>2026-04-21T07:17:48Z</time></trkpt><trkpt lat="14.477641232986146" lon="120.97444874360954"><ele>7.999999999999999</ele><time>2026-04-21T07:17:49Z</time></trkpt><trkpt lat="14.47758317782787" lon="120.9743824738147"><ele>8.0</ele><time>2026-04-21T07:17:50Z</time></trkpt><trkpt lat="14.477526748414629" lon="120.97431414197462"><ele>7.999999999999999</ele><time>2026-04-21T07:17:51Z</time></trkpt><trkpt lat="14.477476325129556" lon="120.97425406904404"><ele>8.0</ele><time>2026-04-21T07:17:52Z</time></trkpt><trkpt lat="14.477414308362556" lon="120.9741801838616"><ele>8.0</ele><time>2026-04-21T07:17:53Z</time></trkpt><trkpt lat="14.477350549519548" lon="120.9741042232199"><ele>8.0</ele><time>2026-04-21T07:17:54Z</time></trkpt><trkpt lat="14.477293626753081" lon="120.97403640692927"><ele>7.999999999999999</ele><time>2026-04-21T07:17:55Z</time></trkpt><trkpt lat="14.477243400549696" lon="120.97397657397062"><ele>8.0</ele><time>2026-04-21T07:17:56Z</time></trkpt><trkpt lat="14.477201401423718" lon="120.97392659989416"><ele>7.7142857142857135</ele><time>2026-04-21T07:17:57Z</time></trkpt><trkpt lat="14.477147892692557" lon="120.97386293076228"><ele>7.428571428571428</ele><time>2026-04-21T07:17:59Z</time></trkpt><trkpt lat="14.477101427537558" lon="120.9738076430358"><ele>7.142857142857142</ele><time>2026-04-21T07:18:03Z</time></trkpt><trkpt lat="14.477037367530679" lon="120.9737851984986"><ele>6.857142857142857</ele><time>2026-04-21T07:18:06Z</time></trkpt><trkpt lat="14.476994156993491" lon="120.9737221555884"><ele>6.571428571428571</ele><time>2026-04-21T07:18:08Z</time></trkpt><trkpt lat="14.476944337329002" lon="120.97367664681754"><ele>6.285714285714285</ele><time>2026-04-21T07:18:11Z</time></trkpt><trkpt lat="14.476890175676465" lon="120.9736222596788"><ele>6.0</ele><time>2026-04-21T07:18:14Z</time></trkpt><trkpt lat="14.476883525074456" lon="120.97353938795803"><ele>6.0</ele><time>2026-04-21T07:18:17Z</time></trkpt><trkpt lat="14.476818997723377" lon="120.97346462504522"><ele>6.0</ele><time>2026-04-21T07:18:19Z</time></trkpt><trkpt lat="14.476770129533064" lon="120.97340792955976"><ele>6.0</ele><time>2026-04-21T07:18:20Z</time></trkpt><trkpt lat="14.476715392544582" lon="120.97334442530557"><ele>6.0</ele><time>2026-04-21T07:18:21Z</time></trkpt><trkpt lat="14.476662224161101" lon="120.97328261411903"><ele>6.0</ele><time>2026-04-21T07:18:22Z</time></trkpt><trkpt lat="14.476597506698601" lon="120.97320683696529"><ele>6.0</ele><time>2026-04-21T07:18:23Z</time></trkpt><trkpt lat="14.476544063738986" lon="120.97314426100704"><ele>5.833333333333333</ele><time>2026-04-21T07:18:24Z</time></trkpt><trkpt lat="14.476491616834139" lon="120.97308285136575"><ele>5.666666666666667</ele><time>2026-04-21T07:18:25Z</time></trkpt><trkpt lat="14.476449051863336" lon="120.97303301251182"><ele>5.5</ele><time>2026-04-21T07:18:26Z</time></trkpt><trkpt lat="14.476428014706004" lon="120.97292598680907"><ele>5.333333333333334</ele><time>2026-04-21T07:18:28Z</time></trkpt><trkpt lat="14.47649954924137" lon="120.97283032480532"><ele>5.166666666666667</ele><time>2026-04-21T07:18:30.001Z</time></trkpt><trkpt lat="14.47655620092654" lon="120.97278498898885"><ele>5.0</ele><time>2026-04-21T07:18:31.001Z</time></trkpt><trkpt lat="14.476608552952763" lon="120.97272568657972"><ele>5.0</ele><time>2026-04-21T07:18:32.001Z</time></trkpt><trkpt lat="14.476638724849249" lon="120.97266515936735"><ele>5.0</ele><time>2026-04-21T07:18:33.001Z</time></trkpt><trkpt lat="14.476661475385237" lon="120.97259986381003"><ele>5.0</ele><time>2026-04-21T07:18:34.001Z</time></trkpt><trkpt lat="14.476717102922157" lon="120.97254181846726"><ele>5.0</ele><time>2026-04-21T07:18:36.001Z</time></trkpt><trkpt lat="14.476676028370282" lon="120.97241397550559"><ele>5.0</ele><time>2026-04-21T07:18:38.001Z</time></trkpt><trkpt lat="14.476630963889304" lon="120.97235099136223"><ele>5.0</ele><time>2026-04-21T07:18:39.001Z</time></trkpt><trkpt lat="14.47657948781693" lon="120.9722790475576"><ele>5.166666666666667</ele><time>2026-04-21T07:18:40.001Z</time></trkpt><trkpt lat="14.476523015261417" lon="120.97220014458291"><ele>5.333333333333334</ele><time>2026-04-21T07:18:41.001Z</time></trkpt><trkpt lat="14.476463439031232" lon="120.97211690513657"><ele>5.5</ele><time>2026-04-21T07:18:42.001Z</time></trkpt><trkpt lat="14.476412194106153" lon="120.97204530615329"><ele>5.666666666666667</ele><time>2026-04-21T07:18:43.001Z</time></trkpt><trkpt lat="14.476364001638391" lon="120.97197797201042"><ele>5.833333333333333</ele><time>2026-04-21T07:18:44.001Z</time></trkpt><trkpt lat="14.476311831128015" lon="120.97192209473698"><ele>6.0</ele><time>2026-04-21T07:18:45.001Z</time></trkpt><trkpt lat="14.476254543885165" lon="120.9718810569973"><ele>6.0</ele><time>2026-04-21T07:18:46.001Z</time></trkpt><trkpt lat="14.47617892409167" lon="120.97185455975087"><ele>6.0</ele><time>2026-04-21T07:18:48.001Z</time></trkpt><trkpt lat="14.47611586456587" lon="120.9717615871295"><ele>6.0</ele><time>2026-04-21T07:18:52.001Z</time></trkpt><trkpt lat="14.476092381342292" lon="120.97169264929623"><ele>6.0</ele><time>2026-04-21T07:18:54.001Z</time></trkpt><trkpt lat="14.476055012762039" lon="120.97163211986427"><ele>6.0</ele><time>2026-04-21T07:18:57.001Z</time></trkpt><trkpt lat="14.476004380169655" lon="120.97154701168743"><ele>6.0</ele><time>2026-04-21T07:18:59.001Z</time></trkpt><trkpt lat="14.47598245828189" lon="120.97146139437523"><ele>5.75</ele><time>2026-04-21T07:19:00.001Z</time></trkpt><trkpt lat="14.475933529029312" lon="120.97136404407355"><ele>5.5</ele><time>2026-04-21T07:19:01.001Z</time></trkpt><trkpt lat="14.475869202459364" lon="120.97126204384998"><ele>5.25</ele><time>2026-04-21T07:19:02.001Z</time></trkpt><trkpt lat="14.4757966527624" lon="120.97115531001842"><ele>5.0</ele><time>2026-04-21T07:19:03.001Z</time></trkpt><trkpt lat="14.47571968337403" lon="120.97104125781165"><ele>5.0</ele><time>2026-04-21T07:19:04.001Z</time></trkpt><trkpt lat="14.475648471064584" lon="120.97094037955877"><ele>5.0</ele><time>2026-04-21T07:19:05.001Z</time></trkpt><trkpt lat="14.475583817258622" lon="120.97085371065408"><ele>5.0</ele><time>2026-04-21T07:19:06.001Z</time></trkpt><trkpt lat="14.47551121635989" lon="120.97075638871566"><ele>5.0</ele><time>2026-04-21T07:19:07.001Z</time></trkpt><trkpt lat="14.475448395046083" lon="120.9706721766264"><ele>5.0</ele><time>2026-04-21T07:19:08.001Z</time></trkpt><trkpt lat="14.475388876458895" lon="120.97059451082849"><ele>5.4</ele><time>2026-04-21T07:19:09.001Z</time></trkpt><trkpt lat="14.475333850122777" lon="120.97051896270295"><ele>5.8</ele><time>2026-04-21T07:19:10.001Z</time></trkpt><trkpt lat="14.475270933138802" lon="120.97043258234842"><ele>6.199999999999999</ele><time>2026-04-21T07:19:11.001Z</time></trkpt><trkpt lat="14.475205191831511" lon="120.9703423296014"><ele>6.6</ele><time>2026-04-21T07:19:12.001Z</time></trkpt><trkpt lat="14.475140022336602" lon="120.97025307493361"><ele>7.0</ele><time>2026-04-21T07:19:13.001Z</time></trkpt><trkpt lat="14.475075130320803" lon="120.97016430264522"><ele>7.0</ele><time>2026-04-21T07:19:14.001Z</time></trkpt><trkpt lat="14.475010348260032" lon="120.97007568078075"><ele>6.999999999999999</ele><time>2026-04-21T07:19:15.001Z</time></trkpt><trkpt lat="14.474953544536692" lon="120.96999797329931"><ele>6.999999999999999</ele><time>2026-04-21T07:19:16.001Z</time></trkpt><trkpt lat="14.474904713950439" lon="120.96993117305595"><ele>7.0</ele><time>2026-04-21T07:19:17.001Z</time></trkpt><trkpt lat="14.474817505491638" lon="120.96984964538841"><ele>7.0</ele><time>2026-04-21T07:19:19.001Z</time></trkpt><trkpt lat="14.474739749494882" lon="120.96982240975593"><ele>6.6</ele><time>2026-04-21T07:19:21.001Z</time></trkpt><trkpt lat="14.474612857637732" lon="120.96987583765141"><ele>6.199999999999999</ele><time>2026-04-21T07:19:23.001Z</time></trkpt><trkpt lat="14.474545342365532" lon="120.96990623594199"><ele>5.8</ele><time>2026-04-21T07:19:24.001Z</time></trkpt><trkpt lat="14.474459760416124" lon="120.96994136690854"><ele>5.4</ele><time>2026-04-21T07:19:25.001Z</time></trkpt><trkpt lat="14.474364482675671" lon="120.96998335242286"><ele>5.0</ele><time>2026-04-21T07:19:26.001Z</time></trkpt><trkpt lat="14.474279690407526" lon="120.970021252548"><ele>4.8</ele><time>2026-04-21T07:19:27.001Z</time></trkpt><trkpt lat="14.474193777310589" lon="120.9700613404556"><ele>4.6</ele><time>2026-04-21T07:19:28.001Z</time></trkpt><trkpt lat="14.47410353432978" lon="120.9701063929631"><ele>4.4</ele><time>2026-04-21T07:19:29.001Z</time></trkpt><trkpt lat="14.474000016496747" lon="120.97014967825899"><ele>4.2</ele><time>2026-04-21T07:19:30.001Z</time></trkpt><trkpt lat="14.473903746074045" lon="120.97019847737279"><ele>4.0</ele><time>2026-04-21T07:19:31.001Z</time></trkpt><trkpt lat="14.473809016946918" lon="120.97024506692277"><ele>3.8000000000000003</ele><time>2026-04-21T07:19:32.001Z</time></trkpt><trkpt lat="14.473717380224558" lon="120.97030389104393"><ele>3.6000000000000005</ele><time>2026-04-21T07:19:33.001Z</time></trkpt><trkpt lat="14.473637795707052" lon="120.97036551327288"><ele>3.4</ele><time>2026-04-21T07:19:34.001Z</time></trkpt><trkpt lat="14.47354466044027" lon="120.9704469359411"><ele>3.2</ele><time>2026-04-21T07:19:35.001Z</time></trkpt><trkpt lat="14.473465374428061" lon="120.9704983514721"><ele>3.0</ele><time>2026-04-21T07:19:36.001Z</time></trkpt><trkpt lat="14.473389009547912" lon="120.97056440881722"><ele>3.0</ele><time>2026-04-21T07:19:37.001Z</time></trkpt><trkpt lat="14.473310373880697" lon="120.97064544450042"><ele>3.0</ele><time>2026-04-21T07:19:38.001Z</time></trkpt><trkpt lat="14.47323513362622" lon="120.97071456311728"><ele>3.0</ele><time>2026-04-21T07:19:39.001Z</time></trkpt><trkpt lat="14.473171611379376" lon="120.9707683544198"><ele>3.0</ele><time>2026-04-21T07:19:40.001Z</time></trkpt><trkpt lat="14.473112614480536" lon="120.97083078489528"><ele>3.0</ele><time>2026-04-21T07:19:41.002Z</time></trkpt><trkpt lat="14.4730579162898" lon="120.97088302673082"><ele>3.0</ele><time>2026-04-21T07:19:42Z</time></trkpt><trkpt lat="14.472995381627884" lon="120.97093756562849"><ele>3.0</ele><time>2026-04-21T07:19:43Z</time></trkpt><trkpt lat="14.472928360100324" lon="120.97099536010599"><ele>3.0</ele><time>2026-04-21T07:19:44Z</time></trkpt><trkpt lat="14.472855068569809" lon="120.97105798010834"><ele>3.0</ele><time>2026-04-21T07:19:45Z</time></trkpt><trkpt lat="14.472785174878894" lon="120.9711148178685"><ele>3.0</ele><time>2026-04-21T07:19:46Z</time></trkpt><trkpt lat="14.472720181658053" lon="120.97116835319828"><ele>3.0</ele><time>2026-04-21T07:19:47Z</time></trkpt><trkpt lat="14.47264685167209" lon="120.97121508575168"><ele>3.25</ele><time>2026-04-21T07:19:48Z</time></trkpt><trkpt lat="14.472557257264473" lon="120.97126860451903"><ele>3.5</ele><time>2026-04-21T07:19:49Z</time></trkpt><trkpt lat="14.472454746377302" lon="120.97131658838566"><ele>3.75</ele><time>2026-04-21T07:19:50Z</time></trkpt><trkpt lat="14.472347666824511" lon="120.97135111933268"><ele>4.0</ele><time>2026-04-21T07:19:51Z</time></trkpt><trkpt lat="14.472225422116548" lon="120.9713811612688"><ele>4.5</ele><time>2026-04-21T07:19:52Z</time></trkpt><trkpt lat="14.472102984962548" lon="120.97140362844934"><ele>5.0</ele><time>2026-04-21T07:19:53Z</time></trkpt><trkpt lat="14.471979847382123" lon="120.97141908362276"><ele>5.5</ele><time>2026-04-21T07:19:54Z</time></trkpt><trkpt lat="14.471866988457144" lon="120.97141798865246"><ele>6.0</ele><time>2026-04-21T07:19:55Z</time></trkpt><trkpt lat="14.471758196975259" lon="120.97140986315057"><ele>6.0</ele><time>2026-04-21T07:19:56Z</time></trkpt><trkpt lat="14.471652439828475" lon="120.9713898723615"><ele>6.0</ele><time>2026-04-21T07:19:57Z</time></trkpt><trkpt lat="14.471566292222008" lon="120.97135220146856"><ele>6.0</ele><time>2026-04-21T07:19:58Z</time></trkpt><trkpt lat="14.471489316626656" lon="120.97130428173473"><ele>6.0</ele><time>2026-04-21T07:19:59Z</time></trkpt><trkpt lat="14.471424885183186" lon="120.97124125473294"><ele>6.0</ele><time>2026-04-21T07:20:00Z</time></trkpt><trkpt lat="14.471374483529662" lon="120.97116847704865"><ele>6.0</ele><time>2026-04-21T07:20:01Z</time></trkpt><trkpt lat="14.471329200785778" lon="120.97109166419597"><ele>6.0</ele><time>2026-04-21T07:20:02Z</time></trkpt><trkpt lat="14.471317684699946" lon="120.97100656758118"><ele>6.0</ele><time>2026-04-21T07:20:03Z</time></trkpt><trkpt lat="14.471318953686932" lon="120.97093421720268"><ele>6.0</ele><time>2026-04-21T07:20:04Z</time></trkpt><trkpt lat="14.471334475917006" lon="120.97084817572627"><ele>6.0</ele><time>2026-04-21T07:20:05Z</time></trkpt><trkpt lat="14.471341656491171" lon="120.97076556993146"><ele>6.0</ele><time>2026-04-21T07:20:06Z</time></trkpt><trkpt lat="14.471353077747317" lon="120.97066140604862"><ele>6.0</ele><time>2026-04-21T07:20:07Z</time></trkpt><trkpt lat="14.471367290523611" lon="120.9705606776376"><ele>6.0</ele><time>2026-04-21T07:20:08Z</time></trkpt><trkpt lat="14.471391781324408" lon="120.97046413868745"><ele>6.0</ele><time>2026-04-21T07:20:09Z</time></trkpt><trkpt lat="14.47141249965332" lon="120.97035140125391"><ele>6.0</ele><time>2026-04-21T07:20:10Z</time></trkpt><trkpt lat="14.471479295708779" lon="120.970273760868"><ele>6.0</ele><time>2026-04-21T07:20:11Z</time></trkpt><trkpt lat="14.471541674879122" lon="120.97019185258384"><ele>6.0</ele><time>2026-04-21T07:20:12Z</time></trkpt><trkpt lat="14.471618760937734" lon="120.97009656724352"><ele>6.0</ele><time>2026-04-21T07:20:13Z</time></trkpt><trkpt lat="14.471694056468909" lon="120.97002611338229"><ele>6.0</ele><time>2026-04-21T07:20:14Z</time></trkpt><trkpt lat="14.47177092556218" lon="120.969939657461"><ele>6.0</ele><time>2026-04-21T07:20:15Z</time></trkpt><trkpt lat="14.471850975563127" lon="120.96987932361564"><ele>6.0</ele><time>2026-04-21T07:20:16Z</time></trkpt><trkpt lat="14.471940692101223" lon="120.96980587067512"><ele>5.6</ele><time>2026-04-21T07:20:17Z</time></trkpt><trkpt lat="14.472032900319826" lon="120.96974512369951"><ele>5.199999999999999</ele><time>2026-04-21T07:20:18Z</time></trkpt><trkpt lat="14.472102435038549" lon="120.96967260460804"><ele>4.800000000000001</ele><time>2026-04-21T07:20:19Z</time></trkpt><trkpt lat="14.472160328796353" lon="120.96959965763213"><ele>4.4</ele><time>2026-04-21T07:20:20Z</time></trkpt><trkpt lat="14.472212693260099" lon="120.96951798302246"><ele>4.0</ele><time>2026-04-21T07:20:21Z</time></trkpt><trkpt lat="14.472252175346753" lon="120.96943053192612"><ele>4.0</ele><time>2026-04-21T07:20:22Z</time></trkpt><trkpt lat="14.472265123157307" lon="120.96932748497402"><ele>4.0</ele><time>2026-04-21T07:20:23Z</time></trkpt><trkpt lat="14.472263109985281" lon="120.96924173214"><ele>4.0</ele><time>2026-04-21T07:20:24Z</time></trkpt><trkpt lat="14.472246002002386" lon="120.96914659443176"><ele>4.0</ele><time>2026-04-21T07:20:25Z</time></trkpt><trkpt lat="14.472211082058008" lon="120.96905681327543"><ele>4.0</ele><time>2026-04-21T07:20:26Z</time></trkpt><trkpt lat="14.472157621731615" lon="120.96896604173233"><ele>4.4</ele><time>2026-04-21T07:20:27Z</time></trkpt><trkpt lat="14.472105128655736" lon="120.96887600389076"><ele>4.800000000000001</ele><time>2026-04-21T07:20:28Z</time></trkpt><trkpt lat="14.472042408031387" lon="120.96877481278739"><ele>5.199999999999999</ele><time>2026-04-21T07:20:29Z</time></trkpt><trkpt lat="14.471989263030196" lon="120.96867775634944"><ele>5.6</ele><time>2026-04-21T07:20:30Z</time></trkpt><trkpt lat="14.471928258357572" lon="120.96857404300458"><ele>6.0</ele><time>2026-04-21T07:20:31Z</time></trkpt><trkpt lat="14.471872648986526" lon="120.96847760858043"><ele>6.0</ele><time>2026-04-21T07:20:32Z</time></trkpt><trkpt lat="14.471825054310614" lon="120.96838586512699"><ele>6.0</ele><time>2026-04-21T07:20:33Z</time></trkpt><trkpt lat="14.471771827748187" lon="120.96829310694154"><ele>6.0</ele><time>2026-04-21T07:20:34Z</time></trkpt><trkpt lat="14.471719167413648" lon="120.9682064327685"><ele>6.0</ele><time>2026-04-21T07:20:35Z</time></trkpt><trkpt lat="14.471661872765992" lon="120.96812741157268"><ele>6.0</ele><time>2026-04-21T07:20:36.001Z</time></trkpt><trkpt lat="14.47160575554144" lon="120.96806955571395"><ele>5.8</ele><time>2026-04-21T07:20:37.001Z</time></trkpt><trkpt lat="14.471522641481135" lon="120.96800808739872"><ele>5.6</ele><time>2026-04-21T07:20:38.001Z</time></trkpt><trkpt lat="14.471452765463592" lon="120.96795603870996"><ele>5.4</ele><time>2026-04-21T07:20:39.001Z</time></trkpt><trkpt lat="14.471369456632312" lon="120.96789446016456"><ele>5.2</ele><time>2026-04-21T07:20:40.001Z</time></trkpt><trkpt lat="14.47129308830448" lon="120.9678418042374"><ele>5.0</ele><time>2026-04-21T07:20:41.001Z</time></trkpt><trkpt lat="14.471181239742132" lon="120.96778231718007"><ele>5.0</ele><time>2026-04-21T07:20:42.001Z</time></trkpt><trkpt lat="14.471087685777817" lon="120.9677248845954"><ele>5.0</ele><time>2026-04-21T07:20:43.001Z</time></trkpt><trkpt lat="14.47100970506439" lon="120.96765142792788"><ele>5.0</ele><time>2026-04-21T07:20:44.001Z</time></trkpt><trkpt lat="14.470928163857824" lon="120.96759314975526"><ele>5.0</ele><time>2026-04-21T07:20:45.001Z</time></trkpt><trkpt lat="14.470868333614492" lon="120.96753674370682"><ele>5.0</ele><time>2026-04-21T07:20:46.001Z</time></trkpt><trkpt lat="14.470823104543381" lon="120.96748820808901"><ele>4.833333333333334</ele><time>2026-04-21T07:20:47.001Z</time></trkpt><trkpt lat="14.470777132039462" lon="120.96744222954273"><ele>4.666666666666667</ele><time>2026-04-21T07:20:48.001Z</time></trkpt><trkpt lat="14.470662073976918" lon="120.96741312120743"><ele>4.5</ele><time>2026-04-21T07:20:50.001Z</time></trkpt><trkpt lat="14.470599698472707" lon="120.96747066862788"><ele>4.333333333333333</ele><time>2026-04-21T07:20:51.001Z</time></trkpt><trkpt lat="14.4705257340327" lon="120.96747651040266"><ele>4.166666666666666</ele><time>2026-04-21T07:20:52.001Z</time></trkpt><trkpt lat="14.470448280411345" lon="120.96747624015634"><ele>4.0</ele><time>2026-04-21T07:20:53.001Z</time></trkpt><trkpt lat="14.470370831195531" lon="120.96748722819098"><ele>3.9999999999999996</ele><time>2026-04-21T07:20:54.001Z</time></trkpt><trkpt lat="14.470290774049579" lon="120.96747699520625"><ele>4.0</ele><time>2026-04-21T07:20:55.001Z</time></trkpt><trkpt lat="14.470196363777884" lon="120.96746887160604"><ele>4.0</ele><time>2026-04-21T07:20:56.001Z</time></trkpt><trkpt lat="14.470097368920444" lon="120.96746077605383"><ele>4.0</ele><time>2026-04-21T07:20:57.001Z</time></trkpt><trkpt lat="14.470019731783127" lon="120.96745244189971"><ele>3.9999999999999996</ele><time>2026-04-21T07:20:58.001Z</time></trkpt><trkpt lat="14.469942083648476" lon="120.9674474681627"><ele>4.0</ele><time>2026-04-21T07:20:59.001Z</time></trkpt><trkpt lat="14.469871361530263" lon="120.96745072220192"><ele>3.9999999999999996</ele><time>2026-04-21T07:21:00.001Z</time></trkpt><trkpt lat="14.469810426525132" lon="120.96746844354624"><ele>4.0</ele><time>2026-04-21T07:21:01.001Z</time></trkpt><trkpt lat="14.469751024900845" lon="120.96749758353698"><ele>4.0</ele><time>2026-04-21T07:21:02.001Z</time></trkpt><trkpt lat="14.469687543017013" lon="120.96753758765917"><ele>4.0</ele><time>2026-04-21T07:21:03.001Z</time></trkpt><trkpt lat="14.469607862752135" lon="120.96764350483188"><ele>3.9999999999999996</ele><time>2026-04-21T07:21:05.001Z</time></trkpt><trkpt lat="14.469591586723329" lon="120.96771398667839"><ele>4.0</ele><time>2026-04-21T07:21:06.001Z</time></trkpt><trkpt lat="14.469585933824737" lon="120.96778241865297"><ele>4.6</ele><time>2026-04-21T07:21:07.001Z</time></trkpt><trkpt lat="14.469580753244417" lon="120.96786945786734"><ele>5.2</ele><time>2026-04-21T07:21:08.001Z</time></trkpt><trkpt lat="14.469556773004449" lon="120.96797233442139"><ele>5.799999999999999</ele><time>2026-04-21T07:21:09.001Z</time></trkpt><trkpt lat="14.469540429173414" lon="120.96806965906681"><ele>6.3999999999999995</ele><time>2026-04-21T07:21:10.001Z</time></trkpt><trkpt lat="14.469522810365934" lon="120.96814754331463"><ele>7.0</ele><time>2026-04-21T07:21:11.001Z</time></trkpt><trkpt lat="14.469502316409013" lon="120.96823803406582"><ele>7.000000000000001</ele><time>2026-04-21T07:21:12.001Z</time></trkpt><trkpt lat="14.469486564525432" lon="120.96833947611921"><ele>7.0</ele><time>2026-04-21T07:21:13.001Z</time></trkpt><trkpt lat="14.469471718716154" lon="120.9684198016128"><ele>7.0</ele><time>2026-04-21T07:21:14.001Z</time></trkpt><trkpt lat="14.46945529288711" lon="120.9685044631426"><ele>7.0</ele><time>2026-04-21T07:21:15.001Z</time></trkpt><trkpt lat="14.4694403019448" lon="120.9686093489869"><ele>7.000000000000001</ele><time>2026-04-21T07:21:16.001Z</time></trkpt><trkpt lat="14.469419762820493" lon="120.96869162088643"><ele>7.0</ele><time>2026-04-21T07:21:17.001Z</time></trkpt><trkpt lat="14.46940335310504" lon="120.96877152288495"><ele>7.0</ele><time>2026-04-21T07:21:18.001Z</time></trkpt><trkpt lat="14.469391024821377" lon="120.96887539486073"><ele>6.999999999999999</ele><time>2026-04-21T07:21:19.001Z</time></trkpt><trkpt lat="14.469373929161334" lon="120.96894823391283"><ele>6.999999999999999</ele><time>2026-04-21T07:21:20.001Z</time></trkpt><trkpt lat="14.469346377882484" lon="120.96908421006293"><ele>7.0</ele><time>2026-04-21T07:21:22.001Z</time></trkpt><trkpt lat="14.469324412138414" lon="120.96914757001396"><ele>7.0</ele><time>2026-04-21T07:21:23.001Z</time></trkpt><trkpt lat="14.46923458609519" lon="120.96923621384107"><ele>7.000000000000001</ele><time>2026-04-21T07:21:25.001Z</time></trkpt><trkpt lat="14.46916723190429" lon="120.96927575236484"><ele>7.0</ele><time>2026-04-21T07:21:26.001Z</time></trkpt><trkpt lat="14.469095146922784" lon="120.96932075486701"><ele>7.0</ele><time>2026-04-21T07:21:27.001Z</time></trkpt><trkpt lat="14.46903340884178" lon="120.96936178113405"><ele>7.0</ele><time>2026-04-21T07:21:28.001Z</time></trkpt><trkpt lat="14.468974365355702" lon="120.96939670488904"><ele>7.000000000000001</ele><time>2026-04-21T07:21:29.001Z</time></trkpt><trkpt lat="14.468870063080956" lon="120.96943799424767"><ele>7.0</ele><time>2026-04-21T07:21:31.001Z</time></trkpt><trkpt lat="14.468767139617293" lon="120.96945366551525"><ele>7.000000000000001</ele><time>2026-04-21T07:21:33.001Z</time></trkpt><trkpt lat="14.468661493289284" lon="120.96943613090015"><ele>7.0</ele><time>2026-04-21T07:21:35.001Z</time></trkpt><trkpt lat="14.468591399323714" lon="120.96942034651401"><ele>7.0</ele><time>2026-04-21T07:21:37.001Z</time></trkpt><trkpt lat="14.46853121437025" lon="120.96939804051036"><ele>7.0</ele><time>2026-04-21T07:21:40.001Z</time></trkpt><trkpt lat="14.468541804919491" lon="120.96929835580977"><ele>7.000000000000001</ele><time>2026-04-21T07:21:44.001Z</time></trkpt><trkpt lat="14.4685494158103" lon="120.96922843797303"><ele>7.0</ele><time>2026-04-21T07:21:46.001Z</time></trkpt><trkpt lat="14.468545263328314" lon="120.96914399678029"><ele>6.666666666666667</ele><time>2026-04-21T07:21:48Z</time></trkpt><trkpt lat="14.46850070996109" lon="120.96909641048477"><ele>6.333333333333334</ele><time>2026-04-21T07:21:49Z</time></trkpt><trkpt lat="14.46844374911221" lon="120.96906665502422"><ele>6.0</ele><time>2026-04-21T07:21:50Z</time></trkpt><trkpt lat="14.468369371898136" lon="120.96896979538624"><ele>5.666666666666667</ele><time>2026-04-21T07:21:52Z</time></trkpt><trkpt lat="14.468319150046895" lon="120.96892257648747"><ele>5.333333333333334</ele><time>2026-04-21T07:21:53Z</time></trkpt><trkpt lat="14.46825407676317" lon="120.96886139415886"><ele>5.0</ele><time>2026-04-21T07:21:55Z</time></trkpt><trkpt lat="14.468195338565716" lon="120.96880067311825"><ele>5.0</ele><time>2026-04-21T07:21:58Z</time></trkpt><trkpt lat="14.468143422196063" lon="120.96874475988211"><ele>5.0</ele><time>2026-04-21T07:21:59Z</time></trkpt><trkpt lat="14.468071369193071" lon="120.96866955424335"><ele>5.0</ele><time>2026-04-21T07:22:00Z</time></trkpt><trkpt lat="14.46800153268158" lon="120.96859829617594"><ele>5.0</ele><time>2026-04-21T07:22:01Z</time></trkpt><trkpt lat="14.467950024975607" lon="120.96854620044978"><ele>5.0</ele><time>2026-04-21T07:22:02Z</time></trkpt><trkpt lat="14.467899689381808" lon="120.96849529963465"><ele>5.0</ele><time>2026-04-21T07:22:04Z</time></trkpt><trkpt lat="14.467849493157388" lon="120.96844453973408"><ele>5.166666666666667</ele><time>2026-04-21T07:22:07Z</time></trkpt><trkpt lat="14.467761988039447" lon="120.96835605206532"><ele>5.333333333333334</ele><time>2026-04-21T07:22:09Z</time></trkpt><trkpt lat="14.467712805716792" lon="120.96830631743806"><ele>5.5</ele><time>2026-04-21T07:22:10Z</time></trkpt><trkpt lat="14.467639522141393" lon="120.96822858555373"><ele>5.666666666666667</ele><time>2026-04-21T07:22:12Z</time></trkpt><trkpt lat="14.467588498429341" lon="120.96816625715336"><ele>5.833333333333333</ele><time>2026-04-21T07:22:14Z</time></trkpt><trkpt lat="14.467553079361966" lon="120.96810871959164"><ele>6.0</ele><time>2026-04-21T07:22:18Z</time></trkpt><trkpt lat="14.467505055259101" lon="120.96801471637329"><ele>6.0</ele><time>2026-04-21T07:22:20Z</time></trkpt><trkpt lat="14.46745808840009" lon="120.96789763675179"><ele>6.0</ele><time>2026-04-21T07:22:22Z</time></trkpt><trkpt lat="14.467454261678453" lon="120.96781215751258"><ele>6.0</ele><time>2026-04-21T07:22:24Z</time></trkpt><trkpt lat="14.467453379821174" lon="120.96772888992432"><ele>6.0</ele><time>2026-04-21T07:22:26Z</time></trkpt><trkpt lat="14.467453086888643" lon="120.96765411006469"><ele>6.0</ele><time>2026-04-21T07:22:28Z</time></trkpt><trkpt lat="14.46746484763169" lon="120.96755570429983"><ele>5.666666666666667</ele><time>2026-04-21T07:22:31Z</time></trkpt><trkpt lat="14.467475058692493" lon="120.96747044302221"><ele>5.333333333333333</ele><time>2026-04-21T07:22:33Z</time></trkpt><trkpt lat="14.467503123825564" lon="120.96737904794236"><ele>5.0</ele><time>2026-04-21T07:22:35Z</time></trkpt><trkpt lat="14.467511013001836" lon="120.9672781723569"><ele>4.666666666666666</ele><time>2026-04-21T07:22:37Z</time></trkpt><trkpt lat="14.467569557562797" lon="120.96723500743666"><ele>4.333333333333333</ele><time>2026-04-21T07:22:38Z</time></trkpt><trkpt lat="14.467607750418695" lon="120.96717353344935"><ele>4.0</ele><time>2026-04-21T07:22:39Z</time></trkpt><trkpt lat="14.46764553218138" lon="120.96710447177402"><ele>3.9999999999999996</ele><time>2026-04-21T07:22:40Z</time></trkpt><trkpt lat="14.467686548756424" lon="120.96703420504457"><ele>4.0</ele><time>2026-04-21T07:22:41Z</time></trkpt><trkpt lat="14.467731557837652" lon="120.9669566792243"><ele>4.0</ele><time>2026-04-21T07:22:42Z</time></trkpt><trkpt lat="14.46777468454117" lon="120.96687731005296"><ele>4.0</ele><time>2026-04-21T07:22:43Z</time></trkpt><trkpt lat="14.467809638274787" lon="120.96679180352233"><ele>3.9999999999999996</ele><time>2026-04-21T07:22:44Z</time></trkpt><trkpt lat="14.4678357601813" lon="120.96670390101073"><ele>4.0</ele><time>2026-04-21T07:22:45Z</time></trkpt><trkpt lat="14.467857749571015" lon="120.96660683543648"><ele>4.5</ele><time>2026-04-21T07:22:46.001Z</time></trkpt><trkpt lat="14.467881728780432" lon="120.96649742575633"><ele>5.0</ele><time>2026-04-21T07:22:47.001Z</time></trkpt><trkpt lat="14.467904603147872" lon="120.96638228216996"><ele>5.5</ele><time>2026-04-21T07:22:48.001Z</time></trkpt><trkpt lat="14.467925434524316" lon="120.9662615251797"><ele>6.0</ele><time>2026-04-21T07:22:49.001Z</time></trkpt><trkpt lat="14.467948737496387" lon="120.96612886433694"><ele>6.0</ele><time>2026-04-21T07:22:50.001Z</time></trkpt><trkpt lat="14.467969219817075" lon="120.9660014735697"><ele>6.0</ele><time>2026-04-21T07:22:51.001Z</time></trkpt><trkpt lat="14.467986989951726" lon="120.96586938589655"><ele>6.0</ele><time>2026-04-21T07:22:52.001Z</time></trkpt><trkpt lat="14.468008583903947" lon="120.96573405894136"><ele>6.0</ele><time>2026-04-21T07:22:53.001Z</time></trkpt><trkpt lat="14.468029325141886" lon="120.9656101636294"><ele>6.0</ele><time>2026-04-21T07:22:54.001Z</time></trkpt><trkpt lat="14.468045598741371" lon="120.9655034239477"><ele>6.0</ele><time>2026-04-21T07:22:55.001Z</time></trkpt><trkpt lat="14.468062778911861" lon="120.96541538565808"><ele>6.0</ele><time>2026-04-21T07:22:56.001Z</time></trkpt><trkpt lat="14.468079550993723" lon="120.96533364089386"><ele>6.0</ele><time>2026-04-21T07:22:57.001Z</time></trkpt><trkpt lat="14.468095446923993" lon="120.96522032250736"><ele>6.0</ele><time>2026-04-21T07:22:59.001Z</time></trkpt><trkpt lat="14.468103615049175" lon="120.96513783471268"><ele>6.0</ele><time>2026-04-21T07:23:01.001Z</time></trkpt><trkpt lat="14.468086698267195" lon="120.9650710190988"><ele>6.0</ele><time>2026-04-21T07:23:06.001Z</time></trkpt><trkpt lat="14.468011962161238" lon="120.96514014691506"><ele>6.0</ele><time>2026-04-21T07:23:09.001Z</time></trkpt><trkpt lat="14.467996292256588" lon="120.96522069616184"><ele>6.0</ele><time>2026-04-21T07:23:10.001Z</time></trkpt><trkpt lat="14.467985411150098" lon="120.96530515154849"><ele>6.0</ele><time>2026-04-21T07:23:11.001Z</time></trkpt><trkpt lat="14.467966865103204" lon="120.96540295552256"><ele>6.0</ele><time>2026-04-21T07:23:12.001Z</time></trkpt><trkpt lat="14.467946644948277" lon="120.96550681107233"><ele>5.75</ele><time>2026-04-21T07:23:13.001Z</time></trkpt><trkpt lat="14.467923935174552" lon="120.96563904727888"><ele>5.5</ele><time>2026-04-21T07:23:14.001Z</time></trkpt><trkpt lat="14.467895194299478" lon="120.96577107660758"><ele>5.25</ele><time>2026-04-21T07:23:15.001Z</time></trkpt><trkpt lat="14.467860778251476" lon="120.96590832906567"><ele>5.0</ele><time>2026-04-21T07:23:16.001Z</time></trkpt><trkpt lat="14.467832565582826" lon="120.9660407925426"><ele>5.6</ele><time>2026-04-21T07:23:17.001Z</time></trkpt><trkpt lat="14.467805376180122" lon="120.96615768682837"><ele>6.2</ele><time>2026-04-21T07:23:18.001Z</time></trkpt><trkpt lat="14.467784603567036" lon="120.96624814847402"><ele>6.800000000000001</ele><time>2026-04-21T07:23:19.001Z</time></trkpt><trkpt lat="14.46776686458984" lon="120.96631148536643"><ele>7.4</ele><time>2026-04-21T07:23:20.001Z</time></trkpt><trkpt lat="14.467727130653689" lon="120.96640608888663"><ele>8.0</ele><time>2026-04-21T07:23:22.001Z</time></trkpt><trkpt lat="14.467685220171385" lon="120.96648114735879"><ele>7.999999999999999</ele><time>2026-04-21T07:23:24.001Z</time></trkpt><trkpt lat="14.467619827543848" lon="120.9665406321791"><ele>8.0</ele><time>2026-04-21T07:23:26.001Z</time></trkpt><trkpt lat="14.467492587048584" lon="120.96650927822118"><ele>8.0</ele><time>2026-04-21T07:23:29.001Z</time></trkpt><trkpt lat="14.467435760497144" lon="120.9664422816953"><ele>8.0</ele><time>2026-04-21T07:23:31.001Z</time></trkpt><trkpt lat="14.467416309923015" lon="120.96637661641819"><ele>7.999999999999999</ele><time>2026-04-21T07:23:32.001Z</time></trkpt><trkpt lat="14.467422615588054" lon="120.966302209054"><ele>8.0</ele><time>2026-04-21T07:23:33.001Z</time></trkpt><trkpt lat="14.467427767188058" lon="120.96621889313558"><ele>8.0</ele><time>2026-04-21T07:23:34.001Z</time></trkpt><trkpt lat="14.467426181943033" lon="120.96612262077488"><ele>8.0</ele><time>2026-04-21T07:23:35.001Z</time></trkpt><trkpt lat="14.467424970084787" lon="120.96602143034643"><ele>8.0</ele><time>2026-04-21T07:23:36.001Z</time></trkpt><trkpt lat="14.467425214316082" lon="120.96591799671891"><ele>8.0</ele><time>2026-04-21T07:23:37.001Z</time></trkpt><trkpt lat="14.46742613424664" lon="120.96580311076688"><ele>8.0</ele><time>2026-04-21T07:23:38.001Z</time></trkpt><trkpt lat="14.467424293485221" lon="120.96569085784301"><ele>7.4</ele><time>2026-04-21T07:23:39.001Z</time></trkpt><trkpt lat="14.467420809815545" lon="120.96558789791442"><ele>6.800000000000001</ele><time>2026-04-21T07:23:40.001Z</time></trkpt><trkpt lat="14.4674181465551" lon="120.96548303136562"><ele>6.2</ele><time>2026-04-21T07:23:41.001Z</time></trkpt><trkpt lat="14.467412535339376" lon="120.96537247198275"><ele>5.6</ele><time>2026-04-21T07:23:42.001Z</time></trkpt><trkpt lat="14.467400459257137" lon="120.96527838919441"><ele>5.0</ele><time>2026-04-21T07:23:43.001Z</time></trkpt><trkpt lat="14.467384732914956" lon="120.96516329827271"><ele>5.0</ele><time>2026-04-21T07:23:44.001Z</time></trkpt><trkpt lat="14.467380021057197" lon="120.96505863076054"><ele>5.0</ele><time>2026-04-21T07:23:45.001Z</time></trkpt><trkpt lat="14.467335563573345" lon="120.9649438357115"><ele>5.0</ele><time>2026-04-21T07:23:46.001Z</time></trkpt><trkpt lat="14.467312157727804" lon="120.96483383223762"><ele>5.0</ele><time>2026-04-21T07:23:47.001Z</time></trkpt><trkpt lat="14.46728490281223" lon="120.96473537222113"><ele>5.0</ele><time>2026-04-21T07:23:48.001Z</time></trkpt><trkpt lat="14.467261156353082" lon="120.96465364078138"><ele>5.166666666666667</ele><time>2026-04-21T07:23:49.001Z</time></trkpt><trkpt lat="14.467239681826408" lon="120.9645678913734"><ele>5.333333333333334</ele><time>2026-04-21T07:23:50.001Z</time></trkpt><trkpt lat="14.467217472815442" lon="120.96448711870327"><ele>5.5</ele><time>2026-04-21T07:23:51.001Z</time></trkpt><trkpt lat="14.467200593048586" lon="120.9644057442318"><ele>5.666666666666667</ele><time>2026-04-21T07:23:52.001Z</time></trkpt><trkpt lat="14.467179767411341" lon="120.96432828399796"><ele>5.833333333333333</ele><time>2026-04-21T07:23:53.001Z</time></trkpt><trkpt lat="14.467158450529686" lon="120.96425674736487"><ele>6.0</ele><time>2026-04-21T07:23:54Z</time></trkpt><trkpt lat="14.467129335810156" lon="120.96413086334259"><ele>6.166666666666667</ele><time>2026-04-21T07:23:55Z</time></trkpt><trkpt lat="14.467108287856147" lon="120.96404921025717"><ele>6.333333333333334</ele><time>2026-04-21T07:23:56Z</time></trkpt><trkpt lat="14.46707823122367" lon="120.96397585808089"><ele>6.5</ele><time>2026-04-21T07:23:57Z</time></trkpt><trkpt lat="14.467058137196142" lon="120.96391113470344"><ele>6.666666666666667</ele><time>2026-04-21T07:23:58Z</time></trkpt><trkpt lat="14.467041801980535" lon="120.9637923339361"><ele>6.833333333333334</ele><time>2026-04-21T07:24:00Z</time></trkpt><trkpt lat="14.467065496710703" lon="120.96369627998727"><ele>7.0</ele><time>2026-04-21T07:24:02Z</time></trkpt><trkpt lat="14.467141703649887" lon="120.96362876866063"><ele>7.0</ele><time>2026-04-21T07:24:05Z</time></trkpt><trkpt lat="14.467253196995822" lon="120.96356794783593"><ele>6.999999999999999</ele><time>2026-04-21T07:24:07Z</time></trkpt><trkpt lat="14.46732525431342" lon="120.96353272850348"><ele>6.999999999999999</ele><time>2026-04-21T07:24:08Z</time></trkpt><trkpt lat="14.467405135061039" lon="120.96349985118493"><ele>7.0</ele><time>2026-04-21T07:24:09Z</time></trkpt><trkpt lat="14.467490006925752" lon="120.96346701415635"><ele>7.0</ele><time>2026-04-21T07:24:10Z</time></trkpt><trkpt lat="14.467577851160861" lon="120.96343259758825"><ele>7.000000000000001</ele><time>2026-04-21T07:24:11Z</time></trkpt><trkpt lat="14.467665459610501" lon="120.9634023725156"><ele>7.0</ele><time>2026-04-21T07:24:12Z</time></trkpt><trkpt lat="14.46774785722089" lon="120.9633686309778"><ele>7.0</ele><time>2026-04-21T07:24:13Z</time></trkpt><trkpt lat="14.467817719578484" lon="120.96334167781738"><ele>7.0</ele><time>2026-04-21T07:24:14Z</time></trkpt><trkpt lat="14.46789430271501" lon="120.96331393377643"><ele>7.000000000000001</ele><time>2026-04-21T07:24:16Z</time></trkpt><trkpt lat="14.467964917333253" lon="120.96328679790955"><ele>7.0</ele><time>2026-04-21T07:24:18Z</time></trkpt><trkpt lat="14.46805281928624" lon="120.96325391704396"><ele>6.833333333333334</ele><time>2026-04-21T07:24:20Z</time></trkpt><trkpt lat="14.468169427175903" lon="120.96320940550729"><ele>6.666666666666667</ele><time>2026-04-21T07:24:22Z</time></trkpt><trkpt lat="14.468226760601096" lon="120.96318159710667"><ele>6.5</ele><time>2026-04-21T07:24:23Z</time></trkpt><trkpt lat="14.4683262002024" lon="120.96314125210523"><ele>6.333333333333334</ele><time>2026-04-21T07:24:25Z</time></trkpt><trkpt lat="14.468388197026071" lon="120.96310769796943"><ele>6.166666666666667</ele><time>2026-04-21T07:24:27Z</time></trkpt><trkpt lat="14.46834951320524" lon="120.96304858660675"><ele>6.0</ele><time>2026-04-21T07:24:28Z</time></trkpt><trkpt lat="14.468297899208691" lon="120.9630020507019"><ele>6.0</ele><time>2026-04-21T07:24:30Z</time></trkpt><trkpt lat="14.468231302942547" lon="120.96303859720142"><ele>6.0</ele><time>2026-04-21T07:24:31Z</time></trkpt><trkpt lat="14.46816396156194" lon="120.96307572065024"><ele>6.0</ele><time>2026-04-21T07:24:32Z</time></trkpt><trkpt lat="14.468075063003697" lon="120.96311399088265"><ele>6.0</ele><time>2026-04-21T07:24:33Z</time></trkpt><trkpt lat="14.467995790462522" lon="120.96314609674756"><ele>6.0</ele><time>2026-04-21T07:24:34Z</time></trkpt><trkpt lat="14.467892923606215" lon="120.9631832783292"><ele>6.0</ele><time>2026-04-21T07:24:35Z</time></trkpt><trkpt lat="14.467783115810201" lon="120.96322192947169"><ele>6.75</ele><time>2026-04-21T07:24:36Z</time></trkpt><trkpt lat="14.467686535244848" lon="120.96325595345677"><ele>7.5</ele><time>2026-04-21T07:24:37Z</time></trkpt><trkpt lat="14.46757607933932" lon="120.96328545644262"><ele>8.25</ele><time>2026-04-21T07:24:38Z</time></trkpt><trkpt lat="14.467455168790078" lon="120.9633197257322"><ele>9.0</ele><time>2026-04-21T07:24:39Z</time></trkpt><trkpt lat="14.46735001378769" lon="120.96334658102374"><ele>9.0</ele><time>2026-04-21T07:24:40Z</time></trkpt><trkpt lat="14.467266854560755" lon="120.96336091059473"><ele>9.0</ele><time>2026-04-21T07:24:41Z</time></trkpt><trkpt lat="14.467165728719161" lon="120.96336997692197"><ele>9.0</ele><time>2026-04-21T07:24:42Z</time></trkpt><trkpt lat="14.4670911926086" lon="120.96335084800442"><ele>9.0</ele><time>2026-04-21T07:24:43Z</time></trkpt><trkpt lat="14.46701468329787" lon="120.96331672072516"><ele>9.0</ele><time>2026-04-21T07:24:44Z</time></trkpt><trkpt lat="14.466949559690255" lon="120.9632642374319"><ele>9.0</ele><time>2026-04-21T07:24:45Z</time></trkpt><trkpt lat="14.466896882601466" lon="120.96319395393698"><ele>9.0</ele><time>2026-04-21T07:24:46Z</time></trkpt><trkpt lat="14.466853245524154" lon="120.96311405038561"><ele>9.0</ele><time>2026-04-21T07:24:47Z</time></trkpt><trkpt lat="14.466808937312237" lon="120.9630245360535"><ele>9.0</ele><time>2026-04-21T07:24:48Z</time></trkpt><trkpt lat="14.466762525493396" lon="120.96293029107046"><ele>9.0</ele><time>2026-04-21T07:24:49Z</time></trkpt><trkpt lat="14.466717002940591" lon="120.96283450424633"><ele>9.0</ele><time>2026-04-21T07:24:50Z</time></trkpt><trkpt lat="14.466668041235906" lon="120.96273587738565"><ele>9.0</ele><time>2026-04-21T07:24:51Z</time></trkpt><trkpt lat="14.466629479302162" lon="120.9626449509814"><ele>9.0</ele><time>2026-04-21T07:24:52Z</time></trkpt><trkpt lat="14.466584500111377" lon="120.96255101716594"><ele>9.0</ele><time>2026-04-21T07:24:53Z</time></trkpt><trkpt lat="14.466540237686647" lon="120.9624515753678"><ele>9.0</ele><time>2026-04-21T07:24:54Z</time></trkpt><trkpt lat="14.46648606342755" lon="120.96235556668816"><ele>9.0</ele><time>2026-04-21T07:24:55Z</time></trkpt><trkpt lat="14.466423874307148" lon="120.96226793686553"><ele>8.6</ele><time>2026-04-21T07:24:56Z</time></trkpt><trkpt lat="14.466351556937912" lon="120.9621831406435"><ele>8.2</ele><time>2026-04-21T07:24:57Z</time></trkpt><trkpt lat="14.466269813396424" lon="120.962102219033"><ele>7.799999999999999</ele><time>2026-04-21T07:24:58.001Z</time></trkpt><trkpt lat="14.466195154768986" lon="120.96203077068208"><ele>7.3999999999999995</ele><time>2026-04-21T07:24:59.001Z</time></trkpt><trkpt lat="14.466105608704124" lon="120.96195927725842"><ele>7.0</ele><time>2026-04-21T07:25:00.001Z</time></trkpt><trkpt lat="14.466015632859365" lon="120.96188371698534"><ele>7.0</ele><time>2026-04-21T07:25:01.001Z</time></trkpt><trkpt lat="14.465926316387497" lon="120.9618046091586"><ele>7.0</ele><time>2026-04-21T07:25:02.001Z</time></trkpt><trkpt lat="14.465831870378839" lon="120.96172940806497"><ele>7.0</ele><time>2026-04-21T07:25:03.001Z</time></trkpt><trkpt lat="14.46572436005262" lon="120.96165863622788"><ele>7.0</ele><time>2026-04-21T07:25:04.001Z</time></trkpt><trkpt lat="14.465629901405153" lon="120.96158736555827"><ele>7.0</ele><time>2026-04-21T07:25:05.001Z</time></trkpt><trkpt lat="14.465523834883449" lon="120.96151192092455"><ele>7.0</ele><time>2026-04-21T07:25:06.001Z</time></trkpt><trkpt lat="14.465417769735582" lon="120.96143565806425"><ele>7.0</ele><time>2026-04-21T07:25:07.001Z</time></trkpt><trkpt lat="14.465309205141592" lon="120.9613584971496"><ele>7.0</ele><time>2026-04-21T07:25:08.001Z</time></trkpt><trkpt lat="14.465199292222426" lon="120.96127822773359"><ele>6.75</ele><time>2026-04-21T07:25:09.001Z</time></trkpt><trkpt lat="14.465086438480851" lon="120.96119490943714"><ele>6.5</ele><time>2026-04-21T07:25:10.001Z</time></trkpt><trkpt lat="14.464966899981494" lon="120.9611104315134"><ele>6.25</ele><time>2026-04-21T07:25:11.001Z</time></trkpt><trkpt lat="14.464852301916627" lon="120.96102855495876"><ele>6.0</ele><time>2026-04-21T07:25:12.001Z</time></trkpt><trkpt lat="14.464740021608803" lon="120.9609500237177"><ele>6.0</ele><time>2026-04-21T07:25:13.001Z</time></trkpt><trkpt lat="14.464638291257435" lon="120.96087385217662"><ele>6.0</ele><time>2026-04-21T07:25:14.001Z</time></trkpt><trkpt lat="14.46453470978379" lon="120.96079832823486"><ele>6.0</ele><time>2026-04-21T07:25:15.001Z</time></trkpt><trkpt lat="14.464442476737053" lon="120.96072896817752"><ele>6.0</ele><time>2026-04-21T07:25:16.001Z</time></trkpt><trkpt lat="14.46433357255291" lon="120.96065393873523"><ele>6.0</ele><time>2026-04-21T07:25:17.001Z</time></trkpt><trkpt lat="14.464237992357184" lon="120.96058649832315"><ele>6.0</ele><time>2026-04-21T07:25:18.001Z</time></trkpt><trkpt lat="14.464136555504952" lon="120.96051481409954"><ele>6.0</ele><time>2026-04-21T07:25:19.001Z</time></trkpt><trkpt lat="14.46403956051822" lon="120.96044735473848"><ele>6.0</ele><time>2026-04-21T07:25:20.001Z</time></trkpt><trkpt lat="14.46394791086418" lon="120.96038356377466"><ele>6.0</ele><time>2026-04-21T07:25:21.001Z</time></trkpt><trkpt lat="14.463862022333926" lon="120.9603240043419"><ele>6.0</ele><time>2026-04-21T07:25:22.001Z</time></trkpt><trkpt lat="14.463780856525625" lon="120.96026695394994"><ele>6.0</ele><time>2026-04-21T07:25:23.001Z</time></trkpt><trkpt lat="14.46369888643349" lon="120.96020900009304"><ele>6.0</ele><time>2026-04-21T07:25:24.001Z</time></trkpt><trkpt lat="14.463615386934217" lon="120.96015177114113"><ele>6.0</ele><time>2026-04-21T07:25:25.001Z</time></trkpt><trkpt lat="14.463528969599798" lon="120.96009492741769"><ele>5.666666666666667</ele><time>2026-04-21T07:25:26.001Z</time></trkpt><trkpt lat="14.463452667629396" lon="120.96003831850288"><ele>5.333333333333333</ele><time>2026-04-21T07:25:27.001Z</time></trkpt><trkpt lat="14.463381795871822" lon="120.95998599251715"><ele>5.0</ele><time>2026-04-21T07:25:28.001Z</time></trkpt><trkpt lat="14.463317880960012" lon="120.95993770540701"><ele>4.666666666666666</ele><time>2026-04-21T07:25:29.001Z</time></trkpt><trkpt lat="14.463255707014376" lon="120.95988808863186"><ele>4.333333333333333</ele><time>2026-04-21T07:25:30.001Z</time></trkpt><trkpt lat="14.46319123069074" lon="120.95984022753127"><ele>4.0</ele><time>2026-04-21T07:25:31.001Z</time></trkpt><trkpt lat="14.463140644916798" lon="120.95979874243316"><ele>4.0</ele><time>2026-04-21T07:25:32.001Z</time></trkpt><trkpt lat="14.463047324857184" lon="120.95972368602901"><ele>4.0</ele><time>2026-04-21T07:25:34.001Z</time></trkpt><trkpt lat="14.46293969349954" lon="120.95966837582472"><ele>4.0</ele><time>2026-04-21T07:25:36.001Z</time></trkpt><trkpt lat="14.462863123298437" lon="120.95963313069477"><ele>4.0</ele><time>2026-04-21T07:25:38.001Z</time></trkpt><trkpt lat="14.462783178411659" lon="120.95961358649866"><ele>4.0</ele><time>2026-04-21T07:25:42.001Z</time></trkpt><trkpt lat="14.462705557616141" lon="120.959590089208"><ele>4.2</ele><time>2026-04-21T07:25:46.001Z</time></trkpt><trkpt lat="14.462637449313984" lon="120.95956004584522"><ele>4.4</ele><time>2026-04-21T07:25:57.001Z</time></trkpt><trkpt lat="14.4625479676137" lon="120.95954378933355"><ele>4.6</ele><time>2026-04-21T07:25:59.001Z</time></trkpt><trkpt lat="14.462450696683048" lon="120.95951596280842"><ele>4.8</ele><time>2026-04-21T07:26:01Z</time></trkpt><trkpt lat="14.462353467024398" lon="120.95947944628722"><ele>5.0</ele><time>2026-04-21T07:26:03Z</time></trkpt><trkpt lat="14.462268911046316" lon="120.9594787392173"><ele>5.0</ele><time>2026-04-21T07:26:05Z</time></trkpt><trkpt lat="14.462193046255118" lon="120.9594746161305"><ele>5.0</ele><time>2026-04-21T07:26:08Z</time></trkpt><trkpt lat="14.462167106847838" lon="120.95934341145653"><ele>5.0</ele><time>2026-04-21T07:26:09Z</time></trkpt><trkpt lat="14.462113668508572" lon="120.95926420171716"><ele>5.0</ele><time>2026-04-21T07:26:11Z</time></trkpt><trkpt lat="14.462076469173455" lon="120.95917020936467"><ele>5.0</ele><time>2026-04-21T07:26:13Z</time></trkpt><trkpt lat="14.46205286746741" lon="120.95910170974112"><ele>5.5</ele><time>2026-04-21T07:26:14Z</time></trkpt><trkpt lat="14.462041473185193" lon="120.95901070271363"><ele>6.0</ele><time>2026-04-21T07:26:15Z</time></trkpt><trkpt lat="14.462013639491126" lon="120.95891244078422"><ele>6.5</ele><time>2026-04-21T07:26:16Z</time></trkpt><trkpt lat="14.461991099529715" lon="120.95883286745274"><ele>7.0</ele><time>2026-04-21T07:26:17Z</time></trkpt><trkpt lat="14.461969286835881" lon="120.95875586162222"><ele>7.499999999999999</ele><time>2026-04-21T07:26:18Z</time></trkpt><trkpt lat="14.46194655502308" lon="120.95867561098419"><ele>8.0</ele><time>2026-04-21T07:26:19Z</time></trkpt><trkpt lat="14.461924997437977" lon="120.95859950574723"><ele>7.999999999999999</ele><time>2026-04-21T07:26:20Z</time></trkpt><trkpt lat="14.461902145238387" lon="120.95851883011984"><ele>8.0</ele><time>2026-04-21T07:26:21Z</time></trkpt><trkpt lat="14.461878110813545" lon="120.95843398084865"><ele>8.0</ele><time>2026-04-21T07:26:22Z</time></trkpt><trkpt lat="14.461856990982476" lon="120.95835942107234"><ele>8.0</ele><time>2026-04-21T07:26:23Z</time></trkpt><trkpt lat="14.461833733966412" lon="120.95827758170378"><ele>7.999999999999999</ele><time>2026-04-21T07:26:24Z</time></trkpt><trkpt lat="14.461810754337302" lon="120.95819892332999"><ele>8.0</ele><time>2026-04-21T07:26:25Z</time></trkpt><trkpt lat="14.461784758383896" lon="120.95810994020425"><ele>7.800000000000001</ele><time>2026-04-21T07:26:26Z</time></trkpt><trkpt lat="14.461761084039475" lon="120.95802068131083"><ele>7.6000000000000005</ele><time>2026-04-21T07:26:27Z</time></trkpt><trkpt lat="14.461735536608723" lon="120.957927178852"><ele>7.3999999999999995</ele><time>2026-04-21T07:26:28Z</time></trkpt><trkpt lat="14.461712984639554" lon="120.9578461339489"><ele>7.199999999999999</ele><time>2026-04-21T07:26:29Z</time></trkpt><trkpt lat="14.461681382200577" lon="120.95773226338966"><ele>7.0</ele><time>2026-04-21T07:26:30Z</time></trkpt><trkpt lat="14.461631803753278" lon="120.9576149223438"><ele>6.75</ele><time>2026-04-21T07:26:31Z</time></trkpt><trkpt lat="14.461599968189915" lon="120.95748259198024"><ele>6.5</ele><time>2026-04-21T07:26:32Z</time></trkpt><trkpt lat="14.461570462114764" lon="120.9573561570517"><ele>6.25</ele><time>2026-04-21T07:26:33Z</time></trkpt><trkpt lat="14.461538056905457" lon="120.95722932333256"><ele>6.0</ele><time>2026-04-21T07:26:34Z</time></trkpt><trkpt lat="14.461501470440796" lon="120.95709914290269"><ele>6.0</ele><time>2026-04-21T07:26:35Z</time></trkpt><trkpt lat="14.46146975163086" lon="120.95698675175089"><ele>6.0</ele><time>2026-04-21T07:26:36Z</time></trkpt><trkpt lat="14.461441479408823" lon="120.95688220906017"><ele>6.0</ele><time>2026-04-21T07:26:37Z</time></trkpt><trkpt lat="14.461412191552565" lon="120.9567727033789"><ele>6.0</ele><time>2026-04-21T07:26:38Z</time></trkpt><trkpt lat="14.461386618714744" lon="120.95666900054394"><ele>6.0</ele><time>2026-04-21T07:26:39Z</time></trkpt><trkpt lat="14.461355180441279" lon="120.95656082883797"><ele>6.0</ele><time>2026-04-21T07:26:40Z</time></trkpt><trkpt lat="14.461318359420535" lon="120.95644448377323"><ele>6.0</ele><time>2026-04-21T07:26:41Z</time></trkpt><trkpt lat="14.461293274644587" lon="120.9563512884927"><ele>6.0</ele><time>2026-04-21T07:26:42Z</time></trkpt><trkpt lat="14.461274970903196" lon="120.95626618063004"><ele>6.0</ele><time>2026-04-21T07:26:43Z</time></trkpt><trkpt lat="14.461253715757136" lon="120.9561755689319"><ele>6.0</ele><time>2026-04-21T07:26:44Z</time></trkpt><trkpt lat="14.461230833246503" lon="120.95609786757794"><ele>6.0</ele><time>2026-04-21T07:26:45Z</time></trkpt><trkpt lat="14.461201702878375" lon="120.95601374341972"><ele>6.0</ele><time>2026-04-21T07:26:46Z</time></trkpt><trkpt lat="14.461170168493723" lon="120.95591138368285"><ele>6.0</ele><time>2026-04-21T07:26:47Z</time></trkpt><trkpt lat="14.461140306016434" lon="120.95580145619583"><ele>6.0</ele><time>2026-04-21T07:26:48Z</time></trkpt><trkpt lat="14.461108720618327" lon="120.95568454871506"><ele>6.0</ele><time>2026-04-21T07:26:49Z</time></trkpt><trkpt lat="14.461079080880836" lon="120.9555732159797"><ele>6.666666666666667</ele><time>2026-04-21T07:26:50Z</time></trkpt><trkpt lat="14.461050937819847" lon="120.95547509073074"><ele>7.333333333333334</ele><time>2026-04-21T07:26:51Z</time></trkpt><trkpt lat="14.461040806953788" lon="120.95537699274807"><ele>8.0</ele><time>2026-04-21T07:26:52Z</time></trkpt><trkpt lat="14.461018291271515" lon="120.95529233210705"><ele>8.666666666666668</ele><time>2026-04-21T07:26:53Z</time></trkpt><trkpt lat="14.460997619711096" lon="120.95521526449535"><ele>9.333333333333334</ele><time>2026-04-21T07:26:54Z</time></trkpt><trkpt lat="14.460977562379092" lon="120.95514048686867"><ele>10.0</ele><time>2026-04-21T07:26:55Z</time></trkpt><trkpt lat="14.460954104493474" lon="120.95505045296335"><ele>9.6</ele><time>2026-04-21T07:26:56Z</time></trkpt><trkpt lat="14.460928281878935" lon="120.95495067425144"><ele>9.2</ele><time>2026-04-21T07:26:57Z</time></trkpt><trkpt lat="14.460902369384591" lon="120.954855344014"><ele>8.8</ele><time>2026-04-21T07:26:58Z</time></trkpt><trkpt lat="14.46087300793084" lon="120.95474476425073"><ele>8.4</ele><time>2026-04-21T07:26:59Z</time></trkpt><trkpt lat="14.460843431834833" lon="120.95463369420521"><ele>8.0</ele><time>2026-04-21T07:27:00Z</time></trkpt><trkpt lat="14.460800621828394" lon="120.95453825437792"><ele>7.999999999999999</ele><time>2026-04-21T07:27:01Z</time></trkpt><trkpt lat="14.460777905740917" lon="120.95445365235976"><ele>8.0</ele><time>2026-04-21T07:27:02Z</time></trkpt><trkpt lat="14.460770620371553" lon="120.95436156334571"><ele>8.0</ele><time>2026-04-21T07:27:03Z</time></trkpt><trkpt lat="14.460735596944676" lon="120.95428932161718"><ele>8.0</ele><time>2026-04-21T07:27:04Z</time></trkpt><trkpt lat="14.460721506273496" lon="120.95422090726318"><ele>7.999999999999999</ele><time>2026-04-21T07:27:05Z</time></trkpt><trkpt lat="14.460697975721986" lon="120.95411612979998"><ele>8.0</ele><time>2026-04-21T07:27:07Z</time></trkpt><trkpt lat="14.460675691702752" lon="120.95404901733592"><ele>7.999999999999999</ele><time>2026-04-21T07:27:09Z</time></trkpt><trkpt lat="14.460669377609673" lon="120.95397429585923"><ele>8.0</ele><time>2026-04-21T07:27:12.001Z</time></trkpt><trkpt lat="14.460648859539985" lon="120.95389121242914"><ele>8.0</ele><time>2026-04-21T07:27:16.001Z</time></trkpt><trkpt lat="14.460626599648013" lon="120.95380107585338"><ele>8.0</ele><time>2026-04-21T07:27:18.001Z</time></trkpt><trkpt lat="14.46060657615955" lon="120.953719995118"><ele>7.999999999999999</ele><time>2026-04-21T07:27:21.001Z</time></trkpt><trkpt lat="14.460589415314342" lon="120.95365038501959"><ele>8.0</ele><time>2026-04-21T07:27:24.001Z</time></trkpt><trkpt lat="14.460569443251947" lon="120.95356841351527"><ele>7.999999999999999</ele><time>2026-04-21T07:27:27.001Z</time></trkpt><trkpt lat="14.460544632382184" lon="120.95346658216442"><ele>8.0</ele><time>2026-04-21T07:27:30.001Z</time></trkpt><trkpt lat="14.460509102037127" lon="120.95338281704406"><ele>8.0</ele><time>2026-04-21T07:27:32.001Z</time></trkpt><trkpt lat="14.460507837522234" lon="120.95331331996681"><ele>8.0</ele><time>2026-04-21T07:27:33.001Z</time></trkpt><trkpt lat="14.460492712715606" lon="120.9532346563277"><ele>7.999999999999999</ele><time>2026-04-21T07:27:34.001Z</time></trkpt><trkpt lat="14.460476126345231" lon="120.95315418941662"><ele>8.0</ele><time>2026-04-21T07:27:35.001Z</time></trkpt><trkpt lat="14.46045712089296" lon="120.95306198659836"><ele>8.0</ele><time>2026-04-21T07:27:37.001Z</time></trkpt><trkpt lat="14.460443166496878" lon="120.95299428841616"><ele>7.999999999999999</ele><time>2026-04-21T07:27:38.001Z</time></trkpt><trkpt lat="14.460428698181028" lon="120.95292409700811"><ele>8.0</ele><time>2026-04-21T07:27:39.001Z</time></trkpt><trkpt lat="14.460403110765645" lon="120.95285187586475"><ele>8.0</ele><time>2026-04-21T07:27:40.001Z</time></trkpt><trkpt lat="14.460389067849379" lon="120.9527770352537"><ele>7.999999999999999</ele><time>2026-04-21T07:27:41.001Z</time></trkpt><trkpt lat="14.46037794147219" lon="120.95270817215442"><ele>8.0</ele><time>2026-04-21T07:27:42.001Z</time></trkpt><trkpt lat="14.460370342503385" lon="120.95263188287153"><ele>8.0</ele><time>2026-04-21T07:27:43.001Z</time></trkpt><trkpt lat="14.46036240250156" lon="120.95255296072747"><ele>7.833333333333333</ele><time>2026-04-21T07:27:44.001Z</time></trkpt><trkpt lat="14.460349236565477" lon="120.95248307679552"><ele>7.666666666666666</ele><time>2026-04-21T07:27:45.001Z</time></trkpt><trkpt lat="14.460341421946659" lon="120.95241830039429"><ele>7.5</ele><time>2026-04-21T07:27:46.001Z</time></trkpt><trkpt lat="14.460334147431281" lon="120.95234130722484"><ele>7.333333333333334</ele><time>2026-04-21T07:27:47.001Z</time></trkpt><trkpt lat="14.460327734103707" lon="120.95226209725965"><ele>7.166666666666667</ele><time>2026-04-21T07:27:48.001Z</time></trkpt><trkpt lat="14.460317024487756" lon="120.95217336843709"><ele>7.0</ele><time>2026-04-21T07:27:49.001Z</time></trkpt><trkpt lat="14.460306987739152" lon="120.95208111707555"><ele>7.000000000000001</ele><time>2026-04-21T07:27:50.001Z</time></trkpt><trkpt lat="14.460299451303197" lon="120.95197805740936"><ele>7.0</ele><time>2026-04-21T07:27:51.001Z</time></trkpt><trkpt lat="14.460294602087998" lon="120.95188623997618"><ele>7.0</ele><time>2026-04-21T07:27:52.001Z</time></trkpt><trkpt lat="14.46028728575449" lon="120.95180230056846"><ele>7.0</ele><time>2026-04-21T07:27:53.001Z</time></trkpt><trkpt lat="14.460279828429956" lon="120.95173508655304"><ele>7.000000000000001</ele><time>2026-04-21T07:27:54.001Z</time></trkpt><trkpt lat="14.46026912639322" lon="120.95164989209441"><ele>7.0</ele><time>2026-04-21T07:27:57.001Z</time></trkpt><trkpt lat="14.460255279711694" lon="120.95155693397436"><ele>7.166666666666667</ele><time>2026-04-21T07:28:00.001Z</time></trkpt><trkpt lat="14.460239701995803" lon="120.95144432646401"><ele>7.333333333333334</ele><time>2026-04-21T07:28:02.001Z</time></trkpt><trkpt lat="14.460234402244932" lon="120.95137658381853"><ele>7.5</ele><time>2026-04-21T07:28:03.001Z</time></trkpt><trkpt lat="14.460230478414738" lon="120.95130297891589"><ele>7.666666666666666</ele><time>2026-04-21T07:28:04.001Z</time></trkpt><trkpt lat="14.460228190361775" lon="120.95122630559608"><ele>7.833333333333333</ele><time>2026-04-21T07:28:05.001Z</time></trkpt><trkpt lat="14.460223918627928" lon="120.95113756830584"><ele>8.0</ele><time>2026-04-21T07:28:06Z</time></trkpt><trkpt lat="14.460216648128576" lon="120.95105592617992"><ele>8.0</ele><time>2026-04-21T07:28:07Z</time></trkpt><trkpt lat="14.460203998795297" lon="120.95096624361052"><ele>8.0</ele><time>2026-04-21T07:28:08Z</time></trkpt><trkpt lat="14.46019634113022" lon="120.95088830703219"><ele>8.0</ele><time>2026-04-21T07:28:09Z</time></trkpt><trkpt lat="14.460184803398937" lon="120.95078598305425"><ele>8.0</ele><time>2026-04-21T07:28:10Z</time></trkpt><trkpt lat="14.460169388741319" lon="120.95068335339829"><ele>8.0</ele><time>2026-04-21T07:28:11Z</time></trkpt><trkpt lat="14.4601529135062" lon="120.95058084832898"><ele>8.200000000000001</ele><time>2026-04-21T07:28:12Z</time></trkpt><trkpt lat="14.460139936999589" lon="120.95048036082747"><ele>8.4</ele><time>2026-04-21T07:28:13Z</time></trkpt><trkpt lat="14.460125944575001" lon="120.95037620608032"><ele>8.600000000000001</ele><time>2026-04-21T07:28:14Z</time></trkpt><trkpt lat="14.46011042318007" lon="120.95027220909087"><ele>8.8</ele><time>2026-04-21T07:28:15Z</time></trkpt><trkpt lat="14.460101243080029" lon="120.95017162312438"><ele>9.0</ele><time>2026-04-21T07:28:16Z</time></trkpt><trkpt lat="14.460093266003785" lon="120.95009699788883"><ele>8.6</ele><time>2026-04-21T07:28:17Z</time></trkpt><trkpt lat="14.4600812360141" lon="120.9500029366049"><ele>8.2</ele><time>2026-04-21T07:28:19Z</time></trkpt><trkpt lat="14.460085611538599" lon="120.94989473387206"><ele>7.799999999999999</ele><time>2026-04-21T07:28:21Z</time></trkpt><trkpt lat="14.46007197324684" lon="120.94975883053668"><ele>7.3999999999999995</ele><time>2026-04-21T07:28:23Z</time></trkpt><trkpt lat="14.460047830029138" lon="120.94967686689876"><ele>7.0</ele><time>2026-04-21T07:28:24Z</time></trkpt><trkpt lat="14.460042257487922" lon="120.94959299601774"><ele>7.0</ele><time>2026-04-21T07:28:25Z</time></trkpt><trkpt lat="14.460034493057982" lon="120.9495006591559"><ele>6.999999999999999</ele><time>2026-04-21T07:28:26Z</time></trkpt><trkpt lat="14.460024013129342" lon="120.94940491829902"><ele>6.999999999999999</ele><time>2026-04-21T07:28:27Z</time></trkpt><trkpt lat="14.460015497721383" lon="120.9493182835999"><ele>7.0</ele><time>2026-04-21T07:28:28Z</time></trkpt><trkpt lat="14.460002334250616" lon="120.94921533004258"><ele>7.0</ele><time>2026-04-21T07:28:29Z</time></trkpt><trkpt lat="14.459991664717418" lon="120.94910753131131"><ele>7.0</ele><time>2026-04-21T07:28:30Z</time></trkpt><trkpt lat="14.459995201739277" lon="120.94898303697174"><ele>7.0</ele><time>2026-04-21T07:28:31Z</time></trkpt><trkpt lat="14.459982340866905" lon="120.94885120186424"><ele>7.0</ele><time>2026-04-21T07:28:32Z</time></trkpt><trkpt lat="14.459969348735639" lon="120.94871820625222"><ele>7.0</ele><time>2026-04-21T07:28:33Z</time></trkpt><trkpt lat="14.459929727441883" lon="120.94858398339235"><ele>7.0</ele><time>2026-04-21T07:28:34Z</time></trkpt><trkpt lat="14.459925727586366" lon="120.94847043179595"><ele>7.0</ele><time>2026-04-21T07:28:35Z</time></trkpt><trkpt lat="14.459911514123947" lon="120.94834568572388"><ele>7.0</ele><time>2026-04-21T07:28:36Z</time></trkpt><trkpt lat="14.459897189869483" lon="120.94822880487625"><ele>7.0</ele><time>2026-04-21T07:28:37Z</time></trkpt><trkpt lat="14.459885247710524" lon="120.94809896241406"><ele>7.0</ele><time>2026-04-21T07:28:38Z</time></trkpt><trkpt lat="14.459876313600033" lon="120.94798259862222"><ele>6.999999999999999</ele><time>2026-04-21T07:28:39Z</time></trkpt><trkpt lat="14.459864833023294" lon="120.94787616313697"><ele>6.999999999999999</ele><time>2026-04-21T07:28:40Z</time></trkpt><trkpt lat="14.459850160249934" lon="120.94776461166063"><ele>7.0</ele><time>2026-04-21T07:28:41Z</time></trkpt><trkpt lat="14.459865855014302" lon="120.94765978436409"><ele>7.0</ele><time>2026-04-21T07:28:42Z</time></trkpt><trkpt lat="14.459855710511185" lon="120.94754627435476"><ele>7.199999999999999</ele><time>2026-04-21T07:28:43Z</time></trkpt><trkpt lat="14.45984294871486" lon="120.94744654484342"><ele>7.3999999999999995</ele><time>2026-04-21T07:28:44Z</time></trkpt><trkpt lat="14.459819526990174" lon="120.94736343552525"><ele>7.6000000000000005</ele><time>2026-04-21T07:28:45Z</time></trkpt><trkpt lat="14.459815447376537" lon="120.94728664984655"><ele>7.800000000000001</ele><time>2026-04-21T07:28:46Z</time></trkpt><trkpt lat="14.459804491093026" lon="120.94715164140877"><ele>8.0</ele><time>2026-04-21T07:28:48Z</time></trkpt><trkpt lat="14.459793289805928" lon="120.94704164386806"><ele>8.0</ele><time>2026-04-21T07:28:50Z</time></trkpt><trkpt lat="14.459788907826612" lon="120.94696754657842"><ele>8.0</ele><time>2026-04-21T07:28:52Z</time></trkpt><trkpt lat="14.459781469627705" lon="120.94688346804104"><ele>8.0</ele><time>2026-04-21T07:28:54Z</time></trkpt><trkpt lat="14.459789743851672" lon="120.94681180570225"><ele>8.0</ele><time>2026-04-21T07:28:56Z</time></trkpt><trkpt lat="14.459791085460452" lon="120.94670300360693"><ele>8.0</ele><time>2026-04-21T07:28:58Z</time></trkpt><trkpt lat="14.45978101277785" lon="120.946569818653"><ele>7.999999999999999</ele><time>2026-04-21T07:29:00Z</time></trkpt><trkpt lat="14.459771018744728" lon="120.94649501095009"><ele>8.0</ele><time>2026-04-21T07:29:01Z</time></trkpt><trkpt lat="14.45976777098033" lon="120.94640799476583"><ele>8.0</ele><time>2026-04-21T07:29:02Z</time></trkpt><trkpt lat="14.459776060772368" lon="120.94633007852904"><ele>8.0</ele><time>2026-04-21T07:29:03Z</time></trkpt><trkpt lat="14.459775209010484" lon="120.94623042548281"><ele>7.999999999999999</ele><time>2026-04-21T07:29:04Z</time></trkpt><trkpt lat="14.459772861491" lon="120.94613953427395"><ele>8.0</ele><time>2026-04-21T07:29:05Z</time></trkpt><trkpt lat="14.45977452174117" lon="120.94605672595195"><ele>8.0</ele><time>2026-04-21T07:29:06Z</time></trkpt><trkpt lat="14.459776252379951" lon="120.94596675637867"><ele>8.0</ele><time>2026-04-21T07:29:07Z</time></trkpt><trkpt lat="14.459768948857219" lon="120.94582703125526"><ele>8.0</ele><time>2026-04-21T07:29:09Z</time></trkpt><trkpt lat="14.45975891163243" lon="120.94573206617747"><ele>8.0</ele><time>2026-04-21T07:29:10Z</time></trkpt><trkpt lat="14.459754288508613" lon="120.94565553377835"><ele>8.0</ele><time>2026-04-21T07:29:11Z</time></trkpt><trkpt lat="14.459756034936552" lon="120.94550850420136"><ele>7.833333333333333</ele><time>2026-04-21T07:29:13Z</time></trkpt><trkpt lat="14.45976171649484" lon="120.94542904789282"><ele>7.666666666666666</ele><time>2026-04-21T07:29:14Z</time></trkpt><trkpt lat="14.459767771064392" lon="120.9453501749547"><ele>7.5</ele><time>2026-04-21T07:29:15Z</time></trkpt><trkpt lat="14.459765297131764" lon="120.94525741889173"><ele>7.333333333333334</ele><time>2026-04-21T07:29:16Z</time></trkpt><trkpt lat="14.459754187945627" lon="120.9451531321978"><ele>7.166666666666667</ele><time>2026-04-21T07:29:17Z</time></trkpt><trkpt lat="14.459755937400866" lon="120.94507004333863"><ele>7.0</ele><time>2026-04-21T07:29:18Z</time></trkpt><trkpt lat="14.459747405666521" lon="120.94498124822685"><ele>6.833333333333334</ele><time>2026-04-21T07:29:19.001Z</time></trkpt><trkpt lat="14.459742225581218" lon="120.9449140645243"><ele>6.666666666666667</ele><time>2026-04-21T07:29:20.001Z</time></trkpt><trkpt lat="14.459737564478221" lon="120.9448112668688"><ele>6.5</ele><time>2026-04-21T07:29:22.001Z</time></trkpt><trkpt lat="14.459729438815433" lon="120.94468780170406"><ele>6.333333333333334</ele><time>2026-04-21T07:29:24.001Z</time></trkpt><trkpt lat="14.459723444397122" lon="120.94461599507262"><ele>6.166666666666667</ele><time>2026-04-21T07:29:25.001Z</time></trkpt><trkpt lat="14.459718406638778" lon="120.94454951725132"><ele>6.0</ele><time>2026-04-21T07:29:26.001Z</time></trkpt><trkpt lat="14.459705902647295" lon="120.9444768776966"><ele>6.0</ele><time>2026-04-21T07:29:27.001Z</time></trkpt><trkpt lat="14.459699595537723" lon="120.94439764013609"><ele>6.0</ele><time>2026-04-21T07:29:28.001Z</time></trkpt><trkpt lat="14.459701901560859" lon="120.94430286145797"><ele>6.0</ele><time>2026-04-21T07:29:29.001Z</time></trkpt><trkpt lat="14.45970450432153" lon="120.94420789775309"><ele>6.0</ele><time>2026-04-21T07:29:30.001Z</time></trkpt><trkpt lat="14.459699312014052" lon="120.94410072219175"><ele>6.0</ele><time>2026-04-21T07:29:31.001Z</time></trkpt><trkpt lat="14.459688365801822" lon="120.94399495765163"><ele>6.4</ele><time>2026-04-21T07:29:32.001Z</time></trkpt><trkpt lat="14.459676393796725" lon="120.94388150154961"><ele>6.8</ele><time>2026-04-21T07:29:33.001Z</time></trkpt><trkpt lat="14.459668731259617" lon="120.9437748294136"><ele>7.200000000000001</ele><time>2026-04-21T07:29:34.001Z</time></trkpt><trkpt lat="14.459663535334496" lon="120.94367488137219"><ele>7.6000000000000005</ele><time>2026-04-21T07:29:35.001Z</time></trkpt><trkpt lat="14.459654894434665" lon="120.94358018719217"><ele>8.0</ele><time>2026-04-21T07:29:36.001Z</time></trkpt><trkpt lat="14.45964258017938" lon="120.94349467343399"><ele>8.0</ele><time>2026-04-21T07:29:37.001Z</time></trkpt><trkpt lat="14.45962990724614" lon="120.94339688638324"><ele>8.0</ele><time>2026-04-21T07:29:38.001Z</time></trkpt><trkpt lat="14.459621109889936" lon="120.9433010834225"><ele>8.0</ele><time>2026-04-21T07:29:39.001Z</time></trkpt><trkpt lat="14.459612602179256" lon="120.94320789967153"><ele>8.0</ele><time>2026-04-21T07:29:40.001Z</time></trkpt><trkpt lat="14.459602342694568" lon="120.94311228711516"><ele>8.0</ele><time>2026-04-21T07:29:41.001Z</time></trkpt><trkpt lat="14.459595930939525" lon="120.94303261475956"><ele>7.999999999999999</ele><time>2026-04-21T07:29:42.001Z</time></trkpt><trkpt lat="14.459591472293015" lon="120.94293988372145"><ele>8.0</ele><time>2026-04-21T07:29:43.001Z</time></trkpt><trkpt lat="14.459586859415355" lon="120.9428624712919"><ele>8.0</ele><time>2026-04-21T07:29:44.001Z</time></trkpt><trkpt lat="14.459578876424064" lon="120.94275055436721"><ele>8.0</ele><time>2026-04-21T07:29:46.001Z</time></trkpt><trkpt lat="14.45956972270699" lon="120.94267932103757"><ele>7.999999999999999</ele><time>2026-04-21T07:29:47.001Z</time></trkpt><trkpt lat="14.459560575486519" lon="120.9425891000701"><ele>8.0</ele><time>2026-04-21T07:29:48.001Z</time></trkpt><trkpt lat="14.459553189888531" lon="120.94250831497789"><ele>8.0</ele><time>2026-04-21T07:29:49.001Z</time></trkpt><trkpt lat="14.459543470179684" lon="120.94240946263103"><ele>8.0</ele><time>2026-04-21T07:29:50.001Z</time></trkpt><trkpt lat="14.45953320567202" lon="120.9422996177949"><ele>8.0</ele><time>2026-04-21T07:29:51.001Z</time></trkpt><trkpt lat="14.459525704660276" lon="120.94219747203739"><ele>8.0</ele><time>2026-04-21T07:29:52.001Z</time></trkpt><trkpt lat="14.459521024142225" lon="120.94209786260768"><ele>8.0</ele><time>2026-04-21T07:29:53.001Z</time></trkpt><trkpt lat="14.459511475086403" lon="120.94200976974605"><ele>7.999999999999999</ele><time>2026-04-21T07:29:54.001Z</time></trkpt><trkpt lat="14.459506039150067" lon="120.94193604838135"><ele>8.0</ele><time>2026-04-21T07:29:55.001Z</time></trkpt><trkpt lat="14.45948706497987" lon="120.94183037556546"><ele>8.0</ele><time>2026-04-21T07:29:57.001Z</time></trkpt><trkpt lat="14.459478513632273" lon="120.94174752898634"><ele>8.0</ele><time>2026-04-21T07:29:59.001Z</time></trkpt><trkpt lat="14.459474662714811" lon="120.94165780835804"><ele>7.999999999999999</ele><time>2026-04-21T07:30:02.001Z</time></trkpt><trkpt lat="14.459466228989774" lon="120.9415763181686"><ele>8.0</ele><time>2026-04-21T07:30:03.001Z</time></trkpt><trkpt lat="14.459452462900279" lon="120.94147681916027"><ele>7.6000000000000005</ele><time>2026-04-21T07:30:04.001Z</time></trkpt><trkpt lat="14.459437565720666" lon="120.9413651393261"><ele>7.200000000000001</ele><time>2026-04-21T07:30:05.001Z</time></trkpt><trkpt lat="14.459428721122414" lon="120.94125548951541"><ele>6.8</ele><time>2026-04-21T07:30:06.001Z</time></trkpt><trkpt lat="14.459420518980586" lon="120.941137857611"><ele>6.4</ele><time>2026-04-21T07:30:07.001Z</time></trkpt><trkpt lat="14.45941543379333" lon="120.9410282829506"><ele>6.0</ele><time>2026-04-21T07:30:08.001Z</time></trkpt><trkpt lat="14.459403225480653" lon="120.94091094532949"><ele>6.5</ele><time>2026-04-21T07:30:09.001Z</time></trkpt><trkpt lat="14.459385224978984" lon="120.94079082593375"><ele>7.0</ele><time>2026-04-21T07:30:10.001Z</time></trkpt><trkpt lat="14.45936988194122" lon="120.94066980668511"><ele>7.5</ele><time>2026-04-21T07:30:11.001Z</time></trkpt><trkpt lat="14.45935663669515" lon="120.94054942174503"><ele>8.0</ele><time>2026-04-21T07:30:12Z</time></trkpt><trkpt lat="14.459364542030425" lon="120.94043584639384"><ele>8.0</ele><time>2026-04-21T07:30:13Z</time></trkpt><trkpt lat="14.459340581235852" lon="120.94032274919638"><ele>8.0</ele><time>2026-04-21T07:30:14Z</time></trkpt><trkpt lat="14.459332127568953" lon="120.94022620450194"><ele>8.0</ele><time>2026-04-21T07:30:15Z</time></trkpt><trkpt lat="14.459338359161837" lon="120.94011586093173"><ele>8.0</ele><time>2026-04-21T07:30:16Z</time></trkpt><trkpt lat="14.459325955676864" lon="120.94001149518499"><ele>8.0</ele><time>2026-04-21T07:30:17Z</time></trkpt><trkpt lat="14.459311707093564" lon="120.93991617047685"><ele>8.0</ele><time>2026-04-21T07:30:18Z</time></trkpt><trkpt lat="14.459294985633994" lon="120.93982203485729"><ele>8.0</ele><time>2026-04-21T07:30:19Z</time></trkpt><trkpt lat="14.459273093630692" lon="120.93971505307933"><ele>8.0</ele><time>2026-04-21T07:30:20Z</time></trkpt><trkpt lat="14.459252356960773" lon="120.93962111093194"><ele>8.0</ele><time>2026-04-21T07:30:21Z</time></trkpt><trkpt lat="14.45921428744215" lon="120.93951783028129"><ele>8.0</ele><time>2026-04-21T07:30:22Z</time></trkpt><trkpt lat="14.459193230105386" lon="120.93940332924089"><ele>7.999999999999999</ele><time>2026-04-21T07:30:23Z</time></trkpt><trkpt lat="14.459166803079546" lon="120.93929495795128"><ele>8.0</ele><time>2026-04-21T07:30:24Z</time></trkpt><trkpt lat="14.459161095773915" lon="120.93920767553016"><ele>8.0</ele><time>2026-04-21T07:30:25Z</time></trkpt><trkpt lat="14.4591410963401" lon="120.93912673915237"><ele>8.0</ele><time>2026-04-21T07:30:26Z</time></trkpt><trkpt lat="14.459118353031055" lon="120.93903506053981"><ele>7.999999999999999</ele><time>2026-04-21T07:30:27Z</time></trkpt><trkpt lat="14.459086412903028" lon="120.93895880442602"><ele>8.0</ele><time>2026-04-21T07:30:28Z</time></trkpt><trkpt lat="14.459065874194446" lon="120.93886976742478"><ele>8.0</ele><time>2026-04-21T07:30:29Z</time></trkpt><trkpt lat="14.459043185247445" lon="120.93877283089483"><ele>8.0</ele><time>2026-04-21T07:30:30Z</time></trkpt><trkpt lat="14.459022769363727" lon="120.9386919481539"><ele>8.0</ele><time>2026-04-21T07:30:31Z</time></trkpt><trkpt lat="14.459003557274372" lon="120.93861219295349"><ele>8.0</ele><time>2026-04-21T07:30:32Z</time></trkpt><trkpt lat="14.458972994567038" lon="120.93846641357875"><ele>8.0</ele><time>2026-04-21T07:30:34Z</time></trkpt><trkpt lat="14.458961020628866" lon="120.9384015791462"><ele>7.571428571428571</ele><time>2026-04-21T07:30:35Z</time></trkpt><trkpt lat="14.45894045404415" lon="120.9383228516018"><ele>7.142857142857142</ele><time>2026-04-21T07:30:36Z</time></trkpt><trkpt lat="14.458929363328565" lon="120.93825882276282"><ele>6.7142857142857135</ele><time>2026-04-21T07:30:37Z</time></trkpt><trkpt lat="14.458909941357872" lon="120.93817957636132"><ele>6.285714285714286</ele><time>2026-04-21T07:30:38Z</time></trkpt><trkpt lat="14.458894294168644" lon="120.93810828133012"><ele>5.857142857142858</ele><time>2026-04-21T07:30:39Z</time></trkpt><trkpt lat="14.458874279706437" lon="120.9380270645907"><ele>5.428571428571429</ele><time>2026-04-21T07:30:40Z</time></trkpt><trkpt lat="14.45885518781956" lon="120.93795171386323"><ele>5.0</ele><time>2026-04-21T07:30:41Z</time></trkpt><trkpt lat="14.458829969820002" lon="120.93786173725601"><ele>5.0</ele><time>2026-04-21T07:30:42Z</time></trkpt><trkpt lat="14.458801262865627" lon="120.93776044999952"><ele>5.0</ele><time>2026-04-21T07:30:43Z</time></trkpt><trkpt lat="14.458790192626509" lon="120.93764728005893"><ele>5.0</ele><time>2026-04-21T07:30:44Z</time></trkpt><trkpt lat="14.458761321173924" lon="120.93751985296815"><ele>5.0</ele><time>2026-04-21T07:30:45Z</time></trkpt><trkpt lat="14.458722917236575" lon="120.93740043072135"><ele>5.5</ele><time>2026-04-21T07:30:46Z</time></trkpt><trkpt lat="14.458690945755512" lon="120.93725181779743"><ele>6.0</ele><time>2026-04-21T07:30:47Z</time></trkpt><trkpt lat="14.458658920515457" lon="120.93710391414989"><ele>6.5</ele><time>2026-04-21T07:30:48Z</time></trkpt><trkpt lat="14.458629341247097" lon="120.93696699579765"><ele>7.0</ele><time>2026-04-21T07:30:49Z</time></trkpt><trkpt lat="14.458594055619296" lon="120.9368161621219"><ele>6.5</ele><time>2026-04-21T07:30:50Z</time></trkpt><trkpt lat="14.458556532720916" lon="120.93666495278602"><ele>6.0</ele><time>2026-04-21T07:30:51Z</time></trkpt><trkpt lat="14.458524691783055" lon="120.9365223353002"><ele>5.5</ele><time>2026-04-21T07:30:52Z</time></trkpt><trkpt lat="14.458489385273033" lon="120.93638074072784"><ele>5.0</ele><time>2026-04-21T07:30:53Z</time></trkpt><trkpt lat="14.45845757969831" lon="120.9362431931096"><ele>5.0</ele><time>2026-04-21T07:30:54Z</time></trkpt><trkpt lat="14.458422574235689" lon="120.9360983547393"><ele>5.0</ele><time>2026-04-21T07:30:55Z</time></trkpt><trkpt lat="14.45839124974667" lon="120.93596109293345"><ele>5.0</ele><time>2026-04-21T07:30:56Z</time></trkpt><trkpt lat="14.458357586163903" lon="120.93581228605997"><ele>5.0</ele><time>2026-04-21T07:30:57Z</time></trkpt><trkpt lat="14.458336209563312" lon="120.93568566707167"><ele>4.75</ele><time>2026-04-21T07:30:58Z</time></trkpt><trkpt lat="14.458301651005996" lon="120.93554728779797"><ele>4.5</ele><time>2026-04-21T07:30:59Z</time></trkpt><trkpt lat="14.458267272972234" lon="120.93540566227401"><ele>4.25</ele><time>2026-04-21T07:31:00Z</time></trkpt><trkpt lat="14.45825062699479" lon="120.93526969091977"><ele>4.0</ele><time>2026-04-21T07:31:01Z</time></trkpt><trkpt lat="14.45821962936598" lon="120.93513375265134"><ele>4.4</ele><time>2026-04-21T07:31:02Z</time></trkpt><trkpt lat="14.458190540449118" lon="120.93500618492018"><ele>4.800000000000001</ele><time>2026-04-21T07:31:03Z</time></trkpt><trkpt lat="14.458151484326727" lon="120.93490434091926"><ele>5.199999999999999</ele><time>2026-04-21T07:31:04Z</time></trkpt><trkpt lat="14.45813737968431" lon="120.93481691973882"><ele>5.6</ele><time>2026-04-21T07:31:05Z</time></trkpt><trkpt lat="14.458122919769306" lon="120.93474310723524"><ele>6.0</ele><time>2026-04-21T07:31:06Z</time></trkpt><trkpt lat="14.458105188194189" lon="120.9346780628708"><ele>6.0</ele><time>2026-04-21T07:31:07Z</time></trkpt><trkpt lat="14.458102449317279" lon="120.93459335744132"><ele>6.0</ele><time>2026-04-21T07:31:08Z</time></trkpt><trkpt lat="14.458071381103974" lon="120.93451311614072"><ele>6.0</ele><time>2026-04-21T07:31:09Z</time></trkpt><trkpt lat="14.45805784072384" lon="120.93442859226116"><ele>6.0</ele><time>2026-04-21T07:31:10Z</time></trkpt><trkpt lat="14.458047024948867" lon="120.9343555345562"><ele>6.0</ele><time>2026-04-21T07:31:11Z</time></trkpt><trkpt lat="14.458033290035006" lon="120.93428947525729"><ele>6.0</ele><time>2026-04-21T07:31:12Z</time></trkpt><trkpt lat="14.458035492866363" lon="120.9342176435389"><ele>6.0</ele><time>2026-04-21T07:31:13Z</time></trkpt><trkpt lat="14.45801035780352" lon="120.93413665634614"><ele>6.0</ele><time>2026-04-21T07:31:14Z</time></trkpt><trkpt lat="14.458004495376489" lon="120.93404160356403"><ele>6.0</ele><time>2026-04-21T07:31:15Z</time></trkpt><trkpt lat="14.457995755347993" lon="120.93394700580593"><ele>6.0</ele><time>2026-04-21T07:31:16Z</time></trkpt><trkpt lat="14.457980972586308" lon="120.93384159166338"><ele>6.0</ele><time>2026-04-21T07:31:17Z</time></trkpt><trkpt lat="14.457966190132737" lon="120.93373880167499"><ele>6.0</ele><time>2026-04-21T07:31:18Z</time></trkpt><trkpt lat="14.457969901957894" lon="120.93362937836216"><ele>6.0</ele><time>2026-04-21T07:31:19Z</time></trkpt><trkpt lat="14.457945654947926" lon="120.93353734188202"><ele>6.0</ele><time>2026-04-21T07:31:20Z</time></trkpt><trkpt lat="14.457952258757267" lon="120.93344734255656"><ele>6.0</ele><time>2026-04-21T07:31:21Z</time></trkpt><trkpt lat="14.457921325201156" lon="120.93336207207902"><ele>6.0</ele><time>2026-04-21T07:31:22Z</time></trkpt><trkpt lat="14.457907829655227" lon="120.93323299386562"><ele>5.999999999999999</ele><time>2026-04-21T07:31:24Z</time></trkpt><trkpt lat="14.457897065290632" lon="120.93316141382483"><ele>6.0</ele><time>2026-04-21T07:31:25Z</time></trkpt><trkpt lat="14.457912149482853" lon="120.93308920353665"><ele>6.0</ele><time>2026-04-21T07:31:26Z</time></trkpt><trkpt lat="14.457903846721413" lon="120.9330178518978"><ele>6.0</ele><time>2026-04-21T07:31:27Z</time></trkpt><trkpt lat="14.457894845774904" lon="120.93293559679941"><ele>6.0</ele><time>2026-04-21T07:31:28.001Z</time></trkpt><trkpt lat="14.45788599753129" lon="120.9328566266728"><ele>5.999999999999999</ele><time>2026-04-21T07:31:29.001Z</time></trkpt><trkpt lat="14.457876752799272" lon="120.93277411791551"><ele>6.0</ele><time>2026-04-21T07:31:31.001Z</time></trkpt><trkpt lat="14.45786769196726" lon="120.9326932504561"><ele>6.0</ele><time>2026-04-21T07:31:35.001Z</time></trkpt><trkpt lat="14.457853930407504" lon="120.93259087877765"><ele>6.0</ele><time>2026-04-21T07:31:37.001Z</time></trkpt><trkpt lat="14.457831549821806" lon="120.93251398729983"><ele>6.0</ele><time>2026-04-21T07:31:38.001Z</time></trkpt><trkpt lat="14.457808021401092" lon="120.93243390034326"><ele>6.0</ele><time>2026-04-21T07:31:39.001Z</time></trkpt><trkpt lat="14.457783355426207" lon="120.93234068881921"><ele>6.0</ele><time>2026-04-21T07:31:40.001Z</time></trkpt><trkpt lat="14.457750047343936" lon="120.93224597858358"><ele>6.0</ele><time>2026-04-21T07:31:41.001Z</time></trkpt><trkpt lat="14.457720100269853" lon="120.93216172098555"><ele>6.0</ele><time>2026-04-21T07:31:42.001Z</time></trkpt><trkpt lat="14.45767856179044" lon="120.93209146121632"><ele>6.0</ele><time>2026-04-21T07:31:43.001Z</time></trkpt><trkpt lat="14.457656726606311" lon="120.93202055470562"><ele>6.0</ele><time>2026-04-21T07:31:44.001Z</time></trkpt><trkpt lat="14.457634014550095" lon="120.93195078484966"><ele>6.0</ele><time>2026-04-21T07:31:45.001Z</time></trkpt><trkpt lat="14.457608580713936" lon="120.93187136621894"><ele>6.0</ele><time>2026-04-21T07:31:46.001Z</time></trkpt><trkpt lat="14.457584274781405" lon="120.93179757368361"><ele>6.199999999999999</ele><time>2026-04-21T07:31:47.001Z</time></trkpt><trkpt lat="14.457551674195587" lon="120.93171321191157"><ele>6.3999999999999995</ele><time>2026-04-21T07:31:48.001Z</time></trkpt><trkpt lat="14.457517550456183" lon="120.93163071325661"><ele>6.6</ele><time>2026-04-21T07:31:49.001Z</time></trkpt><trkpt lat="14.457496209869854" lon="120.93152265099374"><ele>6.8</ele><time>2026-04-21T07:31:50.001Z</time></trkpt><trkpt lat="14.457450844186045" lon="120.93144162673"><ele>7.0</ele><time>2026-04-21T07:31:51.001Z</time></trkpt><trkpt lat="14.457437040248982" lon="120.93135082992849"><ele>7.000000000000001</ele><time>2026-04-21T07:31:52.001Z</time></trkpt><trkpt lat="14.457411077687429" lon="120.93127543793733"><ele>7.0</ele><time>2026-04-21T07:31:53.001Z</time></trkpt><trkpt lat="14.457371496363832" lon="120.93120826362787"><ele>7.0</ele><time>2026-04-21T07:31:54.001Z</time></trkpt><trkpt lat="14.457347374036154" lon="120.93113964156005"><ele>7.0</ele><time>2026-04-21T07:31:55.001Z</time></trkpt><trkpt lat="14.457317400801445" lon="120.93105474136287"><ele>7.000000000000001</ele><time>2026-04-21T07:31:56.001Z</time></trkpt><trkpt lat="14.457286922815083" lon="120.93096660894372"><ele>7.0</ele><time>2026-04-21T07:31:57.001Z</time></trkpt><trkpt lat="14.457276858668063" lon="120.93088798738542"><ele>7.000000000000001</ele><time>2026-04-21T07:31:58.001Z</time></trkpt><trkpt lat="14.45724802397211" lon="120.93080513572696"><ele>7.0</ele><time>2026-04-21T07:31:59.001Z</time></trkpt><trkpt lat="14.457223499464105" lon="120.93073465513876"><ele>7.0</ele><time>2026-04-21T07:32:00.001Z</time></trkpt><trkpt lat="14.457196287804788" lon="120.93065645199"><ele>7.0</ele><time>2026-04-21T07:32:01.001Z</time></trkpt><trkpt lat="14.457171552405464" lon="120.93058536542351"><ele>7.000000000000001</ele><time>2026-04-21T07:32:02.001Z</time></trkpt><trkpt lat="14.457096534519167" lon="120.93053039319469"><ele>7.0</ele><time>2026-04-21T07:32:03.001Z</time></trkpt><trkpt lat="14.457062486061417" lon="120.93046411375302"><ele>7.166666666666667</ele><time>2026-04-21T07:32:04.001Z</time></trkpt><trkpt lat="14.45700081989227" lon="120.93042971333081"><ele>7.333333333333334</ele><time>2026-04-21T07:32:05.001Z</time></trkpt><trkpt lat="14.456956110273628" lon="120.93036776946781"><ele>7.5</ele><time>2026-04-21T07:32:06.001Z</time></trkpt><trkpt lat="14.45686512407201" lon="120.93035401835776"><ele>7.666666666666666</ele><time>2026-04-21T07:32:07.001Z</time></trkpt><trkpt lat="14.456780507378438" lon="120.93033039630568"><ele>7.833333333333333</ele><time>2026-04-21T07:32:08.001Z</time></trkpt><trkpt lat="14.456712408628224" lon="120.93031465225636"><ele>8.0</ele><time>2026-04-21T07:32:09.001Z</time></trkpt><trkpt lat="14.456647370241653" lon="120.93030414255354"><ele>8.0</ele><time>2026-04-21T07:32:10.001Z</time></trkpt><trkpt lat="14.456573502696072" lon="120.93029068434363"><ele>8.0</ele><time>2026-04-21T07:32:11.001Z</time></trkpt><trkpt lat="14.456506612773163" lon="120.93027824690246"><ele>8.0</ele><time>2026-04-21T07:32:12.001Z</time></trkpt><trkpt lat="14.456428519202897" lon="120.9302445050779"><ele>8.0</ele><time>2026-04-21T07:32:13.001Z</time></trkpt><trkpt lat="14.456330642175638" lon="120.93022647653814"><ele>8.0</ele><time>2026-04-21T07:32:14.001Z</time></trkpt><trkpt lat="14.456204786680525" lon="120.93020365492464"><ele>8.0</ele><time>2026-04-21T07:32:15.001Z</time></trkpt><trkpt lat="14.456066842586544" lon="120.93018944587163"><ele>8.0</ele><time>2026-04-21T07:32:16.001Z</time></trkpt><trkpt lat="14.45594184010906" lon="120.93017857667098"><ele>8.0</ele><time>2026-04-21T07:32:17.001Z</time></trkpt><trkpt lat="14.455799601323255" lon="120.93014533414355"><ele>8.0</ele><time>2026-04-21T07:32:18Z</time></trkpt><trkpt lat="14.455660669729125" lon="120.93012001346901"><ele>8.0</ele><time>2026-04-21T07:32:19Z</time></trkpt><trkpt lat="14.45554905643668" lon="120.93009415043642"><ele>8.0</ele><time>2026-04-21T07:32:20Z</time></trkpt><trkpt lat="14.455415533807397" lon="120.93007282908317"><ele>8.0</ele><time>2026-04-21T07:32:21Z</time></trkpt><trkpt lat="14.455282818462276" lon="120.93004982155702"><ele>8.0</ele><time>2026-04-21T07:32:22Z</time></trkpt><trkpt lat="14.455160915965616" lon="120.93002157352815"><ele>7.5</ele><time>2026-04-21T07:32:23Z</time></trkpt><trkpt lat="14.455033851763915" lon="120.92999339268665"><ele>7.0</ele><time>2026-04-21T07:32:24Z</time></trkpt><trkpt lat="14.454905441641255" lon="120.92996991770238"><ele>6.5</ele><time>2026-04-21T07:32:25Z</time></trkpt><trkpt lat="14.454775381677075" lon="120.9299477128449"><ele>6.0</ele><time>2026-04-21T07:32:26Z</time></trkpt><trkpt lat="14.454665928032215" lon="120.92991836997389"><ele>5.75</ele><time>2026-04-21T07:32:27Z</time></trkpt><trkpt lat="14.454552969051525" lon="120.92989315509328"><ele>5.5</ele><time>2026-04-21T07:32:28Z</time></trkpt><trkpt lat="14.454444168609845" lon="120.92985610687506"><ele>5.25</ele><time>2026-04-21T07:32:29Z</time></trkpt><trkpt lat="14.454338931088664" lon="120.92981132084644"><ele>5.0</ele><time>2026-04-21T07:32:30Z</time></trkpt><trkpt lat="14.454225969520593" lon="120.92977140010397"><ele>5.0</ele><time>2026-04-21T07:32:31Z</time></trkpt><trkpt lat="14.454113886427203" lon="120.92972105304914"><ele>5.0</ele><time>2026-04-21T07:32:32Z</time></trkpt><trkpt lat="14.454015695957839" lon="120.92965296395957"><ele>5.0</ele><time>2026-04-21T07:32:33Z</time></trkpt><trkpt lat="14.45392710124606" lon="120.92957674496195"><ele>5.0</ele><time>2026-04-21T07:32:34Z</time></trkpt><trkpt lat="14.453840620206687" lon="120.92949398721136"><ele>5.0</ele><time>2026-04-21T07:32:35Z</time></trkpt><trkpt lat="14.453771838422526" lon="120.9294093430673"><ele>5.0</ele><time>2026-04-21T07:32:36Z</time></trkpt><trkpt lat="14.453707130086958" lon="120.92933780680185"><ele>5.0</ele><time>2026-04-21T07:32:37Z</time></trkpt><trkpt lat="14.453591287937472" lon="120.9292551128019"><ele>5.0</ele><time>2026-04-21T07:32:38Z</time></trkpt><trkpt lat="14.453506011236218" lon="120.92917964992118"><ele>5.0</ele><time>2026-04-21T07:32:39Z</time></trkpt><trkpt lat="14.453421917488656" lon="120.92910218024454"><ele>5.0</ele><time>2026-04-21T07:32:40Z</time></trkpt><trkpt lat="14.453336554060753" lon="120.92902061092252"><ele>5.0</ele><time>2026-04-21T07:32:41Z</time></trkpt><trkpt lat="14.453255211852701" lon="120.92894364618613"><ele>5.0</ele><time>2026-04-21T07:32:42Z</time></trkpt><trkpt lat="14.453184383185913" lon="120.92886162911446"><ele>5.0</ele><time>2026-04-21T07:32:43Z</time></trkpt><trkpt lat="14.453114969114969" lon="120.92879164469095"><ele>5.0</ele><time>2026-04-21T07:32:44Z</time></trkpt><trkpt lat="14.453044187126602" lon="120.92872028096131"><ele>5.0</ele><time>2026-04-21T07:32:45Z</time></trkpt><trkpt lat="14.452973563864917" lon="120.92865113956292"><ele>5.0</ele><time>2026-04-21T07:32:46Z</time></trkpt><trkpt lat="14.45289913527507" lon="120.92858617949112"><ele>5.0</ele><time>2026-04-21T07:32:47Z</time></trkpt><trkpt lat="14.452821982587425" lon="120.92852482048954"><ele>5.0</ele><time>2026-04-21T07:32:48Z</time></trkpt><trkpt lat="14.452734187330329" lon="120.9284665699864"><ele>5.0</ele><time>2026-04-21T07:32:49Z</time></trkpt><trkpt lat="14.452660719261852" lon="120.9284247346058"><ele>5.0</ele><time>2026-04-21T07:32:50Z</time></trkpt><trkpt lat="14.452561611576863" lon="120.92837696016882"><ele>5.0</ele><time>2026-04-21T07:32:51Z</time></trkpt><trkpt lat="14.452471671144858" lon="120.92834246542397"><ele>5.0</ele><time>2026-04-21T07:32:52Z</time></trkpt><trkpt lat="14.452388187348477" lon="120.92831314002014"><ele>5.0</ele><time>2026-04-21T07:32:53Z</time></trkpt><trkpt lat="14.4523052336984" lon="120.92830077624603"><ele>5.0</ele><time>2026-04-21T07:32:54Z</time></trkpt><trkpt lat="14.45222033308062" lon="120.92828906767362"><ele>5.0</ele><time>2026-04-21T07:32:55Z</time></trkpt><trkpt lat="14.452132177432544" lon="120.92828438639876"><ele>5.0</ele><time>2026-04-21T07:32:56Z</time></trkpt><trkpt lat="14.452053767444848" lon="120.92828304143454"><ele>5.0</ele><time>2026-04-21T07:32:57Z</time></trkpt><trkpt lat="14.451982467728486" lon="120.92828304143556"><ele>5.0</ele><time>2026-04-21T07:32:58Z</time></trkpt><trkpt lat="14.451917686759934" lon="120.92828712946036"><ele>5.0</ele><time>2026-04-21T07:32:59Z</time></trkpt><trkpt lat="14.451853689703839" lon="120.92829155241537"><ele>5.4</ele><time>2026-04-21T07:33:00Z</time></trkpt><trkpt lat="14.45172524664009" lon="120.92830042935469"><ele>5.8</ele><time>2026-04-21T07:33:02Z</time></trkpt><trkpt lat="14.451662169621256" lon="120.92830478872376"><ele>6.199999999999999</ele><time>2026-04-21T07:33:03Z</time></trkpt><trkpt lat="14.451598947434487" lon="120.92830978692884"><ele>6.6</ele><time>2026-04-21T07:33:04Z</time></trkpt><trkpt lat="14.451499441255764" lon="120.9283179862104"><ele>7.0</ele><time>2026-04-21T07:33:06Z</time></trkpt><trkpt lat="14.451400352270563" lon="120.92832615111688"><ele>7.000000000000001</ele><time>2026-04-21T07:33:08Z</time></trkpt><trkpt lat="14.45129600021262" lon="120.92833610620616"><ele>7.0</ele><time>2026-04-21T07:33:10Z</time></trkpt><trkpt lat="14.451216408991883" lon="120.92834594918426"><ele>7.0</ele><time>2026-04-21T07:33:12Z</time></trkpt><trkpt lat="14.451137152915065" lon="120.92835575071472"><ele>7.0</ele><time>2026-04-21T07:33:14Z</time></trkpt><trkpt lat="14.451074332417665" lon="120.9283804406008"><ele>7.000000000000001</ele><time>2026-04-21T07:33:16Z</time></trkpt><trkpt lat="14.450990384750854" lon="120.9283846987071"><ele>7.0</ele><time>2026-04-21T07:33:20Z</time></trkpt><trkpt lat="14.450918096070033" lon="120.92839581641803"><ele>7.166666666666667</ele><time>2026-04-21T07:33:23Z</time></trkpt><trkpt lat="14.450849264249124" lon="120.92840547792089"><ele>7.333333333333334</ele><time>2026-04-21T07:33:28Z</time></trkpt><trkpt lat="14.450767707231774" lon="120.92840842480418"><ele>7.5</ele><time>2026-04-21T07:33:31Z</time></trkpt><trkpt lat="14.450671461550476" lon="120.92837269355171"><ele>7.666666666666666</ele><time>2026-04-21T07:33:33Z</time></trkpt><trkpt lat="14.450596472155894" lon="120.92831831903007"><ele>7.833333333333333</ele><time>2026-04-21T07:33:35.001Z</time></trkpt><trkpt lat="14.450558210581972" lon="120.92823946510876"><ele>8.0</ele><time>2026-04-21T07:33:37.001Z</time></trkpt><trkpt lat="14.450541284585874" lon="120.92814935112995"><ele>8.0</ele><time>2026-04-21T07:33:39.001Z</time></trkpt><trkpt lat="14.450489675824489" lon="120.92809949146988"><ele>8.0</ele><time>2026-04-21T07:33:41.001Z</time></trkpt><trkpt lat="14.450556648940141" lon="120.92798428831301"><ele>8.0</ele><time>2026-04-21T07:33:43.001Z</time></trkpt><trkpt lat="14.450573557901789" lon="120.92790224594076"><ele>8.0</ele><time>2026-04-21T07:33:45.001Z</time></trkpt><trkpt lat="14.450591994542618" lon="120.92782130618983"><ele>8.0</ele><time>2026-04-21T07:33:47.001Z</time></trkpt><trkpt lat="14.450608690412903" lon="120.92771773737526"><ele>8.0</ele><time>2026-04-21T07:33:49.001Z</time></trkpt><trkpt lat="14.450628147554806" lon="120.92762005218457"><ele>8.0</ele><time>2026-04-21T07:33:51.001Z</time></trkpt><trkpt lat="14.450648676614838" lon="120.92752583575671"><ele>8.0</ele><time>2026-04-21T07:33:53.001Z</time></trkpt><trkpt lat="14.450669170180724" lon="120.92742261485213"><ele>8.0</ele><time>2026-04-21T07:33:55.001Z</time></trkpt><trkpt lat="14.450691792682145" lon="120.92730775881797"><ele>8.0</ele><time>2026-04-21T07:33:57.001Z</time></trkpt><trkpt lat="14.450692077126261" lon="120.92718917236438"><ele>7.999999999999999</ele><time>2026-04-21T07:33:59.001Z</time></trkpt><trkpt lat="14.450683845313224" lon="120.92709321674072"><ele>8.0</ele><time>2026-04-21T07:34:01.001Z</time></trkpt><trkpt lat="14.450668576943265" lon="120.92701011556504"><ele>8.0</ele><time>2026-04-21T07:34:03.001Z</time></trkpt><trkpt lat="14.450653025829629" lon="120.92693192371352"><ele>8.0</ele><time>2026-04-21T07:34:05.001Z</time></trkpt><trkpt lat="14.450627759977177" lon="120.9268489264785"><ele>7.999999999999999</ele><time>2026-04-21T07:34:08.001Z</time></trkpt><trkpt lat="14.450626666582366" lon="120.92677557914578"><ele>8.0</ele><time>2026-04-21T07:34:11.001Z</time></trkpt><trkpt lat="14.450606653990889" lon="120.92666242075254"><ele>7.999999999999999</ele><time>2026-04-21T07:34:13.001Z</time></trkpt><trkpt lat="14.45058878205144" lon="120.92655786651994"><ele>8.0</ele><time>2026-04-21T07:34:15.001Z</time></trkpt><trkpt lat="14.450571750811218" lon="120.92647358152135"><ele>8.0</ele><time>2026-04-21T07:34:17.001Z</time></trkpt><trkpt lat="14.450550991775867" lon="120.92638225489515"><ele>8.0</ele><time>2026-04-21T07:34:19.001Z</time></trkpt><trkpt lat="14.450535616644572" lon="120.92631632837329"><ele>7.999999999999999</ele><time>2026-04-21T07:34:20.001Z</time></trkpt><trkpt lat="14.450516697216846" lon="120.92624317241587"><ele>8.0</ele><time>2026-04-21T07:34:21.001Z</time></trkpt><trkpt lat="14.450499552248942" lon="120.92616172758842"><ele>7.999999999999999</ele><time>2026-04-21T07:34:22.001Z</time></trkpt><trkpt lat="14.450476141622888" lon="120.92608016846737"><ele>8.0</ele><time>2026-04-21T07:34:23.001Z</time></trkpt><trkpt lat="14.45046494611036" lon="120.92599606262414"><ele>8.0</ele><time>2026-04-21T07:34:24Z</time></trkpt><trkpt lat="14.450451901923202" lon="120.92590887550215"><ele>8.0</ele><time>2026-04-21T07:34:25Z</time></trkpt><trkpt lat="14.450434717188177" lon="120.92582225371982"><ele>7.999999999999999</ele><time>2026-04-21T07:34:26Z</time></trkpt><trkpt lat="14.450423894165352" lon="120.92574788945149"><ele>8.0</ele><time>2026-04-21T07:34:27Z</time></trkpt><trkpt lat="14.450409297463148" lon="120.92567475684822"><ele>7.833333333333333</ele><time>2026-04-21T07:34:28Z</time></trkpt><trkpt lat="14.450387641078612" lon="120.92560424178102"><ele>7.666666666666666</ele><time>2026-04-21T07:34:29Z</time></trkpt><trkpt lat="14.450369724564682" lon="120.92553243642638"><ele>7.5</ele><time>2026-04-21T07:34:30Z</time></trkpt><trkpt lat="14.450358540436794" lon="120.92545832348192"><ele>7.333333333333334</ele><time>2026-04-21T07:34:31Z</time></trkpt><trkpt lat="14.450338197298517" lon="120.92538239025525"><ele>7.166666666666667</ele><time>2026-04-21T07:34:32Z</time></trkpt><trkpt lat="14.450315827676883" lon="120.92530758459165"><ele>7.0</ele><time>2026-04-21T07:34:33Z</time></trkpt><trkpt lat="14.450315508095052" lon="120.92522352513275"><ele>7.000000000000001</ele><time>2026-04-21T07:34:34Z</time></trkpt><trkpt lat="14.450300803935862" lon="120.92515015863839"><ele>7.0</ele><time>2026-04-21T07:34:35Z</time></trkpt><trkpt lat="14.450286411978698" lon="120.92507834995332"><ele>7.0</ele><time>2026-04-21T07:34:36Z</time></trkpt><trkpt lat="14.45027361044716" lon="120.92501447663021"><ele>7.0</ele><time>2026-04-21T07:34:37Z</time></trkpt><trkpt lat="14.450248301583063" lon="120.92488819796058"><ele>7.000000000000001</ele><time>2026-04-21T07:34:39Z</time></trkpt><trkpt lat="14.45023552311706" lon="120.92482443975693"><ele>7.0</ele><time>2026-04-21T07:34:40Z</time></trkpt><trkpt lat="14.45019884800402" lon="120.92471726556566"><ele>6.8</ele><time>2026-04-21T07:34:42Z</time></trkpt><trkpt lat="14.450176863952287" lon="120.92461138965137"><ele>6.6</ele><time>2026-04-21T07:34:44Z</time></trkpt><trkpt lat="14.450170194389209" lon="120.92449848179301"><ele>6.3999999999999995</ele><time>2026-04-21T07:34:46Z</time></trkpt><trkpt lat="14.450146290786746" lon="120.92437944734532"><ele>6.199999999999999</ele><time>2026-04-21T07:34:48Z</time></trkpt><trkpt lat="14.450122679569839" lon="120.92427389133067"><ele>6.0</ele><time>2026-04-21T07:34:50Z</time></trkpt><trkpt lat="14.450103958819062" lon="120.92419019854397"><ele>5.833333333333333</ele><time>2026-04-21T07:34:52Z</time></trkpt><trkpt lat="14.450086041132211" lon="120.92411009594797"><ele>5.666666666666667</ele><time>2026-04-21T07:34:54Z</time></trkpt><trkpt lat="14.450053030420587" lon="120.9240368756596"><ele>5.5</ele><time>2026-04-21T07:34:56Z</time></trkpt><trkpt lat="14.450050288902947" lon="120.92395022743418"><ele>5.333333333333334</ele><time>2026-04-21T07:34:58Z</time></trkpt><trkpt lat="14.450030781760628" lon="120.92386299170511"><ele>5.166666666666667</ele><time>2026-04-21T07:35:00Z</time></trkpt><trkpt lat="14.45001114351876" lon="120.92377516971085"><ele>5.0</ele><time>2026-04-21T07:35:02Z</time></trkpt><trkpt lat="14.449991970095065" lon="120.92368746942189"><ele>5.0</ele><time>2026-04-21T07:35:05Z</time></trkpt><trkpt lat="14.449953214684708" lon="120.92357683855037"><ele>5.0</ele><time>2026-04-21T07:35:08Z</time></trkpt><trkpt lat="14.449933331663999" lon="120.92347087981474"><ele>5.0</ele><time>2026-04-21T07:35:10Z</time></trkpt><trkpt lat="14.44991500813942" lon="120.9233990151614"><ele>5.0</ele><time>2026-04-21T07:35:12Z</time></trkpt><trkpt lat="14.449907326997131" lon="120.92329507468483"><ele>5.0</ele><time>2026-04-21T07:35:19Z</time></trkpt><trkpt lat="14.449890162271888" lon="120.9232155011918"><ele>5.2</ele><time>2026-04-21T07:35:22Z</time></trkpt><trkpt lat="14.449865533194002" lon="120.9231542860528"><ele>5.4</ele><time>2026-04-21T07:35:27Z</time></trkpt><trkpt lat="14.449694765471595" lon="120.92317825009583"><ele>5.6</ele><time>2026-04-21T07:35:29Z</time></trkpt><trkpt lat="14.44958308330734" lon="120.92322966314202"><ele>5.8</ele><time>2026-04-21T07:35:31Z</time></trkpt><trkpt lat="14.44951576481596" lon="120.92326140456987"><ele>6.0</ele><time>2026-04-21T07:35:32Z</time></trkpt><trkpt lat="14.449389229833264" lon="120.92331751747912"><ele>6.166666666666667</ele><time>2026-04-21T07:35:34Z</time></trkpt><trkpt lat="14.449318945191813" lon="120.92334447595657"><ele>6.333333333333334</ele><time>2026-04-21T07:35:35Z</time></trkpt><trkpt lat="14.449254157123011" lon="120.92335847233583"><ele>6.5</ele><time>2026-04-21T07:35:36Z</time></trkpt><trkpt lat="14.449146750521296" lon="120.92338717653912"><ele>6.666666666666667</ele><time>2026-04-21T07:35:38Z</time></trkpt><trkpt lat="14.449064937336177" lon="120.92340032586021"><ele>6.833333333333334</ele><time>2026-04-21T07:35:40.001Z</time></trkpt><trkpt lat="14.448973999617468" lon="120.92339229040566"><ele>7.0</ele><time>2026-04-21T07:35:42.001Z</time></trkpt><trkpt lat="14.448875766989964" lon="120.92339802260979"><ele>7.0</ele><time>2026-04-21T07:35:44.001Z</time></trkpt><trkpt lat="14.448779991903828" lon="120.9234016994593"><ele>6.999999999999999</ele><time>2026-04-21T07:35:46.001Z</time></trkpt><trkpt lat="14.44868164726557" lon="120.9234054749566"><ele>6.999999999999999</ele><time>2026-04-21T07:35:48.001Z</time></trkpt><trkpt lat="14.448597232792078" lon="120.92340871566869"><ele>7.0</ele><time>2026-04-21T07:35:50.001Z</time></trkpt><trkpt lat="14.448495338866335" lon="120.92341262742359"><ele>7.0</ele><time>2026-04-21T07:35:52.001Z</time></trkpt><trkpt lat="14.448393810372329" lon="120.92341909918898"><ele>7.0</ele><time>2026-04-21T07:35:54.001Z</time></trkpt><trkpt lat="14.448306025553265" lon="120.92344169894433"><ele>6.999999999999999</ele><time>2026-04-21T07:35:56.001Z</time></trkpt><trkpt lat="14.44824382359242" lon="120.92343142204678"><ele>6.999999999999999</ele><time>2026-04-21T07:35:57.001Z</time></trkpt><trkpt lat="14.448152272723954" lon="120.92343584861844"><ele>7.0</ele><time>2026-04-21T07:35:59.001Z</time></trkpt><trkpt lat="14.448051273721527" lon="120.92345555476204"><ele>7.0</ele><time>2026-04-21T07:36:01.001Z</time></trkpt><trkpt lat="14.447948045431318" lon="120.92344538531404"><ele>7.3999999999999995</ele><time>2026-04-21T07:36:03.001Z</time></trkpt><trkpt lat="14.447832829838351" lon="120.92346871219246"><ele>7.799999999999999</ele><time>2026-04-21T07:36:05.001Z</time></trkpt><trkpt lat="14.447706232088429" lon="120.92348234991731"><ele>8.2</ele><time>2026-04-21T07:36:07.001Z</time></trkpt><trkpt lat="14.447615169015734" lon="120.92348893476436"><ele>8.6</ele><time>2026-04-21T07:36:08.001Z</time></trkpt><trkpt lat="14.447509962623924" lon="120.92349527958127"><ele>9.0</ele><time>2026-04-21T07:36:09.001Z</time></trkpt><trkpt lat="14.44742402365126" lon="120.92348945394217"><ele>9.0</ele><time>2026-04-21T07:36:10.001Z</time></trkpt><trkpt lat="14.447342961354998" lon="120.92348776162723"><ele>9.0</ele><time>2026-04-21T07:36:11.001Z</time></trkpt><trkpt lat="14.447277863521695" lon="120.9234896854288"><ele>9.0</ele><time>2026-04-21T07:36:12.001Z</time></trkpt><trkpt lat="14.447205913706885" lon="120.923487756125"><ele>9.0</ele><time>2026-04-21T07:36:13.001Z</time></trkpt><trkpt lat="14.447124311672912" lon="120.92348459080807"><ele>9.0</ele><time>2026-04-21T07:36:14.001Z</time></trkpt><trkpt lat="14.447038937945758" lon="120.92348413393768"><ele>9.0</ele><time>2026-04-21T07:36:15.001Z</time></trkpt><trkpt lat="14.44694338240744" lon="120.92347589908549"><ele>8.75</ele><time>2026-04-21T07:36:16.001Z</time></trkpt><trkpt lat="14.446845209584845" lon="120.92346101941217"><ele>8.5</ele><time>2026-04-21T07:36:17.001Z</time></trkpt><trkpt lat="14.44676280277944" lon="120.92345175097203"><ele>8.25</ele><time>2026-04-21T07:36:18.001Z</time></trkpt><trkpt lat="14.446566672983986" lon="120.92341834430424"><ele>8.0</ele><time>2026-04-21T07:36:20.001Z</time></trkpt><trkpt lat="14.44647446887101" lon="120.92340140248133"><ele>7.999999999999999</ele><time>2026-04-21T07:36:21.001Z</time></trkpt><trkpt lat="14.446381305832492" lon="120.92338456679951"><ele>8.0</ele><time>2026-04-21T07:36:22.001Z</time></trkpt><trkpt lat="14.446289569352388" lon="120.92336019278682"><ele>8.0</ele><time>2026-04-21T07:36:23.001Z</time></trkpt><trkpt lat="14.44620749304075" lon="120.92334028869543"><ele>8.0</ele><time>2026-04-21T07:36:24.001Z</time></trkpt><trkpt lat="14.446133224483193" lon="120.92332570712045"><ele>7.999999999999999</ele><time>2026-04-21T07:36:25.001Z</time></trkpt><trkpt lat="14.446063081684052" lon="120.92331203464515"><ele>8.0</ele><time>2026-04-21T07:36:26.001Z</time></trkpt><trkpt lat="14.445940783366341" lon="120.92330598984894"><ele>7.666666666666666</ele><time>2026-04-21T07:36:28.001Z</time></trkpt><trkpt lat="14.44586934316548" lon="120.92330975245837"><ele>7.333333333333333</ele><time>2026-04-21T07:36:29.001Z</time></trkpt><trkpt lat="14.445789344866002" lon="120.92332063982151"><ele>7.0</ele><time>2026-04-21T07:36:30Z</time></trkpt><trkpt lat="14.445711642285286" lon="120.92334415002132"><ele>6.666666666666666</ele><time>2026-04-21T07:36:31Z</time></trkpt><trkpt lat="14.445627339697479" lon="120.92336203428867"><ele>6.333333333333333</ele><time>2026-04-21T07:36:32Z</time></trkpt><trkpt lat="14.445554482876997" lon="120.9233781226772"><ele>6.0</ele><time>2026-04-21T07:36:33Z</time></trkpt><trkpt lat="14.44548801462845" lon="120.92338849943425"><ele>6.0</ele><time>2026-04-21T07:36:34Z</time></trkpt><trkpt lat="14.445402735515763" lon="120.92340899737952"><ele>6.0</ele><time>2026-04-21T07:36:36Z</time></trkpt><trkpt lat="14.445299522434741" lon="120.92343177371131"><ele>6.0</ele><time>2026-04-21T07:36:39Z</time></trkpt><trkpt lat="14.445230429600597" lon="120.92343761433331"><ele>6.0</ele><time>2026-04-21T07:36:40Z</time></trkpt><trkpt lat="14.44514682930909" lon="120.92344422361367"><ele>6.0</ele><time>2026-04-21T07:36:41Z</time></trkpt><trkpt lat="14.445054972192569" lon="120.92346095056385"><ele>6.0</ele><time>2026-04-21T07:36:42Z</time></trkpt><trkpt lat="14.44495509667758" lon="120.92347934255277"><ele>6.0</ele><time>2026-04-21T07:36:43Z</time></trkpt><trkpt lat="14.444856816988805" lon="120.92349913283172"><ele>6.0</ele><time>2026-04-21T07:36:44Z</time></trkpt><trkpt lat="14.444758671810169" lon="120.9235164846621"><ele>6.0</ele><time>2026-04-21T07:36:45Z</time></trkpt><trkpt lat="14.444651919461128" lon="120.92353565616601"><ele>6.0</ele><time>2026-04-21T07:36:46Z</time></trkpt><trkpt lat="14.444557324273363" lon="120.92355365776743"><ele>6.0</ele><time>2026-04-21T07:36:47Z</time></trkpt><trkpt lat="14.444455266215273" lon="120.92357585374334"><ele>6.199999999999999</ele><time>2026-04-21T07:36:48Z</time></trkpt><trkpt lat="14.444358020490439" lon="120.92359649971795"><ele>6.3999999999999995</ele><time>2026-04-21T07:36:49Z</time></trkpt><trkpt lat="14.444256043918717" lon="120.92361370773396"><ele>6.6</ele><time>2026-04-21T07:36:50Z</time></trkpt><trkpt lat="14.444153077951603" lon="120.92362618271473"><ele>6.8</ele><time>2026-04-21T07:36:51Z</time></trkpt><trkpt lat="14.444064316702224" lon="120.92363655199833"><ele>7.0</ele><time>2026-04-21T07:36:52Z</time></trkpt><trkpt lat="14.443983452409652" lon="120.92364704148841"><ele>7.000000000000001</ele><time>2026-04-21T07:36:53Z</time></trkpt><trkpt lat="14.443907220600432" lon="120.92366185031611"><ele>7.0</ele><time>2026-04-21T07:36:54Z</time></trkpt><trkpt lat="14.443841465600196" lon="120.92367317583596"><ele>7.0</ele><time>2026-04-21T07:36:55Z</time></trkpt><trkpt lat="14.443732936399186" lon="120.92369811607448"><ele>7.0</ele><time>2026-04-21T07:36:57Z</time></trkpt><trkpt lat="14.443657723295063" lon="120.923728745464"><ele>7.000000000000001</ele><time>2026-04-21T07:36:59Z</time></trkpt><trkpt lat="14.443577750913425" lon="120.9237735408576"><ele>7.0</ele><time>2026-04-21T07:37:06Z</time></trkpt><trkpt lat="14.443480090161124" lon="120.9238194432323"><ele>7.166666666666667</ele><time>2026-04-21T07:37:08Z</time></trkpt><trkpt lat="14.443413306814811" lon="120.92385215480839"><ele>7.333333333333334</ele><time>2026-04-21T07:37:09Z</time></trkpt><trkpt lat="14.443340709924014" lon="120.92388893187164"><ele>7.5</ele><time>2026-04-21T07:37:10Z</time></trkpt><trkpt lat="14.443269134146028" lon="120.92392760852925"><ele>7.666666666666666</ele><time>2026-04-21T07:37:11Z</time></trkpt><trkpt lat="14.443183075136911" lon="120.92397569058761"><ele>7.833333333333333</ele><time>2026-04-21T07:37:12Z</time></trkpt><trkpt lat="14.44310154065823" lon="120.92401370138897"><ele>8.0</ele><time>2026-04-21T07:37:13Z</time></trkpt><trkpt lat="14.44301269984301" lon="120.92406623851384"><ele>8.0</ele><time>2026-04-21T07:37:14Z</time></trkpt><trkpt lat="14.442919527083857" lon="120.92412074264178"><ele>8.0</ele><time>2026-04-21T07:37:15Z</time></trkpt><trkpt lat="14.442829265508514" lon="120.92416831846003"><ele>8.0</ele><time>2026-04-21T07:37:16Z</time></trkpt><trkpt lat="14.442735391757207" lon="120.92421460491347"><ele>8.0</ele><time>2026-04-21T07:37:17Z</time></trkpt><trkpt lat="14.442648645753382" lon="120.9242587764461"><ele>8.0</ele><time>2026-04-21T07:37:18Z</time></trkpt><trkpt lat="14.442570824595759" lon="120.92430305237897"><ele>8.0</ele><time>2026-04-21T07:37:19Z</time></trkpt><trkpt lat="14.442497291313469" lon="120.92434184601899"><ele>8.0</ele><time>2026-04-21T07:37:20Z</time></trkpt><trkpt lat="14.442420886328344" lon="120.92438131644687"><ele>8.0</ele><time>2026-04-21T07:37:21Z</time></trkpt><trkpt lat="14.442340077222394" lon="120.9244253969691"><ele>8.0</ele><time>2026-04-21T07:37:22Z</time></trkpt><trkpt lat="14.442255409018916" lon="120.9244774451491"><ele>8.0</ele><time>2026-04-21T07:37:23Z</time></trkpt><trkpt lat="14.442173442299142" lon="120.92452060134885"><ele>7.999999999999999</ele><time>2026-04-21T07:37:24Z</time></trkpt><trkpt lat="14.442090385682445" lon="120.92456859890504"><ele>8.0</ele><time>2026-04-21T07:37:25Z</time></trkpt><trkpt lat="14.442017836218776" lon="120.92460648061513"><ele>8.0</ele><time>2026-04-21T07:37:26Z</time></trkpt><trkpt lat="14.441945798476509" lon="120.92464851018028"><ele>8.0</ele><time>2026-04-21T07:37:27Z</time></trkpt><trkpt lat="14.441871979127743" lon="120.92468733794462"><ele>7.999999999999999</ele><time>2026-04-21T07:37:28Z</time></trkpt><trkpt lat="14.44179982551065" lon="120.92472793600847"><ele>8.0</ele><time>2026-04-21T07:37:29Z</time></trkpt><trkpt lat="14.441729255723397" lon="120.92476809209047"><ele>8.0</ele><time>2026-04-21T07:37:30Z</time></trkpt><trkpt lat="14.441666392259348" lon="120.92480413267099"><ele>8.0</ele><time>2026-04-21T07:37:31Z</time></trkpt><trkpt lat="14.441560312707095" lon="120.92485925964922"><ele>8.0</ele><time>2026-04-21T07:37:33Z</time></trkpt><trkpt lat="14.441451682456718" lon="120.9249175170397"><ele>8.0</ele><time>2026-04-21T07:37:35Z</time></trkpt><trkpt lat="14.441393106612066" lon="120.92495205938182"><ele>8.0</ele><time>2026-04-21T07:37:36Z</time></trkpt><trkpt lat="14.441330784194903" lon="120.92498934662073"><ele>8.0</ele><time>2026-04-21T07:37:37Z</time></trkpt><trkpt lat="14.44124874507083" lon="120.92503206878793"><ele>8.0</ele><time>2026-04-21T07:37:39Z</time></trkpt><trkpt lat="14.441153984748322" lon="120.92507935585175"><ele>8.0</ele><time>2026-04-21T07:37:41Z</time></trkpt><trkpt lat="14.44106069953391" lon="120.92512865842694"><ele>8.0</ele><time>2026-04-21T07:37:43Z</time></trkpt><trkpt lat="14.44095568124372" lon="120.92517920328152"><ele>8.0</ele><time>2026-04-21T07:37:45Z</time></trkpt><trkpt lat="14.44089355672237" lon="120.92521392455197"><ele>8.0</ele><time>2026-04-21T07:37:46Z</time></trkpt><trkpt lat="14.440835740123719" lon="120.92524485736634"><ele>8.0</ele><time>2026-04-21T07:37:47.001Z</time></trkpt><trkpt lat="14.44073423660804" lon="120.92529405665357"><ele>8.0</ele><time>2026-04-21T07:37:49.001Z</time></trkpt><trkpt lat="14.440632550167729" lon="120.92535026275918"><ele>8.0</ele><time>2026-04-21T07:37:51.001Z</time></trkpt><trkpt lat="14.440543513277838" lon="120.9253973998755"><ele>8.0</ele><time>2026-04-21T07:37:53.001Z</time></trkpt><trkpt lat="14.440466943583042" lon="120.9254411619097"><ele>8.166666666666666</ele><time>2026-04-21T07:37:55.001Z</time></trkpt><trkpt lat="14.440405263346907" lon="120.92547104381042"><ele>8.333333333333332</ele><time>2026-04-21T07:37:57.001Z</time></trkpt><trkpt lat="14.44034528973645" lon="120.925502578487"><ele>8.5</ele><time>2026-04-21T07:37:59.001Z</time></trkpt><trkpt lat="14.440268429031041" lon="120.92546240831412"><ele>8.666666666666666</ele><time>2026-04-21T07:38:03.001Z</time></trkpt><trkpt lat="14.440185064776676" lon="120.92537117822806"><ele>8.833333333333334</ele><time>2026-04-21T07:38:05.001Z</time></trkpt><trkpt lat="14.44013617553748" lon="120.92530962101074"><ele>9.0</ele><time>2026-04-21T07:38:06.001Z</time></trkpt><trkpt lat="14.440086617910904" lon="120.92523900273234"><ele>9.0</ele><time>2026-04-21T07:38:07.001Z</time></trkpt><trkpt lat="14.44004169471803" lon="120.92516890715771"><ele>9.0</ele><time>2026-04-21T07:38:08.001Z</time></trkpt><trkpt lat="14.439989262546248" lon="120.92509173491223"><ele>9.0</ele><time>2026-04-21T07:38:09.001Z</time></trkpt><trkpt lat="14.43993414470162" lon="120.92500339998317"><ele>9.0</ele><time>2026-04-21T07:38:10.001Z</time></trkpt><trkpt lat="14.439872683867701" lon="120.92491060734281"><ele>9.0</ele><time>2026-04-21T07:38:11.001Z</time></trkpt><trkpt lat="14.43981049262352" lon="120.9248169342336"><ele>8.5</ele><time>2026-04-21T07:38:12.001Z</time></trkpt><trkpt lat="14.439742276803658" lon="120.9247246299314"><ele>8.0</ele><time>2026-04-21T07:38:13.001Z</time></trkpt><trkpt lat="14.439672407548512" lon="120.92463374289127"><ele>7.5</ele><time>2026-04-21T07:38:14.001Z</time></trkpt><trkpt lat="14.439604954967816" lon="120.92453834574397"><ele>7.0</ele><time>2026-04-21T07:38:15.001Z</time></trkpt><trkpt lat="14.439532824743615" lon="120.92444014738567"><ele>6.75</ele><time>2026-04-21T07:38:16.001Z</time></trkpt><trkpt lat="14.439457800396927" lon="120.92434533255673"><ele>6.5</ele><time>2026-04-21T07:38:17.001Z</time></trkpt><trkpt lat="14.439383431955049" lon="120.9242469610914"><ele>6.25</ele><time>2026-04-21T07:38:18.001Z</time></trkpt><trkpt lat="14.439307475032091" lon="120.92415368914152"><ele>6.0</ele><time>2026-04-21T07:38:19.001Z</time></trkpt><trkpt lat="14.43923574891798" lon="120.92405605684375"><ele>6.0</ele><time>2026-04-21T07:38:20.001Z</time></trkpt><trkpt lat="14.439172915454945" lon="120.92397074348767"><ele>6.0</ele><time>2026-04-21T07:38:21.001Z</time></trkpt><trkpt lat="14.439115808668227" lon="120.9238873854339"><ele>6.0</ele><time>2026-04-21T07:38:22.001Z</time></trkpt><trkpt lat="14.439056311395985" lon="120.92381283166337"><ele>6.0</ele><time>2026-04-21T07:38:23.001Z</time></trkpt><trkpt lat="14.439000697235862" lon="120.92374643066104"><ele>6.0</ele><time>2026-04-21T07:38:24.001Z</time></trkpt><trkpt lat="14.438953371201414" lon="120.92369147004398"><ele>6.0</ele><time>2026-04-21T07:38:25.001Z</time></trkpt><trkpt lat="14.438873793284962" lon="120.92360480749569"><ele>6.0</ele><time>2026-04-21T07:38:27.001Z</time></trkpt><trkpt lat="14.43881751054861" lon="120.92356433535532"><ele>6.0</ele><time>2026-04-21T07:38:29.001Z</time></trkpt><trkpt lat="14.438868692619712" lon="120.92351342448251"><ele>6.0</ele><time>2026-04-21T07:38:32.001Z</time></trkpt><trkpt lat="14.438937861948219" lon="120.92352036703062"><ele>6.0</ele><time>2026-04-21T07:38:34.001Z</time></trkpt><trkpt lat="14.439032973474884" lon="120.92351875488674"><ele>6.0</ele><time>2026-04-21T07:38:37Z</time></trkpt><trkpt lat="14.439095922714019" lon="120.9235293957254"><ele>6.0</ele><time>2026-04-21T07:38:40Z</time></trkpt><trkpt lat="14.439053350415842" lon="120.92358339768751"><ele>6.0</ele><time>2026-04-21T07:43:11Z</time></trkpt><trkpt lat="14.439054708687086" lon="120.92364841202232"><ele>6.0</ele><time>2026-04-21T07:43:16Z</time></trkpt><trkpt lat="14.439104449376218" lon="120.92375479623888"><ele>6.0</ele><time>2026-04-21T07:53:58Z</time></trkpt><trkpt lat="14.439086380578225" lon="120.92381927110213"><ele>6.0</ele><time>2026-04-21T07:54:02Z</time></trkpt><trkpt lat="14.439110881506254" lon="120.92391234997376"><ele>6.0</ele><time>2026-04-21T07:54:04Z</time></trkpt><trkpt lat="14.439208685128373" lon="120.92399689380322"><ele>6.0</ele><time>2026-04-21T07:54:06Z</time></trkpt><trkpt lat="14.439254007934922" lon="120.92405526283126"><ele>6.0</ele><time>2026-04-21T07:54:07Z</time></trkpt><trkpt lat="14.439268302152207" lon="120.9241499536272"><ele>6.0</ele><time>2026-04-21T07:54:08Z</time></trkpt><trkpt lat="14.439320023351975" lon="120.924216492758"><ele>6.0</ele><time>2026-04-21T07:54:09Z</time></trkpt><trkpt lat="14.439365161547087" lon="120.92427456281195"><ele>6.0</ele><time>2026-04-21T07:54:10Z</time></trkpt><trkpt lat="14.439418103437653" lon="120.92434375689191"><ele>6.0</ele><time>2026-04-21T07:54:11Z</time></trkpt><trkpt lat="14.439474225403556" lon="120.9244183392618"><ele>5.8</ele><time>2026-04-21T07:54:12Z</time></trkpt><trkpt lat="14.43953611693335" lon="120.9245003966294"><ele>5.6</ele><time>2026-04-21T07:54:13Z</time></trkpt><trkpt lat="14.43960089632936" lon="120.9245863951506"><ele>5.4</ele><time>2026-04-21T07:54:14Z</time></trkpt><trkpt lat="14.439666757581067" lon="120.92467399796674"><ele>5.2</ele><time>2026-04-21T07:54:15Z</time></trkpt><trkpt lat="14.439735062036892" lon="120.92476485047848"><ele>5.0</ele><time>2026-04-21T07:54:16Z</time></trkpt><trkpt lat="14.439811915499881" lon="120.92486707412529"><ele>5.4</ele><time>2026-04-21T07:54:17Z</time></trkpt><trkpt lat="14.439874003530702" lon="120.92495089851894"><ele>5.8</ele><time>2026-04-21T07:54:18Z</time></trkpt><trkpt lat="14.439931411437781" lon="120.9250301717157"><ele>6.199999999999999</ele><time>2026-04-21T07:54:19Z</time></trkpt><trkpt lat="14.43999040405179" lon="120.92511184143282"><ele>6.6</ele><time>2026-04-21T07:54:20Z</time></trkpt><trkpt lat="14.440050269148744" lon="120.92519521877156"><ele>7.0</ele><time>2026-04-21T07:54:21Z</time></trkpt><trkpt lat="14.440109186546273" lon="120.9252772761755"><ele>7.3999999999999995</ele><time>2026-04-21T07:54:22Z</time></trkpt><trkpt lat="14.440151741395836" lon="120.92533654456957"><ele>7.799999999999999</ele><time>2026-04-21T07:54:23.001Z</time></trkpt><trkpt lat="14.440195644100516" lon="120.92539769020892"><ele>8.2</ele><time>2026-04-21T07:54:24.001Z</time></trkpt><trkpt lat="14.440256839784787" lon="120.92548292067406"><ele>8.6</ele><time>2026-04-21T07:54:26.001Z</time></trkpt><trkpt lat="14.44029792788441" lon="120.92554014663774"><ele>9.0</ele><time>2026-04-21T07:54:30.001Z</time></trkpt><trkpt lat="14.44016234351753" lon="120.92555865544676"><ele>9.0</ele><time>2026-04-21T07:54:33.001Z</time></trkpt><trkpt lat="14.440100573793806" lon="120.92559126848313"><ele>9.0</ele><time>2026-04-21T07:54:34.001Z</time></trkpt><trkpt lat="14.440023429318423" lon="120.925631999728"><ele>9.0</ele><time>2026-04-21T07:54:35.001Z</time></trkpt><trkpt lat="14.439940812630592" lon="120.9256747394101"><ele>9.0</ele><time>2026-04-21T07:54:36.001Z</time></trkpt><trkpt lat="14.439853490305783" lon="120.92572011019173"><ele>9.0</ele><time>2026-04-21T07:54:37.001Z</time></trkpt><trkpt lat="14.439759785454607" lon="120.92577571055412"><ele>9.0</ele><time>2026-04-21T07:54:38.001Z</time></trkpt><trkpt lat="14.43966100745394" lon="120.92583366454535"><ele>9.0</ele><time>2026-04-21T07:54:39.001Z</time></trkpt><trkpt lat="14.439562685389172" lon="120.92589153795862"><ele>9.0</ele><time>2026-04-21T07:54:40.001Z</time></trkpt><trkpt lat="14.439467274518877" lon="120.92594785350785"><ele>9.0</ele><time>2026-04-21T07:54:41.001Z</time></trkpt><trkpt lat="14.439380631558937" lon="120.92599899386111"><ele>9.0</ele><time>2026-04-21T07:54:42.001Z</time></trkpt><trkpt lat="14.439303404947301" lon="120.92604457632596"><ele>8.6</ele><time>2026-04-21T07:54:43.001Z</time></trkpt><trkpt lat="14.439222982123338" lon="120.92609705555476"><ele>8.2</ele><time>2026-04-21T07:54:44.001Z</time></trkpt><trkpt lat="14.439152089649415" lon="120.92614857380846"><ele>7.799999999999999</ele><time>2026-04-21T07:54:45.001Z</time></trkpt><trkpt lat="14.43906027764132" lon="120.92621563999843"><ele>7.3999999999999995</ele><time>2026-04-21T07:54:46.001Z</time></trkpt><trkpt lat="14.438971491436691" lon="120.92628255912224"><ele>7.0</ele><time>2026-04-21T07:54:47.001Z</time></trkpt><trkpt lat="14.438895029420195" lon="120.92634132603592"><ele>7.0</ele><time>2026-04-21T07:54:48.001Z</time></trkpt><trkpt lat="14.438802781060451" lon="120.92641224958072"><ele>7.0</ele><time>2026-04-21T07:54:49.001Z</time></trkpt><trkpt lat="14.438708118523051" lon="120.92648058212679"><ele>7.0</ele><time>2026-04-21T07:54:50.001Z</time></trkpt><trkpt lat="14.438615575644546" lon="120.9265444353228"><ele>7.0</ele><time>2026-04-21T07:54:51.001Z</time></trkpt><trkpt lat="14.438512482205763" lon="120.92660943573321"><ele>7.0</ele><time>2026-04-21T07:54:52.001Z</time></trkpt><trkpt lat="14.43840674235763" lon="120.92667610459638"><ele>7.0</ele><time>2026-04-21T07:54:53.001Z</time></trkpt><trkpt lat="14.438306925693311" lon="120.9267407824543"><ele>7.0</ele><time>2026-04-21T07:54:54.001Z</time></trkpt><trkpt lat="14.438197451424939" lon="120.92680728729385"><ele>7.0</ele><time>2026-04-21T07:54:55.001Z</time></trkpt><trkpt lat="14.438106014150232" lon="120.92686326929707"><ele>6.8</ele><time>2026-04-21T07:54:56.001Z</time></trkpt><trkpt lat="14.438017872579504" lon="120.92691723352574"><ele>6.6</ele><time>2026-04-21T07:54:57.001Z</time></trkpt><trkpt lat="14.437944118810805" lon="120.92696238888752"><ele>6.3999999999999995</ele><time>2026-04-21T07:54:58.001Z</time></trkpt><trkpt lat="14.437879813122853" lon="120.92700175972354"><ele>6.199999999999999</ele><time>2026-04-21T07:54:59.001Z</time></trkpt><trkpt lat="14.437800143505548" lon="120.92705053703641"><ele>6.0</ele><time>2026-04-21T07:55:01.001Z</time></trkpt><trkpt lat="14.437714559410367" lon="120.92710060159666"><ele>6.0</ele><time>2026-04-21T07:55:03.001Z</time></trkpt><trkpt lat="14.437652543288413" lon="120.9271357499645"><ele>6.0</ele><time>2026-04-21T07:55:04.001Z</time></trkpt><trkpt lat="14.437589729550309" lon="120.92717135039048"><ele>6.0</ele><time>2026-04-21T07:55:05.001Z</time></trkpt><trkpt lat="14.437523305495413" lon="120.92720899700429"><ele>6.0</ele><time>2026-04-21T07:55:06.001Z</time></trkpt><trkpt lat="14.437467274044272" lon="120.92724075348347"><ele>6.0</ele><time>2026-04-21T07:55:07.001Z</time></trkpt><trkpt lat="14.43736783231378" lon="120.92729711321411"><ele>6.0</ele><time>2026-04-21T07:55:09.001Z</time></trkpt><trkpt lat="14.437302558180319" lon="120.9273388243958"><ele>6.0</ele><time>2026-04-21T07:55:10.001Z</time></trkpt><trkpt lat="14.437239509928046" lon="120.92737839286545"><ele>6.0</ele><time>2026-04-21T07:55:11.001Z</time></trkpt><trkpt lat="14.437173553494567" lon="120.92741960914992"><ele>6.0</ele><time>2026-04-21T07:55:12.001Z</time></trkpt><trkpt lat="14.437104952310706" lon="120.92746213995392"><ele>6.0</ele><time>2026-04-21T07:55:13.001Z</time></trkpt><trkpt lat="14.43702540073315" lon="120.92751117789378"><ele>6.0</ele><time>2026-04-21T07:55:14.001Z</time></trkpt><trkpt lat="14.436943835102117" lon="120.92756079614475"><ele>6.0</ele><time>2026-04-21T07:55:15.001Z</time></trkpt><trkpt lat="14.436856953605202" lon="120.92761281423876"><ele>6.5</ele><time>2026-04-21T07:55:16.001Z</time></trkpt><trkpt lat="14.436764602893337" lon="120.92766810687282"><ele>7.0</ele><time>2026-04-21T07:55:17.001Z</time></trkpt><trkpt lat="14.436672041756752" lon="120.92772352551246"><ele>7.5</ele><time>2026-04-21T07:55:18.001Z</time></trkpt><trkpt lat="14.436571132555326" lon="120.92778394232924"><ele>8.0</ele><time>2026-04-21T07:55:19.001Z</time></trkpt><trkpt lat="14.436469089259283" lon="120.92784769688947"><ele>8.0</ele><time>2026-04-21T07:55:20.001Z</time></trkpt><trkpt lat="14.436370565839136" lon="120.92790964084345"><ele>8.0</ele><time>2026-04-21T07:55:21.001Z</time></trkpt><trkpt lat="14.436270883164799" lon="120.92797231364227"><ele>8.0</ele><time>2026-04-21T07:55:22.001Z</time></trkpt><trkpt lat="14.436172675203407" lon="120.92803405913958"><ele>8.0</ele><time>2026-04-21T07:55:23.001Z</time></trkpt><trkpt lat="14.436078131705395" lon="120.92809237114578"><ele>8.200000000000001</ele><time>2026-04-21T07:55:24Z</time></trkpt><trkpt lat="14.435985186476085" lon="120.92815005990849"><ele>8.4</ele><time>2026-04-21T07:55:25Z</time></trkpt><trkpt lat="14.435883627185053" lon="120.92821142467452"><ele>8.600000000000001</ele><time>2026-04-21T07:55:26Z</time></trkpt><trkpt lat="14.435784193003688" lon="120.92827154072025"><ele>8.8</ele><time>2026-04-21T07:55:27Z</time></trkpt><trkpt lat="14.43569837568937" lon="120.92832342418164"><ele>9.0</ele><time>2026-04-21T07:55:28Z</time></trkpt><trkpt lat="14.435606507632125" lon="120.92838062702738"><ele>9.0</ele><time>2026-04-21T07:55:29Z</time></trkpt><trkpt lat="14.4355270241719" lon="120.92842983297064"><ele>9.0</ele><time>2026-04-21T07:55:30Z</time></trkpt><trkpt lat="14.435455823421405" lon="120.92847391137035"><ele>9.0</ele><time>2026-04-21T07:55:31Z</time></trkpt><trkpt lat="14.435391238946146" lon="120.92851389380844"><ele>9.0</ele><time>2026-04-21T07:55:32Z</time></trkpt><trkpt lat="14.435334220856166" lon="120.92854919211958"><ele>9.0</ele><time>2026-04-21T07:55:33Z</time></trkpt><trkpt lat="14.43527114842287" lon="120.92858710712382"><ele>9.0</ele><time>2026-04-21T07:55:34Z</time></trkpt><trkpt lat="14.435205823783274" lon="120.92862626947345"><ele>9.0</ele><time>2026-04-21T07:55:35Z</time></trkpt><trkpt lat="14.435136370019494" lon="120.92866790723726"><ele>9.0</ele><time>2026-04-21T07:55:36Z</time></trkpt><trkpt lat="14.435060402264565" lon="120.92871345017505"><ele>9.0</ele><time>2026-04-21T07:55:37Z</time></trkpt><trkpt lat="14.43498734023351" lon="120.92875725107751"><ele>9.0</ele><time>2026-04-21T07:55:38Z</time></trkpt><trkpt lat="14.4349057577335" lon="120.92880616005029"><ele>9.0</ele><time>2026-04-21T07:55:39Z</time></trkpt><trkpt lat="14.434825888391456" lon="120.92885404199674"><ele>9.0</ele><time>2026-04-21T07:55:40Z</time></trkpt><trkpt lat="14.434750537460591" lon="120.92889921510924"><ele>9.0</ele><time>2026-04-21T07:55:41Z</time></trkpt><trkpt lat="14.434680991008841" lon="120.92894090891535"><ele>9.0</ele><time>2026-04-21T07:55:42Z</time></trkpt><trkpt lat="14.43461266957234" lon="120.9289816300403"><ele>9.0</ele><time>2026-04-21T07:55:43Z</time></trkpt><trkpt lat="14.43454517919562" lon="120.92902153864486"><ele>9.0</ele><time>2026-04-21T07:55:44Z</time></trkpt><trkpt lat="14.434481012672716" lon="120.92905948225625"><ele>9.0</ele><time>2026-04-21T07:55:45Z</time></trkpt><trkpt lat="14.434417220076575" lon="120.929100631287"><ele>9.0</ele><time>2026-04-21T07:55:46Z</time></trkpt><trkpt lat="14.434336377690263" lon="120.92914878816755"><ele>9.0</ele><time>2026-04-21T07:55:47Z</time></trkpt><trkpt lat="14.434262010831883" lon="120.92919308765117"><ele>9.0</ele><time>2026-04-21T07:55:48Z</time></trkpt><trkpt lat="14.434195363015842" lon="120.9292327894478"><ele>9.0</ele><time>2026-04-21T07:55:49Z</time></trkpt><trkpt lat="14.434137633136087" lon="120.92926699382203"><ele>9.0</ele><time>2026-04-21T07:55:50Z</time></trkpt><trkpt lat="14.434077543869877" lon="120.9293028082203"><ele>9.0</ele><time>2026-04-21T07:55:51Z</time></trkpt><trkpt lat="14.433963573890026" lon="120.92937669261876"><ele>9.0</ele><time>2026-04-21T07:55:53Z</time></trkpt><trkpt lat="14.433906815722796" lon="120.92941385779874"><ele>9.0</ele><time>2026-04-21T07:55:54Z</time></trkpt><trkpt lat="14.433848980625646" lon="120.92944776447763"><ele>9.0</ele><time>2026-04-21T07:55:55Z</time></trkpt><trkpt lat="14.433750116202594" lon="120.92950837721389"><ele>9.0</ele><time>2026-04-21T07:55:57Z</time></trkpt><trkpt lat="14.43369269238949" lon="120.92954358300956"><ele>9.0</ele><time>2026-04-21T07:55:58Z</time></trkpt><trkpt lat="14.433635646678958" lon="120.92957808505429"><ele>9.0</ele><time>2026-04-21T07:55:59Z</time></trkpt><trkpt lat="14.433555192262961" lon="120.92962814257456"><ele>9.0</ele><time>2026-04-21T07:56:01Z</time></trkpt><trkpt lat="14.433469326107007" lon="120.92968156719924"><ele>9.4</ele><time>2026-04-21T07:56:03Z</time></trkpt><trkpt lat="14.433401890616338" lon="120.92972311796947"><ele>9.8</ele><time>2026-04-21T07:56:04Z</time></trkpt><trkpt lat="14.433320022133298" lon="120.92977428208599"><ele>10.200000000000001</ele><time>2026-04-21T07:56:05Z</time></trkpt><trkpt lat="14.433231705082358" lon="120.92983044247647"><ele>10.600000000000001</ele><time>2026-04-21T07:56:06Z</time></trkpt><trkpt lat="14.433130540794261" lon="120.92989215134027"><ele>11.0</ele><time>2026-04-21T07:56:07Z</time></trkpt><trkpt lat="14.433024230965888" lon="120.92995753916327"><ele>10.75</ele><time>2026-04-21T07:56:08Z</time></trkpt><trkpt lat="14.432914443210624" lon="120.93002583064143"><ele>10.5</ele><time>2026-04-21T07:56:09Z</time></trkpt><trkpt lat="14.432806152723488" lon="120.93009320782615"><ele>10.25</ele><time>2026-04-21T07:56:10Z</time></trkpt><trkpt lat="14.432695260372826" lon="120.9301627023262"><ele>10.0</ele><time>2026-04-21T07:56:11Z</time></trkpt><trkpt lat="14.432587593848309" lon="120.9302289632545"><ele>10.0</ele><time>2026-04-21T07:56:12Z</time></trkpt><trkpt lat="14.432490229377406" lon="120.93028844314075"><ele>10.0</ele><time>2026-04-21T07:56:13Z</time></trkpt><trkpt lat="14.432399547224154" lon="120.93034384081248"><ele>10.0</ele><time>2026-04-21T07:56:14Z</time></trkpt><trkpt lat="14.432309734754718" lon="120.93039870719906"><ele>10.0</ele><time>2026-04-21T07:56:15Z</time></trkpt><trkpt lat="14.4322168691538" lon="120.93045543874143"><ele>10.0</ele><time>2026-04-21T07:56:16Z</time></trkpt><trkpt lat="14.432129660560054" lon="120.93050871438756"><ele>9.8</ele><time>2026-04-21T07:56:17Z</time></trkpt><trkpt lat="14.43204107291457" lon="120.93056163430805"><ele>9.6</ele><time>2026-04-21T07:56:18Z</time></trkpt><trkpt lat="14.431963107486103" lon="120.9306082946233"><ele>9.4</ele><time>2026-04-21T07:56:19Z</time></trkpt><trkpt lat="14.431881105846454" lon="120.93065737049237"><ele>9.2</ele><time>2026-04-21T07:56:20Z</time></trkpt><trkpt lat="14.431799688284034" lon="120.93070609681571"><ele>9.0</ele><time>2026-04-21T07:56:21Z</time></trkpt><trkpt lat="14.431712798788412" lon="120.93075809794476"><ele>9.0</ele><time>2026-04-21T07:56:22Z</time></trkpt><trkpt lat="14.431629626676244" lon="120.93080800324515"><ele>9.0</ele><time>2026-04-21T07:56:23Z</time></trkpt><trkpt lat="14.43155322056289" lon="120.93085386108962"><ele>9.0</ele><time>2026-04-21T07:56:24Z</time></trkpt><trkpt lat="14.431463266370681" lon="120.93090785029499"><ele>9.0</ele><time>2026-04-21T07:56:26Z</time></trkpt><trkpt lat="14.431372221874058" lon="120.93096249387234"><ele>9.0</ele><time>2026-04-21T07:56:29Z</time></trkpt><trkpt lat="14.43125963557365" lon="120.93103006651121"><ele>9.0</ele><time>2026-04-21T07:56:31Z</time></trkpt><trkpt lat="14.431201879628443" lon="120.93106457969343"><ele>9.0</ele><time>2026-04-21T07:56:32Z</time></trkpt><trkpt lat="14.431124775264816" lon="120.9311104573166"><ele>9.0</ele><time>2026-04-21T07:56:33Z</time></trkpt><trkpt lat="14.431045723991597" lon="120.93115749323542"><ele>9.0</ele><time>2026-04-21T07:56:34Z</time></trkpt><trkpt lat="14.43095805668265" lon="120.93121086457019"><ele>9.0</ele><time>2026-04-21T07:56:35Z</time></trkpt><trkpt lat="14.43086981184641" lon="120.93126563653512"><ele>9.0</ele><time>2026-04-21T07:56:36Z</time></trkpt><trkpt lat="14.430774976848127" lon="120.93132449890216"><ele>9.0</ele><time>2026-04-21T07:56:37Z</time></trkpt><trkpt lat="14.430672241366622" lon="120.93138826495758"><ele>9.0</ele><time>2026-04-21T07:56:38Z</time></trkpt><trkpt lat="14.430569212864157" lon="120.93145221287394"><ele>9.0</ele><time>2026-04-21T07:56:39.001Z</time></trkpt><trkpt lat="14.430457231945967" lon="120.93152174267345"><ele>9.75</ele><time>2026-04-21T07:56:40.001Z</time></trkpt><trkpt lat="14.430346763068371" lon="120.93158994219591"><ele>10.5</ele><time>2026-04-21T07:56:41.001Z</time></trkpt><trkpt lat="14.430239479986893" lon="120.9316561749035"><ele>11.25</ele><time>2026-04-21T07:56:42.001Z</time></trkpt><trkpt lat="14.430131695996092" lon="120.93172271686625"><ele>12.0</ele><time>2026-04-21T07:56:43.001Z</time></trkpt><trkpt lat="14.430030938638033" lon="120.93178492090972"><ele>12.0</ele><time>2026-04-21T07:56:44.001Z</time></trkpt><trkpt lat="14.429935179092789" lon="120.93184424626294"><ele>12.0</ele><time>2026-04-21T07:56:45.001Z</time></trkpt><trkpt lat="14.429847307576082" lon="120.93189868072344"><ele>12.0</ele><time>2026-04-21T07:56:46.001Z</time></trkpt><trkpt lat="14.42976485194558" lon="120.93194976017001"><ele>12.0</ele><time>2026-04-21T07:56:47.001Z</time></trkpt><trkpt lat="14.42969142332395" lon="120.93199524808476"><ele>12.0</ele><time>2026-04-21T07:56:48.001Z</time></trkpt><trkpt lat="14.429623911517718" lon="120.93203571909596"><ele>12.0</ele><time>2026-04-21T07:56:49.001Z</time></trkpt><trkpt lat="14.429552367126389" lon="120.93207916412703"><ele>12.0</ele><time>2026-04-21T07:56:50.001Z</time></trkpt><trkpt lat="14.42948905934005" lon="120.93211755793881"><ele>12.0</ele><time>2026-04-21T07:56:51.001Z</time></trkpt><trkpt lat="14.429422032614296" lon="120.93215694505881"><ele>12.0</ele><time>2026-04-21T07:56:52.001Z</time></trkpt><trkpt lat="14.429362187757903" lon="120.93219211186961"><ele>12.0</ele><time>2026-04-21T07:56:53.001Z</time></trkpt><trkpt lat="14.429298220536248" lon="120.93222970109541"><ele>12.0</ele><time>2026-04-21T07:56:55.001Z</time></trkpt><trkpt lat="14.429231188877829" lon="120.9322690914402"><ele>12.0</ele><time>2026-04-21T07:56:58.001Z</time></trkpt><trkpt lat="14.429163526337089" lon="120.93230843593838"><ele>12.0</ele><time>2026-04-21T07:57:01.001Z</time></trkpt><trkpt lat="14.429106852483269" lon="120.93234208917153"><ele>12.0</ele><time>2026-04-21T07:57:03.001Z</time></trkpt><trkpt lat="14.429006160809902" lon="120.9324009221055"><ele>12.0</ele><time>2026-04-21T07:57:05.001Z</time></trkpt><trkpt lat="14.428908495188699" lon="120.93245762603107"><ele>12.0</ele><time>2026-04-21T07:57:07.001Z</time></trkpt><trkpt lat="14.428806263621151" lon="120.93251734985756"><ele>12.285714285714285</ele><time>2026-04-21T07:57:09.001Z</time></trkpt><trkpt lat="14.428749105582119" lon="120.93254911181208"><ele>12.571428571428571</ele><time>2026-04-21T07:57:10.001Z</time></trkpt><trkpt lat="14.428690781405141" lon="120.93258243025392"><ele>12.857142857142858</ele><time>2026-04-21T07:57:11.001Z</time></trkpt><trkpt lat="14.428624006192507" lon="120.93261950816117"><ele>13.142857142857142</ele><time>2026-04-21T07:57:12.001Z</time></trkpt><trkpt lat="14.428553659299613" lon="120.93265856929753"><ele>13.428571428571429</ele><time>2026-04-21T07:57:13.001Z</time></trkpt><trkpt lat="14.428485740607329" lon="120.93269628200059"><ele>13.714285714285714</ele><time>2026-04-21T07:57:14.001Z</time></trkpt><trkpt lat="14.428428462726776" lon="120.9327298951965"><ele>14.0</ele><time>2026-04-21T07:57:15.001Z</time></trkpt><trkpt lat="14.42837217562434" lon="120.9327614319917"><ele>14.000000000000002</ele><time>2026-04-21T07:57:16.001Z</time></trkpt><trkpt lat="14.428336850335839" lon="120.93284108377227"><ele>14.0</ele><time>2026-04-21T07:57:17.001Z</time></trkpt><trkpt lat="14.428276276906086" lon="120.93287747790355"><ele>14.0</ele><time>2026-04-21T07:57:18.001Z</time></trkpt><trkpt lat="14.428220655278711" lon="120.93291526998819"><ele>14.0</ele><time>2026-04-21T07:57:19.001Z</time></trkpt><trkpt lat="14.428161198907869" lon="120.93295466702321"><ele>14.000000000000002</ele><time>2026-04-21T07:57:20.001Z</time></trkpt><trkpt lat="14.428060224364927" lon="120.93302150714499"><ele>14.0</ele><time>2026-04-21T07:57:22.001Z</time></trkpt><trkpt lat="14.427972116999292" lon="120.93308168468562"><ele>13.666666666666668</ele><time>2026-04-21T07:57:24.001Z</time></trkpt><trkpt lat="14.427896284700495" lon="120.933134661359"><ele>13.333333333333334</ele><time>2026-04-21T07:57:26.001Z</time></trkpt><trkpt lat="14.427840681993606" lon="120.93317525605075"><ele>13.0</ele><time>2026-04-21T07:57:27.001Z</time></trkpt><trkpt lat="14.427771549705936" lon="120.93321849849758"><ele>12.666666666666668</ele><time>2026-04-21T07:57:28.001Z</time></trkpt><trkpt lat="14.427694505249692" lon="120.93326337395365"><ele>12.333333333333334</ele><time>2026-04-21T07:57:29.001Z</time></trkpt><trkpt lat="14.427612425211828" lon="120.93331141330458"><ele>12.0</ele><time>2026-04-21T07:57:30Z</time></trkpt><trkpt lat="14.427527414602537" lon="120.93336570254804"><ele>11.8</ele><time>2026-04-21T07:57:31Z</time></trkpt><trkpt lat="14.427430750560083" lon="120.9334250440047"><ele>11.6</ele><time>2026-04-21T07:57:32Z</time></trkpt><trkpt lat="14.427336651275214" lon="120.93348242439623"><ele>11.4</ele><time>2026-04-21T07:57:33Z</time></trkpt><trkpt lat="14.427251171345171" lon="120.93353791213856"><ele>11.200000000000001</ele><time>2026-04-21T07:57:34Z</time></trkpt><trkpt lat="14.427176509481557" lon="120.93358458929269"><ele>11.0</ele><time>2026-04-21T07:57:35Z</time></trkpt><trkpt lat="14.427111022164079" lon="120.93362414116807"><ele>11.0</ele><time>2026-04-21T07:57:36Z</time></trkpt><trkpt lat="14.427013336190605" lon="120.93368443975127"><ele>11.0</ele><time>2026-04-21T07:57:38Z</time></trkpt><trkpt lat="14.426945082557285" lon="120.93373382682135"><ele>11.0</ele><time>2026-04-21T07:57:40Z</time></trkpt><trkpt lat="14.42685405186109" lon="120.93379227477607"><ele>11.0</ele><time>2026-04-21T07:57:42Z</time></trkpt><trkpt lat="14.426759483694775" lon="120.93384377575204"><ele>11.0</ele><time>2026-04-21T07:57:44Z</time></trkpt><trkpt lat="14.42667168562624" lon="120.93390226857012"><ele>11.0</ele><time>2026-04-21T07:57:46Z</time></trkpt><trkpt lat="14.426588282608648" lon="120.93395861769889"><ele>11.0</ele><time>2026-04-21T07:57:48Z</time></trkpt><trkpt lat="14.426493876767784" lon="120.9340199383893"><ele>11.0</ele><time>2026-04-21T07:57:50Z</time></trkpt><trkpt lat="14.426385661601975" lon="120.93408776885425"><ele>11.0</ele><time>2026-04-21T07:57:52Z</time></trkpt><trkpt lat="14.426328051894355" lon="120.93412488081397"><ele>11.0</ele><time>2026-04-21T07:57:53Z</time></trkpt><trkpt lat="14.426266866185156" lon="120.93416341418735"><ele>11.200000000000001</ele><time>2026-04-21T07:57:54Z</time></trkpt><trkpt lat="14.426205110331189" lon="120.93420156225206"><ele>11.4</ele><time>2026-04-21T07:57:55Z</time></trkpt><trkpt lat="14.426134710558776" lon="120.93422749716493"><ele>11.6</ele><time>2026-04-21T07:57:56Z</time></trkpt><trkpt lat="14.426050189234445" lon="120.93429574664643"><ele>11.8</ele><time>2026-04-21T07:57:58Z</time></trkpt><trkpt lat="14.425959716423352" lon="120.93435300046467"><ele>12.0</ele><time>2026-04-21T07:58:00Z</time></trkpt><trkpt lat="14.425872198888735" lon="120.93440618777423"><ele>12.2</ele><time>2026-04-21T07:58:02Z</time></trkpt><trkpt lat="14.425789609232972" lon="120.9344571843175"><ele>12.399999999999999</ele><time>2026-04-21T07:58:04Z</time></trkpt><trkpt lat="14.425725314167511" lon="120.9344961608906"><ele>12.600000000000001</ele><time>2026-04-21T07:58:06Z</time></trkpt><trkpt lat="14.425666808848753" lon="120.93452979784225"><ele>12.8</ele><time>2026-04-21T07:58:10Z</time></trkpt><trkpt lat="14.42559586424253" lon="120.93455894684145"><ele>13.0</ele><time>2026-04-21T07:58:18Z</time></trkpt><trkpt lat="14.425655831960315" lon="120.93474284106122"><ele>13.0</ele><time>2026-04-21T07:58:22Z</time></trkpt><trkpt lat="14.425722206397582" lon="120.93483266965613"><ele>13.0</ele><time>2026-04-21T07:58:24Z</time></trkpt><trkpt lat="14.425803834160728" lon="120.93493445072517"><ele>13.0</ele><time>2026-04-21T07:58:26Z</time></trkpt><trkpt lat="14.425848752615849" lon="120.93499175151842"><ele>13.0</ele><time>2026-04-21T07:58:27Z</time></trkpt><trkpt lat="14.425900638128462" lon="120.9350542088241"><ele>13.0</ele><time>2026-04-21T07:58:28Z</time></trkpt><trkpt lat="14.425951731469281" lon="120.93511995507767"><ele>13.2</ele><time>2026-04-21T07:58:29Z</time></trkpt><trkpt lat="14.426005908442438" lon="120.93518818815129"><ele>13.4</ele><time>2026-04-21T07:58:30Z</time></trkpt><trkpt lat="14.426063187931138" lon="120.93526156033082"><ele>13.599999999999998</ele><time>2026-04-21T07:58:31Z</time></trkpt><trkpt lat="14.426126887160075" lon="120.93534187584845"><ele>13.799999999999999</ele><time>2026-04-21T07:58:32Z</time></trkpt><trkpt lat="14.426194980861704" lon="120.93542784290763"><ele>14.0</ele><time>2026-04-21T07:58:33Z</time></trkpt><trkpt lat="14.426258089528961" lon="120.93550663609726"><ele>13.666666666666668</ele><time>2026-04-21T07:58:34Z</time></trkpt><trkpt lat="14.426326420262983" lon="120.9355942368"><ele>13.333333333333334</ele><time>2026-04-21T07:58:35Z</time></trkpt><trkpt lat="14.426375587503943" lon="120.9356563270056"><ele>13.0</ele><time>2026-04-21T07:58:36Z</time></trkpt><trkpt lat="14.426429784938502" lon="120.93572476926022"><ele>12.666666666666668</ele><time>2026-04-21T07:58:37Z</time></trkpt><trkpt lat="14.426484789272331" lon="120.93579425888456"><ele>12.333333333333334</ele><time>2026-04-21T07:58:38Z</time></trkpt><trkpt lat="14.426540695307722" lon="120.93586466660668"><ele>12.0</ele><time>2026-04-21T07:58:39Z</time></trkpt><trkpt lat="14.42659400987198" lon="120.93593431364977"><ele>12.0</ele><time>2026-04-21T07:58:40Z</time></trkpt><trkpt lat="14.426652773198278" lon="120.93600181906908"><ele>12.0</ele><time>2026-04-21T07:58:41Z</time></trkpt><trkpt lat="14.426702297857236" lon="120.9360619796793"><ele>12.0</ele><time>2026-04-21T07:58:42Z</time></trkpt><trkpt lat="14.42674504609174" lon="120.93611543075683"><ele>12.0</ele><time>2026-04-21T07:58:43Z</time></trkpt><trkpt lat="14.426814243648717" lon="120.93619800190423"><ele>12.0</ele><time>2026-04-21T07:58:45Z</time></trkpt><trkpt lat="14.426871512447136" lon="120.93626737479447"><ele>12.0</ele><time>2026-04-21T07:58:47Z</time></trkpt><trkpt lat="14.426927322471007" lon="120.93633442475081"><ele>12.0</ele><time>2026-04-21T07:58:50Z</time></trkpt><trkpt lat="14.426970175994084" lon="120.93638568662341"><ele>12.0</ele><time>2026-04-21T07:58:53Z</time></trkpt><trkpt lat="14.42703297830194" lon="120.93646341116344"><ele>12.0</ele><time>2026-04-21T07:58:58.001Z</time></trkpt><trkpt lat="14.427080817415616" lon="120.93652261695789"><ele>12.0</ele><time>2026-04-21T07:59:00.001Z</time></trkpt><trkpt lat="14.427129609062865" lon="120.93657911340878"><ele>12.0</ele><time>2026-04-21T07:59:02.001Z</time></trkpt><trkpt lat="14.427179622944118" lon="120.93663858915743"><ele>12.0</ele><time>2026-04-21T07:59:04.001Z</time></trkpt><trkpt lat="14.42723840058008" lon="120.93671415440738"><ele>12.0</ele><time>2026-04-21T07:59:06.001Z</time></trkpt><trkpt lat="14.4273012216739" lon="120.936791519254"><ele>12.0</ele><time>2026-04-21T07:59:08.001Z</time></trkpt><trkpt lat="14.427357827531656" lon="120.93686004741045"><ele>12.0</ele><time>2026-04-21T07:59:10.001Z</time></trkpt><trkpt lat="14.427433904620543" lon="120.9368934332557"><ele>12.0</ele><time>2026-04-21T07:59:12.001Z</time></trkpt><trkpt lat="14.427475367950027" lon="120.9369427640118"><ele>12.0</ele><time>2026-04-21T07:59:13.001Z</time></trkpt><trkpt lat="14.42753437600081" lon="120.93701000675864"><ele>12.0</ele><time>2026-04-21T07:59:15.001Z</time></trkpt><trkpt lat="14.427575073308615" lon="120.9370615511001"><ele>12.0</ele><time>2026-04-21T07:59:17.001Z</time></trkpt><trkpt lat="14.427618525302812" lon="120.9371189140044"><ele>12.0</ele><time>2026-04-21T07:59:20.001Z</time></trkpt><trkpt lat="14.427662038477031" lon="120.93717676885582"><ele>12.0</ele><time>2026-04-21T07:59:23.001Z</time></trkpt><trkpt lat="14.42767785525657" lon="120.9372496471571"><ele>12.0</ele><time>2026-04-21T07:59:26.001Z</time></trkpt><trkpt lat="14.427591257992905" lon="120.93729585107835"><ele>12.0</ele><time>2026-04-21T07:59:28.001Z</time></trkpt><trkpt lat="14.427504864079236" lon="120.93738098417965"><ele>12.0</ele><time>2026-04-21T07:59:30.001Z</time></trkpt><trkpt lat="14.427447695689235" lon="120.93743623292717"><ele>12.0</ele><time>2026-04-21T07:59:31.001Z</time></trkpt><trkpt lat="14.427395878045862" lon="120.93748631057781"><ele>12.0</ele><time>2026-04-21T07:59:32.001Z</time></trkpt><trkpt lat="14.427321960612773" lon="120.93755791243582"><ele>12.0</ele><time>2026-04-21T07:59:33.001Z</time></trkpt><trkpt lat="14.42727386073701" lon="120.93760450724794"><ele>12.0</ele><time>2026-04-21T07:59:34.001Z</time></trkpt><trkpt lat="14.427222778944563" lon="120.93765463878961"><ele>12.0</ele><time>2026-04-21T07:59:35.001Z</time></trkpt><trkpt lat="14.427172170863116" lon="120.93770376527948"><ele>12.0</ele><time>2026-04-21T07:59:36Z</time></trkpt><trkpt lat="14.42711751555029" lon="120.93775682048945"><ele>12.2</ele><time>2026-04-21T07:59:37Z</time></trkpt><trkpt lat="14.427052547083585" lon="120.93781988692521"><ele>12.399999999999999</ele><time>2026-04-21T07:59:38Z</time></trkpt><trkpt lat="14.426982107056007" lon="120.9378882647246"><ele>12.600000000000001</ele><time>2026-04-21T07:59:39Z</time></trkpt><trkpt lat="14.426905218014841" lon="120.93796290275598"><ele>12.8</ele><time>2026-04-21T07:59:40Z</time></trkpt><trkpt lat="14.426819197442263" lon="120.93804665269062"><ele>13.0</ele><time>2026-04-21T07:59:41Z</time></trkpt><trkpt lat="14.426725526565031" lon="120.93813850977742"><ele>13.0</ele><time>2026-04-21T07:59:42Z</time></trkpt><trkpt lat="14.426631646431202" lon="120.93822940541078"><ele>13.0</ele><time>2026-04-21T07:59:43Z</time></trkpt><trkpt lat="14.42653817683704" lon="120.9383195537526"><ele>13.0</ele><time>2026-04-21T07:59:44Z</time></trkpt><trkpt lat="14.426445340104976" lon="120.93841091696103"><ele>13.0</ele><time>2026-04-21T07:59:45Z</time></trkpt><trkpt lat="14.426361391437016" lon="120.93849229376055"><ele>12.833333333333332</ele><time>2026-04-21T07:59:46Z</time></trkpt><trkpt lat="14.42628310252643" lon="120.9385683825805"><ele>12.666666666666666</ele><time>2026-04-21T07:59:47Z</time></trkpt><trkpt lat="14.426225354251097" lon="120.93863736051163"><ele>12.5</ele><time>2026-04-21T07:59:48Z</time></trkpt><trkpt lat="14.426158190877524" lon="120.93867953720151"><ele>12.333333333333332</ele><time>2026-04-21T07:59:49Z</time></trkpt><trkpt lat="14.426096330070413" lon="120.93873086450006"><ele>12.166666666666666</ele><time>2026-04-21T07:59:50Z</time></trkpt><trkpt lat="14.426032452208087" lon="120.93879547479409"><ele>12.0</ele><time>2026-04-21T07:59:51Z</time></trkpt><trkpt lat="14.42596875148912" lon="120.93886464642911"><ele>12.0</ele><time>2026-04-21T07:59:52Z</time></trkpt><trkpt lat="14.425917468509597" lon="120.93892794797154"><ele>12.0</ele><time>2026-04-21T07:59:53Z</time></trkpt><trkpt lat="14.425861921536455" lon="120.9389901828326"><ele>12.0</ele><time>2026-04-21T07:59:54Z</time></trkpt><trkpt lat="14.425806897369556" lon="120.93904097592275"><ele>12.0</ele><time>2026-04-21T07:59:55Z</time></trkpt><trkpt lat="14.42574718397853" lon="120.93910292424587"><ele>12.0</ele><time>2026-04-21T07:59:56Z</time></trkpt><trkpt lat="14.425677417219243" lon="120.93915732058139"><ele>12.0</ele><time>2026-04-21T07:59:57Z</time></trkpt><trkpt lat="14.425605088640028" lon="120.93922771303265"><ele>12.0</ele><time>2026-04-21T07:59:58Z</time></trkpt><trkpt lat="14.425535414603251" lon="120.93931162815048"><ele>12.0</ele><time>2026-04-21T07:59:59Z</time></trkpt><trkpt lat="14.42542536553111" lon="120.93937978634276"><ele>12.0</ele><time>2026-04-21T08:00:00Z</time></trkpt><trkpt lat="14.425302040984654" lon="120.93944709723486"><ele>12.0</ele><time>2026-04-21T08:00:01Z</time></trkpt><trkpt lat="14.425309701647446" lon="120.93953513542029"><ele>12.0</ele><time>2026-04-21T08:00:02Z</time></trkpt><trkpt lat="14.425252119633372" lon="120.93959009071483"><ele>12.0</ele><time>2026-04-21T08:00:03Z</time></trkpt><trkpt lat="14.425195754648676" lon="120.93964204512291"><ele>12.0</ele><time>2026-04-21T08:00:04Z</time></trkpt><trkpt lat="14.425147044136665" lon="120.93969535232179"><ele>12.0</ele><time>2026-04-21T08:00:05Z</time></trkpt><trkpt lat="14.425049250201852" lon="120.93976857139468"><ele>12.0</ele><time>2026-04-21T08:00:07Z</time></trkpt><trkpt lat="14.42498738821504" lon="120.9398293430235"><ele>12.0</ele><time>2026-04-21T08:00:09Z</time></trkpt><trkpt lat="14.424943119377197" lon="120.93989130244007"><ele>12.0</ele><time>2026-04-21T08:00:12Z</time></trkpt><trkpt lat="14.424859008467713" lon="120.93996804410784"><ele>12.0</ele><time>2026-04-21T08:00:15Z</time></trkpt><trkpt lat="14.424809385790152" lon="120.94002104494635"><ele>12.0</ele><time>2026-04-21T08:00:16Z</time></trkpt><trkpt lat="14.424748708926112" lon="120.94006959896527"><ele>12.0</ele><time>2026-04-21T08:00:17Z</time></trkpt><trkpt lat="14.42466444322311" lon="120.94014936898374"><ele>12.0</ele><time>2026-04-21T08:00:19Z</time></trkpt><trkpt lat="14.424578295056785" lon="120.94022152137865"><ele>12.333333333333334</ele><time>2026-04-21T08:00:21Z</time></trkpt><trkpt lat="14.424518153032242" lon="120.9402790964536"><ele>12.666666666666668</ele><time>2026-04-21T08:00:22Z</time></trkpt><trkpt lat="14.424455710888934" lon="120.9403592387469"><ele>13.0</ele><time>2026-04-21T08:00:23Z</time></trkpt><trkpt lat="14.424366343905385" lon="120.94042368171013"><ele>13.333333333333334</ele><time>2026-04-21T08:00:24Z</time></trkpt><trkpt lat="14.424320510408677" lon="120.94049029196297"><ele>13.666666666666668</ele><time>2026-04-21T08:00:25Z</time></trkpt><trkpt lat="14.424266695658003" lon="120.94053874091186"><ele>14.0</ele><time>2026-04-21T08:00:26Z</time></trkpt><trkpt lat="14.424181163719519" lon="120.94062249897979"><ele>14.0</ele><time>2026-04-21T08:00:28Z</time></trkpt><trkpt lat="14.424132763988387" lon="120.94066993452246"><ele>14.0</ele><time>2026-04-21T08:00:29Z</time></trkpt><trkpt lat="14.424066024479297" lon="120.94071135861039"><ele>14.0</ele><time>2026-04-21T08:00:30Z</time></trkpt><trkpt lat="14.424010726726689" lon="120.94076428526647"><ele>14.0</ele><time>2026-04-21T08:00:31Z</time></trkpt><trkpt lat="14.423965227337519" lon="120.94082508835282"><ele>14.0</ele><time>2026-04-21T08:00:32Z</time></trkpt><trkpt lat="14.423908342767813" lon="120.94088158954628"><ele>14.0</ele><time>2026-04-21T08:00:33Z</time></trkpt><trkpt lat="14.423864042922462" lon="120.94093137806922"><ele>14.0</ele><time>2026-04-21T08:00:34Z</time></trkpt><trkpt lat="14.423816502687126" lon="120.94097857736307"><ele>14.0</ele><time>2026-04-21T08:00:35Z</time></trkpt><trkpt lat="14.423763235208646" lon="120.94102099827413"><ele>14.0</ele><time>2026-04-21T08:00:36Z</time></trkpt><trkpt lat="14.423706191831323" lon="120.9410772359855"><ele>14.0</ele><time>2026-04-21T08:00:37Z</time></trkpt><trkpt lat="14.423657228282659" lon="120.9411334265957"><ele>14.0</ele><time>2026-04-21T08:00:38Z</time></trkpt><trkpt lat="14.42359681620837" lon="120.94119377423914"><ele>14.0</ele><time>2026-04-21T08:00:39Z</time></trkpt><trkpt lat="14.423537382379754" lon="120.94124763483302"><ele>14.0</ele><time>2026-04-21T08:00:40Z</time></trkpt><trkpt lat="14.423486010948267" lon="120.94129141358201"><ele>14.0</ele><time>2026-04-21T08:00:41Z</time></trkpt><trkpt lat="14.423437192427771" lon="120.94133645806957"><ele>14.000000000000002</ele><time>2026-04-21T08:00:42Z</time></trkpt><trkpt lat="14.423390008762382" lon="120.94138321179368"><ele>14.0</ele><time>2026-04-21T08:00:43Z</time></trkpt><trkpt lat="14.423341239029583" lon="120.94143013400253"><ele>14.0</ele><time>2026-04-21T08:00:44Z</time></trkpt><trkpt lat="14.423291403308033" lon="120.94147823466753"><ele>14.0</ele><time>2026-04-21T08:00:45Z</time></trkpt><trkpt lat="14.423232849720318" lon="120.94153564957914"><ele>14.000000000000002</ele><time>2026-04-21T08:00:46Z</time></trkpt><trkpt lat="14.423181317991242" lon="120.9415848011109"><ele>14.0</ele><time>2026-04-21T08:00:47Z</time></trkpt><trkpt lat="14.423096938743146" lon="120.94166851670967"><ele>14.0</ele><time>2026-04-21T08:00:49Z</time></trkpt><trkpt lat="14.423017710693097" lon="120.94174628105833"><ele>13.999999999999998</ele><time>2026-04-21T08:00:51Z</time></trkpt><trkpt lat="14.42293546474486" lon="120.94182414774386"><ele>13.999999999999998</ele><time>2026-04-21T08:00:53Z</time></trkpt><trkpt lat="14.42286533259627" lon="120.94188857225093"><ele>14.0</ele><time>2026-04-21T08:00:55Z</time></trkpt><trkpt lat="14.422801629800466" lon="120.94193723006576"><ele>14.0</ele><time>2026-04-21T08:00:57Z</time></trkpt><trkpt lat="14.42272992576051" lon="120.9419903529606"><ele>14.6</ele><time>2026-04-21T08:00:59Z</time></trkpt><trkpt lat="14.4226783301419" lon="120.94205467640346"><ele>15.2</ele><time>2026-04-21T08:01:01Z</time></trkpt><trkpt lat="14.422678755764887" lon="120.94214721350654"><ele>15.799999999999999</ele><time>2026-04-21T08:01:47Z</time></trkpt><trkpt lat="14.422735937152195" lon="120.94222494449635"><ele>16.4</ele><time>2026-04-21T08:01:49Z</time></trkpt><trkpt lat="14.422843699547236" lon="120.94230198045315"><ele>17.0</ele><time>2026-04-21T08:01:51Z</time></trkpt><trkpt lat="14.422899207376547" lon="120.94233491901987"><ele>17.0</ele><time>2026-04-21T08:01:52Z</time></trkpt><trkpt lat="14.422966863462682" lon="120.94237538975162"><ele>17.0</ele><time>2026-04-21T08:01:53Z</time></trkpt><trkpt lat="14.42305930431411" lon="120.94241891995061"><ele>17.0</ele><time>2026-04-21T08:01:54Z</time></trkpt><trkpt lat="14.423141360414066" lon="120.94245767776468"><ele>17.0</ele><time>2026-04-21T08:01:55Z</time></trkpt><trkpt lat="14.423233724038242" lon="120.94249462011791"><ele>17.0</ele><time>2026-04-21T08:01:56Z</time></trkpt><trkpt lat="14.423316365916255" lon="120.9425352404276"><ele>17.0</ele><time>2026-04-21T08:01:57Z</time></trkpt><trkpt lat="14.423387768175909" lon="120.94257739336466"><ele>17.0</ele><time>2026-04-21T08:01:58Z</time></trkpt><trkpt lat="14.423454542373024" lon="120.94260598950041"><ele>17.0</ele><time>2026-04-21T08:01:59Z</time></trkpt><trkpt lat="14.423529191412092" lon="120.94262843159412"><ele>17.0</ele><time>2026-04-21T08:02:00Z</time></trkpt><trkpt lat="14.423602361054405" lon="120.94265716362169"><ele>17.0</ele><time>2026-04-21T08:02:01Z</time></trkpt><trkpt lat="14.423682821456506" lon="120.94269312930183"><ele>17.0</ele><time>2026-04-21T08:02:02Z</time></trkpt><trkpt lat="14.423760983961756" lon="120.94273261916862"><ele>16.666666666666668</ele><time>2026-04-21T08:02:03Z</time></trkpt><trkpt lat="14.423829614478143" lon="120.94276583774024"><ele>16.333333333333336</ele><time>2026-04-21T08:02:04Z</time></trkpt><trkpt lat="14.423915445429154" lon="120.94280866575106"><ele>16.0</ele><time>2026-04-21T08:02:06Z</time></trkpt><trkpt lat="14.423972548905253" lon="120.9428361433922"><ele>15.666666666666668</ele><time>2026-04-21T08:02:08Z</time></trkpt><trkpt lat="14.42406058042377" lon="120.94287359316662"><ele>15.333333333333334</ele><time>2026-04-21T08:02:11Z</time></trkpt><trkpt lat="14.424122029730217" lon="120.94291060030251"><ele>15.0</ele><time>2026-04-21T08:02:13Z</time></trkpt><trkpt lat="14.424232467248617" lon="120.94296785153307"><ele>15.0</ele><time>2026-04-21T08:02:15Z</time></trkpt><trkpt lat="14.424301228328575" lon="120.94300229801576"><ele>15.0</ele><time>2026-04-21T08:02:16Z</time></trkpt><trkpt lat="14.424368272270348" lon="120.94304204778965"><ele>15.0</ele><time>2026-04-21T08:02:17Z</time></trkpt><trkpt lat="14.424475831448367" lon="120.94309097891521"><ele>15.0</ele><time>2026-04-21T08:02:19Z</time></trkpt><trkpt lat="14.424531947419283" lon="120.94312309562822"><ele>15.0</ele><time>2026-04-21T08:02:20Z</time></trkpt><trkpt lat="14.424604681307224" lon="120.9431615537408"><ele>15.0</ele><time>2026-04-21T08:02:22Z</time></trkpt><trkpt lat="14.42468860985589" lon="120.94318832265355"><ele>15.166666666666666</ele><time>2026-04-21T08:02:24Z</time></trkpt><trkpt lat="14.42475771519546" lon="120.9432143923598"><ele>15.333333333333332</ele><time>2026-04-21T08:02:26Z</time></trkpt><trkpt lat="14.424812916405575" lon="120.94325584099943"><ele>15.5</ele><time>2026-04-21T08:02:29Z</time></trkpt><trkpt lat="14.42490562023708" lon="120.94329803244166"><ele>15.666666666666666</ele><time>2026-04-21T08:02:31Z</time></trkpt><trkpt lat="14.424963619828388" lon="120.943327316021"><ele>15.833333333333332</ele><time>2026-04-21T08:02:32Z</time></trkpt><trkpt lat="14.42506290518612" lon="120.94337939393321"><ele>16.0</ele><time>2026-04-21T08:02:34Z</time></trkpt><trkpt lat="14.425152498418138" lon="120.94341123881219"><ele>15.666666666666666</ele><time>2026-04-21T08:02:36Z</time></trkpt><trkpt lat="14.425266621184372" lon="120.94346901017983"><ele>15.333333333333332</ele><time>2026-04-21T08:02:38Z</time></trkpt><trkpt lat="14.4253266864699" lon="120.94351056960011"><ele>15.0</ele><time>2026-04-21T08:02:39Z</time></trkpt><trkpt lat="14.425397247589078" lon="120.94354666425217"><ele>14.666666666666668</ele><time>2026-04-21T08:02:40Z</time></trkpt><trkpt lat="14.425458534553943" lon="120.94357878080707"><ele>14.333333333333334</ele><time>2026-04-21T08:02:41Z</time></trkpt><trkpt lat="14.425515665156697" lon="120.94361013910648"><ele>14.0</ele><time>2026-04-21T08:02:42Z</time></trkpt><trkpt lat="14.425624448695727" lon="120.9436538912864"><ele>13.799999999999999</ele><time>2026-04-21T08:02:44Z</time></trkpt><trkpt lat="14.425709042535019" lon="120.9436790684679"><ele>13.599999999999998</ele><time>2026-04-21T08:02:46Z</time></trkpt><trkpt lat="14.425839187872219" lon="120.94371649787685"><ele>13.4</ele><time>2026-04-21T08:02:48Z</time></trkpt><trkpt lat="14.42592315183991" lon="120.94376265126773"><ele>13.2</ele><time>2026-04-21T08:02:49Z</time></trkpt><trkpt lat="14.426016162637971" lon="120.94380653259779"><ele>13.0</ele><time>2026-04-21T08:02:50Z</time></trkpt><trkpt lat="14.4261193819237" lon="120.9438493135196"><ele>13.0</ele><time>2026-04-21T08:02:51Z</time></trkpt><trkpt lat="14.426225028521591" lon="120.94389745361518"><ele>13.0</ele><time>2026-04-21T08:02:52Z</time></trkpt><trkpt lat="14.42633126443531" lon="120.94395116102753"><ele>13.0</ele><time>2026-04-21T08:02:53Z</time></trkpt><trkpt lat="14.426436237489465" lon="120.94400612641905"><ele>13.0</ele><time>2026-04-21T08:02:54Z</time></trkpt><trkpt lat="14.426543450349506" lon="120.94405786079379"><ele>12.8</ele><time>2026-04-21T08:02:55Z</time></trkpt><trkpt lat="14.426648517353717" lon="120.94410633421967"><ele>12.600000000000001</ele><time>2026-04-21T08:02:56Z</time></trkpt><trkpt lat="14.426739481385624" lon="120.94415355615153"><ele>12.399999999999999</ele><time>2026-04-21T08:02:57Z</time></trkpt><trkpt lat="14.426809014360236" lon="120.94418896126056"><ele>12.2</ele><time>2026-04-21T08:02:58Z</time></trkpt><trkpt lat="14.426876153042652" lon="120.94422405007357"><ele>12.0</ele><time>2026-04-21T08:03:00Z</time></trkpt><trkpt lat="14.426956826396342" lon="120.94426991591847"><ele>12.0</ele><time>2026-04-21T08:03:03Z</time></trkpt><trkpt lat="14.427030583323969" lon="120.94428382813662"><ele>12.0</ele><time>2026-04-21T08:03:06Z</time></trkpt><trkpt lat="14.42708127225636" lon="120.94433764711785"><ele>12.0</ele><time>2026-04-21T08:03:10Z</time></trkpt><trkpt lat="14.427159384378662" lon="120.94437805039199"><ele>12.0</ele><time>2026-04-21T08:03:14Z</time></trkpt><trkpt lat="14.427222507498163" lon="120.94440552404238"><ele>12.0</ele><time>2026-04-21T08:03:16Z</time></trkpt><trkpt lat="14.42729931622867" lon="120.94444365005664"><ele>12.0</ele><time>2026-04-21T08:03:18Z</time></trkpt><trkpt lat="14.427360833741412" lon="120.94448742003979"><ele>12.0</ele><time>2026-04-21T08:03:20Z</time></trkpt><trkpt lat="14.427453874077495" lon="120.94452383804739"><ele>12.0</ele><time>2026-04-21T08:03:22.001Z</time></trkpt><trkpt lat="14.427555045706397" lon="120.94458121020683"><ele>12.0</ele><time>2026-04-21T08:03:24.001Z</time></trkpt><trkpt lat="14.427646140187903" lon="120.94463154806809"><ele>12.0</ele><time>2026-04-21T08:03:26.001Z</time></trkpt><trkpt lat="14.427750112783365" lon="120.94467366845109"><ele>12.0</ele><time>2026-04-21T08:03:28.001Z</time></trkpt><trkpt lat="14.427818110627266" lon="120.94469985670041"><ele>12.0</ele><time>2026-04-21T08:03:29.001Z</time></trkpt><trkpt lat="14.427900621882305" lon="120.94473309394635"><ele>12.0</ele><time>2026-04-21T08:03:30.001Z</time></trkpt><trkpt lat="14.427981983907548" lon="120.94477307997177"><ele>12.0</ele><time>2026-04-21T08:03:31.001Z</time></trkpt><trkpt lat="14.428069118710804" lon="120.94481821375496"><ele>12.0</ele><time>2026-04-21T08:03:32.001Z</time></trkpt><trkpt lat="14.428153934521513" lon="120.94485403984568"><ele>12.0</ele><time>2026-04-21T08:03:33.001Z</time></trkpt><trkpt lat="14.428245128360079" lon="120.94489556864173"><ele>11.8</ele><time>2026-04-21T08:03:34.001Z</time></trkpt><trkpt lat="14.428342579810845" lon="120.9449405872107"><ele>11.6</ele><time>2026-04-21T08:03:35.001Z</time></trkpt><trkpt lat="14.428440011094409" lon="120.94498911749194"><ele>11.4</ele><time>2026-04-21T08:03:36.001Z</time></trkpt><trkpt lat="14.428509707622599" lon="120.94502926735692"><ele>11.200000000000001</ele><time>2026-04-21T08:03:37.001Z</time></trkpt><trkpt lat="14.428586672113031" lon="120.94505953126534"><ele>11.0</ele><time>2026-04-21T08:03:38.001Z</time></trkpt><trkpt lat="14.428663441921412" lon="120.94509290816488"><ele>11.0</ele><time>2026-04-21T08:03:39.001Z</time></trkpt><trkpt lat="14.428739091730922" lon="120.94512223172902"><ele>11.0</ele><time>2026-04-21T08:03:40.001Z</time></trkpt><trkpt lat="14.428819417850905" lon="120.94515589548921"><ele>11.0</ele><time>2026-04-21T08:03:41.001Z</time></trkpt><trkpt lat="14.42891061455734" lon="120.94519600472027"><ele>11.0</ele><time>2026-04-21T08:03:42.001Z</time></trkpt><trkpt lat="14.429004926181785" lon="120.94523666140073"><ele>11.0</ele><time>2026-04-21T08:03:43.001Z</time></trkpt><trkpt lat="14.42908138452187" lon="120.94527497630398"><ele>11.8</ele><time>2026-04-21T08:03:44.001Z</time></trkpt><trkpt lat="14.42914473592015" lon="120.9453109005071"><ele>12.600000000000001</ele><time>2026-04-21T08:03:45.001Z</time></trkpt><trkpt lat="14.429235672623268" lon="120.94534759279611"><ele>13.4</ele><time>2026-04-21T08:03:46.001Z</time></trkpt><trkpt lat="14.429309403282737" lon="120.94538673919406"><ele>14.2</ele><time>2026-04-21T08:03:47.001Z</time></trkpt><trkpt lat="14.429391559276615" lon="120.94543070402572"><ele>15.0</ele><time>2026-04-21T08:03:48Z</time></trkpt><trkpt lat="14.429496213664553" lon="120.94546566361697"><ele>15.0</ele><time>2026-04-21T08:03:49Z</time></trkpt><trkpt lat="14.429578723241288" lon="120.94551883247225"><ele>15.0</ele><time>2026-04-21T08:03:50Z</time></trkpt><trkpt lat="14.42967388090813" lon="120.94556633410517"><ele>15.0</ele><time>2026-04-21T08:03:51Z</time></trkpt><trkpt lat="14.429765007539139" lon="120.94560627598202"><ele>15.0</ele><time>2026-04-21T08:03:52Z</time></trkpt><trkpt lat="14.429838254442535" lon="120.9456503544953"><ele>15.0</ele><time>2026-04-21T08:03:53Z</time></trkpt><trkpt lat="14.429915220756863" lon="120.9456792357278"><ele>14.75</ele><time>2026-04-21T08:03:54Z</time></trkpt><trkpt lat="14.429991987899033" lon="120.9456957127575"><ele>14.5</ele><time>2026-04-21T08:03:55Z</time></trkpt><trkpt lat="14.430099481160001" lon="120.94577389003733"><ele>14.25</ele><time>2026-04-21T08:03:56Z</time></trkpt><trkpt lat="14.430204841787091" lon="120.94582736951412"><ele>14.0</ele><time>2026-04-21T08:03:57Z</time></trkpt><trkpt lat="14.430324432582047" lon="120.94588306477618"><ele>13.799999999999999</ele><time>2026-04-21T08:03:58Z</time></trkpt><trkpt lat="14.430440564561897" lon="120.9459321117773"><ele>13.599999999999998</ele><time>2026-04-21T08:03:59Z</time></trkpt><trkpt lat="14.430546560861364" lon="120.9459762275884"><ele>13.4</ele><time>2026-04-21T08:04:00Z</time></trkpt><trkpt lat="14.430640305029826" lon="120.94601349963857"><ele>13.2</ele><time>2026-04-21T08:04:01Z</time></trkpt><trkpt lat="14.43070683389049" lon="120.94603993419331"><ele>13.0</ele><time>2026-04-21T08:04:02Z</time></trkpt><trkpt lat="14.430789841486352" lon="120.9460683938189"><ele>12.999999999999998</ele><time>2026-04-21T08:04:04Z</time></trkpt><trkpt lat="14.430865001845335" lon="120.94610429019968"><ele>13.0</ele><time>2026-04-21T08:04:06Z</time></trkpt><trkpt lat="14.430926491916216" lon="120.9461415481453"><ele>13.0</ele><time>2026-04-21T08:04:07Z</time></trkpt><trkpt lat="14.430995744391822" lon="120.94618073065745"><ele>13.0</ele><time>2026-04-21T08:04:08Z</time></trkpt><trkpt lat="14.431070671670009" lon="120.9462218615537"><ele>12.999999999999998</ele><time>2026-04-21T08:04:09Z</time></trkpt><trkpt lat="14.431150700318891" lon="120.94626406487049"><ele>13.0</ele><time>2026-04-21T08:04:10Z</time></trkpt><trkpt lat="14.431234976798303" lon="120.94630602861658"><ele>12.499999999999998</ele><time>2026-04-21T08:04:11Z</time></trkpt><trkpt lat="14.43132387831936" lon="120.94634252872592"><ele>12.0</ele><time>2026-04-21T08:04:12Z</time></trkpt><trkpt lat="14.431407067732565" lon="120.94637378204503"><ele>11.5</ele><time>2026-04-21T08:04:13Z</time></trkpt><trkpt lat="14.43148327804629" lon="120.94640066621663"><ele>11.0</ele><time>2026-04-21T08:04:14Z</time></trkpt><trkpt lat="14.431560528233453" lon="120.94643742022534"><ele>10.5</ele><time>2026-04-21T08:04:15Z</time></trkpt><trkpt lat="14.43164390152326" lon="120.94647204979276"><ele>10.0</ele><time>2026-04-21T08:04:16Z</time></trkpt><trkpt lat="14.431734791778165" lon="120.94651672197125"><ele>10.0</ele><time>2026-04-21T08:04:17Z</time></trkpt><trkpt lat="14.431820502154252" lon="120.94657768305609"><ele>10.0</ele><time>2026-04-21T08:04:18Z</time></trkpt><trkpt lat="14.431915755909348" lon="120.94662558346428"><ele>10.0</ele><time>2026-04-21T08:04:19Z</time></trkpt><trkpt lat="14.431990355718915" lon="120.94666328542768"><ele>10.0</ele><time>2026-04-21T08:04:20Z</time></trkpt><trkpt lat="14.432067388369392" lon="120.946712376162"><ele>10.0</ele><time>2026-04-21T08:04:22Z</time></trkpt><trkpt lat="14.432120541673761" lon="120.94679698843959"><ele>9.833333333333334</ele><time>2026-04-21T08:04:26Z</time></trkpt><trkpt lat="14.43211208367129" lon="120.94686517986385"><ele>9.666666666666668</ele><time>2026-04-21T08:04:27Z</time></trkpt><trkpt lat="14.43211011555356" lon="120.94694138740684"><ele>9.5</ele><time>2026-04-21T08:04:28Z</time></trkpt><trkpt lat="14.432118585444812" lon="120.94702909338551"><ele>9.333333333333334</ele><time>2026-04-21T08:04:29Z</time></trkpt><trkpt lat="14.43212814221447" lon="120.9471280540339"><ele>9.166666666666666</ele><time>2026-04-21T08:04:30Z</time></trkpt><trkpt lat="14.432138288071828" lon="120.94723311465387"><ele>9.0</ele><time>2026-04-21T08:04:31Z</time></trkpt><trkpt lat="14.43214918025228" lon="120.94734872721929"><ele>9.25</ele><time>2026-04-21T08:04:32Z</time></trkpt><trkpt lat="14.432160818675936" lon="120.94746830532915"><ele>9.5</ele><time>2026-04-21T08:04:33Z</time></trkpt><trkpt lat="14.432212403434388" lon="120.94759045896834"><ele>9.75</ele><time>2026-04-21T08:04:34Z</time></trkpt><trkpt lat="14.432227859175963" lon="120.94771857022344"><ele>10.0</ele><time>2026-04-21T08:04:35Z</time></trkpt><trkpt lat="14.432244152773254" lon="120.9478536950164"><ele>10.0</ele><time>2026-04-21T08:04:36Z</time></trkpt><trkpt lat="14.432258342032277" lon="120.94799185664127"><ele>10.0</ele><time>2026-04-21T08:04:37Z</time></trkpt><trkpt lat="14.4322760797927" lon="120.94814156831517"><ele>10.0</ele><time>2026-04-21T08:04:38Z</time></trkpt><trkpt lat="14.432296553345516" lon="120.94828550877416"><ele>10.0</ele><time>2026-04-21T08:04:39Z</time></trkpt><trkpt lat="14.432308302083092" lon="120.94842480378954"><ele>10.5</ele><time>2026-04-21T08:04:40Z</time></trkpt><trkpt lat="14.43230863839413" lon="120.94855841688808"><ele>11.0</ele><time>2026-04-21T08:04:41Z</time></trkpt><trkpt lat="14.432276256666333" lon="120.94869175721914"><ele>11.5</ele><time>2026-04-21T08:04:42Z</time></trkpt><trkpt lat="14.43228284115044" lon="120.94881880956196"><ele>12.0</ele><time>2026-04-21T08:04:43Z</time></trkpt><trkpt lat="14.432295801682168" lon="120.94894630838833"><ele>12.0</ele><time>2026-04-21T08:04:44Z</time></trkpt><trkpt lat="14.43229586209001" lon="120.94907647652754"><ele>12.0</ele><time>2026-04-21T08:04:45Z</time></trkpt><trkpt lat="14.432292256110518" lon="120.94920576443207"><ele>12.0</ele><time>2026-04-21T08:04:46Z</time></trkpt><trkpt lat="14.432291962266254" lon="120.94934018527975"><ele>12.0</ele><time>2026-04-21T08:04:47Z</time></trkpt><trkpt lat="14.432301527659932" lon="120.9494775963755"><ele>12.0</ele><time>2026-04-21T08:04:48Z</time></trkpt><trkpt lat="14.432330051731563" lon="120.9496157995657"><ele>12.0</ele><time>2026-04-21T08:04:49Z</time></trkpt><trkpt lat="14.43236545001658" lon="120.94975113094156"><ele>12.0</ele><time>2026-04-21T08:04:50Z</time></trkpt><trkpt lat="14.432393350773397" lon="120.94989588897967"><ele>12.0</ele><time>2026-04-21T08:04:51Z</time></trkpt><trkpt lat="14.432423570228751" lon="120.950039700661"><ele>11.75</ele><time>2026-04-21T08:04:52Z</time></trkpt><trkpt lat="14.432455895401747" lon="120.95017798531553"><ele>11.5</ele><time>2026-04-21T08:04:53Z</time></trkpt><trkpt lat="14.432473672315068" lon="120.95033221053919"><ele>11.25</ele><time>2026-04-21T08:04:54Z</time></trkpt><trkpt lat="14.432490606797467" lon="120.95048317111566"><ele>11.0</ele><time>2026-04-21T08:04:55Z</time></trkpt><trkpt lat="14.432504901474672" lon="120.95063573986037"><ele>11.0</ele><time>2026-04-21T08:04:56Z</time></trkpt><trkpt lat="14.43252159439375" lon="120.95078708413529"><ele>11.0</ele><time>2026-04-21T08:04:57Z</time></trkpt><trkpt lat="14.432527361083936" lon="120.95094305757146"><ele>11.0</ele><time>2026-04-21T08:04:58Z</time></trkpt><trkpt lat="14.432525536602661" lon="120.9511045015603"><ele>11.0</ele><time>2026-04-21T08:04:59Z</time></trkpt><trkpt lat="14.43252613383382" lon="120.95126127949621"><ele>11.0</ele><time>2026-04-21T08:05:00Z</time></trkpt><trkpt lat="14.432514097422171" lon="120.95142716332106"><ele>11.0</ele><time>2026-04-21T08:05:01Z</time></trkpt><trkpt lat="14.43250324216782" lon="120.95157625553996"><ele>11.0</ele><time>2026-04-21T08:05:02Z</time></trkpt><trkpt lat="14.432491811758018" lon="120.95173187217691"><ele>11.0</ele><time>2026-04-21T08:05:03Z</time></trkpt><trkpt lat="14.43248285085774" lon="120.9518932595673"><ele>11.0</ele><time>2026-04-21T08:05:04Z</time></trkpt><trkpt lat="14.43247550739696" lon="120.95206124407324"><ele>11.0</ele><time>2026-04-21T08:05:05Z</time></trkpt><trkpt lat="14.432485877905401" lon="120.95221779870185"><ele>11.0</ele><time>2026-04-21T08:05:06Z</time></trkpt><trkpt lat="14.432500474411945" lon="120.9523681720838"><ele>11.0</ele><time>2026-04-21T08:05:07Z</time></trkpt><trkpt lat="14.432518160749664" lon="120.95252650873712"><ele>11.25</ele><time>2026-04-21T08:05:08Z</time></trkpt><trkpt lat="14.432540107875466" lon="120.9526799924416"><ele>11.5</ele><time>2026-04-21T08:05:09Z</time></trkpt><trkpt lat="14.432563141851851" lon="120.95281946105467"><ele>11.75</ele><time>2026-04-21T08:05:10Z</time></trkpt><trkpt lat="14.432577721328679" lon="120.95296698425489"><ele>12.0</ele><time>2026-04-21T08:05:11Z</time></trkpt><trkpt lat="14.432558438929435" lon="120.95311630286066"><ele>12.0</ele><time>2026-04-21T08:05:12Z</time></trkpt><trkpt lat="14.432541237428703" lon="120.95325701157923"><ele>12.0</ele><time>2026-04-21T08:05:13Z</time></trkpt><trkpt lat="14.432562916682244" lon="120.9534006640944"><ele>12.0</ele><time>2026-04-21T08:05:14Z</time></trkpt><trkpt lat="14.432589049278029" lon="120.95354008880109"><ele>12.0</ele><time>2026-04-21T08:05:15Z</time></trkpt><trkpt lat="14.432626455656477" lon="120.95366400558876"><ele>11.75</ele><time>2026-04-21T08:05:16Z</time></trkpt><trkpt lat="14.432624291309246" lon="120.95379397710191"><ele>11.5</ele><time>2026-04-21T08:05:17Z</time></trkpt><trkpt lat="14.43260456206171" lon="120.95392662380253"><ele>11.25</ele><time>2026-04-21T08:05:18Z</time></trkpt><trkpt lat="14.432573696599347" lon="120.95406315550758"><ele>11.0</ele><time>2026-04-21T08:05:19Z</time></trkpt><trkpt lat="14.432525868837475" lon="120.95418186843015"><ele>10.75</ele><time>2026-04-21T08:05:20Z</time></trkpt><trkpt lat="14.432481006558616" lon="120.95431123660111"><ele>10.5</ele><time>2026-04-21T08:05:21Z</time></trkpt><trkpt lat="14.432421720767861" lon="120.95443050770616"><ele>10.25</ele><time>2026-04-21T08:05:22Z</time></trkpt><trkpt lat="14.432356881080457" lon="120.95454674647075"><ele>10.0</ele><time>2026-04-21T08:05:23Z</time></trkpt><trkpt lat="14.432266797624186" lon="120.95463988932335"><ele>10.0</ele><time>2026-04-21T08:05:24Z</time></trkpt><trkpt lat="14.432188798575847" lon="120.95474548441607"><ele>10.0</ele><time>2026-04-21T08:05:25Z</time></trkpt><trkpt lat="14.43213008934459" lon="120.95484445175505"><ele>10.0</ele><time>2026-04-21T08:05:26Z</time></trkpt><trkpt lat="14.432067113935428" lon="120.95494106128291"><ele>10.0</ele><time>2026-04-21T08:05:27Z</time></trkpt><trkpt lat="14.432004783320535" lon="120.9550831816945"><ele>10.75</ele><time>2026-04-21T08:05:28Z</time></trkpt><trkpt lat="14.431959620518064" lon="120.95519525638254"><ele>11.5</ele><time>2026-04-21T08:05:29Z</time></trkpt><trkpt lat="14.431931946731357" lon="120.95532831784345"><ele>12.25</ele><time>2026-04-21T08:05:30Z</time></trkpt><trkpt lat="14.431915282807205" lon="120.95546651016463"><ele>13.0</ele><time>2026-04-21T08:05:31.001Z</time></trkpt><trkpt lat="14.431907576672621" lon="120.95560521634381"><ele>13.0</ele><time>2026-04-21T08:05:32.001Z</time></trkpt><trkpt lat="14.431904177830527" lon="120.95575055977619"><ele>13.0</ele><time>2026-04-21T08:05:33.001Z</time></trkpt><trkpt lat="14.431907518014532" lon="120.95590478809827"><ele>13.0</ele><time>2026-04-21T08:05:34.001Z</time></trkpt><trkpt lat="14.431905573028947" lon="120.95605593068224"><ele>13.0</ele><time>2026-04-21T08:05:35.001Z</time></trkpt><trkpt lat="14.431898620410715" lon="120.95620861408656"><ele>13.333333333333332</ele><time>2026-04-21T08:05:36.001Z</time></trkpt><trkpt lat="14.431892017683566" lon="120.9563753264551"><ele>13.666666666666668</ele><time>2026-04-21T08:05:37.001Z</time></trkpt><trkpt lat="14.431883447723555" lon="120.95654034683014"><ele>14.0</ele><time>2026-04-21T08:05:38.001Z</time></trkpt><trkpt lat="14.431873811564627" lon="120.95671035481404"><ele>14.0</ele><time>2026-04-21T08:05:39.001Z</time></trkpt><trkpt lat="14.431874426405606" lon="120.95689791369813"><ele>14.0</ele><time>2026-04-21T08:05:40.001Z</time></trkpt><trkpt lat="14.431881345144479" lon="120.95706677566496"><ele>14.0</ele><time>2026-04-21T08:05:41.001Z</time></trkpt><trkpt lat="14.431870969177464" lon="120.95722938744208"><ele>14.0</ele><time>2026-04-21T08:05:42.001Z</time></trkpt><trkpt lat="14.431823208092606" lon="120.95735035723193"><ele>14.0</ele><time>2026-04-21T08:05:43.001Z</time></trkpt><trkpt lat="14.431762058900919" lon="120.95748396044067"><ele>14.0</ele><time>2026-04-21T08:05:44.001Z</time></trkpt><trkpt lat="14.43169331396153" lon="120.95763181003613"><ele>14.0</ele><time>2026-04-21T08:05:45.001Z</time></trkpt><trkpt lat="14.431626205000484" lon="120.95777503293087"><ele>13.666666666666668</ele><time>2026-04-21T08:05:46.001Z</time></trkpt><trkpt lat="14.43156523504421" lon="120.95793316884547"><ele>13.333333333333332</ele><time>2026-04-21T08:05:47.001Z</time></trkpt><trkpt lat="14.431519862140345" lon="120.95809124417526"><ele>13.0</ele><time>2026-04-21T08:05:48.001Z</time></trkpt><trkpt lat="14.431488853648137" lon="120.95825759631285"><ele>13.333333333333332</ele><time>2026-04-21T08:05:49.001Z</time></trkpt><trkpt lat="14.431469519767868" lon="120.9584163660763"><ele>13.666666666666668</ele><time>2026-04-21T08:05:50.001Z</time></trkpt><trkpt lat="14.431465623470833" lon="120.95858152954719"><ele>14.0</ele><time>2026-04-21T08:05:51.001Z</time></trkpt><trkpt lat="14.431459761774978" lon="120.95876271630979"><ele>14.0</ele><time>2026-04-21T08:05:52.001Z</time></trkpt><trkpt lat="14.431447262356166" lon="120.9589188327161"><ele>14.0</ele><time>2026-04-21T08:05:53.001Z</time></trkpt><trkpt lat="14.431444766004246" lon="120.95910459713635"><ele>14.0</ele><time>2026-04-21T08:05:54Z</time></trkpt><trkpt lat="14.431442702235852" lon="120.95928095242411"><ele>14.666666666666668</ele><time>2026-04-21T08:05:55Z</time></trkpt><trkpt lat="14.43143675234374" lon="120.9594423356373"><ele>15.333333333333332</ele><time>2026-04-21T08:05:56Z</time></trkpt><trkpt lat="14.431434934727323" lon="120.95962829454713"><ele>16.0</ele><time>2026-04-21T08:05:57Z</time></trkpt><trkpt lat="14.431426330431991" lon="120.95979858168945"><ele>16.0</ele><time>2026-04-21T08:05:58Z</time></trkpt><trkpt lat="14.43141764824848" lon="120.95996685954033"><ele>16.0</ele><time>2026-04-21T08:05:59Z</time></trkpt><trkpt lat="14.431408816734544" lon="120.96013093900584"><ele>16.0</ele><time>2026-04-21T08:06:00Z</time></trkpt><trkpt lat="14.431418362787042" lon="120.96033107560491"><ele>15.0</ele><time>2026-04-21T08:06:01Z</time></trkpt><trkpt lat="14.431431657876022" lon="120.9605173019151"><ele>14.0</ele><time>2026-04-21T08:06:02Z</time></trkpt><trkpt lat="14.43145164239291" lon="120.9607072599102"><ele>13.0</ele><time>2026-04-21T08:06:03Z</time></trkpt><trkpt lat="14.431456715579161" lon="120.96088661320272"><ele>13.0</ele><time>2026-04-21T08:06:04Z</time></trkpt><trkpt lat="14.431454415460657" lon="120.96107020427638"><ele>13.0</ele><time>2026-04-21T08:06:05Z</time></trkpt><trkpt lat="14.431441224495748" lon="120.96125924852569"><ele>13.0</ele><time>2026-04-21T08:06:06Z</time></trkpt><trkpt lat="14.431420530759233" lon="120.96145824091141"><ele>13.0</ele><time>2026-04-21T08:06:07Z</time></trkpt><trkpt lat="14.431375515823037" lon="120.96163925126295"><ele>13.0</ele><time>2026-04-21T08:06:08Z</time></trkpt><trkpt lat="14.431323108710384" lon="120.96181684005028"><ele>13.0</ele><time>2026-04-21T08:06:09Z</time></trkpt><trkpt lat="14.43128414990931" lon="120.96198673194495"><ele>13.666666666666666</ele><time>2026-04-21T08:06:10Z</time></trkpt><trkpt lat="14.431249445198153" lon="120.9621598640088"><ele>14.333333333333332</ele><time>2026-04-21T08:06:11Z</time></trkpt><trkpt lat="14.43122295841353" lon="120.96231961261975"><ele>15.0</ele><time>2026-04-21T08:06:12Z</time></trkpt><trkpt lat="14.43121513615701" lon="120.96250109089516"><ele>15.666666666666668</ele><time>2026-04-21T08:06:13Z</time></trkpt><trkpt lat="14.431217148629571" lon="120.96266756923018"><ele>16.333333333333336</ele><time>2026-04-21T08:06:14Z</time></trkpt><trkpt lat="14.431214633964132" lon="120.96282886014073"><ele>17.0</ele><time>2026-04-21T08:06:15Z</time></trkpt><trkpt lat="14.431215583179853" lon="120.96299297865086"><ele>17.0</ele><time>2026-04-21T08:06:16Z</time></trkpt><trkpt lat="14.431235623466641" lon="120.96314692992254"><ele>17.0</ele><time>2026-04-21T08:06:17Z</time></trkpt><trkpt lat="14.431275135331965" lon="120.96329698979135"><ele>17.0</ele><time>2026-04-21T08:06:18Z</time></trkpt><trkpt lat="14.43131745002332" lon="120.96344643576785"><ele>17.75</ele><time>2026-04-21T08:06:19Z</time></trkpt><trkpt lat="14.431351857470071" lon="120.96359469974968"><ele>18.5</ele><time>2026-04-21T08:06:20Z</time></trkpt><trkpt lat="14.431382711646734" lon="120.96374185735029"><ele>19.25</ele><time>2026-04-21T08:06:21Z</time></trkpt><trkpt lat="14.431412693171882" lon="120.96388965593351"><ele>20.0</ele><time>2026-04-21T08:06:22Z</time></trkpt><trkpt lat="14.43144870386752" lon="120.96403501989677"><ele>20.0</ele><time>2026-04-21T08:06:23Z</time></trkpt><trkpt lat="14.431479506583758" lon="120.96416687024148"><ele>20.0</ele><time>2026-04-21T08:06:24Z</time></trkpt><trkpt lat="14.43149402920011" lon="120.96430097052617"><ele>20.0</ele><time>2026-04-21T08:06:25Z</time></trkpt><trkpt lat="14.431491436480703" lon="120.96443602396596"><ele>20.0</ele><time>2026-04-21T08:06:26Z</time></trkpt><trkpt lat="14.431484926275026" lon="120.96456201607644"><ele>19.6</ele><time>2026-04-21T08:06:27Z</time></trkpt><trkpt lat="14.431470173212544" lon="120.96468355118613"><ele>19.2</ele><time>2026-04-21T08:06:28Z</time></trkpt><trkpt lat="14.431447238459322" lon="120.96480220386094"><ele>18.8</ele><time>2026-04-21T08:06:29Z</time></trkpt><trkpt lat="14.431412944053157" lon="120.9649100521601"><ele>18.4</ele><time>2026-04-21T08:06:30Z</time></trkpt><trkpt lat="14.431374545830819" lon="120.96499940644736"><ele>18.0</ele><time>2026-04-21T08:06:31Z</time></trkpt><trkpt lat="14.431331720860994" lon="120.96507312112622"><ele>17.5</ele><time>2026-04-21T08:06:32Z</time></trkpt><trkpt lat="14.431293170864402" lon="120.96513805989564"><ele>17.0</ele><time>2026-04-21T08:06:33Z</time></trkpt><trkpt lat="14.431231605409847" lon="120.96523609796462"><ele>16.5</ele><time>2026-04-21T08:06:35Z</time></trkpt><trkpt lat="14.431192846708129" lon="120.9652985710168"><ele>16.0</ele><time>2026-04-21T08:06:37Z</time></trkpt><trkpt lat="14.431169596187488" lon="120.96536204007678"><ele>15.5</ele><time>2026-04-21T08:06:42Z</time></trkpt><trkpt lat="14.431056468815994" lon="120.96533227131283"><ele>15.0</ele><time>2026-04-21T08:06:43Z</time></trkpt><trkpt lat="14.430971456159535" lon="120.96534703681715"><ele>15.0</ele><time>2026-04-21T08:06:45Z</time></trkpt><trkpt lat="14.430902432856648" lon="120.96529367493456"><ele>15.0</ele><time>2026-04-21T08:06:46Z</time></trkpt><trkpt lat="14.430837997601005" lon="120.9652608542309"><ele>15.0</ele><time>2026-04-21T08:06:47Z</time></trkpt><trkpt lat="14.430771314268277" lon="120.96522766680108"><ele>15.0</ele><time>2026-04-21T08:06:48Z</time></trkpt><trkpt lat="14.430708046474201" lon="120.96519578523422"><ele>15.0</ele><time>2026-04-21T08:06:49Z</time></trkpt><trkpt lat="14.430645714278505" lon="120.96516838522223"><ele>15.0</ele><time>2026-04-21T08:06:50Z</time></trkpt><trkpt lat="14.430568028976484" lon="120.96513268637388"><ele>15.0</ele><time>2026-04-21T08:06:51Z</time></trkpt><trkpt lat="14.430489545161521" lon="120.96509250959753"><ele>15.0</ele><time>2026-04-21T08:06:52Z</time></trkpt><trkpt lat="14.43041723981653" lon="120.96505704348307"><ele>15.0</ele><time>2026-04-21T08:06:53Z</time></trkpt><trkpt lat="14.430333236495002" lon="120.96500788511977"><ele>15.0</ele><time>2026-04-21T08:06:54Z</time></trkpt><trkpt lat="14.430246974270505" lon="120.96496403372149"><ele>15.0</ele><time>2026-04-21T08:06:55Z</time></trkpt><trkpt lat="14.43016373161124" lon="120.96492053427397"><ele>15.6</ele><time>2026-04-21T08:06:56Z</time></trkpt><trkpt lat="14.43008399498287" lon="120.96488270310991"><ele>16.2</ele><time>2026-04-21T08:06:57Z</time></trkpt><trkpt lat="14.429999903878246" lon="120.96484240838639"><ele>16.8</ele><time>2026-04-21T08:06:58Z</time></trkpt><trkpt lat="14.42992356126736" lon="120.96480221250259"><ele>17.4</ele><time>2026-04-21T08:06:59Z</time></trkpt><trkpt lat="14.429839119863992" lon="120.96476379219848"><ele>18.0</ele><time>2026-04-21T08:07:00Z</time></trkpt><trkpt lat="14.42974692564776" lon="120.96472196645047"><ele>18.0</ele><time>2026-04-21T08:07:01Z</time></trkpt><trkpt lat="14.429654989589622" lon="120.96467852286297"><ele>18.0</ele><time>2026-04-21T08:07:02Z</time></trkpt><trkpt lat="14.429553047730343" lon="120.96463163564026"><ele>18.0</ele><time>2026-04-21T08:07:03Z</time></trkpt><trkpt lat="14.429453318214073" lon="120.96458631374031"><ele>18.0</ele><time>2026-04-21T08:07:04Z</time></trkpt><trkpt lat="14.429347709490436" lon="120.96453587372768"><ele>18.0</ele><time>2026-04-21T08:07:05Z</time></trkpt><trkpt lat="14.429240654596558" lon="120.96448707775737"><ele>18.0</ele><time>2026-04-21T08:07:06Z</time></trkpt><trkpt lat="14.42913519157691" lon="120.96444212324333"><ele>18.0</ele><time>2026-04-21T08:07:07Z</time></trkpt><trkpt lat="14.429017570257777" lon="120.96441026686122"><ele>18.0</ele><time>2026-04-21T08:07:08Z</time></trkpt><trkpt lat="14.428897249920006" lon="120.96438355061812"><ele>18.0</ele><time>2026-04-21T08:07:09Z</time></trkpt><trkpt lat="14.428754829050005" lon="120.9643539574247"><ele>18.666666666666668</ele><time>2026-04-21T08:07:10Z</time></trkpt><trkpt lat="14.428609542642194" lon="120.96432744141215"><ele>19.333333333333336</ele><time>2026-04-21T08:07:11Z</time></trkpt><trkpt lat="14.428458373255854" lon="120.9643028574355"><ele>20.0</ele><time>2026-04-21T08:07:12Z</time></trkpt><trkpt lat="14.428298131643963" lon="120.96428381811518"><ele>20.0</ele><time>2026-04-21T08:07:13Z</time></trkpt><trkpt lat="14.428142135025482" lon="120.96426588107629"><ele>20.0</ele><time>2026-04-21T08:07:14Z</time></trkpt><trkpt lat="14.427993271997018" lon="120.9642556367077"><ele>20.0</ele><time>2026-04-21T08:07:15Z</time></trkpt><trkpt lat="14.427856600493843" lon="120.96425398515967"><ele>20.0</ele><time>2026-04-21T08:07:16Z</time></trkpt><trkpt lat="14.427737107567376" lon="120.96425777611421"><ele>19.25</ele><time>2026-04-21T08:07:17Z</time></trkpt><trkpt lat="14.42762259067173" lon="120.96426354888165"><ele>18.5</ele><time>2026-04-21T08:07:18Z</time></trkpt><trkpt lat="14.427515884142315" lon="120.96426900030899"><ele>17.75</ele><time>2026-04-21T08:07:19Z</time></trkpt><trkpt lat="14.427404501091067" lon="120.96427148300606"><ele>17.0</ele><time>2026-04-21T08:07:20Z</time></trkpt><trkpt lat="14.427286111786554" lon="120.96427889566759"><ele>17.0</ele><time>2026-04-21T08:07:21Z</time></trkpt><trkpt lat="14.427167620496833" lon="120.96429303481928"><ele>17.0</ele><time>2026-04-21T08:07:22Z</time></trkpt><trkpt lat="14.427055411382337" lon="120.96431137062805"><ele>17.0</ele><time>2026-04-21T08:07:23Z</time></trkpt><trkpt lat="14.426933004165384" lon="120.96433752941651"><ele>17.0</ele><time>2026-04-21T08:07:24Z</time></trkpt><trkpt lat="14.426814439137637" lon="120.96436983846338"><ele>16.75</ele><time>2026-04-21T08:07:25Z</time></trkpt><trkpt lat="14.426689682272093" lon="120.96440961590652"><ele>16.5</ele><time>2026-04-21T08:07:26Z</time></trkpt><trkpt lat="14.42657075345468" lon="120.96444574798115"><ele>16.25</ele><time>2026-04-21T08:07:27Z</time></trkpt><trkpt lat="14.426447882294886" lon="120.96448574799871"><ele>16.0</ele><time>2026-04-21T08:07:28Z</time></trkpt><trkpt lat="14.426333369529994" lon="120.96452268585949"><ele>17.0</ele><time>2026-04-21T08:07:29Z</time></trkpt><trkpt lat="14.42621975402442" lon="120.96456681154692"><ele>18.0</ele><time>2026-04-21T08:07:30Z</time></trkpt><trkpt lat="14.426103507848318" lon="120.96462262768803"><ele>19.0</ele><time>2026-04-21T08:07:31Z</time></trkpt><trkpt lat="14.425981699629267" lon="120.96468711892182"><ele>20.0</ele><time>2026-04-21T08:07:32Z</time></trkpt><trkpt lat="14.425861397865697" lon="120.9647483874936"><ele>20.0</ele><time>2026-04-21T08:07:33Z</time></trkpt><trkpt lat="14.425739027553924" lon="120.96481675713551"><ele>20.0</ele><time>2026-04-21T08:07:34Z</time></trkpt><trkpt lat="14.425618283227488" lon="120.96489447741729"><ele>20.0</ele><time>2026-04-21T08:07:35Z</time></trkpt><trkpt lat="14.4254996258389" lon="120.96497896180024"><ele>20.0</ele><time>2026-04-21T08:07:36Z</time></trkpt><trkpt lat="14.425376451490411" lon="120.96506937548433"><ele>20.333333333333336</ele><time>2026-04-21T08:07:37Z</time></trkpt><trkpt lat="14.425253934830051" lon="120.96516240415684"><ele>20.666666666666668</ele><time>2026-04-21T08:07:38Z</time></trkpt><trkpt lat="14.425135478477598" lon="120.96525829632017"><ele>21.0</ele><time>2026-04-21T08:07:39Z</time></trkpt><trkpt lat="14.425016063303078" lon="120.96535073181097"><ele>21.0</ele><time>2026-04-21T08:07:40.001Z</time></trkpt><trkpt lat="14.424898381807164" lon="120.96544144026583"><ele>21.0</ele><time>2026-04-21T08:07:41.001Z</time></trkpt><trkpt lat="14.42478246751422" lon="120.96552370177496"><ele>21.0</ele><time>2026-04-21T08:07:42.001Z</time></trkpt><trkpt lat="14.42466818325631" lon="120.96559721149806"><ele>21.0</ele><time>2026-04-21T08:07:43.001Z</time></trkpt><trkpt lat="14.424550355385824" lon="120.96565528153796"><ele>21.25</ele><time>2026-04-21T08:07:44.001Z</time></trkpt><trkpt lat="14.424431770187772" lon="120.96569915533857"><ele>21.5</ele><time>2026-04-21T08:07:45.001Z</time></trkpt><trkpt lat="14.424299893392991" lon="120.96573267838588"><ele>21.75</ele><time>2026-04-21T08:07:46.001Z</time></trkpt><trkpt lat="14.42416937943975" lon="120.96575440779918"><ele>22.0</ele><time>2026-04-21T08:07:47.001Z</time></trkpt><trkpt lat="14.424054372996277" lon="120.96576735162184"><ele>22.0</ele><time>2026-04-21T08:07:48.001Z</time></trkpt><trkpt lat="14.423981900536452" lon="120.96577302527389"><ele>22.0</ele><time>2026-04-21T08:07:49.001Z</time></trkpt><trkpt lat="14.423890262049474" lon="120.96577146994426"><ele>22.0</ele><time>2026-04-21T08:10:13Z</time></trkpt><trkpt lat="14.423820630969486" lon="120.96578908100328"><ele>22.0</ele><time>2026-04-21T08:10:16Z</time></trkpt><trkpt lat="14.423834354914087" lon="120.96591753344528"><ele>22.0</ele><time>2026-04-21T08:10:17Z</time></trkpt><trkpt lat="14.423864931605342" lon="120.9660085330015"><ele>22.0</ele><time>2026-04-21T08:10:19Z</time></trkpt><trkpt lat="14.42388756725715" lon="120.96611088559159"><ele>22.0</ele><time>2026-04-21T08:10:22Z</time></trkpt><trkpt lat="14.423920824441323" lon="120.96623924210988"><ele>22.0</ele><time>2026-04-21T08:10:24Z</time></trkpt><trkpt lat="14.423937211588317" lon="120.96630202130761"><ele>22.0</ele><time>2026-04-21T08:10:25Z</time></trkpt><trkpt lat="14.423954924161924" lon="120.96636987822494"><ele>22.0</ele><time>2026-04-21T08:10:26Z</time></trkpt><trkpt lat="14.42398679694708" lon="120.96644090807094"><ele>22.0</ele><time>2026-04-21T08:10:27Z</time></trkpt><trkpt lat="14.42400378243386" lon="120.96651387225543"><ele>22.0</ele><time>2026-04-21T08:10:28Z</time></trkpt><trkpt lat="14.424025304073146" lon="120.96659437687329"><ele>22.0</ele><time>2026-04-21T08:10:29Z</time></trkpt><trkpt lat="14.424041505358298" lon="120.96666666019087"><ele>22.0</ele><time>2026-04-21T08:10:30Z</time></trkpt><trkpt lat="14.424059350896503" lon="120.96674417231056"><ele>22.0</ele><time>2026-04-21T08:10:31Z</time></trkpt><trkpt lat="14.424079895610964" lon="120.96681995508831"><ele>22.0</ele><time>2026-04-21T08:10:32.001Z</time></trkpt><trkpt lat="14.42409907758941" lon="120.96689522361571"><ele>22.0</ele><time>2026-04-21T08:10:33.001Z</time></trkpt><trkpt lat="14.424117028215143" lon="120.9669782780654"><ele>22.0</ele><time>2026-04-21T08:10:34.001Z</time></trkpt><trkpt lat="14.424137055687934" lon="120.96705290327348"><ele>22.0</ele><time>2026-04-21T08:10:35.001Z</time></trkpt><trkpt lat="14.424156020874126" lon="120.96713391318849"><ele>22.0</ele><time>2026-04-21T08:10:36.001Z</time></trkpt><trkpt lat="14.424176075615982" lon="120.96721348627952"><ele>22.0</ele><time>2026-04-21T08:10:37.001Z</time></trkpt><trkpt lat="14.424193581460953" lon="120.96729766193198"><ele>22.0</ele><time>2026-04-21T08:10:38.001Z</time></trkpt><trkpt lat="14.424215658948025" lon="120.96737745446728"><ele>22.0</ele><time>2026-04-21T08:10:39.001Z</time></trkpt><trkpt lat="14.42423082039051" lon="120.96746323471231"><ele>21.666666666666664</ele><time>2026-04-21T08:10:40.001Z</time></trkpt><trkpt lat="14.424250528781313" lon="120.96753848803048"><ele>21.333333333333332</ele><time>2026-04-21T08:10:41.001Z</time></trkpt><trkpt lat="14.424271872675732" lon="120.96761664066752"><ele>21.0</ele><time>2026-04-21T08:10:42.001Z</time></trkpt><trkpt lat="14.424291153177403" lon="120.96769598161607"><ele>20.666666666666668</ele><time>2026-04-21T08:10:43.001Z</time></trkpt><trkpt lat="14.424308549292842" lon="120.96778778957027"><ele>20.333333333333336</ele><time>2026-04-21T08:10:44.001Z</time></trkpt><trkpt lat="14.424329745042611" lon="120.96787662760632"><ele>20.0</ele><time>2026-04-21T08:10:45.001Z</time></trkpt><trkpt lat="14.42435403880977" lon="120.96795849268031"><ele>20.0</ele><time>2026-04-21T08:10:46.001Z</time></trkpt><trkpt lat="14.424369212106116" lon="120.96803926016109"><ele>20.0</ele><time>2026-04-21T08:10:47.001Z</time></trkpt><trkpt lat="14.424393141110707" lon="120.96812141660277"><ele>20.0</ele><time>2026-04-21T08:10:48.001Z</time></trkpt><trkpt lat="14.424414036719435" lon="120.96820378548978"><ele>20.0</ele><time>2026-04-21T08:10:49.001Z</time></trkpt><trkpt lat="14.424415477712094" lon="120.96828144617963"><ele>20.0</ele><time>2026-04-21T08:10:50.001Z</time></trkpt><trkpt lat="14.424442791426587" lon="120.96839897200378"><ele>20.0</ele><time>2026-04-21T08:10:52.001Z</time></trkpt><trkpt lat="14.42445867235925" lon="120.96846477735536"><ele>19.714285714285715</ele><time>2026-04-21T08:10:53.001Z</time></trkpt><trkpt lat="14.42449081873625" lon="120.96853616546873"><ele>19.42857142857143</ele><time>2026-04-21T08:10:54.001Z</time></trkpt><trkpt lat="14.42450435008382" lon="120.96860646170806"><ele>19.142857142857146</ele><time>2026-04-21T08:10:55.001Z</time></trkpt><trkpt lat="14.42452527328978" lon="120.96868807964591"><ele>18.857142857142858</ele><time>2026-04-21T08:10:56.001Z</time></trkpt><trkpt lat="14.42454480854906" lon="120.9687618067353"><ele>18.571428571428573</ele><time>2026-04-21T08:10:57.001Z</time></trkpt><trkpt lat="14.42456280005225" lon="120.96883602170831"><ele>18.28571428571429</ele><time>2026-04-21T08:10:58.001Z</time></trkpt><trkpt lat="14.424578589879523" lon="120.96891044890906"><ele>18.0</ele><time>2026-04-21T08:10:59.001Z</time></trkpt><trkpt lat="14.424581369064164" lon="120.96898984412492"><ele>18.0</ele><time>2026-04-21T08:11:00.001Z</time></trkpt><trkpt lat="14.424612254352951" lon="120.9690557654277"><ele>18.0</ele><time>2026-04-21T08:11:01.001Z</time></trkpt><trkpt lat="14.424614887908525" lon="120.96913525838424"><ele>18.0</ele><time>2026-04-21T08:11:02.001Z</time></trkpt><trkpt lat="14.424633617857404" lon="120.96921651421486"><ele>18.0</ele><time>2026-04-21T08:11:03.001Z</time></trkpt><trkpt lat="14.42465154507733" lon="120.9692942875963"><ele>18.0</ele><time>2026-04-21T08:11:04.001Z</time></trkpt><trkpt lat="14.424667665938498" lon="120.96936422445567"><ele>18.0</ele><time>2026-04-21T08:11:05.001Z</time></trkpt><trkpt lat="14.42468570464305" lon="120.96944248148378"><ele>18.4</ele><time>2026-04-21T08:11:06.001Z</time></trkpt><trkpt lat="14.424704424035284" lon="120.96951287917706"><ele>18.8</ele><time>2026-04-21T08:11:07.001Z</time></trkpt><trkpt lat="14.424723611238214" lon="120.9695795080661"><ele>19.2</ele><time>2026-04-21T08:11:08.001Z</time></trkpt><trkpt lat="14.424745320788313" lon="120.96965489599197"><ele>19.6</ele><time>2026-04-21T08:11:09.001Z</time></trkpt><trkpt lat="14.424781249492106" lon="120.96977966091904"><ele>20.0</ele><time>2026-04-21T08:11:11.001Z</time></trkpt><trkpt lat="14.424815096437252" lon="120.96989721810681"><ele>20.0</ele><time>2026-04-21T08:11:13.001Z</time></trkpt><trkpt lat="14.424845913326601" lon="120.97000465326819"><ele>20.0</ele><time>2026-04-21T08:11:15.001Z</time></trkpt><trkpt lat="14.424876526766408" lon="120.97011135030627"><ele>20.0</ele><time>2026-04-21T08:11:17.001Z</time></trkpt><trkpt lat="14.424910109477528" lon="120.97022547042091"><ele>20.0</ele><time>2026-04-21T08:11:19.001Z</time></trkpt><trkpt lat="14.424941922014648" lon="120.97034457080652"><ele>19.8</ele><time>2026-04-21T08:11:21.001Z</time></trkpt><trkpt lat="14.424959735383853" lon="120.97040830251495"><ele>19.6</ele><time>2026-04-21T08:11:22.001Z</time></trkpt><trkpt lat="14.424995383635865" lon="120.97053533014447"><ele>19.4</ele><time>2026-04-21T08:11:24.001Z</time></trkpt><trkpt lat="14.425026060063686" lon="120.97064430206514"><ele>19.2</ele><time>2026-04-21T08:11:26.001Z</time></trkpt><trkpt lat="14.42505747805257" lon="120.97075590821386"><ele>19.0</ele><time>2026-04-21T08:11:28.001Z</time></trkpt><trkpt lat="14.425091855247292" lon="120.97087802635538"><ele>19.0</ele><time>2026-04-21T08:11:30.001Z</time></trkpt><trkpt lat="14.42511142450992" lon="120.97094754229711"><ele>19.0</ele><time>2026-04-21T08:11:31.001Z</time></trkpt><trkpt lat="14.42513887140022" lon="120.97104504189721"><ele>19.0</ele><time>2026-04-21T08:11:32.001Z</time></trkpt><trkpt lat="14.42517005023752" lon="120.97115579852512"><ele>19.0</ele><time>2026-04-21T08:11:33.001Z</time></trkpt><trkpt lat="14.425197320583052" lon="120.97125267102429"><ele>19.0</ele><time>2026-04-21T08:11:34.001Z</time></trkpt><trkpt lat="14.425223471893727" lon="120.97134575028963"><ele>19.0</ele><time>2026-04-21T08:11:35.001Z</time></trkpt><trkpt lat="14.425249016315476" lon="120.97143699475542"><ele>19.0</ele><time>2026-04-21T08:11:36.001Z</time></trkpt><trkpt lat="14.425274645153825" lon="120.9715285765721"><ele>19.0</ele><time>2026-04-21T08:11:37.001Z</time></trkpt><trkpt lat="14.425302553185597" lon="120.97162836666588"><ele>19.0</ele><time>2026-04-21T08:11:38.001Z</time></trkpt><trkpt lat="14.425332154824135" lon="120.97173421259647"><ele>19.0</ele><time>2026-04-21T08:11:39.001Z</time></trkpt><trkpt lat="14.425358843796882" lon="120.97182964374048"><ele>19.2</ele><time>2026-04-21T08:11:40.001Z</time></trkpt><trkpt lat="14.425376370792762" lon="120.97189231461259"><ele>19.4</ele><time>2026-04-21T08:11:41.001Z</time></trkpt><trkpt lat="14.425397873673287" lon="120.97196920195314"><ele>19.6</ele><time>2026-04-21T08:11:42.001Z</time></trkpt><trkpt lat="14.425418451818834" lon="120.97204278278073"><ele>19.8</ele><time>2026-04-21T08:11:43.001Z</time></trkpt><trkpt lat="14.425451619899519" lon="120.97216138111989"><ele>20.0</ele><time>2026-04-21T08:11:45.001Z</time></trkpt><trkpt lat="14.425486332179188" lon="120.97228442288792"><ele>20.0</ele><time>2026-04-21T08:11:47.001Z</time></trkpt><trkpt lat="14.425507500142333" lon="120.97235942316382"><ele>20.0</ele><time>2026-04-21T08:11:48.001Z</time></trkpt><trkpt lat="14.425526619376098" lon="120.97242716459311"><ele>20.0</ele><time>2026-04-21T08:11:49.001Z</time></trkpt><trkpt lat="14.425560884319655" lon="120.97254856882499"><ele>20.0</ele><time>2026-04-21T08:11:51.001Z</time></trkpt><trkpt lat="14.425600817874281" lon="120.97269005755865"><ele>20.0</ele><time>2026-04-21T08:11:53.001Z</time></trkpt><trkpt lat="14.425625516343539" lon="120.97277756652873"><ele>20.75</ele><time>2026-04-21T08:11:54.001Z</time></trkpt><trkpt lat="14.425655449339288" lon="120.97287811038042"><ele>21.5</ele><time>2026-04-21T08:11:55.001Z</time></trkpt><trkpt lat="14.425687860112333" lon="120.97298845461525"><ele>22.25</ele><time>2026-04-21T08:11:56.001Z</time></trkpt><trkpt lat="14.425721385201149" lon="120.97310259226683"><ele>23.0</ele><time>2026-04-21T08:11:57.002Z</time></trkpt><trkpt lat="14.4257601382669" lon="120.97323053163025"><ele>23.0</ele><time>2026-04-21T08:11:58.002Z</time></trkpt><trkpt lat="14.425797873842491" lon="120.973356115547"><ele>23.0</ele><time>2026-04-21T08:11:59.002Z</time></trkpt><trkpt lat="14.425831861474963" lon="120.97349202389098"><ele>23.0</ele><time>2026-04-21T08:12:00.002Z</time></trkpt><trkpt lat="14.425868663143502" lon="120.97362972160242"><ele>23.0</ele><time>2026-04-21T08:12:01.002Z</time></trkpt><trkpt lat="14.425902357216897" lon="120.97375579186598"><ele>23.0</ele><time>2026-04-21T08:12:02.002Z</time></trkpt><trkpt lat="14.425932147822602" lon="120.97386758252482"><ele>23.0</ele><time>2026-04-21T08:12:03.002Z</time></trkpt><trkpt lat="14.4259612830744" lon="120.97397698629683"><ele>23.0</ele><time>2026-04-21T08:12:04.002Z</time></trkpt><trkpt lat="14.425989573938026" lon="120.97408321934881"><ele>23.0</ele><time>2026-04-21T08:12:05.002Z</time></trkpt><trkpt lat="14.42601701697576" lon="120.97418626880267"><ele>23.0</ele><time>2026-04-21T08:12:06.002Z</time></trkpt><trkpt lat="14.426040468156598" lon="120.97427874287558"><ele>23.2</ele><time>2026-04-21T08:12:07.002Z</time></trkpt><trkpt lat="14.426062060061192" lon="120.97436502056442"><ele>23.4</ele><time>2026-04-21T08:12:08.002Z</time></trkpt><trkpt lat="14.426088545837022" lon="120.9744701264812"><ele>23.599999999999998</ele><time>2026-04-21T08:12:09.002Z</time></trkpt><trkpt lat="14.426115126288328" lon="120.97457525081329"><ele>23.799999999999997</ele><time>2026-04-21T08:12:10.002Z</time></trkpt><trkpt lat="14.426135509095657" lon="120.97465576194514"><ele>24.0</ele><time>2026-04-21T08:12:11.002Z</time></trkpt><trkpt lat="14.42615564680354" lon="120.97473530492088"><ele>24.0</ele><time>2026-04-21T08:12:12Z</time></trkpt><trkpt lat="14.426172099339473" lon="120.97480029164169"><ele>24.0</ele><time>2026-04-21T08:12:13Z</time></trkpt><trkpt lat="14.426202451339023" lon="120.97487609841514"><ele>24.0</ele><time>2026-04-21T08:12:15Z</time></trkpt><trkpt lat="14.426138204906302" lon="120.97490322025762"><ele>24.0</ele><time>2026-04-21T08:12:17Z</time></trkpt><trkpt lat="14.42606063480967" lon="120.9748987820198"><ele>24.0</ele><time>2026-04-21T08:12:19Z</time></trkpt><trkpt lat="14.425967733644391" lon="120.9748835716728"><ele>24.0</ele><time>2026-04-21T08:12:22Z</time></trkpt><trkpt lat="14.425876466471816" lon="120.974889799569"><ele>24.0</ele><time>2026-04-21T08:12:24Z</time></trkpt><trkpt lat="14.425783713139046" lon="120.97489230186956"><ele>24.0</ele><time>2026-04-21T08:12:27Z</time></trkpt><trkpt lat="14.425673080687513" lon="120.97489311380866"><ele>24.0</ele><time>2026-04-21T08:12:29Z</time></trkpt><trkpt lat="14.42555715871445" lon="120.97490309092285"><ele>24.0</ele><time>2026-04-21T08:12:31Z</time></trkpt><trkpt lat="14.425445659216578" lon="120.97491566706596"><ele>24.0</ele><time>2026-04-21T08:12:33Z</time></trkpt><trkpt lat="14.42533370174857" lon="120.97491747735967"><ele>23.6</ele><time>2026-04-21T08:12:35Z</time></trkpt><trkpt lat="14.425217308769565" lon="120.9749204089578"><ele>23.2</ele><time>2026-04-21T08:12:37Z</time></trkpt><trkpt lat="14.425128903656693" lon="120.97492592294138"><ele>22.8</ele><time>2026-04-21T08:12:38Z</time></trkpt><trkpt lat="14.425026755517143" lon="120.97492974730925"><ele>22.400000000000002</ele><time>2026-04-21T08:12:39Z</time></trkpt><trkpt lat="14.424933937810188" lon="120.97492320717244"><ele>22.0</ele><time>2026-04-21T08:12:40Z</time></trkpt><trkpt lat="14.424860167093117" lon="120.97491473199776"><ele>22.0</ele><time>2026-04-21T08:12:41Z</time></trkpt><trkpt lat="14.424792110258709" lon="120.97491105233026"><ele>22.0</ele><time>2026-04-21T08:12:42Z</time></trkpt><trkpt lat="14.424719960156663" lon="120.9749036885336"><ele>22.0</ele><time>2026-04-21T08:12:43Z</time></trkpt><trkpt lat="14.424638228774095" lon="120.97490424208105"><ele>22.0</ele><time>2026-04-21T08:12:44Z</time></trkpt><trkpt lat="14.424546738419338" lon="120.9749121608325"><ele>22.0</ele><time>2026-04-21T08:12:45.001Z</time></trkpt><trkpt lat="14.424472038601033" lon="120.97492027032258"><ele>22.0</ele><time>2026-04-21T08:12:46.001Z</time></trkpt><trkpt lat="14.424354727292801" lon="120.9749208799351"><ele>22.166666666666664</ele><time>2026-04-21T08:12:48.001Z</time></trkpt><trkpt lat="14.424287042150436" lon="120.97492430900995"><ele>22.333333333333332</ele><time>2026-04-21T08:12:49.001Z</time></trkpt><trkpt lat="14.424217262699159" lon="120.97492578300596"><ele>22.5</ele><time>2026-04-21T08:12:50.001Z</time></trkpt><trkpt lat="14.424132382382046" lon="120.97492769863433"><ele>22.666666666666668</ele><time>2026-04-21T08:12:51.001Z</time></trkpt><trkpt lat="14.42404274824337" lon="120.9749271292661"><ele>22.833333333333336</ele><time>2026-04-21T08:12:52.001Z</time></trkpt><trkpt lat="14.423955466943648" lon="120.97492599633688"><ele>23.0</ele><time>2026-04-21T08:12:53.001Z</time></trkpt><trkpt lat="14.423863381140267" lon="120.97492710089816"><ele>23.0</ele><time>2026-04-21T08:12:54.001Z</time></trkpt><trkpt lat="14.423773429672758" lon="120.97492953432388"><ele>23.0</ele><time>2026-04-21T08:12:55.001Z</time></trkpt><trkpt lat="14.423680513393375" lon="120.97493188068398"><ele>23.0</ele><time>2026-04-21T08:12:56.001Z</time></trkpt><trkpt lat="14.423578706477585" lon="120.97493663348259"><ele>23.0</ele><time>2026-04-21T08:12:57.001Z</time></trkpt><trkpt lat="14.42347197931193" lon="120.97494212322019"><ele>23.0</ele><time>2026-04-21T08:12:58.001Z</time></trkpt><trkpt lat="14.423339464145867" lon="120.9749458717305"><ele>23.0</ele><time>2026-04-21T08:12:59.001Z</time></trkpt><trkpt lat="14.423200848065505" lon="120.97494726525368"><ele>23.0</ele><time>2026-04-21T08:13:00.001Z</time></trkpt><trkpt lat="14.423056277892153" lon="120.97494442165174"><ele>23.0</ele><time>2026-04-21T08:13:01.001Z</time></trkpt><trkpt lat="14.422919629024303" lon="120.97494231855241"><ele>23.0</ele><time>2026-04-21T08:13:02.001Z</time></trkpt><trkpt lat="14.422800054665302" lon="120.97494248232319"><ele>23.599999999999998</ele><time>2026-04-21T08:13:03.001Z</time></trkpt><trkpt lat="14.4226882740727" lon="120.9749465889287"><ele>24.2</ele><time>2026-04-21T08:13:04.001Z</time></trkpt><trkpt lat="14.422589851068272" lon="120.97494797180424"><ele>24.8</ele><time>2026-04-21T08:13:05.001Z</time></trkpt><trkpt lat="14.42247950670372" lon="120.97495081958664"><ele>25.4</ele><time>2026-04-21T08:13:06.001Z</time></trkpt><trkpt lat="14.422365593547536" lon="120.97495679063891"><ele>26.0</ele><time>2026-04-21T08:13:07.001Z</time></trkpt><trkpt lat="14.422245773636737" lon="120.97496836823878"><ele>25.75</ele><time>2026-04-21T08:13:08.001Z</time></trkpt><trkpt lat="14.422121708195698" lon="120.974984475084"><ele>25.5</ele><time>2026-04-21T08:13:09.001Z</time></trkpt><trkpt lat="14.42200648083772" lon="120.97500549080145"><ele>25.25</ele><time>2026-04-21T08:13:10.001Z</time></trkpt><trkpt lat="14.421895018732977" lon="120.97503054398722"><ele>25.0</ele><time>2026-04-21T08:13:11.001Z</time></trkpt><trkpt lat="14.421800355174573" lon="120.9750453040597"><ele>24.8</ele><time>2026-04-21T08:13:12.001Z</time></trkpt><trkpt lat="14.42168827950002" lon="120.97507240863355"><ele>24.6</ele><time>2026-04-21T08:13:13.001Z</time></trkpt><trkpt lat="14.421598273829145" lon="120.97509449401548"><ele>24.4</ele><time>2026-04-21T08:13:14.001Z</time></trkpt><trkpt lat="14.421500268550785" lon="120.97511139933435"><ele>24.2</ele><time>2026-04-21T08:13:15.001Z</time></trkpt><trkpt lat="14.421400435290629" lon="120.9751108664694"><ele>24.0</ele><time>2026-04-21T08:13:16.001Z</time></trkpt><trkpt lat="14.42128176292972" lon="120.97511905811163"><ele>23.6</ele><time>2026-04-21T08:13:17.001Z</time></trkpt><trkpt lat="14.421170486794987" lon="120.97512641960088"><ele>23.2</ele><time>2026-04-21T08:13:18.001Z</time></trkpt><trkpt lat="14.421067262588606" lon="120.97513343900539"><ele>22.8</ele><time>2026-04-21T08:13:19.001Z</time></trkpt><trkpt lat="14.420972304075983" lon="120.97513881333207"><ele>22.400000000000002</ele><time>2026-04-21T08:13:20.001Z</time></trkpt><trkpt lat="14.420881104245336" lon="120.97514181034362"><ele>22.0</ele><time>2026-04-21T08:13:21.001Z</time></trkpt><trkpt lat="14.420803564182537" lon="120.97514199251403"><ele>22.0</ele><time>2026-04-21T08:13:22.001Z</time></trkpt><trkpt lat="14.420726940125384" lon="120.97514029818186"><ele>22.0</ele><time>2026-04-21T08:13:23.001Z</time></trkpt><trkpt lat="14.420658882146357" lon="120.97513550195683"><ele>22.0</ele><time>2026-04-21T08:13:24.001Z</time></trkpt><trkpt lat="14.420590635182592" lon="120.97513594495848"><ele>22.0</ele><time>2026-04-21T08:13:25.001Z</time></trkpt><trkpt lat="14.420508316143005" lon="120.97514290871702"><ele>22.0</ele><time>2026-04-21T08:13:29.001Z</time></trkpt><trkpt lat="14.420441727118957" lon="120.97514190239383"><ele>22.0</ele><time>2026-04-21T08:13:30.001Z</time></trkpt><trkpt lat="14.420369368105296" lon="120.97512874071323"><ele>22.0</ele><time>2026-04-21T08:13:31.001Z</time></trkpt><trkpt lat="14.420281235995642" lon="120.97511267590376"><ele>22.166666666666664</ele><time>2026-04-21T08:13:32.001Z</time></trkpt><trkpt lat="14.420205591824965" lon="120.97510072125502"><ele>22.333333333333332</ele><time>2026-04-21T08:13:33.001Z</time></trkpt><trkpt lat="14.420125091860909" lon="120.97508357278319"><ele>22.5</ele><time>2026-04-21T08:13:34.001Z</time></trkpt><trkpt lat="14.42005156894825" lon="120.97506321632349"><ele>22.666666666666668</ele><time>2026-04-21T08:13:35.001Z</time></trkpt><trkpt lat="14.41996831448187" lon="120.97504310851187"><ele>22.833333333333336</ele><time>2026-04-21T08:13:36.001Z</time></trkpt><trkpt lat="14.4198824557582" lon="120.97501508325117"><ele>23.0</ele><time>2026-04-21T08:13:37.001Z</time></trkpt><trkpt lat="14.419798856706686" lon="120.97499126187847"><ele>23.28571428571429</ele><time>2026-04-21T08:13:38.001Z</time></trkpt><trkpt lat="14.419726838928113" lon="120.9749677119974"><ele>23.57142857142857</ele><time>2026-04-21T08:13:39.001Z</time></trkpt><trkpt lat="14.41966276885525" lon="120.97494751970225"><ele>23.857142857142858</ele><time>2026-04-21T08:13:40.001Z</time></trkpt><trkpt lat="14.419596821493846" lon="120.97492342310628"><ele>24.142857142857146</ele><time>2026-04-21T08:13:41.001Z</time></trkpt><trkpt lat="14.419529625437168" lon="120.97490211809563"><ele>24.42857142857143</ele><time>2026-04-21T08:13:42.001Z</time></trkpt><trkpt lat="14.419463357707746" lon="120.97487657240873"><ele>24.714285714285715</ele><time>2026-04-21T08:13:43.001Z</time></trkpt><trkpt lat="14.419390930792602" lon="120.97485126777057"><ele>25.0</ele><time>2026-04-21T08:13:44.001Z</time></trkpt><trkpt lat="14.419310551937086" lon="120.97482658160881"><ele>25.000000000000004</ele><time>2026-04-21T08:13:45.001Z</time></trkpt><trkpt lat="14.419244066528407" lon="120.9748069505319"><ele>25.0</ele><time>2026-04-21T08:13:46.001Z</time></trkpt><trkpt lat="14.419181806056093" lon="120.97478799541128"><ele>25.0</ele><time>2026-04-21T08:13:47.001Z</time></trkpt><trkpt lat="14.419108056344722" lon="120.97475903117251"><ele>25.0</ele><time>2026-04-21T08:13:49.001Z</time></trkpt><trkpt lat="14.419046038418642" lon="120.97473903788877"><ele>25.0</ele><time>2026-04-21T08:13:53.001Z</time></trkpt><trkpt lat="14.418978011769527" lon="120.9747222223016"><ele>25.000000000000004</ele><time>2026-04-21T08:13:56.001Z</time></trkpt><trkpt lat="14.418903989248264" lon="120.97470933736388"><ele>25.0</ele><time>2026-04-21T08:13:58.001Z</time></trkpt><trkpt lat="14.418816270051884" lon="120.97469040295977"><ele>24.6</ele><time>2026-04-21T08:14:00.001Z</time></trkpt><trkpt lat="14.418691981577126" lon="120.97467978878844"><ele>24.2</ele><time>2026-04-21T08:14:02.001Z</time></trkpt><trkpt lat="14.418594577297704" lon="120.97466725940173"><ele>23.799999999999997</ele><time>2026-04-21T08:14:03.001Z</time></trkpt><trkpt lat="14.418488254839948" lon="120.97464841953709"><ele>23.4</ele><time>2026-04-21T08:14:04.001Z</time></trkpt><trkpt lat="14.418385612431608" lon="120.97463615627474"><ele>23.0</ele><time>2026-04-21T08:14:05.001Z</time></trkpt><trkpt lat="14.418306569517835" lon="120.97462721826102"><ele>23.0</ele><time>2026-04-21T08:14:06.002Z</time></trkpt><trkpt lat="14.418238230378009" lon="120.97462507446087"><ele>23.0</ele><time>2026-04-21T08:14:07.002Z</time></trkpt><trkpt lat="14.418164365021228" lon="120.97462197186152"><ele>23.0</ele><time>2026-04-21T08:14:10.002Z</time></trkpt><trkpt lat="14.418096640714655" lon="120.97461709583598"><ele>23.0</ele><time>2026-04-21T08:14:13.002Z</time></trkpt><trkpt lat="14.417973389216563" lon="120.97460707645148"><ele>23.0</ele><time>2026-04-21T08:14:15.002Z</time></trkpt><trkpt lat="14.417901083910188" lon="120.9746056658207"><ele>23.0</ele><time>2026-04-21T08:14:16.002Z</time></trkpt><trkpt lat="14.417834027886144" lon="120.97460338064025"><ele>23.0</ele><time>2026-04-21T08:14:17.002Z</time></trkpt><trkpt lat="14.417747452491462" lon="120.97460440050821"><ele>23.0</ele><time>2026-04-21T08:14:18Z</time></trkpt><trkpt lat="14.4176713800513" lon="120.97460737327506"><ele>23.0</ele><time>2026-04-21T08:14:19Z</time></trkpt><trkpt lat="14.417608154280217" lon="120.97460809593306"><ele>23.0</ele><time>2026-04-21T08:14:20Z</time></trkpt><trkpt lat="14.417511965395413" lon="120.97461300374978"><ele>23.0</ele><time>2026-04-21T08:14:22Z</time></trkpt><trkpt lat="14.417446732891618" lon="120.97462886628949"><ele>23.0</ele><time>2026-04-21T08:14:28Z</time></trkpt><trkpt lat="14.417366822870294" lon="120.97463134559237"><ele>23.0</ele><time>2026-04-21T08:14:31Z</time></trkpt><trkpt lat="14.417284134056425" lon="120.97476483019899"><ele>23.0</ele><time>2026-04-21T08:14:35Z</time></trkpt><trkpt lat="14.417293043764134" lon="120.9748786493212"><ele>23.0</ele><time>2026-04-21T08:14:37Z</time></trkpt><trkpt lat="14.41729877147546" lon="120.97495181927881"><ele>23.0</ele><time>2026-04-21T08:14:38Z</time></trkpt><trkpt lat="14.417304781946338" lon="120.97502860139885"><ele>23.0</ele><time>2026-04-21T08:14:39Z</time></trkpt><trkpt lat="14.41731131584609" lon="120.97511207018616"><ele>22.666666666666668</ele><time>2026-04-21T08:14:40Z</time></trkpt><trkpt lat="14.417317349250993" lon="120.97518914529724"><ele>22.333333333333336</ele><time>2026-04-21T08:14:41Z</time></trkpt><trkpt lat="14.417323471009407" lon="120.97526734908828"><ele>22.0</ele><time>2026-04-21T08:14:42.001Z</time></trkpt><trkpt lat="14.41732928615898" lon="120.9753422742462"><ele>21.666666666666668</ele><time>2026-04-21T08:14:43.001Z</time></trkpt><trkpt lat="14.417337135615433" lon="120.97544925944435"><ele>21.333333333333332</ele><time>2026-04-21T08:14:45.001Z</time></trkpt><trkpt lat="14.41734695700459" lon="120.97557233667438"><ele>21.0</ele><time>2026-04-21T08:14:47.001Z</time></trkpt><trkpt lat="14.417352569418274" lon="120.97565072828698"><ele>21.0</ele><time>2026-04-21T08:14:48.001Z</time></trkpt><trkpt lat="14.417359006412317" lon="120.97572870927623"><ele>21.0</ele><time>2026-04-21T08:14:49.001Z</time></trkpt><trkpt lat="14.417364689008986" lon="120.97579953574781"><ele>21.0</ele><time>2026-04-21T08:14:50.001Z</time></trkpt><trkpt lat="14.417372455934961" lon="120.97590485868955"><ele>21.0</ele><time>2026-04-21T08:14:52.001Z</time></trkpt><trkpt lat="14.417378832993643" lon="120.97599133458031"><ele>21.0</ele><time>2026-04-21T08:14:54.001Z</time></trkpt><trkpt lat="14.417384273779314" lon="120.97607813409996"><ele>21.0</ele><time>2026-04-21T08:14:56.001Z</time></trkpt><trkpt lat="14.417389304516323" lon="120.97617410538648"><ele>21.333333333333332</ele><time>2026-04-21T08:15:00.001Z</time></trkpt><trkpt lat="14.41739334827347" lon="120.97624794076565"><ele>21.666666666666668</ele><time>2026-04-21T08:15:02.001Z</time></trkpt><trkpt lat="14.417393904865268" lon="120.97631413700944"><ele>22.0</ele><time>2026-04-21T08:15:04.001Z</time></trkpt><trkpt lat="14.417361476618106" lon="120.97639666748964"><ele>22.333333333333336</ele><time>2026-04-21T08:15:07.001Z</time></trkpt><trkpt lat="14.417289797260334" lon="120.97643793480594"><ele>22.666666666666668</ele><time>2026-04-21T08:15:10.001Z</time></trkpt><trkpt lat="14.417194551501812" lon="120.97638526749239"><ele>23.0</ele><time>2026-04-21T08:15:12.001Z</time></trkpt><trkpt lat="14.417129989236788" lon="120.97640353806541"><ele>23.166666666666668</ele><time>2026-04-21T08:15:13.001Z</time></trkpt><trkpt lat="14.41706523214746" lon="120.97639810822574"><ele>23.333333333333336</ele><time>2026-04-21T08:15:14.001Z</time></trkpt><trkpt lat="14.41699269859192" lon="120.97637557737353"><ele>23.5</ele><time>2026-04-21T08:15:15.001Z</time></trkpt><trkpt lat="14.416900820975377" lon="120.97636802904901"><ele>23.666666666666668</ele><time>2026-04-21T08:15:16.001Z</time></trkpt><trkpt lat="14.416799840902938" lon="120.97635973290393"><ele>23.833333333333332</ele><time>2026-04-21T08:15:17.001Z</time></trkpt><trkpt lat="14.41668968461803" lon="120.97635017703209"><ele>24.0</ele><time>2026-04-21T08:15:18.001Z</time></trkpt><trkpt lat="14.416581609742488" lon="120.97634085848733"><ele>24.0</ele><time>2026-04-21T08:15:19.001Z</time></trkpt><trkpt lat="14.416492314358003" lon="120.97634559440115"><ele>24.0</ele><time>2026-04-21T08:15:20.001Z</time></trkpt><trkpt lat="14.416415398827674" lon="120.97633481988785"><ele>24.0</ele><time>2026-04-21T08:15:21.001Z</time></trkpt><trkpt lat="14.416341406748305" lon="120.97633189174392"><ele>24.0</ele><time>2026-04-21T08:15:22.001Z</time></trkpt><trkpt lat="14.416263716234885" lon="120.97632133084241"><ele>24.0</ele><time>2026-04-21T08:15:23.001Z</time></trkpt><trkpt lat="14.416192807251257" lon="120.97631989952458"><ele>24.0</ele><time>2026-04-21T08:15:24.001Z</time></trkpt><trkpt lat="14.416126964073149" lon="120.97631400137678"><ele>23.799999999999997</ele><time>2026-04-21T08:15:25.001Z</time></trkpt><trkpt lat="14.41600940634436" lon="120.97630213773057"><ele>23.599999999999998</ele><time>2026-04-21T08:15:27.001Z</time></trkpt><trkpt lat="14.41589042179734" lon="120.97629242476239"><ele>23.4</ele><time>2026-04-21T08:15:29.001Z</time></trkpt><trkpt lat="14.415790965853773" lon="120.9762827410045"><ele>23.2</ele><time>2026-04-21T08:15:31.001Z</time></trkpt><trkpt lat="14.41568882271272" lon="120.9762519239997"><ele>23.0</ele><time>2026-04-21T08:15:33.001Z</time></trkpt><trkpt lat="14.415619183809852" lon="120.97624241105906"><ele>23.0</ele><time>2026-04-21T08:15:36.001Z</time></trkpt><trkpt lat="14.41552906413672" lon="120.97623614427097"><ele>23.0</ele><time>2026-04-21T08:15:40.001Z</time></trkpt><trkpt lat="14.415435251909749" lon="120.9762361442711"><ele>23.0</ele><time>2026-04-21T08:15:42.001Z</time></trkpt><trkpt lat="14.415324841833968" lon="120.97623614427141"><ele>23.0</ele><time>2026-04-21T08:15:44.001Z</time></trkpt><trkpt lat="14.415219440606988" lon="120.9762565605658"><ele>23.0</ele><time>2026-04-21T08:15:46.001Z</time></trkpt><trkpt lat="14.415115135920997" lon="120.9762774915967"><ele>22.833333333333336</ele><time>2026-04-21T08:15:48.001Z</time></trkpt><trkpt lat="14.41504297476603" lon="120.97629197231561"><ele>22.666666666666668</ele><time>2026-04-21T08:15:50.001Z</time></trkpt><trkpt lat="14.414970494474026" lon="120.97630777219726"><ele>22.5</ele><time>2026-04-21T08:15:52.001Z</time></trkpt><trkpt lat="14.414863130980363" lon="120.97633565951624"><ele>22.333333333333332</ele><time>2026-04-21T08:15:54.001Z</time></trkpt><trkpt lat="14.41478924930989" lon="120.97635485003944"><ele>22.166666666666664</ele><time>2026-04-21T08:15:55.001Z</time></trkpt><trkpt lat="14.414713936956662" lon="120.97637441217014"><ele>22.0</ele><time>2026-04-21T08:15:56.001Z</time></trkpt><trkpt lat="14.414627201611902" lon="120.97639694139268"><ele>22.0</ele><time>2026-04-21T08:15:57.001Z</time></trkpt><trkpt lat="14.414544248845047" lon="120.9764184884644"><ele>22.0</ele><time>2026-04-21T08:15:58.001Z</time></trkpt><trkpt lat="14.41445241209638" lon="120.97644234275657"><ele>22.0</ele><time>2026-04-21T08:15:59.002Z</time></trkpt><trkpt lat="14.41436066189323" lon="120.976466174572"><ele>22.0</ele><time>2026-04-21T08:16:00.002Z</time></trkpt><trkpt lat="14.414266282291416" lon="120.97649068936227"><ele>22.0</ele><time>2026-04-21T08:16:01.002Z</time></trkpt><trkpt lat="14.414177991016782" lon="120.97651355628422"><ele>22.0</ele><time>2026-04-21T08:16:02.002Z</time></trkpt><trkpt lat="14.414097630935988" lon="120.97653399700732"><ele>22.0</ele><time>2026-04-21T08:16:03.002Z</time></trkpt><trkpt lat="14.41402321175993" lon="120.97655297894914"><ele>22.0</ele><time>2026-04-21T08:16:04.002Z</time></trkpt><trkpt lat="14.41396016575224" lon="120.97656944710835"><ele>22.0</ele><time>2026-04-21T08:16:05.002Z</time></trkpt><trkpt lat="14.413843931832343" lon="120.9765985554143"><ele>22.0</ele><time>2026-04-21T08:16:07.002Z</time></trkpt><trkpt lat="14.413810059486435" lon="120.97667150202292"><ele>22.0</ele><time>2026-04-21T08:16:08.002Z</time></trkpt><trkpt lat="14.413784707051267" lon="120.97673718528144"><ele>22.0</ele><time>2026-04-21T08:16:09.002Z</time></trkpt><trkpt lat="14.413741962990585" lon="120.97680317821471"><ele>22.0</ele><time>2026-04-21T08:16:10.002Z</time></trkpt><trkpt lat="14.413725304086723" lon="120.97687337342812"><ele>22.0</ele><time>2026-04-21T08:16:11.002Z</time></trkpt><trkpt lat="14.413707220223435" lon="120.97694957295562"><ele>22.0</ele><time>2026-04-21T08:16:12.002Z</time></trkpt><trkpt lat="14.413688929270746" lon="120.97702664498617"><ele>22.0</ele><time>2026-04-21T08:16:13.002Z</time></trkpt><trkpt lat="14.413736459232688" lon="120.9771112034366"><ele>22.0</ele><time>2026-04-21T08:16:14.002Z</time></trkpt><trkpt lat="14.413751001457598" lon="120.97719531242157"><ele>22.0</ele><time>2026-04-21T08:16:15.002Z</time></trkpt><trkpt lat="14.413763782375833" lon="120.97728320202448"><ele>22.0</ele><time>2026-04-21T08:16:16.002Z</time></trkpt><trkpt lat="14.41377319156721" lon="120.97735985726752"><ele>22.0</ele><time>2026-04-21T08:16:17.002Z</time></trkpt><trkpt lat="14.413791681459124" lon="120.97746605926731"><ele>22.0</ele><time>2026-04-21T08:16:19.002Z</time></trkpt><trkpt lat="14.413808589758771" lon="120.97754152677255"><ele>22.0</ele><time>2026-04-21T08:16:22.002Z</time></trkpt><trkpt lat="14.413830709161571" lon="120.97765699813118"><ele>22.833333333333332</ele><time>2026-04-21T08:16:24.001Z</time></trkpt><trkpt lat="14.413842390501884" lon="120.97772796356598"><ele>23.666666666666664</ele><time>2026-04-21T08:16:25.001Z</time></trkpt><trkpt lat="14.413856397911735" lon="120.97780157915004"><ele>24.5</ele><time>2026-04-21T08:16:26.001Z</time></trkpt><trkpt lat="14.413873769511634" lon="120.97791948587296"><ele>25.333333333333332</ele><time>2026-04-21T08:16:28.001Z</time></trkpt><trkpt lat="14.413891093700535" lon="120.97801693747162"><ele>26.166666666666668</ele><time>2026-04-21T08:16:30.001Z</time></trkpt><trkpt lat="14.413910981048094" lon="120.97809325323159"><ele>27.0</ele><time>2026-04-21T08:16:33.001Z</time></trkpt><trkpt lat="14.413929340936575" lon="120.978193378876"><ele>27.0</ele><time>2026-04-21T08:16:35.001Z</time></trkpt><trkpt lat="14.413952146269034" lon="120.97831879587928"><ele>27.000000000000004</ele><time>2026-04-21T08:16:37.001Z</time></trkpt><trkpt lat="14.413969982585012" lon="120.97842657951514"><ele>27.000000000000004</ele><time>2026-04-21T08:16:39.001Z</time></trkpt><trkpt lat="14.413982168762695" lon="120.97851714208076"><ele>27.0</ele><time>2026-04-21T08:16:42.001Z</time></trkpt><trkpt lat="14.414006810189683" lon="120.97862658412963"><ele>27.0</ele><time>2026-04-21T08:16:44.001Z</time></trkpt><trkpt lat="14.414016340840675" lon="120.97869134010134"><ele>27.333333333333332</ele><time>2026-04-21T08:16:45.001Z</time></trkpt><trkpt lat="14.4140307605438" lon="120.97876199124258"><ele>27.666666666666664</ele><time>2026-04-21T08:16:46.001Z</time></trkpt><trkpt lat="14.414045546996896" lon="120.9788280513801"><ele>28.0</ele><time>2026-04-21T08:16:47.001Z</time></trkpt><trkpt lat="14.414059714778752" lon="120.97891591142432"><ele>28.333333333333332</ele><time>2026-04-21T08:16:49.001Z</time></trkpt><trkpt lat="14.414028826679164" lon="120.97897887864217"><ele>28.666666666666664</ele><time>2026-04-21T08:16:52.001Z</time></trkpt><trkpt lat="14.413930091695665" lon="120.97901777683994"><ele>29.0</ele><time>2026-04-21T08:16:54.001Z</time></trkpt><trkpt lat="14.413838673809353" lon="120.97904462462579"><ele>28.833333333333332</ele><time>2026-04-21T08:16:56.001Z</time></trkpt><trkpt lat="14.413774901994083" lon="120.97910155926468"><ele>28.666666666666664</ele><time>2026-04-21T08:17:00.001Z</time></trkpt><trkpt lat="14.413781279724025" lon="120.979178681052"><ele>28.5</ele><time>2026-04-21T08:17:02.001Z</time></trkpt><trkpt lat="14.413798692700503" lon="120.97924794021868"><ele>28.333333333333336</ele><time>2026-04-21T08:17:04.001Z</time></trkpt><trkpt lat="14.413815083481984" lon="120.97933907856157"><ele>28.166666666666668</ele><time>2026-04-21T08:17:06.001Z</time></trkpt><trkpt lat="14.413842572238364" lon="120.97945807471993"><ele>28.0</ele><time>2026-04-21T08:17:08.001Z</time></trkpt><trkpt lat="14.41386061958722" lon="120.9795858051194"><ele>28.0</ele><time>2026-04-21T08:17:10.001Z</time></trkpt><trkpt lat="14.413873360750987" lon="120.97965302051527"><ele>28.0</ele><time>2026-04-21T08:17:11.001Z</time></trkpt><trkpt lat="14.413884423158153" lon="120.97972474291804"><ele>28.0</ele><time>2026-04-21T08:17:12.001Z</time></trkpt><trkpt lat="14.413897952359703" lon="120.97979942246339"><ele>28.0</ele><time>2026-04-21T08:17:13.001Z</time></trkpt><trkpt lat="14.41390857594755" lon="120.97987885384704"><ele>28.0</ele><time>2026-04-21T08:17:14.001Z</time></trkpt><trkpt lat="14.413921620035188" lon="120.97995533500944"><ele>28.0</ele><time>2026-04-21T08:17:15.001Z</time></trkpt><trkpt lat="14.413935835174026" lon="120.98003340877368"><ele>28.0</ele><time>2026-04-21T08:17:16.001Z</time></trkpt><trkpt lat="14.413949133379896" lon="120.98011038484287"><ele>28.000000000000004</ele><time>2026-04-21T08:17:17.001Z</time></trkpt><trkpt lat="14.413962937653976" lon="120.9801771995197"><ele>28.0</ele><time>2026-04-21T08:17:18.001Z</time></trkpt><trkpt lat="14.413975382198805" lon="120.98028202847976"><ele>28.0</ele><time>2026-04-21T08:17:20.001Z</time></trkpt><trkpt lat="14.413985228196777" lon="120.98035118215685"><ele>28.0</ele><time>2026-04-21T08:17:22.001Z</time></trkpt><trkpt lat="14.413952325386333" lon="120.98040873798249"><ele>28.000000000000004</ele><time>2026-04-21T08:17:25.001Z</time></trkpt><trkpt lat="14.413868208011396" lon="120.98043274587413"><ele>28.0</ele><time>2026-04-21T08:17:27.001Z</time></trkpt><trkpt lat="14.41378982098432" lon="120.98044619344527"><ele>28.333333333333336</ele><time>2026-04-21T08:17:29.001Z</time></trkpt><trkpt lat="14.413703109290743" lon="120.98046344260104"><ele>28.666666666666668</ele><time>2026-04-21T08:17:31.001Z</time></trkpt><trkpt lat="14.413626574152465" lon="120.98047521733298"><ele>29.0</ele><time>2026-04-21T08:17:33.001Z</time></trkpt><trkpt lat="14.413535302350928" lon="120.98048614605"><ele>29.333333333333336</ele><time>2026-04-21T08:17:35.001Z</time></trkpt><trkpt lat="14.41344417550766" lon="120.98048926508099"><ele>29.666666666666668</ele><time>2026-04-21T08:17:37.001Z</time></trkpt><trkpt lat="14.413376786999905" lon="120.98050808494321"><ele>30.0</ele><time>2026-04-21T08:17:38.001Z</time></trkpt><trkpt lat="14.413290184597356" lon="120.98052998373308"><ele>30.0</ele><time>2026-04-21T08:17:40.001Z</time></trkpt><trkpt lat="14.41318306994523" lon="120.9805554431645"><ele>30.0</ele><time>2026-04-21T08:17:42.001Z</time></trkpt><trkpt lat="14.413073852141823" lon="120.98057489318141"><ele>30.0</ele><time>2026-04-21T08:17:44.001Z</time></trkpt><trkpt lat="14.412987821187762" lon="120.98059580623254"><ele>30.0</ele><time>2026-04-21T08:17:46.001Z</time></trkpt><trkpt lat="14.412883042906818" lon="120.98060156622108"><ele>30.0</ele><time>2026-04-21T08:17:48.001Z</time></trkpt><trkpt lat="14.412765490409408" lon="120.9806232055816"><ele>30.166666666666668</ele><time>2026-04-21T08:17:50.001Z</time></trkpt><trkpt lat="14.412648081192835" lon="120.9806520034671"><ele>30.333333333333336</ele><time>2026-04-21T08:17:52.001Z</time></trkpt><trkpt lat="14.412590773194633" lon="120.98068488374156"><ele>30.5</ele><time>2026-04-21T08:17:53.001Z</time></trkpt><trkpt lat="14.41253041424342" lon="120.98072265373567"><ele>30.666666666666668</ele><time>2026-04-21T08:17:54.001Z</time></trkpt><trkpt lat="14.412474734247828" lon="120.98075923418781"><ele>30.833333333333336</ele><time>2026-04-21T08:17:55.001Z</time></trkpt><trkpt lat="14.412399249144515" lon="120.98081683400538"><ele>31.0</ele><time>2026-04-21T08:17:57.001Z</time></trkpt><trkpt lat="14.41234879770762" lon="120.98086784553385"><ele>31.0</ele><time>2026-04-21T08:18:01.002Z</time></trkpt><trkpt lat="14.412279849271979" lon="120.98094992160556"><ele>31.0</ele><time>2026-04-21T08:18:04.002Z</time></trkpt><trkpt lat="14.412216391021117" lon="120.98104484944699"><ele>31.0</ele><time>2026-04-21T08:18:06.002Z</time></trkpt><trkpt lat="14.412182715246157" lon="120.9811018151128"><ele>31.0</ele><time>2026-04-21T08:18:07.002Z</time></trkpt><trkpt lat="14.412122248108771" lon="120.98120695231722"><ele>31.0</ele><time>2026-04-21T08:18:09.002Z</time></trkpt><trkpt lat="14.412069634817415" lon="120.98131222602206"><ele>31.0</ele><time>2026-04-21T08:18:11.002Z</time></trkpt><trkpt lat="14.412022037062371" lon="120.98143124930752"><ele>31.0</ele><time>2026-04-21T08:18:13.002Z</time></trkpt><trkpt lat="14.411986758529137" lon="120.98148854632743"><ele>31.0</ele><time>2026-04-21T08:18:14.002Z</time></trkpt><trkpt lat="14.411938306732285" lon="120.98159478401584"><ele>31.0</ele><time>2026-04-21T08:18:16.002Z</time></trkpt><trkpt lat="14.411894858889818" lon="120.98168110574939"><ele>31.0</ele><time>2026-04-21T08:18:18.002Z</time></trkpt><trkpt lat="14.411865106967504" lon="120.9817446331305"><ele>31.166666666666668</ele><time>2026-04-21T08:18:20.002Z</time></trkpt><trkpt lat="14.411876168325085" lon="120.98181037061629"><ele>31.333333333333336</ele><time>2026-04-21T08:18:23.002Z</time></trkpt><trkpt lat="14.411964166768456" lon="120.98184118832047"><ele>31.5</ele><time>2026-04-21T08:18:27.002Z</time></trkpt><trkpt lat="14.412039635117505" lon="120.98187846639061"><ele>31.666666666666664</ele><time>2026-04-21T08:18:29.001Z</time></trkpt><trkpt lat="14.412127376097173" lon="120.98192160060658"><ele>31.833333333333332</ele><time>2026-04-21T08:18:31.001Z</time></trkpt><trkpt lat="14.412187038190186" lon="120.98196327933711"><ele>32.0</ele><time>2026-04-21T08:18:33.001Z</time></trkpt><trkpt lat="14.412265714163212" lon="120.98199862541047"><ele>32.0</ele><time>2026-04-21T08:18:36.001Z</time></trkpt><trkpt lat="14.412360116980963" lon="120.98204357215951"><ele>32.0</ele><time>2026-04-21T08:18:38.001Z</time></trkpt><trkpt lat="14.412455094749081" lon="120.98209104371075"><ele>32.0</ele><time>2026-04-21T08:18:40.001Z</time></trkpt><trkpt lat="14.412519433027544" lon="120.98212667120112"><ele>32.0</ele><time>2026-04-21T08:18:42.001Z</time></trkpt><trkpt lat="14.412613049615164" lon="120.982164278811"><ele>32.0</ele><time>2026-04-21T08:18:44.001Z</time></trkpt><trkpt lat="14.41269707116528" lon="120.98220642508515"><ele>31.999999999999996</ele><time>2026-04-21T08:18:46.001Z</time></trkpt><trkpt lat="14.412784303862498" lon="120.98225189938515"><ele>32.0</ele><time>2026-04-21T08:18:48.001Z</time></trkpt><trkpt lat="14.412881722262595" lon="120.98229936780096"><ele>32.0</ele><time>2026-04-21T08:18:50.001Z</time></trkpt><trkpt lat="14.412956561925004" lon="120.9823413310414"><ele>32.0</ele><time>2026-04-21T08:18:52.001Z</time></trkpt><trkpt lat="14.413000523341774" lon="120.98239744956847"><ele>31.999999999999996</ele><time>2026-04-21T08:18:54.001Z</time></trkpt><trkpt lat="14.412976795577647" lon="120.9824714504465"><ele>32.0</ele><time>2026-04-21T08:18:56.001Z</time></trkpt><trkpt lat="14.412918548262208" lon="120.98257402822384"><ele>31.400000000000002</ele><time>2026-04-21T08:18:58.001Z</time></trkpt><trkpt lat="14.412875889640572" lon="120.9827009360146"><ele>30.800000000000004</ele><time>2026-04-21T08:19:00.001Z</time></trkpt><trkpt lat="14.412823747062738" lon="120.98281493613005"><ele>30.2</ele><time>2026-04-21T08:19:02.001Z</time></trkpt><trkpt lat="14.412801648016988" lon="120.98288100698196"><ele>29.6</ele><time>2026-04-21T08:19:03.001Z</time></trkpt><trkpt lat="14.412771620042074" lon="120.98293892118468"><ele>29.0</ele><time>2026-04-21T08:19:04.001Z</time></trkpt><trkpt lat="14.41272059870647" lon="120.98303405490361"><ele>28.999999999999996</ele><time>2026-04-21T08:19:06.001Z</time></trkpt><trkpt lat="14.41267561093195" lon="120.98314787526601"><ele>29.0</ele><time>2026-04-21T08:19:08.001Z</time></trkpt><trkpt lat="14.412655742112166" lon="120.9832097219427"><ele>29.0</ele><time>2026-04-21T08:19:09.001Z</time></trkpt><trkpt lat="14.41263996939213" lon="120.98327419759453"><ele>29.0</ele><time>2026-04-21T08:19:10.001Z</time></trkpt><trkpt lat="14.412615237598262" lon="120.98333586944331"><ele>28.999999999999996</ele><time>2026-04-21T08:19:11.001Z</time></trkpt><trkpt lat="14.4125996725018" lon="120.98339942818993"><ele>29.0</ele><time>2026-04-21T08:19:12.001Z</time></trkpt><trkpt lat="14.412574881934592" lon="120.98352483541711"><ele>29.499999999999996</ele><time>2026-04-21T08:19:14.001Z</time></trkpt><trkpt lat="14.412563051606517" lon="120.98359313949655"><ele>30.0</ele><time>2026-04-21T08:19:15.001Z</time></trkpt><trkpt lat="14.412554369984612" lon="120.98366938053934"><ele>30.5</ele><time>2026-04-21T08:19:16.001Z</time></trkpt><trkpt lat="14.4125390205846" lon="120.98373276990232"><ele>31.0</ele><time>2026-04-21T08:19:17.001Z</time></trkpt><trkpt lat="14.412510586993905" lon="120.9838501470955"><ele>31.499999999999996</ele><time>2026-04-21T08:19:19.001Z</time></trkpt><trkpt lat="14.412495851913304" lon="120.98394485479616"><ele>32.0</ele><time>2026-04-21T08:19:21.001Z</time></trkpt><trkpt lat="14.412484209675581" lon="120.9840225523138"><ele>31.999999999999996</ele><time>2026-04-21T08:19:24.001Z</time></trkpt><trkpt lat="14.412473661620123" lon="120.98408899610585"><ele>32.0</ele><time>2026-04-21T08:19:27.001Z</time></trkpt><trkpt lat="14.412374441974464" lon="120.98406273964619"><ele>32.0</ele><time>2026-04-21T08:19:30.001Z</time></trkpt><trkpt lat="14.412307023000206" lon="120.98401828162052"><ele>32.0</ele><time>2026-04-21T08:19:32.001Z</time></trkpt><trkpt lat="14.41222929937143" lon="120.98397759808105"><ele>31.999999999999996</ele><time>2026-04-21T08:19:34.001Z</time></trkpt><trkpt lat="14.412165256089818" lon="120.98394068732091"><ele>32.0</ele><time>2026-04-21T08:29:03.001Z</time></trkpt><trkpt lat="14.412101753541984" lon="120.98392409627358"><ele>32.2</ele><time>2026-04-21T08:29:07.001Z</time></trkpt><trkpt lat="14.412015759764452" lon="120.98389262726536"><ele>32.400000000000006</ele><time>2026-04-21T08:29:10.001Z</time></trkpt><trkpt lat="14.411937381293464" lon="120.98384977962108"><ele>32.599999999999994</ele><time>2026-04-21T08:29:12.001Z</time></trkpt><trkpt lat="14.41185395267501" lon="120.98381112141944"><ele>32.8</ele><time>2026-04-21T08:29:14.001Z</time></trkpt><trkpt lat="14.411773200816215" lon="120.98376883191109"><ele>33.0</ele><time>2026-04-21T08:29:16.001Z</time></trkpt><trkpt lat="14.41168113719786" lon="120.98371946566954"><ele>33.0</ele><time>2026-04-21T08:29:18.001Z</time></trkpt><trkpt lat="14.411606287389453" lon="120.98368129849952"><ele>33.0</ele><time>2026-04-21T08:29:21.001Z</time></trkpt><trkpt lat="14.411546876300088" lon="120.98364883839467"><ele>33.0</ele><time>2026-04-21T08:29:25.001Z</time></trkpt><trkpt lat="14.411476070542848" lon="120.98362094586581"><ele>33.0</ele><time>2026-04-21T08:29:27.001Z</time></trkpt><trkpt lat="14.411414010393544" lon="120.98358524909283"><ele>33.0</ele><time>2026-04-21T08:29:29.001Z</time></trkpt><trkpt lat="14.41131874889292" lon="120.98354741196441"><ele>33.0</ele><time>2026-04-21T08:29:32.001Z</time></trkpt><trkpt lat="14.4112265368755" lon="120.98349637498278"><ele>33.0</ele><time>2026-04-21T08:29:34.001Z</time></trkpt><trkpt lat="14.411152598709249" lon="120.9834547249175"><ele>33.0</ele><time>2026-04-21T08:29:36.001Z</time></trkpt><trkpt lat="14.411090997669998" lon="120.9834288431297"><ele>33.0</ele><time>2026-04-21T08:29:38.001Z</time></trkpt><trkpt lat="14.411087155040677" lon="120.98333227820632"><ele>33.0</ele><time>2026-04-21T08:29:42.001Z</time></trkpt><trkpt lat="14.411133978317121" lon="120.983243955366"><ele>33.0</ele><time>2026-04-21T08:29:44.001Z</time></trkpt><trkpt lat="14.411164668137873" lon="120.98318112886217"><ele>33.0</ele><time>2026-04-21T08:29:47.001Z</time></trkpt><trkpt lat="14.411214302883975" lon="120.98309259012723"><ele>33.0</ele><time>2026-04-21T08:29:50.001Z</time></trkpt><trkpt lat="14.411260754020235" lon="120.982982478648"><ele>33.0</ele><time>2026-04-21T08:29:52.001Z</time></trkpt><trkpt lat="14.411313025174056" lon="120.98287365648159"><ele>33.0</ele><time>2026-04-21T08:29:54.001Z</time></trkpt><trkpt lat="14.41133945796716" lon="120.9828143645713"><ele>33.0</ele><time>2026-04-21T08:29:55.001Z</time></trkpt><trkpt lat="14.411382546701049" lon="120.98273555746916"><ele>33.0</ele><time>2026-04-21T08:29:57.001Z</time></trkpt><trkpt lat="14.411410546377022" lon="120.98267684833533"><ele>33.0</ele><time>2026-04-21T08:30:00.001Z</time></trkpt><trkpt lat="14.411450231252953" lon="120.98259156911183"><ele>32.8</ele><time>2026-04-21T08:30:03.001Z</time></trkpt><trkpt lat="14.41149078060912" lon="120.98250267581591"><ele>32.599999999999994</ele><time>2026-04-21T08:30:05.001Z</time></trkpt><trkpt lat="14.411536213312635" lon="120.98241279851807"><ele>32.400000000000006</ele><time>2026-04-21T08:30:07.001Z</time></trkpt><trkpt lat="14.411576747414903" lon="120.98231931573093"><ele>32.2</ele><time>2026-04-21T08:30:09.001Z</time></trkpt><trkpt lat="14.411626316638994" lon="120.98222185672242"><ele>32.0</ele><time>2026-04-21T08:30:11.001Z</time></trkpt><trkpt lat="14.411661628104332" lon="120.98214003412286"><ele>31.999999999999996</ele><time>2026-04-21T08:30:13.001Z</time></trkpt><trkpt lat="14.411733406040407" lon="120.98203039933739"><ele>32.0</ele><time>2026-04-21T08:30:15.001Z</time></trkpt><trkpt lat="14.411739309367697" lon="120.98196171514454"><ele>32.0</ele><time>2026-04-21T08:30:17.001Z</time></trkpt><trkpt lat="14.411767303531112" lon="120.9818790146614"><ele>32.0</ele><time>2026-04-21T08:30:19.001Z</time></trkpt><trkpt lat="14.411806063044931" lon="120.9818222578979"><ele>31.999999999999996</ele><time>2026-04-21T08:30:22.001Z</time></trkpt><trkpt lat="14.41185269086376" lon="120.98175535624337"><ele>32.0</ele><time>2026-04-21T08:30:25.001Z</time></trkpt><trkpt lat="14.411874025566933" lon="120.98168617497731"><ele>31.8</ele><time>2026-04-21T08:30:27.001Z</time></trkpt><trkpt lat="14.411915823021442" lon="120.98160328668187"><ele>31.6</ele><time>2026-04-21T08:30:29.001Z</time></trkpt><trkpt lat="14.411956344947106" lon="120.98152030499884"><ele>31.400000000000002</ele><time>2026-04-21T08:30:31.001Z</time></trkpt><trkpt lat="14.4119966185828" lon="120.98142555588042"><ele>31.200000000000003</ele><time>2026-04-21T08:30:33.001Z</time></trkpt><trkpt lat="14.412055275357053" lon="120.98130419488042"><ele>31.0</ele><time>2026-04-21T08:30:35.001Z</time></trkpt><trkpt lat="14.412087189840117" lon="120.98124044224089"><ele>31.0</ele><time>2026-04-21T08:30:36.001Z</time></trkpt><trkpt lat="14.412116959954737" lon="120.98118176105447"><ele>31.0</ele><time>2026-04-21T08:30:37.001Z</time></trkpt><trkpt lat="14.412174152357338" lon="120.9810721059046"><ele>31.0</ele><time>2026-04-21T08:30:39.001Z</time></trkpt><trkpt lat="14.41223664932907" lon="120.98096801611288"><ele>31.0</ele><time>2026-04-21T08:30:41.001Z</time></trkpt><trkpt lat="14.412323976671486" lon="120.98087539018181"><ele>31.0</ele><time>2026-04-21T08:30:43.001Z</time></trkpt><trkpt lat="14.412391092543361" lon="120.98081466100335"><ele>31.0</ele><time>2026-04-21T08:30:45.001Z</time></trkpt><trkpt lat="14.41245517428089" lon="120.98074632513146"><ele>31.0</ele><time>2026-04-21T08:30:49.001Z</time></trkpt><trkpt lat="14.412542047507024" lon="120.98070226886344"><ele>31.0</ele><time>2026-04-21T08:30:51.001Z</time></trkpt><trkpt lat="14.412662198868471" lon="120.98063923683944"><ele>31.0</ele><time>2026-04-21T08:30:53.001Z</time></trkpt><trkpt lat="14.4127336033665" lon="120.98061827716822"><ele>31.0</ele><time>2026-04-21T08:30:54.001Z</time></trkpt><trkpt lat="14.412850622570556" lon="120.98059991049017"><ele>31.0</ele><time>2026-04-21T08:30:56.001Z</time></trkpt><trkpt lat="14.412957215460848" lon="120.98058642977094"><ele>31.0</ele><time>2026-04-21T08:30:58.002Z</time></trkpt><trkpt lat="14.413086231608691" lon="120.98055855884401"><ele>31.0</ele><time>2026-04-21T08:31:00.002Z</time></trkpt><trkpt lat="14.413165074518716" lon="120.9805450149916"><ele>31.0</ele><time>2026-04-21T08:31:01.002Z</time></trkpt><trkpt lat="14.413287195266305" lon="120.98051820518108"><ele>31.0</ele><time>2026-04-21T08:31:03.002Z</time></trkpt><trkpt lat="14.413404851918648" lon="120.98049933476081"><ele>30.8</ele><time>2026-04-21T08:31:05.001Z</time></trkpt><trkpt lat="14.413472602290106" lon="120.98048703740358"><ele>30.6</ele><time>2026-04-21T08:31:06.001Z</time></trkpt><trkpt lat="14.413586213567841" lon="120.98046611861582"><ele>30.4</ele><time>2026-04-21T08:31:08.001Z</time></trkpt><trkpt lat="14.413667952292993" lon="120.9804531808646"><ele>30.2</ele><time>2026-04-21T08:31:10.001Z</time></trkpt><trkpt lat="14.413759964141999" lon="120.98043746578252"><ele>30.0</ele><time>2026-04-21T08:31:12.001Z</time></trkpt><trkpt lat="14.413856135214374" lon="120.98041306081758"><ele>29.6</ele><time>2026-04-21T08:31:14.001Z</time></trkpt><trkpt lat="14.413920699984029" lon="120.98040661308818"><ele>29.2</ele><time>2026-04-21T08:31:16.001Z</time></trkpt><trkpt lat="14.413981614319741" lon="120.98035985561565"><ele>28.799999999999997</ele><time>2026-04-21T08:31:20.001Z</time></trkpt><trkpt lat="14.413967918734523" lon="120.98024977267535"><ele>28.4</ele><time>2026-04-21T08:31:24.001Z</time></trkpt><trkpt lat="14.413941652764631" lon="120.98013077192742"><ele>28.0</ele><time>2026-04-21T08:31:26.001Z</time></trkpt><trkpt lat="14.4139218831739" lon="120.98000783327895"><ele>27.799999999999997</ele><time>2026-04-21T08:31:28.001Z</time></trkpt><trkpt lat="14.413903096750651" lon="120.97989913600532"><ele>27.599999999999998</ele><time>2026-04-21T08:31:30.001Z</time></trkpt><trkpt lat="14.413880179249178" lon="120.97979443741737"><ele>27.400000000000002</ele><time>2026-04-21T08:31:32.001Z</time></trkpt><trkpt lat="14.41386802733534" lon="120.97971361758997"><ele>27.200000000000003</ele><time>2026-04-21T08:31:34.001Z</time></trkpt><trkpt lat="14.413851537014096" lon="120.97961709764844"><ele>27.0</ele><time>2026-04-21T08:31:36.001Z</time></trkpt><trkpt lat="14.413834700125202" lon="120.97951826279301"><ele>27.166666666666668</ele><time>2026-04-21T08:31:38.001Z</time></trkpt><trkpt lat="14.413819201851545" lon="120.9794277445932"><ele>27.333333333333336</ele><time>2026-04-21T08:31:40.001Z</time></trkpt><trkpt lat="14.413805504967133" lon="120.97934426946102"><ele>27.5</ele><time>2026-04-21T08:31:42.001Z</time></trkpt><trkpt lat="14.413794496992425" lon="120.97925010527989"><ele>27.666666666666668</ele><time>2026-04-21T08:31:45.001Z</time></trkpt><trkpt lat="14.413778752541647" lon="120.97918135053384"><ele>27.833333333333336</ele><time>2026-04-21T08:31:49.001Z</time></trkpt><trkpt lat="14.413769274338126" lon="120.9791107717861"><ele>28.0</ele><time>2026-04-21T08:31:52.001Z</time></trkpt><trkpt lat="14.41383952870313" lon="120.97904970408996"><ele>28.166666666666668</ele><time>2026-04-21T08:31:55.001Z</time></trkpt><trkpt lat="14.41390081316401" lon="120.97903142206334"><ele>28.333333333333336</ele><time>2026-04-21T08:31:57.001Z</time></trkpt><trkpt lat="14.413982420578808" lon="120.97900981324122"><ele>28.5</ele><time>2026-04-21T08:31:59.001Z</time></trkpt><trkpt lat="14.414042412947913" lon="120.97897971886074"><ele>28.666666666666664</ele><time>2026-04-21T08:32:01.001Z</time></trkpt><trkpt lat="14.414050806346706" lon="120.97891273831952"><ele>28.833333333333332</ele><time>2026-04-21T08:32:05.001Z</time></trkpt><trkpt lat="14.414032239543186" lon="120.97884241173217"><ele>29.0</ele><time>2026-04-21T08:32:07.001Z</time></trkpt><trkpt lat="14.41400998605962" lon="120.97874278335901"><ele>28.999999999999996</ele><time>2026-04-21T08:32:09.001Z</time></trkpt><trkpt lat="14.413990652087408" lon="120.97865101272676"><ele>29.0</ele><time>2026-04-21T08:32:11.001Z</time></trkpt><trkpt lat="14.413975850318774" lon="120.97856985895227"><ele>29.0</ele><time>2026-04-21T08:32:13.001Z</time></trkpt><trkpt lat="14.413957865831483" lon="120.97848087517924"><ele>29.0</ele><time>2026-04-21T08:32:16.001Z</time></trkpt><trkpt lat="14.413949110625861" lon="120.9784142097435"><ele>28.999999999999996</ele><time>2026-04-21T08:32:19.001Z</time></trkpt><trkpt lat="14.413924589516753" lon="120.97829935413151"><ele>29.0</ele><time>2026-04-21T08:32:21.001Z</time></trkpt><trkpt lat="14.41391597945261" lon="120.9782298005289"><ele>28.6</ele><time>2026-04-21T08:32:22.001Z</time></trkpt><trkpt lat="14.413904860145117" lon="120.9781176749742"><ele>28.2</ele><time>2026-04-21T08:32:24.001Z</time></trkpt><trkpt lat="14.413893730192697" lon="120.97805341051281"><ele>27.800000000000004</ele><time>2026-04-21T08:32:26.001Z</time></trkpt><trkpt lat="14.413882550866969" lon="120.97798209942347"><ele>27.400000000000002</ele><time>2026-04-21T08:32:29.001Z</time></trkpt><trkpt lat="14.413865499452111" lon="120.97787471493808"><ele>27.0</ele><time>2026-04-21T08:32:31.001Z</time></trkpt><trkpt lat="14.413844443250014" lon="120.97775852715748"><ele>26.0</ele><time>2026-04-21T08:32:33.001Z</time></trkpt><trkpt lat="14.41382034170175" lon="120.97763664998588"><ele>25.000000000000004</ele><time>2026-04-21T08:32:35.001Z</time></trkpt><trkpt lat="14.41380398787946" lon="120.97754038611387"><ele>24.0</ele><time>2026-04-21T08:32:37.001Z</time></trkpt><trkpt lat="14.413789449512203" lon="120.97746819661143"><ele>23.0</ele><time>2026-04-21T08:32:40.001Z</time></trkpt><trkpt lat="14.413778207385574" lon="120.97739747159908"><ele>22.0</ele><time>2026-04-21T08:32:42.001Z</time></trkpt><trkpt lat="14.413757499674583" lon="120.97729026390816"><ele>22.0</ele><time>2026-04-21T08:32:44.001Z</time></trkpt><trkpt lat="14.4137449586742" lon="120.97719213892125"><ele>22.0</ele><time>2026-04-21T08:32:46.001Z</time></trkpt><trkpt lat="14.41372637287371" lon="120.97707643670222"><ele>22.0</ele><time>2026-04-21T08:32:48.001Z</time></trkpt><trkpt lat="14.41372164497451" lon="120.9770053019442"><ele>22.0</ele><time>2026-04-21T08:32:49.001Z</time></trkpt><trkpt lat="14.413755345631444" lon="120.97687172985516"><ele>22.0</ele><time>2026-04-21T08:32:51.001Z</time></trkpt><trkpt lat="14.413800037600069" lon="120.97674994997742"><ele>22.0</ele><time>2026-04-21T08:32:53.001Z</time></trkpt><trkpt lat="14.413840885212357" lon="120.97665907109769"><ele>22.0</ele><time>2026-04-21T08:32:55.001Z</time></trkpt><trkpt lat="14.41391958902377" lon="120.97661711657551"><ele>22.0</ele><time>2026-04-21T08:32:57.001Z</time></trkpt><trkpt lat="14.414029956475863" lon="120.97658551336583"><ele>22.0</ele><time>2026-04-21T08:32:59.001Z</time></trkpt><trkpt lat="14.41415774668646" lon="120.97655000792793"><ele>22.0</ele><time>2026-04-21T08:33:01.001Z</time></trkpt><trkpt lat="14.414230347419833" lon="120.97652842766477"><ele>22.0</ele><time>2026-04-21T08:33:02.001Z</time></trkpt><trkpt lat="14.414306755460204" lon="120.9765066874365"><ele>22.0</ele><time>2026-04-21T08:33:03.001Z</time></trkpt><trkpt lat="14.414393347488842" lon="120.97648803433995"><ele>22.0</ele><time>2026-04-21T08:33:04.001Z</time></trkpt><trkpt lat="14.414465230154335" lon="120.97647228065135"><ele>22.0</ele><time>2026-04-21T08:33:05.001Z</time></trkpt><trkpt lat="14.414553829718695" lon="120.97644694318159"><ele>22.0</ele><time>2026-04-21T08:33:06.001Z</time></trkpt><trkpt lat="14.414648674657187" lon="120.97641730042223"><ele>22.0</ele><time>2026-04-21T08:33:07.001Z</time></trkpt><trkpt lat="14.414733152801752" lon="120.97639502159258"><ele>22.0</ele><time>2026-04-21T08:33:08.001Z</time></trkpt><trkpt lat="14.4148244029737" lon="120.97637398330819"><ele>22.0</ele><time>2026-04-21T08:33:09.001Z</time></trkpt><trkpt lat="14.414901585388932" lon="120.97635215729305"><ele>22.0</ele><time>2026-04-21T08:33:10.001Z</time></trkpt><trkpt lat="14.414964424942902" lon="120.97633542743927"><ele>22.0</ele><time>2026-04-21T08:33:11Z</time></trkpt><trkpt lat="14.41502872240524" lon="120.97631471871688"><ele>22.0</ele><time>2026-04-21T08:33:13Z</time></trkpt><trkpt lat="14.415090164941873" lon="120.97629738513461"><ele>22.0</ele><time>2026-04-21T08:33:16Z</time></trkpt><trkpt lat="14.415192963228991" lon="120.97627055763041"><ele>22.0</ele><time>2026-04-21T08:33:18Z</time></trkpt><trkpt lat="14.415322527948613" lon="120.97624585184829"><ele>22.0</ele><time>2026-04-21T08:33:20Z</time></trkpt><trkpt lat="14.415396332478277" lon="120.97623938280326"><ele>22.0</ele><time>2026-04-21T08:33:21Z</time></trkpt><trkpt lat="14.415473218068794" lon="120.9762408614213"><ele>22.0</ele><time>2026-04-21T08:33:22Z</time></trkpt><trkpt lat="14.415543059088243" lon="120.97624977590887"><ele>22.0</ele><time>2026-04-21T08:33:23Z</time></trkpt><trkpt lat="14.41561992757454" lon="120.97625929025065"><ele>22.0</ele><time>2026-04-21T08:33:24Z</time></trkpt><trkpt lat="14.415713957182408" lon="120.97626349089003"><ele>22.166666666666664</ele><time>2026-04-21T08:33:25Z</time></trkpt><trkpt lat="14.41579945600025" lon="120.97626982050396"><ele>22.333333333333332</ele><time>2026-04-21T08:33:26Z</time></trkpt><trkpt lat="14.415885694431445" lon="120.97627719506761"><ele>22.5</ele><time>2026-04-21T08:33:27Z</time></trkpt><trkpt lat="14.415973673175952" lon="120.97628299277002"><ele>22.666666666666668</ele><time>2026-04-21T08:33:28Z</time></trkpt><trkpt lat="14.416059849750578" lon="120.97629396742444"><ele>22.833333333333336</ele><time>2026-04-21T08:33:29Z</time></trkpt><trkpt lat="14.416129292645211" lon="120.97630411384272"><ele>23.0</ele><time>2026-04-21T08:33:30Z</time></trkpt><trkpt lat="14.416200292613517" lon="120.97630781669938"><ele>23.0</ele><time>2026-04-21T08:33:31Z</time></trkpt><trkpt lat="14.416284209410758" lon="120.97631667837885"><ele>23.0</ele><time>2026-04-21T08:33:32Z</time></trkpt><trkpt lat="14.416370197555038" lon="120.97631945850793"><ele>23.0</ele><time>2026-04-21T08:33:33Z</time></trkpt><trkpt lat="14.416459571933965" lon="120.97632305379786"><ele>23.0</ele><time>2026-04-21T08:33:34Z</time></trkpt><trkpt lat="14.416548178490377" lon="120.97633289799647"><ele>23.0</ele><time>2026-04-21T08:33:35Z</time></trkpt><trkpt lat="14.416639394045678" lon="120.97634323040785"><ele>23.0</ele><time>2026-04-21T08:33:36Z</time></trkpt><trkpt lat="14.41672680884523" lon="120.97634803278584"><ele>23.0</ele><time>2026-04-21T08:33:37Z</time></trkpt><trkpt lat="14.416815194665565" lon="120.97635259668267"><ele>23.0</ele><time>2026-04-21T08:33:38Z</time></trkpt><trkpt lat="14.416901459923265" lon="120.9763617002116"><ele>23.0</ele><time>2026-04-21T08:33:39Z</time></trkpt><trkpt lat="14.416973656677055" lon="120.97637209034468"><ele>23.0</ele><time>2026-04-21T08:33:40Z</time></trkpt><trkpt lat="14.417045863981667" lon="120.97637643217713"><ele>23.0</ele><time>2026-04-21T08:33:41Z</time></trkpt><trkpt lat="14.41712227312766" lon="120.97638461743487"><ele>23.0</ele><time>2026-04-21T08:33:42Z</time></trkpt><trkpt lat="14.417232115204222" lon="120.9763926652717"><ele>23.0</ele><time>2026-04-21T08:33:44Z</time></trkpt><trkpt lat="14.417328867255348" lon="120.97641442340903"><ele>23.0</ele><time>2026-04-21T08:33:46Z</time></trkpt><trkpt lat="14.41740436785879" lon="120.97642824270233"><ele>23.0</ele><time>2026-04-21T08:33:48Z</time></trkpt><trkpt lat="14.41745123187223" lon="120.97635702227672"><ele>23.0</ele><time>2026-04-21T08:33:51.001Z</time></trkpt><trkpt lat="14.417439268605579" lon="120.97625193818419"><ele>23.0</ele><time>2026-04-21T08:33:53.001Z</time></trkpt><trkpt lat="14.417435658060219" lon="120.97617953948699"><ele>23.0</ele><time>2026-04-21T08:33:55.001Z</time></trkpt><trkpt lat="14.41743143102292" lon="120.97610405199407"><ele>23.0</ele><time>2026-04-21T08:33:57.001Z</time></trkpt><trkpt lat="14.417423091556392" lon="120.97603412071541"><ele>23.0</ele><time>2026-04-21T08:34:00.001Z</time></trkpt><trkpt lat="14.41740346456616" lon="120.97592526286526"><ele>23.0</ele><time>2026-04-21T08:34:02.001Z</time></trkpt><trkpt lat="14.417399108604137" lon="120.97584715632563"><ele>23.0</ele><time>2026-04-21T08:34:04.001Z</time></trkpt><trkpt lat="14.4173889048118" lon="120.97571651989705"><ele>23.0</ele><time>2026-04-21T08:34:06.001Z</time></trkpt><trkpt lat="14.41738267039322" lon="120.97564551313195"><ele>23.0</ele><time>2026-04-21T08:34:07.001Z</time></trkpt><trkpt lat="14.417379783175658" lon="120.97557516605696"><ele>22.714285714285715</ele><time>2026-04-21T08:34:08.001Z</time></trkpt><trkpt lat="14.417377862950119" lon="120.97550476808303"><ele>22.428571428571427</ele><time>2026-04-21T08:34:09.001Z</time></trkpt><trkpt lat="14.417376077316355" lon="120.97543954250112"><ele>22.142857142857142</ele><time>2026-04-21T08:34:10.001Z</time></trkpt><trkpt lat="14.417369908341492" lon="120.97537298189741"><ele>21.857142857142858</ele><time>2026-04-21T08:34:11.001Z</time></trkpt><trkpt lat="14.417368070961501" lon="120.97528259423285"><ele>21.57142857142857</ele><time>2026-04-21T08:34:13.001Z</time></trkpt><trkpt lat="14.417357384634421" lon="120.9752027826573"><ele>21.285714285714285</ele><time>2026-04-21T08:34:15.001Z</time></trkpt><trkpt lat="14.417360761068814" lon="120.97513749213427"><ele>21.0</ele><time>2026-04-21T08:34:18.001Z</time></trkpt><trkpt lat="14.417351038785219" lon="120.97505427323755"><ele>21.333333333333332</ele><time>2026-04-21T08:34:25.001Z</time></trkpt><trkpt lat="14.417334979734804" lon="120.9749611777464"><ele>21.666666666666668</ele><time>2026-04-21T08:34:31.001Z</time></trkpt><trkpt lat="14.417321099787706" lon="120.97486035556348"><ele>22.0</ele><time>2026-04-21T08:34:33.001Z</time></trkpt><trkpt lat="14.417325306920212" lon="120.97478698003238"><ele>22.333333333333336</ele><time>2026-04-21T08:34:35.001Z</time></trkpt><trkpt lat="14.417328207081193" lon="120.97471783147013"><ele>22.666666666666668</ele><time>2026-04-21T08:34:37.001Z</time></trkpt><trkpt lat="14.417301525921642" lon="120.97463857566193"><ele>23.0</ele><time>2026-04-21T08:34:43.001Z</time></trkpt><trkpt lat="14.417227916289429" lon="120.97461363998784"><ele>23.0</ele><time>2026-04-21T08:34:45.001Z</time></trkpt><trkpt lat="14.417130725596609" lon="120.97461811407275"><ele>23.0</ele><time>2026-04-21T08:34:47.001Z</time></trkpt><trkpt lat="14.417061462769867" lon="120.9746104380872"><ele>23.0</ele><time>2026-04-21T08:34:48.001Z</time></trkpt><trkpt lat="14.416987833777942" lon="120.97460646522559"><ele>23.0</ele><time>2026-04-21T08:34:49.001Z</time></trkpt><trkpt lat="14.416905066377758" lon="120.97460344858652"><ele>23.0</ele><time>2026-04-21T08:34:50.001Z</time></trkpt><trkpt lat="14.416821903008257" lon="120.97459941658177"><ele>23.0</ele><time>2026-04-21T08:34:51.001Z</time></trkpt><trkpt lat="14.416726379334019" lon="120.97459845906108"><ele>23.0</ele><time>2026-04-21T08:34:52.001Z</time></trkpt><trkpt lat="14.416632217967003" lon="120.97459008579331"><ele>23.0</ele><time>2026-04-21T08:34:53.001Z</time></trkpt><trkpt lat="14.4165320717825" lon="120.97457735435968"><ele>23.0</ele><time>2026-04-21T08:34:54.001Z</time></trkpt><trkpt lat="14.416432036638815" lon="120.97455998482883"><ele>23.0</ele><time>2026-04-21T08:34:55.001Z</time></trkpt><trkpt lat="14.416321482992483" lon="120.97454484270138"><ele>23.0</ele><time>2026-04-21T08:34:56.001Z</time></trkpt><trkpt lat="14.416208965609837" lon="120.97453058049149"><ele>23.5</ele><time>2026-04-21T08:34:57.001Z</time></trkpt><trkpt lat="14.416096007294334" lon="120.97451566644816"><ele>24.0</ele><time>2026-04-21T08:34:58.001Z</time></trkpt><trkpt lat="14.415987389152987" lon="120.97449848567885"><ele>24.5</ele><time>2026-04-21T08:34:59.001Z</time></trkpt><trkpt lat="14.415877883640032" lon="120.97448131144331"><ele>25.0</ele><time>2026-04-21T08:35:00.001Z</time></trkpt><trkpt lat="14.415763455099837" lon="120.97446127370328"><ele>25.0</ele><time>2026-04-21T08:35:01.001Z</time></trkpt><trkpt lat="14.415650564525732" lon="120.97444239924405"><ele>25.0</ele><time>2026-04-21T08:35:02.001Z</time></trkpt><trkpt lat="14.415551699615662" lon="120.97442686554592"><ele>25.0</ele><time>2026-04-21T08:35:03.001Z</time></trkpt><trkpt lat="14.415457391275021" lon="120.97441345441219"><ele>25.0</ele><time>2026-04-21T08:35:04.001Z</time></trkpt><trkpt lat="14.4153640893381" lon="120.97439981066695"><ele>25.0</ele><time>2026-04-21T08:35:05.001Z</time></trkpt><trkpt lat="14.415264951547435" lon="120.97438700089603"><ele>25.2</ele><time>2026-04-21T08:35:06.001Z</time></trkpt><trkpt lat="14.415167555079167" lon="120.97437460833737"><ele>25.4</ele><time>2026-04-21T08:35:07.001Z</time></trkpt><trkpt lat="14.415074494391424" lon="120.97436178516745"><ele>25.6</ele><time>2026-04-21T08:35:08.001Z</time></trkpt><trkpt lat="14.414981152468684" lon="120.97434480888182"><ele>25.8</ele><time>2026-04-21T08:35:09.001Z</time></trkpt><trkpt lat="14.414890433569415" lon="120.9743307478436"><ele>26.0</ele><time>2026-04-21T08:35:10.001Z</time></trkpt><trkpt lat="14.414811501159848" lon="120.97431757824589"><ele>25.999999999999996</ele><time>2026-04-21T08:35:11.001Z</time></trkpt><trkpt lat="14.414739728347802" lon="120.97430595292971"><ele>26.0</ele><time>2026-04-21T08:35:12.001Z</time></trkpt><trkpt lat="14.41466361247139" lon="120.97429638889548"><ele>26.0</ele><time>2026-04-21T08:35:13.001Z</time></trkpt><trkpt lat="14.414579288611616" lon="120.97428525816372"><ele>26.0</ele><time>2026-04-21T08:35:14.001Z</time></trkpt><trkpt lat="14.41448263957657" lon="120.9742681833727"><ele>25.999999999999996</ele><time>2026-04-21T08:35:15.001Z</time></trkpt><trkpt lat="14.41438511708867" lon="120.97424961423386"><ele>26.0</ele><time>2026-04-21T08:35:16Z</time></trkpt><trkpt lat="14.414292874384763" lon="120.97423482331332"><ele>25.8</ele><time>2026-04-21T08:35:17Z</time></trkpt><trkpt lat="14.41421367487141" lon="120.97422414733853"><ele>25.6</ele><time>2026-04-21T08:35:18Z</time></trkpt><trkpt lat="14.414133975884775" lon="120.97421882979091"><ele>25.4</ele><time>2026-04-21T08:35:19Z</time></trkpt><trkpt lat="14.414039784663712" lon="120.97421132286695"><ele>25.2</ele><time>2026-04-21T08:35:20Z</time></trkpt><trkpt lat="14.413940434633094" lon="120.97419387744206"><ele>25.0</ele><time>2026-04-21T08:35:21Z</time></trkpt><trkpt lat="14.413839560553555" lon="120.97417823668583"><ele>25.0</ele><time>2026-04-21T08:35:22Z</time></trkpt><trkpt lat="14.413727121869089" lon="120.97417064389292"><ele>25.0</ele><time>2026-04-21T08:35:23Z</time></trkpt><trkpt lat="14.413617945345623" lon="120.97416409862629"><ele>25.0</ele><time>2026-04-21T08:35:24Z</time></trkpt><trkpt lat="14.413496772976922" lon="120.97416434785951"><ele>25.0</ele><time>2026-04-21T08:35:25Z</time></trkpt><trkpt lat="14.413382369358128" lon="120.97416848329208"><ele>25.0</ele><time>2026-04-21T08:35:26Z</time></trkpt><trkpt lat="14.413282075043245" lon="120.97417720187356"><ele>25.0</ele><time>2026-04-21T08:35:27Z</time></trkpt><trkpt lat="14.413175883885037" lon="120.97420252075034"><ele>25.0</ele><time>2026-04-21T08:35:28Z</time></trkpt><trkpt lat="14.413073809590715" lon="120.97423201284803"><ele>25.0</ele><time>2026-04-21T08:35:29Z</time></trkpt><trkpt lat="14.412964748192078" lon="120.97427319966633"><ele>25.0</ele><time>2026-04-21T08:35:30Z</time></trkpt><trkpt lat="14.412850987047129" lon="120.97432254240212"><ele>25.5</ele><time>2026-04-21T08:35:31Z</time></trkpt><trkpt lat="14.412731287905627" lon="120.97437504432703"><ele>26.0</ele><time>2026-04-21T08:35:32Z</time></trkpt><trkpt lat="14.41260303935934" lon="120.97442728397937"><ele>26.5</ele><time>2026-04-21T08:35:33Z</time></trkpt><trkpt lat="14.412471064368445" lon="120.97448247094826"><ele>27.0</ele><time>2026-04-21T08:35:34Z</time></trkpt><trkpt lat="14.41234055977415" lon="120.97454204458039"><ele>27.0</ele><time>2026-04-21T08:35:35Z</time></trkpt><trkpt lat="14.412216285049071" lon="120.97460308024968"><ele>27.0</ele><time>2026-04-21T08:35:36Z</time></trkpt><trkpt lat="14.412107242000866" lon="120.97465221370202"><ele>27.0</ele><time>2026-04-21T08:35:37Z</time></trkpt><trkpt lat="14.412005327797344" lon="120.97469896815477"><ele>27.0</ele><time>2026-04-21T08:35:38Z</time></trkpt><trkpt lat="14.411908784921915" lon="120.97474166376827"><ele>27.200000000000003</ele><time>2026-04-21T08:35:39Z</time></trkpt><trkpt lat="14.411821595260509" lon="120.97478296768234"><ele>27.400000000000002</ele><time>2026-04-21T08:35:40Z</time></trkpt><trkpt lat="14.411747786153883" lon="120.9748152272875"><ele>27.599999999999998</ele><time>2026-04-21T08:35:41Z</time></trkpt><trkpt lat="14.411680327687748" lon="120.97485140165826"><ele>27.799999999999997</ele><time>2026-04-21T08:35:42Z</time></trkpt><trkpt lat="14.411580379664276" lon="120.974923122911"><ele>28.0</ele><time>2026-04-21T08:35:44Z</time></trkpt><trkpt lat="14.411514595416014" lon="120.97497647582264"><ele>28.000000000000004</ele><time>2026-04-21T08:35:46Z</time></trkpt><trkpt lat="14.411429866917096" lon="120.97503530082835"><ele>28.0</ele><time>2026-04-21T08:35:48Z</time></trkpt><trkpt lat="14.41137168351688" lon="120.9750736954627"><ele>28.0</ele><time>2026-04-21T08:35:49Z</time></trkpt><trkpt lat="14.411305478741863" lon="120.97512334047379"><ele>28.0</ele><time>2026-04-21T08:35:50Z</time></trkpt><trkpt lat="14.411238029362211" lon="120.97517635859855"><ele>28.000000000000004</ele><time>2026-04-21T08:35:51Z</time></trkpt><trkpt lat="14.411170155056983" lon="120.97523171813923"><ele>28.0</ele><time>2026-04-21T08:35:52Z</time></trkpt><trkpt lat="14.411098236967296" lon="120.97529590144914"><ele>28.0</ele><time>2026-04-21T08:35:53Z</time></trkpt><trkpt lat="14.411031631743102" lon="120.97535513535793"><ele>27.999999999999996</ele><time>2026-04-21T08:35:54Z</time></trkpt><trkpt lat="14.410965070934527" lon="120.97541968700637"><ele>27.999999999999996</ele><time>2026-04-21T08:35:55Z</time></trkpt><trkpt lat="14.410891409294802" lon="120.97548764543207"><ele>28.0</ele><time>2026-04-21T08:35:56Z</time></trkpt><trkpt lat="14.410821680170212" lon="120.97554195493038"><ele>28.0</ele><time>2026-04-21T08:35:57Z</time></trkpt><trkpt lat="14.410754528926423" lon="120.97559604048433"><ele>28.000000000000004</ele><time>2026-04-21T08:35:58Z</time></trkpt><trkpt lat="14.410693427620068" lon="120.9756489837305"><ele>28.0</ele><time>2026-04-21T08:35:59Z</time></trkpt><trkpt lat="14.410636848680284" lon="120.97569890159058"><ele>28.0</ele><time>2026-04-21T08:36:00Z</time></trkpt><trkpt lat="14.410581642210834" lon="120.97574519010718"><ele>28.0</ele><time>2026-04-21T08:36:01Z</time></trkpt><trkpt lat="14.410489989121668" lon="120.9758261402053"><ele>28.000000000000004</ele><time>2026-04-21T08:36:03Z</time></trkpt><trkpt lat="14.410441034945647" lon="120.97586959817298"><ele>28.0</ele><time>2026-04-21T08:36:04Z</time></trkpt><trkpt lat="14.410388438333717" lon="120.97591580345043"><ele>28.333333333333336</ele><time>2026-04-21T08:36:05Z</time></trkpt><trkpt lat="14.410327057120297" lon="120.97596900053605"><ele>28.666666666666668</ele><time>2026-04-21T08:36:06Z</time></trkpt><trkpt lat="14.410260266037676" lon="120.9760280011287"><ele>29.0</ele><time>2026-04-21T08:36:07Z</time></trkpt><trkpt lat="14.410201524256248" lon="120.97608032747803"><ele>29.333333333333336</ele><time>2026-04-21T08:36:08Z</time></trkpt><trkpt lat="14.41014807079162" lon="120.97612683639689"><ele>29.666666666666668</ele><time>2026-04-21T08:36:09.001Z</time></trkpt><trkpt lat="14.410089017024802" lon="120.97617784149435"><ele>30.0</ele><time>2026-04-21T08:36:10.001Z</time></trkpt><trkpt lat="14.410029235354928" lon="120.97622845106044"><ele>30.0</ele><time>2026-04-21T08:36:11.001Z</time></trkpt><trkpt lat="14.409967668382317" lon="120.97628294388953"><ele>30.0</ele><time>2026-04-21T08:36:12.001Z</time></trkpt><trkpt lat="14.409903380390585" lon="120.97634339060873"><ele>30.0</ele><time>2026-04-21T08:36:13.001Z</time></trkpt><trkpt lat="14.409838599380755" lon="120.97640370651003"><ele>30.0</ele><time>2026-04-21T08:36:14.001Z</time></trkpt><trkpt lat="14.409774766445691" lon="120.97646648762789"><ele>30.0</ele><time>2026-04-21T08:36:15.001Z</time></trkpt><trkpt lat="14.409712641987056" lon="120.97652459545108"><ele>30.0</ele><time>2026-04-21T08:36:16.001Z</time></trkpt><trkpt lat="14.409662741330482" lon="120.97657185085012"><ele>30.4</ele><time>2026-04-21T08:36:17.001Z</time></trkpt><trkpt lat="14.409558251560066" lon="120.97667260427508"><ele>30.8</ele><time>2026-04-21T08:36:19.001Z</time></trkpt><trkpt lat="14.409492206466936" lon="120.97673893807655"><ele>31.200000000000003</ele><time>2026-04-21T08:36:20.001Z</time></trkpt><trkpt lat="14.409415260393844" lon="120.97680965189136"><ele>31.6</ele><time>2026-04-21T08:36:21.001Z</time></trkpt><trkpt lat="14.409337218637967" lon="120.97687703378494"><ele>32.0</ele><time>2026-04-21T08:36:22.001Z</time></trkpt><trkpt lat="14.409258739132218" lon="120.97694523332584"><ele>31.999999999999996</ele><time>2026-04-21T08:36:23.001Z</time></trkpt><trkpt lat="14.409195509355806" lon="120.97700998979664"><ele>32.0</ele><time>2026-04-21T08:36:24.001Z</time></trkpt><trkpt lat="14.409142211897858" lon="120.97706585612286"><ele>32.0</ele><time>2026-04-21T08:36:25.001Z</time></trkpt><trkpt lat="14.40908336657176" lon="120.97711914559082"><ele>32.0</ele><time>2026-04-21T08:36:26.001Z</time></trkpt><trkpt lat="14.409016375770856" lon="120.97718209681587"><ele>31.999999999999996</ele><time>2026-04-21T08:36:27.001Z</time></trkpt><trkpt lat="14.40894303925815" lon="120.97724469922225"><ele>32.0</ele><time>2026-04-21T08:36:28.001Z</time></trkpt><trkpt lat="14.408864559345947" lon="120.97731620659772"><ele>32.6</ele><time>2026-04-21T08:36:29.001Z</time></trkpt><trkpt lat="14.408786599911476" lon="120.97738833619447"><ele>33.2</ele><time>2026-04-21T08:36:30.001Z</time></trkpt><trkpt lat="14.408709157915569" lon="120.97745855694122"><ele>33.8</ele><time>2026-04-21T08:36:31.001Z</time></trkpt><trkpt lat="14.40863900533281" lon="120.97751180662262"><ele>34.4</ele><time>2026-04-21T08:36:32.001Z</time></trkpt><trkpt lat="14.408567003398657" lon="120.97757009750022"><ele>35.0</ele><time>2026-04-21T08:36:33.001Z</time></trkpt><trkpt lat="14.408514797196565" lon="120.97760838057741"><ele>33.8</ele><time>2026-04-21T08:36:34.001Z</time></trkpt><trkpt lat="14.408431914227583" lon="120.97763670875126"><ele>32.6</ele><time>2026-04-21T08:36:36.001Z</time></trkpt><trkpt lat="14.408315668966813" lon="120.97769584860535"><ele>31.4</ele><time>2026-04-21T08:36:38.001Z</time></trkpt><trkpt lat="14.408242254634398" lon="120.97771635514688"><ele>30.2</ele><time>2026-04-21T08:36:39.001Z</time></trkpt><trkpt lat="14.408157416068306" lon="120.97772337877234"><ele>29.0</ele><time>2026-04-21T08:36:40.001Z</time></trkpt><trkpt lat="14.408067090826503" lon="120.97771980258513"><ele>29.2</ele><time>2026-04-21T08:36:41.001Z</time></trkpt><trkpt lat="14.407958860924047" lon="120.97772012750818"><ele>29.4</ele><time>2026-04-21T08:36:42.001Z</time></trkpt><trkpt lat="14.407856839932323" lon="120.97772014879874"><ele>29.6</ele><time>2026-04-21T08:36:43.001Z</time></trkpt><trkpt lat="14.407768056445356" lon="120.9777200649719"><ele>29.8</ele><time>2026-04-21T08:36:44.001Z</time></trkpt><trkpt lat="14.407702128823452" lon="120.97772214604747"><ele>30.0</ele><time>2026-04-21T08:36:45.001Z</time></trkpt><trkpt lat="14.40759871358409" lon="120.97771603128562"><ele>30.0</ele><time>2026-04-21T08:36:47.001Z</time></trkpt><trkpt lat="14.407479759605483" lon="120.97769061848906"><ele>30.0</ele><time>2026-04-21T08:36:49.001Z</time></trkpt><trkpt lat="14.407376382523928" lon="120.97766657473629"><ele>30.0</ele><time>2026-04-21T08:36:51.001Z</time></trkpt><trkpt lat="14.40729664602309" lon="120.97764217725559"><ele>30.0</ele><time>2026-04-21T08:36:53.001Z</time></trkpt><trkpt lat="14.407232307258472" lon="120.9776368328275"><ele>30.0</ele><time>2026-04-21T08:36:56.001Z</time></trkpt><trkpt lat="14.407153199391908" lon="120.97762404335752"><ele>30.285714285714285</ele><time>2026-04-21T08:36:59.001Z</time></trkpt><trkpt lat="14.407079413330777" lon="120.97761636518803"><ele>30.57142857142857</ele><time>2026-04-21T08:37:04.001Z</time></trkpt><trkpt lat="14.407014298304514" lon="120.97761621095647"><ele>30.857142857142854</ele><time>2026-04-21T08:37:55Z</time></trkpt><trkpt lat="14.406949654925711" lon="120.97761147757525"><ele>31.142857142857142</ele><time>2026-04-21T08:37:57Z</time></trkpt><trkpt lat="14.406876210235668" lon="120.97761202838025"><ele>31.428571428571423</ele><time>2026-04-21T08:38:01Z</time></trkpt><trkpt lat="14.406799681759681" lon="120.9776220180772"><ele>31.71428571428571</ele><time>2026-04-21T08:38:04Z</time></trkpt><trkpt lat="14.4067082736795" lon="120.97762797645396"><ele>32.0</ele><time>2026-04-21T08:38:06Z</time></trkpt><trkpt lat="14.406605455598081" lon="120.97762461890859"><ele>31.999999999999996</ele><time>2026-04-21T08:38:08Z</time></trkpt><trkpt lat="14.406529126862772" lon="120.97762211750914"><ele>32.0</ele><time>2026-04-21T08:38:10Z</time></trkpt><trkpt lat="14.406458706031618" lon="120.9776292887064"><ele>32.0</ele><time>2026-04-21T08:38:12Z</time></trkpt><trkpt lat="14.40634116884925" lon="120.9776311428421"><ele>32.0</ele><time>2026-04-21T08:38:14Z</time></trkpt><trkpt lat="14.406267568884259" lon="120.97763430129669"><ele>31.999999999999996</ele><time>2026-04-21T08:38:15Z</time></trkpt><trkpt lat="14.406193262490591" lon="120.97763422534514"><ele>32.0</ele><time>2026-04-21T08:38:16Z</time></trkpt><trkpt lat="14.406064049657761" lon="120.9776152507424"><ele>32.800000000000004</ele><time>2026-04-21T08:38:18.001Z</time></trkpt><trkpt lat="14.405969284713125" lon="120.97759301581665"><ele>33.6</ele><time>2026-04-21T08:38:20.001Z</time></trkpt><trkpt lat="14.405846538435412" lon="120.97753852293587"><ele>34.400000000000006</ele><time>2026-04-21T08:38:22.001Z</time></trkpt><trkpt lat="14.405769742018487" lon="120.97749404744808"><ele>35.2</ele><time>2026-04-21T08:38:24.001Z</time></trkpt><trkpt lat="14.405690597789384" lon="120.9774586516682"><ele>36.0</ele><time>2026-04-21T08:38:26.001Z</time></trkpt><trkpt lat="14.405587373879081" lon="120.9774192362994"><ele>36.4</ele><time>2026-04-21T08:38:28.001Z</time></trkpt><trkpt lat="14.405514768449232" lon="120.9773920586909"><ele>36.8</ele><time>2026-04-21T08:38:29.001Z</time></trkpt><trkpt lat="14.405382885536898" lon="120.97734647538644"><ele>37.199999999999996</ele><time>2026-04-21T08:38:31.001Z</time></trkpt><trkpt lat="14.405309377628058" lon="120.97731771064514"><ele>37.6</ele><time>2026-04-21T08:38:32.001Z</time></trkpt><trkpt lat="14.40522907956245" lon="120.97728426544299"><ele>38.0</ele><time>2026-04-21T08:38:33.001Z</time></trkpt><trkpt lat="14.405156176325397" lon="120.97724690906149"><ele>38.0</ele><time>2026-04-21T08:38:34.001Z</time></trkpt><trkpt lat="14.405093279382537" lon="120.97721669090063"><ele>38.0</ele><time>2026-04-21T08:38:35.001Z</time></trkpt><trkpt lat="14.404994856800824" lon="120.97716440833385"><ele>38.0</ele><time>2026-04-21T08:38:37.001Z</time></trkpt><trkpt lat="14.404885792009281" lon="120.9771115597939"><ele>38.0</ele><time>2026-04-21T08:38:39.001Z</time></trkpt><trkpt lat="14.404772571954126" lon="120.97707289464903"><ele>38.0</ele><time>2026-04-21T08:38:41.001Z</time></trkpt><trkpt lat="14.404704745178684" lon="120.97705110102821"><ele>38.166666666666664</ele><time>2026-04-21T08:38:42.001Z</time></trkpt><trkpt lat="14.404636218738087" lon="120.97703081541661"><ele>38.33333333333333</ele><time>2026-04-21T08:38:43.001Z</time></trkpt><trkpt lat="14.404561912666821" lon="120.97701378517628"><ele>38.5</ele><time>2026-04-21T08:38:44.001Z</time></trkpt><trkpt lat="14.404476225106833" lon="120.9769984383406"><ele>38.666666666666664</ele><time>2026-04-21T08:38:45.001Z</time></trkpt><trkpt lat="14.404384081683128" lon="120.97698611815814"><ele>38.833333333333336</ele><time>2026-04-21T08:38:46.001Z</time></trkpt><trkpt lat="14.404281381240715" lon="120.97696741724562"><ele>39.0</ele><time>2026-04-21T08:38:47.001Z</time></trkpt><trkpt lat="14.404169461870913" lon="120.97694288733003"><ele>39.0</ele><time>2026-04-21T08:38:48.001Z</time></trkpt><trkpt lat="14.404046759811083" lon="120.97693981895463"><ele>39.0</ele><time>2026-04-21T08:38:49.001Z</time></trkpt><trkpt lat="14.403936447801062" lon="120.97694251108025"><ele>39.0</ele><time>2026-04-21T08:38:50.001Z</time></trkpt><trkpt lat="14.403837299342182" lon="120.97695432151059"><ele>39.0</ele><time>2026-04-21T08:38:51.001Z</time></trkpt><trkpt lat="14.403742935056504" lon="120.9769695683882"><ele>39.0</ele><time>2026-04-21T08:38:52.001Z</time></trkpt><trkpt lat="14.403657193932574" lon="120.9769867129513"><ele>37.8</ele><time>2026-04-21T08:38:53.001Z</time></trkpt><trkpt lat="14.40357351847531" lon="120.97700217263116"><ele>36.599999999999994</ele><time>2026-04-21T08:38:54.001Z</time></trkpt><trkpt lat="14.40348184098755" lon="120.9770163909337"><ele>35.4</ele><time>2026-04-21T08:38:55.001Z</time></trkpt><trkpt lat="14.403390505319978" lon="120.97702912392121"><ele>34.199999999999996</ele><time>2026-04-21T08:38:56.001Z</time></trkpt><trkpt lat="14.403286661276018" lon="120.97704213780966"><ele>33.0</ele><time>2026-04-21T08:38:57.001Z</time></trkpt><trkpt lat="14.40317317973553" lon="120.97705572270328"><ele>33.0</ele><time>2026-04-21T08:38:58.001Z</time></trkpt><trkpt lat="14.403060574953951" lon="120.97707343150839"><ele>33.0</ele><time>2026-04-21T08:38:59.001Z</time></trkpt><trkpt lat="14.402960654594219" lon="120.97708298687805"><ele>33.0</ele><time>2026-04-21T08:39:00.001Z</time></trkpt><trkpt lat="14.402875082336424" lon="120.97708809290332"><ele>33.0</ele><time>2026-04-21T08:39:01.001Z</time></trkpt><trkpt lat="14.402783459759373" lon="120.97709240010501"><ele>33.0</ele><time>2026-04-21T08:39:02.001Z</time></trkpt><trkpt lat="14.402678409118872" lon="120.97709311184298"><ele>33.5</ele><time>2026-04-21T08:39:03.001Z</time></trkpt><trkpt lat="14.402572651555808" lon="120.97708611336681"><ele>34.0</ele><time>2026-04-21T08:39:04.001Z</time></trkpt><trkpt lat="14.40246325465142" lon="120.9770731685486"><ele>34.5</ele><time>2026-04-21T08:39:05.001Z</time></trkpt><trkpt lat="14.402341185449234" lon="120.97706671271918"><ele>35.0</ele><time>2026-04-21T08:39:06.001Z</time></trkpt><trkpt lat="14.402206335245062" lon="120.97706681578613"><ele>35.25</ele><time>2026-04-21T08:39:07.001Z</time></trkpt><trkpt lat="14.402071032259329" lon="120.97706645567153"><ele>35.5</ele><time>2026-04-21T08:39:08.001Z</time></trkpt><trkpt lat="14.401932114514896" lon="120.97707073353179"><ele>35.75</ele><time>2026-04-21T08:39:09.001Z</time></trkpt><trkpt lat="14.401790193149964" lon="120.97708024173417"><ele>36.0</ele><time>2026-04-21T08:39:10.001Z</time></trkpt><trkpt lat="14.401641878754315" lon="120.97710274132412"><ele>36.0</ele><time>2026-04-21T08:39:11.001Z</time></trkpt><trkpt lat="14.401500684289587" lon="120.97712933326089"><ele>36.0</ele><time>2026-04-21T08:39:12.001Z</time></trkpt><trkpt lat="14.40136087060412" lon="120.97715790434412"><ele>36.0</ele><time>2026-04-21T08:39:13.001Z</time></trkpt><trkpt lat="14.401219985116423" lon="120.97718506824091"><ele>36.0</ele><time>2026-04-21T08:39:14.001Z</time></trkpt><trkpt lat="14.401085404375264" lon="120.97721134334019"><ele>36.0</ele><time>2026-04-21T08:39:15.001Z</time></trkpt><trkpt lat="14.40095469053615" lon="120.97724004237558"><ele>36.0</ele><time>2026-04-21T08:39:16.001Z</time></trkpt><trkpt lat="14.40083493405496" lon="120.97727005290677"><ele>36.0</ele><time>2026-04-21T08:39:17.001Z</time></trkpt><trkpt lat="14.40073070676974" lon="120.97729255861861"><ele>36.0</ele><time>2026-04-21T08:39:18.001Z</time></trkpt><trkpt lat="14.400630087997566" lon="120.9773141209256"><ele>36.0</ele><time>2026-04-21T08:39:19.001Z</time></trkpt><trkpt lat="14.400537238839991" lon="120.97732729297377"><ele>36.0</ele><time>2026-04-21T08:39:20.001Z</time></trkpt><trkpt lat="14.400445806895418" lon="120.97734082209196"><ele>36.0</ele><time>2026-04-21T08:39:21.001Z</time></trkpt><trkpt lat="14.40035325208117" lon="120.97735919655346"><ele>36.0</ele><time>2026-04-21T08:39:22.001Z</time></trkpt><trkpt lat="14.400274014450915" lon="120.97737698482635"><ele>36.0</ele><time>2026-04-21T08:39:23.001Z</time></trkpt><trkpt lat="14.400198149754049" lon="120.97739229620022"><ele>36.0</ele><time>2026-04-21T08:39:24.001Z</time></trkpt><trkpt lat="14.400124041032287" lon="120.97740758068225"><ele>36.166666666666664</ele><time>2026-04-21T08:39:25.001Z</time></trkpt><trkpt lat="14.400055354042006" lon="120.97742152527506"><ele>36.333333333333336</ele><time>2026-04-21T08:39:26.001Z</time></trkpt><trkpt lat="14.399935900002788" lon="120.97744774047709"><ele>36.5</ele><time>2026-04-21T08:39:28Z</time></trkpt><trkpt lat="14.399869452573503" lon="120.97746175401019"><ele>36.66666666666667</ele><time>2026-04-21T08:39:29Z</time></trkpt><trkpt lat="14.399805224753658" lon="120.97747422691803"><ele>36.833333333333336</ele><time>2026-04-21T08:39:30Z</time></trkpt><trkpt lat="14.399728855266432" lon="120.97749263990761"><ele>37.0</ele><time>2026-04-21T08:39:31Z</time></trkpt><trkpt lat="14.39965328921221" lon="120.97750868412464"><ele>37.0</ele><time>2026-04-21T08:39:32Z</time></trkpt><trkpt lat="14.399564230258594" lon="120.97753252230125"><ele>37.0</ele><time>2026-04-21T08:39:33Z</time></trkpt><trkpt lat="14.399489676355882" lon="120.97755192547757"><ele>37.0</ele><time>2026-04-21T08:39:34Z</time></trkpt><trkpt lat="14.399423264795379" lon="120.97756570364751"><ele>37.0</ele><time>2026-04-21T08:39:35Z</time></trkpt><trkpt lat="14.399329558431734" lon="120.97758427815698"><ele>37.0</ele><time>2026-04-21T08:39:37Z</time></trkpt><trkpt lat="14.399259074263195" lon="120.97759843512311"><ele>37.0</ele><time>2026-04-21T08:39:41Z</time></trkpt><trkpt lat="14.399181845666813" lon="120.97761758381755"><ele>37.0</ele><time>2026-04-21T08:39:44Z</time></trkpt><trkpt lat="14.39909171036161" lon="120.97764174326848"><ele>37.0</ele><time>2026-04-21T08:39:47Z</time></trkpt><trkpt lat="14.399013137334956" lon="120.97767553793362"><ele>37.0</ele><time>2026-04-21T08:39:49Z</time></trkpt><trkpt lat="14.398916352839215" lon="120.97770982223183"><ele>37.0</ele><time>2026-04-21T08:39:51Z</time></trkpt><trkpt lat="14.398849678645279" lon="120.9777255211034"><ele>37.0</ele><time>2026-04-21T08:39:52Z</time></trkpt><trkpt lat="14.39877253289878" lon="120.97774199599642"><ele>37.0</ele><time>2026-04-21T08:39:53Z</time></trkpt><trkpt lat="14.398698121531703" lon="120.97775567812263"><ele>37.0</ele><time>2026-04-21T08:39:54Z</time></trkpt><trkpt lat="14.398633782882197" lon="120.9777632939223"><ele>37.0</ele><time>2026-04-21T08:39:55Z</time></trkpt><trkpt lat="14.398567592673226" lon="120.97777422222188"><ele>37.0</ele><time>2026-04-21T08:39:56Z</time></trkpt><trkpt lat="14.39849219110147" lon="120.97778590470644"><ele>37.0</ele><time>2026-04-21T08:39:57Z</time></trkpt><trkpt lat="14.398409600217395" lon="120.97779465533229"><ele>37.0</ele><time>2026-04-21T08:39:58Z</time></trkpt><trkpt lat="14.398343423455184" lon="120.97780241022193"><ele>37.0</ele><time>2026-04-21T08:39:59Z</time></trkpt><trkpt lat="14.398253956513384" lon="120.97780637101354"><ele>37.0</ele><time>2026-04-21T08:40:00Z</time></trkpt><trkpt lat="14.398158613957653" lon="120.97780665751259"><ele>37.0</ele><time>2026-04-21T08:40:01Z</time></trkpt><trkpt lat="14.398079777253637" lon="120.97779993687973"><ele>37.0</ele><time>2026-04-21T08:40:02Z</time></trkpt><trkpt lat="14.397999414481307" lon="120.97779872698824"><ele>37.0</ele><time>2026-04-21T08:40:03Z</time></trkpt><trkpt lat="14.397918092516138" lon="120.97779683079095"><ele>37.0</ele><time>2026-04-21T08:40:04Z</time></trkpt><trkpt lat="14.397843369208386" lon="120.97778844648926"><ele>37.0</ele><time>2026-04-21T08:40:05Z</time></trkpt><trkpt lat="14.397764095709219" lon="120.97778006688561"><ele>37.0</ele><time>2026-04-21T08:40:06Z</time></trkpt><trkpt lat="14.39768376003678" lon="120.97777582611637"><ele>37.333333333333336</ele><time>2026-04-21T08:40:07Z</time></trkpt><trkpt lat="14.397596404366142" lon="120.97777858033523"><ele>37.66666666666667</ele><time>2026-04-21T08:40:08Z</time></trkpt><trkpt lat="14.397505080429504" lon="120.97777914417635"><ele>38.0</ele><time>2026-04-21T08:40:09Z</time></trkpt><trkpt lat="14.397423254266771" lon="120.97777377744123"><ele>38.333333333333336</ele><time>2026-04-21T08:40:10Z</time></trkpt><trkpt lat="14.397331226176721" lon="120.9777701486361"><ele>38.666666666666664</ele><time>2026-04-21T08:40:11Z</time></trkpt><trkpt lat="14.397258251980308" lon="120.97776890788056"><ele>39.0</ele><time>2026-04-21T08:40:12Z</time></trkpt><trkpt lat="14.39718081461519" lon="120.97776702577673"><ele>39.0</ele><time>2026-04-21T08:40:13Z</time></trkpt><trkpt lat="14.397110972243725" lon="120.97776451720495"><ele>39.0</ele><time>2026-04-21T08:40:14Z</time></trkpt><trkpt lat="14.397047155173004" lon="120.97776809620744"><ele>39.0</ele><time>2026-04-21T08:40:15Z</time></trkpt><trkpt lat="14.39697963035369" lon="120.97776423569164"><ele>39.0</ele><time>2026-04-21T08:40:16.001Z</time></trkpt><trkpt lat="14.396910680576124" lon="120.97775837526626"><ele>39.0</ele><time>2026-04-21T08:40:17.001Z</time></trkpt><trkpt lat="14.396821763188791" lon="120.97775578695382"><ele>39.0</ele><time>2026-04-21T08:40:18.001Z</time></trkpt><trkpt lat="14.396729920095465" lon="120.97775333058347"><ele>39.0</ele><time>2026-04-21T08:40:19.001Z</time></trkpt><trkpt lat="14.396642466722739" lon="120.97775162031517"><ele>39.0</ele><time>2026-04-21T08:40:20.001Z</time></trkpt><trkpt lat="14.396544062646877" lon="120.9777524300371"><ele>39.0</ele><time>2026-04-21T08:40:21.001Z</time></trkpt><trkpt lat="14.39645084654617" lon="120.97775655429396"><ele>39.0</ele><time>2026-04-21T08:40:22.001Z</time></trkpt><trkpt lat="14.396363684452435" lon="120.97775951130244"><ele>39.0</ele><time>2026-04-21T08:40:23.001Z</time></trkpt><trkpt lat="14.396281975587256" lon="120.97776392424707"><ele>39.0</ele><time>2026-04-21T08:40:24.001Z</time></trkpt><trkpt lat="14.396194316463536" lon="120.97775576482296"><ele>39.5</ele><time>2026-04-21T08:40:25.001Z</time></trkpt><trkpt lat="14.396100508083913" lon="120.97774502032908"><ele>40.0</ele><time>2026-04-21T08:40:26.001Z</time></trkpt><trkpt lat="14.39600256027355" lon="120.97773919984638"><ele>40.5</ele><time>2026-04-21T08:40:27.001Z</time></trkpt><trkpt lat="14.395907217012455" lon="120.97773605629891"><ele>41.0</ele><time>2026-04-21T08:40:28.001Z</time></trkpt><trkpt lat="14.395822209624308" lon="120.97773346616312"><ele>41.5</ele><time>2026-04-21T08:40:29.001Z</time></trkpt><trkpt lat="14.395748575654318" lon="120.97773147341849"><ele>42.0</ele><time>2026-04-21T08:40:30.001Z</time></trkpt><trkpt lat="14.39567538523436" lon="120.97773045076222"><ele>42.0</ele><time>2026-04-21T08:40:31.001Z</time></trkpt><trkpt lat="14.395610667407995" lon="120.97772988150788"><ele>42.0</ele><time>2026-04-21T08:40:32.001Z</time></trkpt><trkpt lat="14.395489913064381" lon="120.97772232972679"><ele>42.0</ele><time>2026-04-21T08:40:34.001Z</time></trkpt><trkpt lat="14.39542500151619" lon="120.97771696787244"><ele>42.0</ele><time>2026-04-21T08:40:35.001Z</time></trkpt><trkpt lat="14.395352952968738" lon="120.97770634145104"><ele>42.0</ele><time>2026-04-21T08:40:36.001Z</time></trkpt><trkpt lat="14.395277559776952" lon="120.97770158783986"><ele>42.0</ele><time>2026-04-21T08:40:37.001Z</time></trkpt><trkpt lat="14.395208493196405" lon="120.97770627414147"><ele>41.4</ele><time>2026-04-21T08:40:38.001Z</time></trkpt><trkpt lat="14.395126774875898" lon="120.97771555219218"><ele>40.800000000000004</ele><time>2026-04-21T08:40:39.001Z</time></trkpt><trkpt lat="14.395043901575889" lon="120.97772973995774"><ele>40.2</ele><time>2026-04-21T08:40:40.001Z</time></trkpt><trkpt lat="14.39494235248383" lon="120.97773414818683"><ele>39.6</ele><time>2026-04-21T08:40:41.001Z</time></trkpt><trkpt lat="14.394840615620005" lon="120.97772888070722"><ele>39.0</ele><time>2026-04-21T08:40:42.001Z</time></trkpt><trkpt lat="14.394734379606446" lon="120.97772161819836"><ele>39.0</ele><time>2026-04-21T08:40:43.001Z</time></trkpt><trkpt lat="14.394639937788407" lon="120.97771597168948"><ele>39.0</ele><time>2026-04-21T08:40:44.001Z</time></trkpt><trkpt lat="14.394558599352791" lon="120.97771342968139"><ele>39.0</ele><time>2026-04-21T08:40:45.001Z</time></trkpt><trkpt lat="14.394477596142112" lon="120.97770956996276"><ele>39.0</ele><time>2026-04-21T08:40:46.001Z</time></trkpt><trkpt lat="14.394410843707721" lon="120.9777076080613"><ele>39.0</ele><time>2026-04-21T08:40:47.001Z</time></trkpt><trkpt lat="14.394342909150259" lon="120.97770539345473"><ele>39.0</ele><time>2026-04-21T08:40:48.001Z</time></trkpt><trkpt lat="14.39426842451407" lon="120.97770305864255"><ele>39.0</ele><time>2026-04-21T08:40:49.001Z</time></trkpt><trkpt lat="14.394182749602264" lon="120.9777035315196"><ele>39.0</ele><time>2026-04-21T08:40:50.001Z</time></trkpt><trkpt lat="14.394101441268559" lon="120.97770364400147"><ele>39.0</ele><time>2026-04-21T08:40:51.001Z</time></trkpt><trkpt lat="14.394013693269862" lon="120.9777000834907"><ele>39.0</ele><time>2026-04-21T08:40:52.001Z</time></trkpt><trkpt lat="14.39392603671575" lon="120.9776955669097"><ele>39.0</ele><time>2026-04-21T08:40:53.001Z</time></trkpt><trkpt lat="14.393835458559908" lon="120.97769387272443"><ele>39.0</ele><time>2026-04-21T08:40:54.001Z</time></trkpt><trkpt lat="14.393745195901413" lon="120.97769276245039"><ele>39.0</ele><time>2026-04-21T08:40:55.001Z</time></trkpt><trkpt lat="14.393662455259735" lon="120.97769196213582"><ele>39.0</ele><time>2026-04-21T08:40:56.001Z</time></trkpt><trkpt lat="14.393584130691645" lon="120.9776918510999"><ele>39.0</ele><time>2026-04-21T08:40:57.001Z</time></trkpt><trkpt lat="14.3935017583756" lon="120.97769129351595"><ele>39.0</ele><time>2026-04-21T08:40:58.001Z</time></trkpt><trkpt lat="14.393420572331815" lon="120.97769278694645"><ele>39.0</ele><time>2026-04-21T08:40:59.001Z</time></trkpt><trkpt lat="14.393346361417711" lon="120.97769395114906"><ele>39.0</ele><time>2026-04-21T08:41:00.001Z</time></trkpt><trkpt lat="14.393281693574798" lon="120.97769725665714"><ele>39.0</ele><time>2026-04-21T08:41:01.001Z</time></trkpt><trkpt lat="14.393181669992883" lon="120.97770028041347"><ele>39.0</ele><time>2026-04-21T08:41:03.001Z</time></trkpt><trkpt lat="14.393078375304183" lon="120.97769911343552"><ele>39.0</ele><time>2026-04-21T08:41:05.001Z</time></trkpt><trkpt lat="14.392974783831312" lon="120.97769538578306"><ele>39.0</ele><time>2026-04-21T08:41:07.001Z</time></trkpt><trkpt lat="14.392895589074113" lon="120.97769185124392"><ele>39.0</ele><time>2026-04-21T08:41:09.001Z</time></trkpt><trkpt lat="14.392814837213576" lon="120.97769473983776"><ele>39.6</ele><time>2026-04-21T08:41:12.001Z</time></trkpt><trkpt lat="14.392733225717269" lon="120.97769282773665"><ele>40.2</ele><time>2026-04-21T08:41:15.001Z</time></trkpt><trkpt lat="14.392637935575586" lon="120.97768921095395"><ele>40.800000000000004</ele><time>2026-04-21T08:41:17.001Z</time></trkpt><trkpt lat="14.392521172093495" lon="120.97768871343045"><ele>41.4</ele><time>2026-04-21T08:41:19.001Z</time></trkpt><trkpt lat="14.392422607332417" lon="120.97768738696391"><ele>42.0</ele><time>2026-04-21T08:41:21.001Z</time></trkpt><trkpt lat="14.39236209878293" lon="120.97771575163914"><ele>42.0</ele><time>2026-04-21T08:41:23.001Z</time></trkpt><trkpt lat="14.392338675184662" lon="120.97778871066478"><ele>42.0</ele><time>2026-04-21T08:41:25.001Z</time></trkpt><trkpt lat="14.39234717416417" lon="120.97786797774621"><ele>42.0</ele><time>2026-04-21T08:41:26.001Z</time></trkpt><trkpt lat="14.392353498592021" lon="120.9779495365791"><ele>42.0</ele><time>2026-04-21T08:41:27.001Z</time></trkpt><trkpt lat="14.392394209532137" lon="120.97805664808438"><ele>42.0</ele><time>2026-04-21T08:41:29.001Z</time></trkpt><trkpt lat="14.392409543055335" lon="120.97814594244105"><ele>42.0</ele><time>2026-04-21T08:41:30.001Z</time></trkpt><trkpt lat="14.39242733340574" lon="120.97823860061662"><ele>42.0</ele><time>2026-04-21T08:41:31.001Z</time></trkpt><trkpt lat="14.392443718443293" lon="120.97833581942812"><ele>42.0</ele><time>2026-04-21T08:41:32.001Z</time></trkpt><trkpt lat="14.392458571908321" lon="120.97843834926216"><ele>42.0</ele><time>2026-04-21T08:41:33.001Z</time></trkpt><trkpt lat="14.39247027906558" lon="120.9785391239599"><ele>42.0</ele><time>2026-04-21T08:41:34Z</time></trkpt><trkpt lat="14.392479144770476" lon="120.97862952719215"><ele>42.0</ele><time>2026-04-21T08:41:35Z</time></trkpt><trkpt lat="14.392474007436439" lon="120.97871675394468"><ele>41.5</ele><time>2026-04-21T08:41:36Z</time></trkpt><trkpt lat="14.392450042936106" lon="120.97879362594738"><ele>41.0</ele><time>2026-04-21T08:41:37Z</time></trkpt><trkpt lat="14.392403739816205" lon="120.97885294549587"><ele>40.5</ele><time>2026-04-21T08:41:38Z</time></trkpt><trkpt lat="14.392341257713221" lon="120.97888847749648"><ele>40.0</ele><time>2026-04-21T08:41:39Z</time></trkpt><trkpt lat="14.392261861593425" lon="120.97890276000624"><ele>39.5</ele><time>2026-04-21T08:41:40Z</time></trkpt><trkpt lat="14.392175541930486" lon="120.97889732184599"><ele>39.0</ele><time>2026-04-21T08:41:41Z</time></trkpt><trkpt lat="14.392085391535074" lon="120.97887583898125"><ele>38.6</ele><time>2026-04-21T08:41:42Z</time></trkpt><trkpt lat="14.39199085481716" lon="120.97884806213202"><ele>38.2</ele><time>2026-04-21T08:41:43Z</time></trkpt><trkpt lat="14.391900822139883" lon="120.97882092737692"><ele>37.800000000000004</ele><time>2026-04-21T08:41:44Z</time></trkpt><trkpt lat="14.39180348138862" lon="120.97879110616908"><ele>37.4</ele><time>2026-04-21T08:41:45Z</time></trkpt><trkpt lat="14.391702930526163" lon="120.97875838003486"><ele>37.0</ele><time>2026-04-21T08:41:46Z</time></trkpt><trkpt lat="14.391601295012292" lon="120.97872698244335"><ele>37.0</ele><time>2026-04-21T08:41:47Z</time></trkpt><trkpt lat="14.391503904627927" lon="120.97870018955261"><ele>37.0</ele><time>2026-04-21T08:41:48Z</time></trkpt><trkpt lat="14.391414918839587" lon="120.97868234066212"><ele>37.0</ele><time>2026-04-21T08:41:49Z</time></trkpt><trkpt lat="14.391334589257944" lon="120.97866807951192"><ele>37.0</ele><time>2026-04-21T08:41:50Z</time></trkpt><trkpt lat="14.391252259875557" lon="120.97866030500904"><ele>37.0</ele><time>2026-04-21T08:41:51Z</time></trkpt><trkpt lat="14.391178045689355" lon="120.97867093251244"><ele>37.0</ele><time>2026-04-21T08:41:52Z</time></trkpt><trkpt lat="14.391107180402663" lon="120.97869953844769"><ele>37.0</ele><time>2026-04-21T08:41:53Z</time></trkpt><trkpt lat="14.391039991946503" lon="120.97875212550554"><ele>37.0</ele><time>2026-04-21T08:41:54Z</time></trkpt><trkpt lat="14.390982712035306" lon="120.97881898055645"><ele>37.0</ele><time>2026-04-21T08:41:55Z</time></trkpt><trkpt lat="14.39093060146503" lon="120.97889575550141"><ele>37.0</ele><time>2026-04-21T08:41:56Z</time></trkpt><trkpt lat="14.390877619878319" lon="120.97897571489818"><ele>37.0</ele><time>2026-04-21T08:41:57Z</time></trkpt><trkpt lat="14.390824580681775" lon="120.97906874307986"><ele>37.0</ele><time>2026-04-21T08:41:58Z</time></trkpt><trkpt lat="14.390761956014925" lon="120.97915972138259"><ele>37.0</ele><time>2026-04-21T08:41:59Z</time></trkpt><trkpt lat="14.390694783008948" lon="120.97924757441146"><ele>37.0</ele><time>2026-04-21T08:42:00Z</time></trkpt><trkpt lat="14.390627922328973" lon="120.97933049883757"><ele>37.0</ele><time>2026-04-21T08:42:01Z</time></trkpt><trkpt lat="14.390557521053791" lon="120.97940690075346"><ele>37.0</ele><time>2026-04-21T08:42:02Z</time></trkpt><trkpt lat="14.390469653803661" lon="120.97947297713722"><ele>37.6</ele><time>2026-04-21T08:42:03Z</time></trkpt><trkpt lat="14.39037670879223" lon="120.97952340605505"><ele>38.2</ele><time>2026-04-21T08:42:04Z</time></trkpt><trkpt lat="14.39027374386873" lon="120.97956213177414"><ele>38.8</ele><time>2026-04-21T08:42:05Z</time></trkpt><trkpt lat="14.390165844527521" lon="120.97959815216824"><ele>39.4</ele><time>2026-04-21T08:42:06Z</time></trkpt><trkpt lat="14.390062995282268" lon="120.97963409427042"><ele>40.0</ele><time>2026-04-21T08:42:07Z</time></trkpt><trkpt lat="14.389959378641176" lon="120.97967274158198"><ele>40.0</ele><time>2026-04-21T08:42:08Z</time></trkpt><trkpt lat="14.38985383049315" lon="120.97971194511936"><ele>40.0</ele><time>2026-04-21T08:42:09Z</time></trkpt><trkpt lat="14.389755195583948" lon="120.97975582621956"><ele>40.0</ele><time>2026-04-21T08:42:10Z</time></trkpt><trkpt lat="14.389669673918029" lon="120.97981714048066"><ele>40.0</ele><time>2026-04-21T08:42:11Z</time></trkpt><trkpt lat="14.389599744381595" lon="120.97988091398301"><ele>40.0</ele><time>2026-04-21T08:42:12Z</time></trkpt><trkpt lat="14.389527456085926" lon="120.97993540547004"><ele>40.0</ele><time>2026-04-21T08:42:13Z</time></trkpt><trkpt lat="14.38944221285853" lon="120.97997182582407"><ele>40.0</ele><time>2026-04-21T08:42:14Z</time></trkpt><trkpt lat="14.389350310721595" lon="120.97999938046831"><ele>40.0</ele><time>2026-04-21T08:42:15Z</time></trkpt><trkpt lat="14.389255715910151" lon="120.98001816777237"><ele>40.0</ele><time>2026-04-21T08:42:16Z</time></trkpt><trkpt lat="14.389168423123115" lon="120.98001169376475"><ele>40.0</ele><time>2026-04-21T08:42:17.001Z</time></trkpt><trkpt lat="14.389086182146093" lon="120.98000070382072"><ele>40.0</ele><time>2026-04-21T08:42:18.001Z</time></trkpt><trkpt lat="14.389014203777693" lon="120.97999360385563"><ele>40.0</ele><time>2026-04-21T08:42:19.001Z</time></trkpt><trkpt lat="14.388944228982691" lon="120.97998942201117"><ele>40.0</ele><time>2026-04-21T08:42:20.001Z</time></trkpt><trkpt lat="14.388828734932394" lon="120.97999473241923"><ele>40.0</ele><time>2026-04-21T08:42:22.001Z</time></trkpt><trkpt lat="14.38875880700882" lon="120.97997878074673"><ele>40.0</ele><time>2026-04-21T08:42:24.001Z</time></trkpt><trkpt lat="14.388691669200954" lon="120.97996834929631"><ele>40.0</ele><time>2026-04-21T08:42:26.001Z</time></trkpt><trkpt lat="14.388587010357279" lon="120.97997172523328"><ele>39.8</ele><time>2026-04-21T08:42:28.001Z</time></trkpt><trkpt lat="14.388485625915633" lon="120.97998806684063"><ele>39.6</ele><time>2026-04-21T08:42:30.001Z</time></trkpt><trkpt lat="14.388423065945751" lon="120.97999749165248"><ele>39.4</ele><time>2026-04-21T08:42:31.001Z</time></trkpt><trkpt lat="14.388318851449444" lon="120.97995724024688"><ele>39.2</ele><time>2026-04-21T08:42:33.001Z</time></trkpt><trkpt lat="14.388295314631286" lon="120.97989148317517"><ele>39.0</ele><time>2026-04-21T08:42:34.001Z</time></trkpt><trkpt lat="14.388276917683433" lon="120.97977244872666"><ele>39.0</ele><time>2026-04-21T08:42:36.001Z</time></trkpt><trkpt lat="14.38825037819682" lon="120.979694351436"><ele>39.0</ele><time>2026-04-21T08:42:38.001Z</time></trkpt><trkpt lat="14.388196404926362" lon="120.97963910397071"><ele>39.0</ele><time>2026-04-21T08:42:41.001Z</time></trkpt><trkpt lat="14.388125608452912" lon="120.97962356349515"><ele>39.0</ele><time>2026-04-21T08:42:43.001Z</time></trkpt><trkpt lat="14.388053262722027" lon="120.97963241895134"><ele>39.0</ele><time>2026-04-21T08:42:45.001Z</time></trkpt><trkpt lat="14.387956894769292" lon="120.97963748319582"><ele>39.0</ele><time>2026-04-21T08:42:48.001Z</time></trkpt><trkpt lat="14.387872469294402" lon="120.97964095658074"><ele>38.6</ele><time>2026-04-21T08:42:51.001Z</time></trkpt><trkpt lat="14.387787114783434" lon="120.97964329743465"><ele>38.2</ele><time>2026-04-21T08:42:53.001Z</time></trkpt><trkpt lat="14.387669248149706" lon="120.979646955391"><ele>37.800000000000004</ele><time>2026-04-21T08:42:55.001Z</time></trkpt><trkpt lat="14.38755351552847" lon="120.97965087617739"><ele>37.4</ele><time>2026-04-21T08:42:57.001Z</time></trkpt><trkpt lat="14.38743918961454" lon="120.97965285191339"><ele>37.0</ele><time>2026-04-21T08:42:59.001Z</time></trkpt><trkpt lat="14.38737070638874" lon="120.97965322822986"><ele>37.0</ele><time>2026-04-21T08:43:00.001Z</time></trkpt><trkpt lat="14.387294684550602" lon="120.97965509014332"><ele>37.0</ele><time>2026-04-21T08:43:01.001Z</time></trkpt><trkpt lat="14.387217035623722" lon="120.97966137094926"><ele>37.0</ele><time>2026-04-21T08:43:02.001Z</time></trkpt><trkpt lat="14.387140673098331" lon="120.97966818120963"><ele>37.0</ele><time>2026-04-21T08:43:03.001Z</time></trkpt><trkpt lat="14.387060605068145" lon="120.97967116959842"><ele>37.0</ele><time>2026-04-21T08:43:04.001Z</time></trkpt><trkpt lat="14.386970649436142" lon="120.97967438556286"><ele>37.0</ele><time>2026-04-21T08:43:05.001Z</time></trkpt><trkpt lat="14.386889431472309" lon="120.97968119135142"><ele>37.5</ele><time>2026-04-21T08:43:06.001Z</time></trkpt><trkpt lat="14.386804070433813" lon="120.97968850880734"><ele>38.0</ele><time>2026-04-21T08:43:07.001Z</time></trkpt><trkpt lat="14.386719066268608" lon="120.9796974365389"><ele>38.5</ele><time>2026-04-21T08:43:08.001Z</time></trkpt><trkpt lat="14.386633924422512" lon="120.9797107754306"><ele>39.0</ele><time>2026-04-21T08:43:09.001Z</time></trkpt><trkpt lat="14.386544949595754" lon="120.97972860657421"><ele>39.5</ele><time>2026-04-21T08:43:10.001Z</time></trkpt><trkpt lat="14.38645620795294" lon="120.9797540747762"><ele>40.0</ele><time>2026-04-21T08:43:11.001Z</time></trkpt><trkpt lat="14.386376322449408" lon="120.97979192893294"><ele>40.0</ele><time>2026-04-21T08:43:12.001Z</time></trkpt><trkpt lat="14.386301635673334" lon="120.97984774897168"><ele>40.0</ele><time>2026-04-21T08:43:13.001Z</time></trkpt><trkpt lat="14.386243456497615" lon="120.97991682142128"><ele>40.0</ele><time>2026-04-21T08:43:14.001Z</time></trkpt><trkpt lat="14.386190941865427" lon="120.97999204136161"><ele>40.0</ele><time>2026-04-21T08:43:15.001Z</time></trkpt><trkpt lat="14.386142823278407" lon="120.98005833102964"><ele>40.0</ele><time>2026-04-21T08:43:16.001Z</time></trkpt><trkpt lat="14.386092427417681" lon="120.98011288372642"><ele>40.0</ele><time>2026-04-21T08:43:17.001Z</time></trkpt><trkpt lat="14.38603261561101" lon="120.98015672969424"><ele>40.0</ele><time>2026-04-21T08:43:18.001Z</time></trkpt><trkpt lat="14.38596133746839" lon="120.98018327591525"><ele>40.0</ele><time>2026-04-21T08:43:19.001Z</time></trkpt><trkpt lat="14.385875805273503" lon="120.98019629536671"><ele>40.0</ele><time>2026-04-21T08:43:20.001Z</time></trkpt><trkpt lat="14.385792838667431" lon="120.98019634133595"><ele>40.0</ele><time>2026-04-21T08:43:21.001Z</time></trkpt><trkpt lat="14.38570599711575" lon="120.98019843006023"><ele>40.0</ele><time>2026-04-21T08:43:22.001Z</time></trkpt><trkpt lat="14.385615765349517" lon="120.98020085202684"><ele>40.0</ele><time>2026-04-21T08:43:23.001Z</time></trkpt><trkpt lat="14.38553557063014" lon="120.98020063181987"><ele>40.333333333333336</ele><time>2026-04-21T08:43:24.001Z</time></trkpt><trkpt lat="14.385459534791375" lon="120.98019830960263"><ele>40.66666666666667</ele><time>2026-04-21T08:43:25.001Z</time></trkpt><trkpt lat="14.385387207337388" lon="120.98019591334791"><ele>41.0</ele><time>2026-04-21T08:43:26.001Z</time></trkpt><trkpt lat="14.38528633724547" lon="120.98019573035432"><ele>41.333333333333336</ele><time>2026-04-21T08:43:28.001Z</time></trkpt><trkpt lat="14.38521493352925" lon="120.98021023392552"><ele>41.666666666666664</ele><time>2026-04-21T08:43:32.001Z</time></trkpt><trkpt lat="14.385123025356465" lon="120.98020692477365"><ele>42.0</ele><time>2026-04-21T08:43:35.001Z</time></trkpt><trkpt lat="14.385066907595666" lon="120.98015059155196"><ele>42.0</ele><time>2026-04-21T08:43:37.001Z</time></trkpt><trkpt lat="14.385021637536871" lon="120.98008275336382"><ele>42.0</ele><time>2026-04-21T08:43:41Z</time></trkpt><trkpt lat="14.38499960462653" lon="120.98000471543236"><ele>42.0</ele><time>2026-04-21T08:43:46Z</time></trkpt><trkpt lat="14.38499425759556" lon="120.97993950561549"><ele>42.0</ele><time>2026-04-21T08:43:49Z</time></trkpt><trkpt lat="14.384908413085727" lon="120.97993395536987"><ele>42.0</ele><time>2026-04-21T08:43:51Z</time></trkpt><trkpt lat="14.38482291946647" lon="120.97996548847432"><ele>42.0</ele><time>2026-04-21T08:43:52Z</time></trkpt><trkpt lat="14.3847392833371" lon="120.97999881439922"><ele>42.25</ele><time>2026-04-21T08:43:53Z</time></trkpt><trkpt lat="14.384646472620927" lon="120.98003863046334"><ele>42.5</ele><time>2026-04-21T08:43:54Z</time></trkpt><trkpt lat="14.384544492422508" lon="120.9800799562966"><ele>42.75</ele><time>2026-04-21T08:43:55Z</time></trkpt><trkpt lat="14.384427638078117" lon="120.98012257084046"><ele>43.0</ele><time>2026-04-21T08:43:56Z</time></trkpt><trkpt lat="14.384305448078523" lon="120.98016254929036"><ele>43.0</ele><time>2026-04-21T08:43:57Z</time></trkpt><trkpt lat="14.384179298690533" lon="120.98019915737954"><ele>43.0</ele><time>2026-04-21T08:43:58Z</time></trkpt><trkpt lat="14.384048270419429" lon="120.98023928079645"><ele>43.0</ele><time>2026-04-21T08:43:59Z</time></trkpt><trkpt lat="14.383933988851322" lon="120.98028016152404"><ele>43.0</ele><time>2026-04-21T08:44:00Z</time></trkpt><trkpt lat="14.383830831512382" lon="120.98031586124327"><ele>43.2</ele><time>2026-04-21T08:44:01Z</time></trkpt><trkpt lat="14.383747175703954" lon="120.98034391811302"><ele>43.4</ele><time>2026-04-21T08:44:02Z</time></trkpt><trkpt lat="14.383677937915767" lon="120.98036635508136"><ele>43.6</ele><time>2026-04-21T08:44:03Z</time></trkpt><trkpt lat="14.383561558662858" lon="120.98038334049738"><ele>43.800000000000004</ele><time>2026-04-21T08:44:05Z</time></trkpt><trkpt lat="14.383467210902271" lon="120.98041326960457"><ele>44.0</ele><time>2026-04-21T08:44:07Z</time></trkpt><trkpt lat="14.383400072667309" lon="120.98048123456469"><ele>44.0</ele><time>2026-04-21T08:44:09Z</time></trkpt><trkpt lat="14.383389953963208" lon="120.98057257260061"><ele>44.0</ele><time>2026-04-21T08:44:11Z</time></trkpt><trkpt lat="14.383392151320864" lon="120.98064706490717"><ele>44.0</ele><time>2026-04-21T08:44:13Z</time></trkpt><trkpt lat="14.38340493025489" lon="120.98074620606474"><ele>44.0</ele><time>2026-04-21T08:44:15Z</time></trkpt><trkpt lat="14.383402572632217" lon="120.98088181253705"><ele>44.0</ele><time>2026-04-21T08:44:17Z</time></trkpt><trkpt lat="14.38340701025863" lon="120.98096689489901"><ele>43.800000000000004</ele><time>2026-04-21T08:44:18Z</time></trkpt><trkpt lat="14.383408298401493" lon="120.98107174991608"><ele>43.6</ele><time>2026-04-21T08:44:19.001Z</time></trkpt><trkpt lat="14.38340947537726" lon="120.98116007835692"><ele>43.4</ele><time>2026-04-21T08:44:20.001Z</time></trkpt><trkpt lat="14.383415374633126" lon="120.98126680370098"><ele>43.2</ele><time>2026-04-21T08:44:21.001Z</time></trkpt><trkpt lat="14.383414208476724" lon="120.98135660194738"><ele>43.0</ele><time>2026-04-21T08:44:22.001Z</time></trkpt><trkpt lat="14.383423999256767" lon="120.98153404073061"><ele>43.0</ele><time>2026-04-21T08:44:23.001Z</time></trkpt><trkpt lat="14.383422726074556" lon="120.98166235631933"><ele>43.0</ele><time>2026-04-21T08:44:24.001Z</time></trkpt><trkpt lat="14.383428199279303" lon="120.98179570800616"><ele>43.0</ele><time>2026-04-21T08:44:25.001Z</time></trkpt><trkpt lat="14.383432826410235" lon="120.98193444628998"><ele>43.0</ele><time>2026-04-21T08:44:26.001Z</time></trkpt><trkpt lat="14.38344348939895" lon="120.98208080153704"><ele>43.5</ele><time>2026-04-21T08:44:27.001Z</time></trkpt><trkpt lat="14.383442193852709" lon="120.98221519664274"><ele>44.0</ele><time>2026-04-21T08:44:28.001Z</time></trkpt><trkpt lat="14.383452309977649" lon="120.98235462092939"><ele>44.5</ele><time>2026-04-21T08:44:29.001Z</time></trkpt><trkpt lat="14.38345849584114" lon="120.98248793455795"><ele>45.0</ele><time>2026-04-21T08:44:30.001Z</time></trkpt><trkpt lat="14.383459658505553" lon="120.98261634730449"><ele>45.25</ele><time>2026-04-21T08:44:31.001Z</time></trkpt><trkpt lat="14.383470023622566" lon="120.98275563977653"><ele>45.5</ele><time>2026-04-21T08:44:32.001Z</time></trkpt><trkpt lat="14.383466752922944" lon="120.98287044486541"><ele>45.75</ele><time>2026-04-21T08:44:33.001Z</time></trkpt><trkpt lat="14.383473392972961" lon="120.98299830833399"><ele>46.0</ele><time>2026-04-21T08:44:34.001Z</time></trkpt><trkpt lat="14.38348066111804" lon="120.98312930325227"><ele>46.0</ele><time>2026-04-21T08:44:35.001Z</time></trkpt><trkpt lat="14.383483517066797" lon="120.98325647514882"><ele>46.0</ele><time>2026-04-21T08:44:36.001Z</time></trkpt><trkpt lat="14.383486782250149" lon="120.98339382779817"><ele>46.0</ele><time>2026-04-21T08:44:37.001Z</time></trkpt><trkpt lat="14.383486385649757" lon="120.9835230798172"><ele>46.0</ele><time>2026-04-21T08:44:38.001Z</time></trkpt><trkpt lat="14.383488027986454" lon="120.98364478360797"><ele>46.199999999999996</ele><time>2026-04-21T08:44:39.001Z</time></trkpt><trkpt lat="14.383490398392983" lon="120.98376089081277"><ele>46.4</ele><time>2026-04-21T08:44:40.001Z</time></trkpt><trkpt lat="14.383489239023723" lon="120.98386399828865"><ele>46.6</ele><time>2026-04-21T08:44:41.001Z</time></trkpt><trkpt lat="14.383484612873959" lon="120.98396740855664"><ele>46.8</ele><time>2026-04-21T08:44:42.001Z</time></trkpt><trkpt lat="14.383474255454184" lon="120.9840826163535"><ele>47.0</ele><time>2026-04-21T08:44:43.001Z</time></trkpt><trkpt lat="14.383450911891133" lon="120.98420170208813"><ele>45.75</ele><time>2026-04-21T08:44:44.001Z</time></trkpt><trkpt lat="14.383427311458375" lon="120.98432526007237"><ele>44.5</ele><time>2026-04-21T08:44:45.001Z</time></trkpt><trkpt lat="14.383401305135301" lon="120.98443756938826"><ele>43.25</ele><time>2026-04-21T08:44:46.001Z</time></trkpt><trkpt lat="14.383379518506016" lon="120.9845478502226"><ele>42.0</ele><time>2026-04-21T08:44:47.001Z</time></trkpt><trkpt lat="14.383349194271108" lon="120.9846542877835"><ele>42.0</ele><time>2026-04-21T08:44:48.001Z</time></trkpt><trkpt lat="14.383319516115284" lon="120.98476559154948"><ele>42.0</ele><time>2026-04-21T08:44:49.001Z</time></trkpt><trkpt lat="14.383287220403869" lon="120.9848788515564"><ele>42.0</ele><time>2026-04-21T08:44:50.001Z</time></trkpt><trkpt lat="14.383238573799288" lon="120.9849787247047"><ele>42.0</ele><time>2026-04-21T08:44:51.001Z</time></trkpt><trkpt lat="14.383182797908395" lon="120.98508534438992"><ele>43.25</ele><time>2026-04-21T08:44:52.001Z</time></trkpt><trkpt lat="14.383126685282852" lon="120.98521226734168"><ele>44.5</ele><time>2026-04-21T08:44:53.001Z</time></trkpt><trkpt lat="14.38307085781944" lon="120.98533764302138"><ele>45.75</ele><time>2026-04-21T08:44:54.001Z</time></trkpt><trkpt lat="14.38301469481199" lon="120.98545632981859"><ele>47.0</ele><time>2026-04-21T08:44:55.001Z</time></trkpt><trkpt lat="14.38295640735625" lon="120.98558431484871"><ele>47.0</ele><time>2026-04-21T08:44:56.001Z</time></trkpt><trkpt lat="14.382896042907023" lon="120.98571833617274"><ele>47.0</ele><time>2026-04-21T08:44:57.001Z</time></trkpt><trkpt lat="14.382837368502226" lon="120.98585239016143"><ele>47.0</ele><time>2026-04-21T08:44:58.001Z</time></trkpt><trkpt lat="14.38278224194611" lon="120.98597801888425"><ele>47.0</ele><time>2026-04-21T08:44:59.001Z</time></trkpt><trkpt lat="14.382725104746118" lon="120.98610542980744"><ele>46.5</ele><time>2026-04-21T08:45:00.001Z</time></trkpt><trkpt lat="14.382670840268474" lon="120.98622501849374"><ele>46.0</ele><time>2026-04-21T08:45:01.001Z</time></trkpt><trkpt lat="14.382619928672938" lon="120.98633610113214"><ele>45.5</ele><time>2026-04-21T08:45:02.001Z</time></trkpt><trkpt lat="14.38256532954158" lon="120.98645637461426"><ele>45.0</ele><time>2026-04-21T08:45:03.001Z</time></trkpt><trkpt lat="14.38251375691372" lon="120.9865730356866"><ele>45.25</ele><time>2026-04-21T08:45:04.001Z</time></trkpt><trkpt lat="14.382458686802613" lon="120.986690876063"><ele>45.5</ele><time>2026-04-21T08:45:05.001Z</time></trkpt><trkpt lat="14.38239878862954" lon="120.98681505306708"><ele>45.75</ele><time>2026-04-21T08:45:06.001Z</time></trkpt><trkpt lat="14.382341363451147" lon="120.98693649135674"><ele>46.0</ele><time>2026-04-21T08:45:07.001Z</time></trkpt><trkpt lat="14.382288281971999" lon="120.98705484551056"><ele>46.0</ele><time>2026-04-21T08:45:08.001Z</time></trkpt><trkpt lat="14.38223270207318" lon="120.98717743416431"><ele>46.0</ele><time>2026-04-21T08:45:09.001Z</time></trkpt><trkpt lat="14.382181272966443" lon="120.98729576244442"><ele>46.0</ele><time>2026-04-21T08:45:10.001Z</time></trkpt><trkpt lat="14.382131484104884" lon="120.9874100068811"><ele>46.0</ele><time>2026-04-21T08:45:11.001Z</time></trkpt><trkpt lat="14.382082899628317" lon="120.9875152645766"><ele>45.4</ele><time>2026-04-21T08:45:12.001Z</time></trkpt><trkpt lat="14.382041774013697" lon="120.98760726289694"><ele>44.8</ele><time>2026-04-21T08:45:13.001Z</time></trkpt><trkpt lat="14.382003895091033" lon="120.98769283579313"><ele>44.199999999999996</ele><time>2026-04-21T08:45:14.001Z</time></trkpt><trkpt lat="14.38195588019391" lon="120.98780332056477"><ele>43.599999999999994</ele><time>2026-04-21T08:45:16.001Z</time></trkpt><trkpt lat="14.381926131115009" lon="120.98786349244412"><ele>43.0</ele><time>2026-04-21T08:45:19.001Z</time></trkpt><trkpt lat="14.38189537110126" lon="120.98795460212041"><ele>43.0</ele><time>2026-04-21T08:45:25.001Z</time></trkpt><trkpt lat="14.3818758346077" lon="120.98804192966068"><ele>43.0</ele><time>2026-04-21T08:45:27.001Z</time></trkpt><trkpt lat="14.381860990208915" lon="120.98815547791973"><ele>43.0</ele><time>2026-04-21T08:45:29.001Z</time></trkpt><trkpt lat="14.381856110545815" lon="120.98823231634304"><ele>43.0</ele><time>2026-04-21T08:45:30.001Z</time></trkpt><trkpt lat="14.381848915084108" lon="120.98832164086141"><ele>43.0</ele><time>2026-04-21T08:45:31.001Z</time></trkpt><trkpt lat="14.38183611268796" lon="120.98841837306307"><ele>43.0</ele><time>2026-04-21T08:45:32.001Z</time></trkpt><trkpt lat="14.381829465846291" lon="120.98852927128003"><ele>43.0</ele><time>2026-04-21T08:45:33.001Z</time></trkpt><trkpt lat="14.381826031541397" lon="120.98863802124889"><ele>43.0</ele><time>2026-04-21T08:45:34.001Z</time></trkpt><trkpt lat="14.38182764326673" lon="120.98875229906744"><ele>43.0</ele><time>2026-04-21T08:45:35.001Z</time></trkpt><trkpt lat="14.381829401193531" lon="120.98887926119387"><ele>43.0</ele><time>2026-04-21T08:45:36.001Z</time></trkpt><trkpt lat="14.381832130939522" lon="120.98901336584683"><ele>43.0</ele><time>2026-04-21T08:45:37.001Z</time></trkpt><trkpt lat="14.38182602680187" lon="120.98915053153921"><ele>43.0</ele><time>2026-04-21T08:45:38.001Z</time></trkpt><trkpt lat="14.38181935004653" lon="120.9892905260514"><ele>43.0</ele><time>2026-04-21T08:45:39.001Z</time></trkpt><trkpt lat="14.381801575665305" lon="120.98941595264483"><ele>43.0</ele><time>2026-04-21T08:45:40.001Z</time></trkpt><trkpt lat="14.381779997353565" lon="120.98955391128946"><ele>45.25</ele><time>2026-04-21T08:45:41.001Z</time></trkpt><trkpt lat="14.381744325577" lon="120.9896979852271"><ele>47.5</ele><time>2026-04-21T08:45:42.001Z</time></trkpt><trkpt lat="14.381693924223564" lon="120.98984210137097"><ele>49.75</ele><time>2026-04-21T08:45:43.001Z</time></trkpt><trkpt lat="14.381635432963668" lon="120.98997986663525"><ele>52.0</ele><time>2026-04-21T08:45:44.001Z</time></trkpt><trkpt lat="14.38156033108474" lon="120.99010374784665"><ele>53.25</ele><time>2026-04-21T08:45:45.001Z</time></trkpt><trkpt lat="14.381477963411347" lon="120.990207400355"><ele>54.5</ele><time>2026-04-21T08:45:46Z</time></trkpt><trkpt lat="14.381399989203064" lon="120.99030951099556"><ele>55.75</ele><time>2026-04-21T08:45:47Z</time></trkpt><trkpt lat="14.381328523400764" lon="120.99040821210268"><ele>57.0</ele><time>2026-04-21T08:45:48Z</time></trkpt><trkpt lat="14.381256295946867" lon="120.99050161912079"><ele>57.166666666666664</ele><time>2026-04-21T08:45:49Z</time></trkpt><trkpt lat="14.381192128912549" lon="120.99058275066209"><ele>57.33333333333333</ele><time>2026-04-21T08:45:50Z</time></trkpt><trkpt lat="14.381141102506326" lon="120.99065389978533"><ele>57.5</ele><time>2026-04-21T08:45:51Z</time></trkpt><trkpt lat="14.381096324317266" lon="120.99071227949251"><ele>57.666666666666664</ele><time>2026-04-21T08:45:52Z</time></trkpt><trkpt lat="14.381037532215064" lon="120.99075910333096"><ele>57.83333333333333</ele><time>2026-04-21T08:45:54Z</time></trkpt><trkpt lat="14.380960666391452" lon="120.99070679774823"><ele>58.0</ele><time>2026-04-21T08:45:57Z</time></trkpt><trkpt lat="14.380877850945147" lon="120.99065779176385"><ele>57.99999999999999</ele><time>2026-04-21T08:46:01Z</time></trkpt><trkpt lat="14.380805491438949" lon="120.99065401925706"><ele>58.0</ele><time>2026-04-21T08:46:03Z</time></trkpt><trkpt lat="14.38076636459436" lon="120.99072017701013"><ele>58.0</ele><time>2026-04-21T08:46:06Z</time></trkpt><trkpt lat="14.380766056333062" lon="120.990821152114"><ele>58.0</ele><time>2026-04-21T08:46:08Z</time></trkpt><trkpt lat="14.380699188862565" lon="120.99091837062377"><ele>57.99999999999999</ele><time>2026-04-21T08:46:10Z</time></trkpt><trkpt lat="14.380641607159907" lon="120.99098643392125"><ele>58.0</ele><time>2026-04-21T08:46:12Z</time></trkpt><trkpt lat="14.38059782103351" lon="120.99106304751457"><ele>57.8</ele><time>2026-04-21T08:46:17Z</time></trkpt><trkpt lat="14.380548780398708" lon="120.99112971604033"><ele>57.599999999999994</ele><time>2026-04-21T08:46:19Z</time></trkpt><trkpt lat="14.38050028978682" lon="120.99118932205839"><ele>57.400000000000006</ele><time>2026-04-21T08:46:22.001Z</time></trkpt><trkpt lat="14.380423675685897" lon="120.9912197409998"><ele>57.2</ele><time>2026-04-21T08:46:26.001Z</time></trkpt><trkpt lat="14.380318412156281" lon="120.99121131826148"><ele>57.0</ele><time>2026-04-21T08:46:28.001Z</time></trkpt><trkpt lat="14.380208911986411" lon="120.99121081207258"><ele>57.0</ele><time>2026-04-21T08:46:30.001Z</time></trkpt><trkpt lat="14.380099653990214" lon="120.99121773595718"><ele>57.0</ele><time>2026-04-21T08:46:32.001Z</time></trkpt><trkpt lat="14.379993651714834" lon="120.99122923889468"><ele>57.0</ele><time>2026-04-21T08:46:34.001Z</time></trkpt><trkpt lat="14.379904140556107" lon="120.99123471947401"><ele>57.0</ele><time>2026-04-21T08:46:36.001Z</time></trkpt><trkpt lat="14.379822063954402" lon="120.99122599291204"><ele>57.0</ele><time>2026-04-21T08:46:38.001Z</time></trkpt><trkpt lat="14.379734221815927" lon="120.99122777777595"><ele>57.0</ele><time>2026-04-21T08:46:40.001Z</time></trkpt><trkpt lat="14.379645937475908" lon="120.99122420086275"><ele>57.0</ele><time>2026-04-21T08:46:42.001Z</time></trkpt><trkpt lat="14.379559162657216" lon="120.99121786146175"><ele>57.0</ele><time>2026-04-21T08:46:44.001Z</time></trkpt><trkpt lat="14.379468490456011" lon="120.99121784874545"><ele>57.0</ele><time>2026-04-21T08:46:46.001Z</time></trkpt><trkpt lat="14.379396973892124" lon="120.99122042617455"><ele>57.0</ele><time>2026-04-21T08:46:48.001Z</time></trkpt><trkpt lat="14.379332568394327" lon="120.99122389092233"><ele>57.0</ele><time>2026-04-21T08:46:52.001Z</time></trkpt><trkpt lat="14.379230319366066" lon="120.99123248683459"><ele>57.0</ele><time>2026-04-21T08:46:58.001Z</time></trkpt><trkpt lat="14.379165196214887" lon="120.99123700340776"><ele>56.99999999999999</ele><time>2026-04-21T08:47:00.001Z</time></trkpt><trkpt lat="14.379088441851785" lon="120.99122359981904"><ele>57.0</ele><time>2026-04-21T08:47:03.001Z</time></trkpt><trkpt lat="14.379000265347484" lon="120.9912153116767"><ele>57.0</ele><time>2026-04-21T08:47:07.001Z</time></trkpt><trkpt lat="14.37897485569884" lon="120.99114888313323"><ele>56.99999999999999</ele><time>2026-04-21T08:47:09.001Z</time></trkpt><trkpt lat="14.378991042334361" lon="120.99107416051436"><ele>57.0</ele><time>2026-04-21T08:47:12.001Z</time></trkpt><trkpt lat="14.378956697636152" lon="120.99100929060837"><ele>57.0</ele><time>2026-04-21T08:47:50.001Z</time></trkpt><trkpt lat="14.378898018264335" lon="120.99097585598243"><ele>57.0</ele><time>2026-04-21T08:52:49.028Z</time></trkpt><trkpt lat="14.378909705377449" lon="120.99073796450045"><ele>57.0</ele><time>2026-04-21T08:52:52.031Z</time></trkpt><trkpt lat="14.378958782507556" lon="120.99068262252226"><ele>57.0</ele><time>2026-04-21T08:52:55.027Z</time></trkpt><trkpt lat="14.37897600612898" lon="120.99087477351536"><ele>57.0</ele><time>2026-04-21T08:56:39.271Z</time></trkpt><trkpt lat="14.378981290923889" lon="120.99099568923147"><ele>57.0</ele><time>2026-04-21T08:56:40.971Z</time></trkpt><trkpt lat="14.379188761097016" lon="120.99105590724224"><ele>57.0</ele><time>2026-04-21T08:56:44.844Z</time></trkpt><trkpt lat="14.395991337892847" lon="120.97775906537353"><ele>54.0</ele><time>2026-04-21T12:57:32Z</time></trkpt><trkpt lat="14.396103684043148" lon="120.97775306551839"><ele>51.0</ele><time>2026-04-21T12:57:33Z</time></trkpt><trkpt lat="14.396213467273968" lon="120.97775590083317"><ele>48.0</ele><time>2026-04-21T12:57:34Z</time></trkpt><trkpt lat="14.396312070930792" lon="120.9777630149759"><ele>45.0</ele><time>2026-04-21T12:57:35Z</time></trkpt><trkpt lat="14.396412241327674" lon="120.97777013776384"><ele>42.0</ele><time>2026-04-21T12:57:36Z</time></trkpt><trkpt lat="14.39652578085912" lon="120.97778083743782"><ele>41.25</ele><time>2026-04-21T12:57:37Z</time></trkpt><trkpt lat="14.39664049602374" lon="120.97778503711423"><ele>40.5</ele><time>2026-04-21T12:57:38Z</time></trkpt><trkpt lat="14.396763065789584" lon="120.97778774138659"><ele>39.75</ele><time>2026-04-21T12:57:39Z</time></trkpt><trkpt lat="14.396876007814004" lon="120.97779479452672"><ele>39.0</ele><time>2026-04-21T12:57:40Z</time></trkpt><trkpt lat="14.396992555012062" lon="120.97779839275736"><ele>39.0</ele><time>2026-04-21T12:57:41Z</time></trkpt><trkpt lat="14.397116288185902" lon="120.97780143471083"><ele>39.0</ele><time>2026-04-21T12:57:42Z</time></trkpt><trkpt lat="14.397225982810697" lon="120.97780497172161"><ele>39.0</ele><time>2026-04-21T12:57:43Z</time></trkpt><trkpt lat="14.397327494648424" lon="120.97780684838676"><ele>39.0</ele><time>2026-04-21T12:57:44Z</time></trkpt><trkpt lat="14.397439019828038" lon="120.97780749822924"><ele>39.0</ele><time>2026-04-21T12:57:45Z</time></trkpt><trkpt lat="14.397543346073167" lon="120.97780950603793"><ele>39.0</ele><time>2026-04-21T12:57:46Z</time></trkpt><trkpt lat="14.397767170646741" lon="120.97781643090215"><ele>39.0</ele><time>2026-04-21T12:57:48Z</time></trkpt><trkpt lat="14.397854206847105" lon="120.97782144968643"><ele>39.0</ele><time>2026-04-21T12:57:49Z</time></trkpt><trkpt lat="14.397952070801368" lon="120.97782398624359"><ele>39.0</ele><time>2026-04-21T12:57:50Z</time></trkpt><trkpt lat="14.398047676086973" lon="120.97782195197134"><ele>38.666666666666664</ele><time>2026-04-21T12:57:51Z</time></trkpt><trkpt lat="14.398135071698583" lon="120.97781889568347"><ele>38.333333333333336</ele><time>2026-04-21T12:57:52Z</time></trkpt><trkpt lat="14.398216490099658" lon="120.97781795025608"><ele>38.0</ele><time>2026-04-21T12:57:53Z</time></trkpt><trkpt lat="14.398290511754173" lon="120.9778152729653"><ele>37.66666666666667</ele><time>2026-04-21T12:57:54Z</time></trkpt><trkpt lat="14.398367350860703" lon="120.97780672036193"><ele>37.333333333333336</ele><time>2026-04-21T12:57:55Z</time></trkpt><trkpt lat="14.398447694393207" lon="120.97779850553509"><ele>37.0</ele><time>2026-04-21T12:57:56Z</time></trkpt><trkpt lat="14.398550016439557" lon="120.9777918413977"><ele>37.0</ele><time>2026-04-21T12:57:58Z</time></trkpt><trkpt lat="14.398659903410751" lon="120.97776345023183"><ele>37.0</ele><time>2026-04-21T12:58:00Z</time></trkpt><trkpt lat="14.398733934092045" lon="120.97774831755038"><ele>37.0</ele><time>2026-04-21T12:58:01Z</time></trkpt><trkpt lat="14.398817204939794" lon="120.9777357255029"><ele>37.0</ele><time>2026-04-21T12:58:02Z</time></trkpt><trkpt lat="14.398907734376698" lon="120.97771763893543"><ele>37.0</ele><time>2026-04-21T12:58:03Z</time></trkpt><trkpt lat="14.398999021961087" lon="120.97769812298634"><ele>37.0</ele><time>2026-04-21T12:58:04Z</time></trkpt><trkpt lat="14.399099012805497" lon="120.97767771874939"><ele>37.0</ele><time>2026-04-21T12:58:05Z</time></trkpt><trkpt lat="14.399185384682053" lon="120.97765975407657"><ele>37.0</ele><time>2026-04-21T12:58:06Z</time></trkpt><trkpt lat="14.399272134429701" lon="120.97764196801951"><ele>37.0</ele><time>2026-04-21T12:58:07Z</time></trkpt><trkpt lat="14.399420229911692" lon="120.97761165255051"><ele>37.0</ele><time>2026-04-21T12:58:09Z</time></trkpt><trkpt lat="14.399484396161558" lon="120.97759545011982"><ele>37.0</ele><time>2026-04-21T12:58:10Z</time></trkpt><trkpt lat="14.399594759726895" lon="120.97757416260544"><ele>37.0</ele><time>2026-04-21T12:58:12Z</time></trkpt><trkpt lat="14.399682160202135" lon="120.97756010652196"><ele>37.0</ele><time>2026-04-21T12:58:14Z</time></trkpt><trkpt lat="14.399746627508085" lon="120.97754897266185"><ele>37.0</ele><time>2026-04-21T12:58:17Z</time></trkpt><trkpt lat="14.399811690625633" lon="120.97753990448726"><ele>37.0</ele><time>2026-04-21T12:58:19Z</time></trkpt><trkpt lat="14.399884899450791" lon="120.97752089213276"><ele>37.0</ele><time>2026-04-21T12:58:21Z</time></trkpt><trkpt lat="14.399966164695995" lon="120.97750351910966"><ele>37.0</ele><time>2026-04-21T12:58:23Z</time></trkpt><trkpt lat="14.400049216021554" lon="120.97748283855377"><ele>37.0</ele><time>2026-04-21T12:58:25Z</time></trkpt><trkpt lat="14.400135842842417" lon="120.97745108107299"><ele>37.0</ele><time>2026-04-21T12:58:27Z</time></trkpt><trkpt lat="14.400248926699872" lon="120.97742099844528"><ele>37.0</ele><time>2026-04-21T12:58:29Z</time></trkpt><trkpt lat="14.400454190577042" lon="120.9773812378899"><ele>36.800000000000004</ele><time>2026-04-21T12:58:32Z</time></trkpt><trkpt lat="14.400546348200441" lon="120.97737013657033"><ele>36.6</ele><time>2026-04-21T12:58:33Z</time></trkpt><trkpt lat="14.400643680356373" lon="120.97735143663867"><ele>36.400000000000006</ele><time>2026-04-21T12:58:34Z</time></trkpt><trkpt lat="14.400742567120465" lon="120.9773245626467"><ele>36.2</ele><time>2026-04-21T12:58:35Z</time></trkpt><trkpt lat="14.400847841678926" lon="120.97729368145838"><ele>36.0</ele><time>2026-04-21T12:58:36Z</time></trkpt><trkpt lat="14.400946883001069" lon="120.97725566955602"><ele>36.0</ele><time>2026-04-21T12:58:37Z</time></trkpt><trkpt lat="14.401054118013871" lon="120.97724444463687"><ele>36.0</ele><time>2026-04-21T12:58:38Z</time></trkpt><trkpt lat="14.401148874779807" lon="120.97721915782034"><ele>36.0</ele><time>2026-04-21T12:58:39.001Z</time></trkpt><trkpt lat="14.40122706800702" lon="120.97719834113215"><ele>36.0</ele><time>2026-04-21T12:58:40.001Z</time></trkpt><trkpt lat="14.40131163894711" lon="120.97717966117854"><ele>36.0</ele><time>2026-04-21T12:58:41.001Z</time></trkpt><trkpt lat="14.401405276006917" lon="120.97715912052519"><ele>36.0</ele><time>2026-04-21T12:58:42.001Z</time></trkpt><trkpt lat="14.40150202923329" lon="120.97713763658109"><ele>36.0</ele><time>2026-04-21T12:58:43.001Z</time></trkpt><trkpt lat="14.401604551000755" lon="120.97711894348451"><ele>36.0</ele><time>2026-04-21T12:58:44.001Z</time></trkpt><trkpt lat="14.401739153462293" lon="120.97711660965972"><ele>36.0</ele><time>2026-04-21T12:58:45.001Z</time></trkpt><trkpt lat="14.401847180117777" lon="120.9771130906275"><ele>36.0</ele><time>2026-04-21T12:58:46.001Z</time></trkpt><trkpt lat="14.40196369171753" lon="120.97711562098442"><ele>36.0</ele><time>2026-04-21T12:58:47.001Z</time></trkpt><trkpt lat="14.402089131798384" lon="120.97711714790597"><ele>36.0</ele><time>2026-04-21T12:58:48.001Z</time></trkpt><trkpt lat="14.402209933345748" lon="120.97711957165083"><ele>36.0</ele><time>2026-04-21T12:58:49.001Z</time></trkpt><trkpt lat="14.40233251791967" lon="120.97712462498907"><ele>36.0</ele><time>2026-04-21T12:58:50.001Z</time></trkpt><trkpt lat="14.402576215449441" lon="120.97712757247744"><ele>35.75</ele><time>2026-04-21T12:58:52.001Z</time></trkpt><trkpt lat="14.402693246564322" lon="120.97712646530776"><ele>35.5</ele><time>2026-04-21T12:58:53.001Z</time></trkpt><trkpt lat="14.402810165872268" lon="120.97712073348967"><ele>35.25</ele><time>2026-04-21T12:58:54.001Z</time></trkpt><trkpt lat="14.402927114377848" lon="120.97710713618775"><ele>35.0</ele><time>2026-04-21T12:58:55Z</time></trkpt><trkpt lat="14.403045181244913" lon="120.97709933545316"><ele>34.5</ele><time>2026-04-21T12:58:56Z</time></trkpt><trkpt lat="14.403162032693682" lon="120.97708252466495"><ele>34.0</ele><time>2026-04-21T12:58:57Z</time></trkpt><trkpt lat="14.40327582655366" lon="120.977068106964"><ele>33.5</ele><time>2026-04-21T12:58:58Z</time></trkpt><trkpt lat="14.403389651529892" lon="120.97705724165571"><ele>33.0</ele><time>2026-04-21T12:58:59Z</time></trkpt><trkpt lat="14.403495784282205" lon="120.97704405059285"><ele>33.0</ele><time>2026-04-21T12:59:00Z</time></trkpt><trkpt lat="14.40359558955694" lon="120.97702940679777"><ele>33.0</ele><time>2026-04-21T12:59:01Z</time></trkpt><trkpt lat="14.403690802309564" lon="120.97701428951862"><ele>33.0</ele><time>2026-04-21T12:59:02Z</time></trkpt><trkpt lat="14.403784877732436" lon="120.97700625139079"><ele>33.0</ele><time>2026-04-21T12:59:03Z</time></trkpt><trkpt lat="14.403881832895573" lon="120.97699654826604"><ele>33.0</ele><time>2026-04-21T12:59:04Z</time></trkpt><trkpt lat="14.40394673329921" lon="120.97697611700073"><ele>34.0</ele><time>2026-04-21T12:59:05Z</time></trkpt><trkpt lat="14.404046486537759" lon="120.97697791899726"><ele>35.0</ele><time>2026-04-21T12:59:06Z</time></trkpt><trkpt lat="14.404137386900322" lon="120.97697902416351"><ele>36.0</ele><time>2026-04-21T12:59:07Z</time></trkpt><trkpt lat="14.404230500626094" lon="120.97698797502369"><ele>37.0</ele><time>2026-04-21T12:59:08Z</time></trkpt><trkpt lat="14.40431122664471" lon="120.97700293243074"><ele>38.0</ele><time>2026-04-21T12:59:09Z</time></trkpt><trkpt lat="14.404381994099905" lon="120.97701433169074"><ele>39.0</ele><time>2026-04-21T12:59:10Z</time></trkpt><trkpt lat="14.404464969278832" lon="120.97702753800841"><ele>39.0</ele><time>2026-04-21T12:59:11Z</time></trkpt><trkpt lat="14.404623026908451" lon="120.97705419197537"><ele>39.0</ele><time>2026-04-21T12:59:13Z</time></trkpt><trkpt lat="14.404697025696317" lon="120.9770743238909"><ele>39.0</ele><time>2026-04-21T12:59:14Z</time></trkpt><trkpt lat="14.404763955118153" lon="120.97709836402119"><ele>39.0</ele><time>2026-04-21T12:59:15Z</time></trkpt><trkpt lat="14.4048226688242" lon="120.97712484071847"><ele>39.0</ele><time>2026-04-21T12:59:16Z</time></trkpt><trkpt lat="14.4049154508852" lon="120.97716491494039"><ele>38.833333333333336</ele><time>2026-04-21T12:59:18Z</time></trkpt><trkpt lat="14.404994478929364" lon="120.97719947120197"><ele>38.666666666666664</ele><time>2026-04-21T12:59:20Z</time></trkpt><trkpt lat="14.405070788026613" lon="120.97722684659975"><ele>38.5</ele><time>2026-04-21T12:59:22Z</time></trkpt><trkpt lat="14.405143278866133" lon="120.97725225306084"><ele>38.33333333333333</ele><time>2026-04-21T12:59:24Z</time></trkpt><trkpt lat="14.405207599544417" lon="120.97727293238822"><ele>38.166666666666664</ele><time>2026-04-21T12:59:26Z</time></trkpt><trkpt lat="14.405278811393595" lon="120.97730336735313"><ele>38.0</ele><time>2026-04-21T12:59:28Z</time></trkpt><trkpt lat="14.405345630389915" lon="120.97735417334309"><ele>38.0</ele><time>2026-04-21T12:59:30Z</time></trkpt><trkpt lat="14.405438996116388" lon="120.97740435126587"><ele>38.0</ele><time>2026-04-21T12:59:32Z</time></trkpt><trkpt lat="14.405639918484349" lon="120.97747575504388"><ele>38.0</ele><time>2026-04-21T12:59:36Z</time></trkpt><trkpt lat="14.405727970944492" lon="120.97753385681096"><ele>38.0</ele><time>2026-04-21T12:59:38Z</time></trkpt><trkpt lat="14.405818615327362" lon="120.9775745933115"><ele>37.666666666666664</ele><time>2026-04-21T12:59:40Z</time></trkpt><trkpt lat="14.405896469156607" lon="120.977601281043"><ele>37.33333333333333</ele><time>2026-04-21T12:59:42Z</time></trkpt><trkpt lat="14.405979883681171" lon="120.97763264078128"><ele>37.0</ele><time>2026-04-21T12:59:45Z</time></trkpt><trkpt lat="14.406056600366119" lon="120.97766148245499"><ele>36.666666666666664</ele><time>2026-04-21T12:59:50Z</time></trkpt><trkpt lat="14.406127378744868" lon="120.97766151279632"><ele>36.333333333333336</ele><time>2026-04-21T12:59:51Z</time></trkpt><trkpt lat="14.40619904515127" lon="120.97767360695492"><ele>36.0</ele><time>2026-04-21T12:59:53Z</time></trkpt><trkpt lat="14.406355000349112" lon="120.9776833262384"><ele>36.0</ele><time>2026-04-21T12:59:58Z</time></trkpt><trkpt lat="14.406425193811033" lon="120.97768278734901"><ele>36.0</ele><time>2026-04-21T13:00:17Z</time></trkpt><trkpt lat="14.406589552042023" lon="120.97767433142062"><ele>36.0</ele><time>2026-04-21T13:00:21Z</time></trkpt><trkpt lat="14.406653795058277" lon="120.97767102623537"><ele>36.0</ele><time>2026-04-21T13:00:23Z</time></trkpt><trkpt lat="14.406747574905657" lon="120.97747142592354"><ele>36.0</ele><time>2026-04-21T13:00:26Z</time></trkpt><trkpt lat="14.406750358881679" lon="120.97739841796025"><ele>36.0</ele><time>2026-04-21T13:00:27Z</time></trkpt><trkpt lat="14.406753443346863" lon="120.97731752990099"><ele>36.0</ele><time>2026-04-21T13:00:28Z</time></trkpt><trkpt lat="14.406756715686779" lon="120.97723171487925"><ele>36.0</ele><time>2026-04-21T13:00:29Z</time></trkpt><trkpt lat="14.406760208186807" lon="120.97714012634493"><ele>36.0</ele><time>2026-04-21T13:00:30Z</time></trkpt><trkpt lat="14.406764061810092" lon="120.9770346133577"><ele>36.0</ele><time>2026-04-21T13:00:31Z</time></trkpt><trkpt lat="14.40676797499786" lon="120.9769263302543"><ele>36.0</ele><time>2026-04-21T13:00:32Z</time></trkpt><trkpt lat="14.406772157688662" lon="120.9768105896828"><ele>36.0</ele><time>2026-04-21T13:00:33Z</time></trkpt><trkpt lat="14.406776673825268" lon="120.97668632421899"><ele>36.0</ele><time>2026-04-21T13:00:34Z</time></trkpt><trkpt lat="14.406781379272461" lon="120.97655849292961"><ele>36.0</ele><time>2026-04-21T13:00:35Z</time></trkpt><trkpt lat="14.406784264762893" lon="120.97643008734576"><ele>36.0</ele><time>2026-04-21T13:00:36Z</time></trkpt><trkpt lat="14.406786283959105" lon="120.9762907961652"><ele>36.0</ele><time>2026-04-21T13:00:37Z</time></trkpt><trkpt lat="14.406788297240757" lon="120.97615191296829"><ele>36.0</ele><time>2026-04-21T13:00:38Z</time></trkpt><trkpt lat="14.406792555356125" lon="120.97585817332508"><ele>35.5</ele><time>2026-04-21T13:00:40Z</time></trkpt><trkpt lat="14.406794729858062" lon="120.97570816862402"><ele>35.0</ele><time>2026-04-21T13:00:41Z</time></trkpt><trkpt lat="14.406796966882366" lon="120.97555385084023"><ele>34.5</ele><time>2026-04-21T13:00:42Z</time></trkpt><trkpt lat="14.406784391555908" lon="120.97539781846415"><ele>34.0</ele><time>2026-04-21T13:00:43Z</time></trkpt><trkpt lat="14.406791433027434" lon="120.97524427899141"><ele>34.0</ele><time>2026-04-21T13:00:44Z</time></trkpt><trkpt lat="14.406801788886309" lon="120.97508212686897"><ele>34.0</ele><time>2026-04-21T13:00:45Z</time></trkpt><trkpt lat="14.406820449366933" lon="120.97492058403742"><ele>34.0</ele><time>2026-04-21T13:00:46.001Z</time></trkpt><trkpt lat="14.406851463795553" lon="120.97475433068611"><ele>34.0</ele><time>2026-04-21T13:00:47.001Z</time></trkpt><trkpt lat="14.406895250415248" lon="120.97458908120942"><ele>34.0</ele><time>2026-04-21T13:00:48.001Z</time></trkpt><trkpt lat="14.406947585921385" lon="120.97442124243189"><ele>34.0</ele><time>2026-04-21T13:00:49.001Z</time></trkpt><trkpt lat="14.407007793718591" lon="120.97425077753616"><ele>34.0</ele><time>2026-04-21T13:00:50.001Z</time></trkpt><trkpt lat="14.407074009630069" lon="120.97407934201337"><ele>34.0</ele><time>2026-04-21T13:00:51.001Z</time></trkpt><trkpt lat="14.407140648393922" lon="120.9739080428914"><ele>34.0</ele><time>2026-04-21T13:00:52.001Z</time></trkpt><trkpt lat="14.407201553926074" lon="120.97373617609642"><ele>33.66666666666667</ele><time>2026-04-21T13:00:53.001Z</time></trkpt><trkpt lat="14.40725934057054" lon="120.97356239802262"><ele>33.333333333333336</ele><time>2026-04-21T13:00:54.001Z</time></trkpt><trkpt lat="14.407313092118608" lon="120.97338631427296"><ele>33.0</ele><time>2026-04-21T13:00:55.001Z</time></trkpt><trkpt lat="14.407365312793956" lon="120.97321167301926"><ele>32.333333333333336</ele><time>2026-04-21T13:00:56.001Z</time></trkpt><trkpt lat="14.40742211492479" lon="120.97303385377559"><ele>31.666666666666668</ele><time>2026-04-21T13:00:57.001Z</time></trkpt><trkpt lat="14.407477028276869" lon="120.97286921526977"><ele>31.0</ele><time>2026-04-21T13:00:58Z</time></trkpt><trkpt lat="14.407531784313818" lon="120.9727141493902"><ele>30.0</ele><time>2026-04-21T13:00:59Z</time></trkpt><trkpt lat="14.407641472285544" lon="120.97239968234132"><ele>29.0</ele><time>2026-04-21T13:01:01Z</time></trkpt><trkpt lat="14.407695587412324" lon="120.97223979378857"><ele>29.0</ele><time>2026-04-21T13:01:02Z</time></trkpt><trkpt lat="14.407752979675061" lon="120.97207851072429"><ele>29.0</ele><time>2026-04-21T13:01:03Z</time></trkpt><trkpt lat="14.40781182172666" lon="120.97191983120943"><ele>29.0</ele><time>2026-04-21T13:01:04Z</time></trkpt><trkpt lat="14.40786493704641" lon="120.97176375468497"><ele>30.0</ele><time>2026-04-21T13:01:05Z</time></trkpt><trkpt lat="14.407936942909263" lon="120.97160891928098"><ele>31.0</ele><time>2026-04-21T13:01:06Z</time></trkpt><trkpt lat="14.408000583556197" lon="120.97145723475491"><ele>32.0</ele><time>2026-04-21T13:01:07Z</time></trkpt><trkpt lat="14.408059527895903" lon="120.97129538316744"><ele>32.0</ele><time>2026-04-21T13:01:08Z</time></trkpt><trkpt lat="14.40814792001939" lon="120.97114904469089"><ele>32.0</ele><time>2026-04-21T13:01:09Z</time></trkpt><trkpt lat="14.40826421719983" lon="120.97102511813927"><ele>32.0</ele><time>2026-04-21T13:01:10Z</time></trkpt><trkpt lat="14.408370780855638" lon="120.97089369353337"><ele>31.0</ele><time>2026-04-21T13:01:11Z</time></trkpt><trkpt lat="14.408468485349665" lon="120.97075047571032"><ele>30.0</ele><time>2026-04-21T13:01:12Z</time></trkpt><trkpt lat="14.408581650798572" lon="120.97061381033818"><ele>29.0</ele><time>2026-04-21T13:01:13Z</time></trkpt><trkpt lat="14.408692041375948" lon="120.97048070745896"><ele>29.0</ele><time>2026-04-21T13:01:14Z</time></trkpt><trkpt lat="14.408805034064706" lon="120.9703510052678"><ele>29.0</ele><time>2026-04-21T13:01:15Z</time></trkpt><trkpt lat="14.408915012119012" lon="120.97021722588791"><ele>29.0</ele><time>2026-04-21T13:01:16Z</time></trkpt><trkpt lat="14.409026207658432" lon="120.97007843366335"><ele>29.0</ele><time>2026-04-21T13:01:17Z</time></trkpt><trkpt lat="14.409127023474634" lon="120.96995354431661"><ele>29.0</ele><time>2026-04-21T13:01:18Z</time></trkpt><trkpt lat="14.409223086757747" lon="120.96984210158037"><ele>29.0</ele><time>2026-04-21T13:01:19Z</time></trkpt><trkpt lat="14.40933104500213" lon="120.9697428622509"><ele>29.0</ele><time>2026-04-21T13:01:20Z</time></trkpt><trkpt lat="14.409535110613684" lon="120.96954901818387"><ele>29.0</ele><time>2026-04-21T13:01:22Z</time></trkpt><trkpt lat="14.409642399459372" lon="120.96947144714191"><ele>29.0</ele><time>2026-04-21T13:01:23Z</time></trkpt><trkpt lat="14.409739581162986" lon="120.96938809873129"><ele>29.0</ele><time>2026-04-21T13:01:24Z</time></trkpt><trkpt lat="14.409840681948449" lon="120.96933334011285"><ele>29.0</ele><time>2026-04-21T13:01:25Z</time></trkpt><trkpt lat="14.409952489762711" lon="120.96928036467645"><ele>28.75</ele><time>2026-04-21T13:01:26Z</time></trkpt><trkpt lat="14.410071204698717" lon="120.96923568236828"><ele>28.5</ele><time>2026-04-21T13:01:27Z</time></trkpt><trkpt lat="14.410190511526833" lon="120.96918412698453"><ele>28.25</ele><time>2026-04-21T13:01:28Z</time></trkpt><trkpt lat="14.410314375181889" lon="120.96913337861068"><ele>28.0</ele><time>2026-04-21T13:01:29Z</time></trkpt><trkpt lat="14.410439811994605" lon="120.96907608672343"><ele>28.5</ele><time>2026-04-21T13:01:30Z</time></trkpt><trkpt lat="14.410571342632355" lon="120.96901804859434"><ele>29.0</ele><time>2026-04-21T13:01:31Z</time></trkpt><trkpt lat="14.410701297409615" lon="120.96896043735761"><ele>29.5</ele><time>2026-04-21T13:01:32Z</time></trkpt><trkpt lat="14.410830092300467" lon="120.96889944238472"><ele>30.0</ele><time>2026-04-21T13:01:33Z</time></trkpt><trkpt lat="14.410964169651985" lon="120.96883704275024"><ele>30.0</ele><time>2026-04-21T13:01:34Z</time></trkpt><trkpt lat="14.411098206108786" lon="120.96878026363775"><ele>30.0</ele><time>2026-04-21T13:01:35Z</time></trkpt><trkpt lat="14.411227641907875" lon="120.96872796990716"><ele>30.0</ele><time>2026-04-21T13:01:36Z</time></trkpt><trkpt lat="14.411341019588946" lon="120.96867379435997"><ele>30.0</ele><time>2026-04-21T13:01:37Z</time></trkpt><trkpt lat="14.411447126705134" lon="120.96862610730761"><ele>29.6</ele><time>2026-04-21T13:01:38Z</time></trkpt><trkpt lat="14.411544780775388" lon="120.96858891290928"><ele>29.2</ele><time>2026-04-21T13:01:39Z</time></trkpt><trkpt lat="14.411617453257758" lon="120.9685466438186"><ele>28.799999999999997</ele><time>2026-04-21T13:01:40Z</time></trkpt><trkpt lat="14.41169242932486" lon="120.96851594488217"><ele>28.4</ele><time>2026-04-21T13:01:41Z</time></trkpt><trkpt lat="14.411854857225064" lon="120.9684476614536"><ele>28.0</ele><time>2026-04-21T13:01:44Z</time></trkpt><trkpt lat="14.411947046164135" lon="120.96841198385752"><ele>28.0</ele><time>2026-04-21T13:01:46Z</time></trkpt><trkpt lat="14.412061970717948" lon="120.96836615535881"><ele>27.999999999999996</ele><time>2026-04-21T13:01:48Z</time></trkpt><trkpt lat="14.41217567782411" lon="120.96833014123207"><ele>27.999999999999996</ele><time>2026-04-21T13:01:50Z</time></trkpt><trkpt lat="14.412293786637836" lon="120.96828766237186"><ele>28.0</ele><time>2026-04-21T13:01:52Z</time></trkpt><trkpt lat="14.412357776428449" lon="120.96826049747241"><ele>28.0</ele><time>2026-04-21T13:01:53Z</time></trkpt><trkpt lat="14.412424159336368" lon="120.96823569941425"><ele>28.333333333333336</ele><time>2026-04-21T13:01:54Z</time></trkpt><trkpt lat="14.41250088298158" lon="120.96820561209262"><ele>28.666666666666668</ele><time>2026-04-21T13:01:55Z</time></trkpt><trkpt lat="14.412574774210334" lon="120.96817476281753"><ele>29.0</ele><time>2026-04-21T13:01:56Z</time></trkpt><trkpt lat="14.412660607802426" lon="120.96813558106919"><ele>29.333333333333336</ele><time>2026-04-21T13:01:57Z</time></trkpt><trkpt lat="14.412743598270875" lon="120.96809755455975"><ele>29.666666666666668</ele><time>2026-04-21T13:01:58Z</time></trkpt><trkpt lat="14.41282745124768" lon="120.96805821490219"><ele>30.0</ele><time>2026-04-21T13:01:59Z</time></trkpt><trkpt lat="14.412911616367223" lon="120.96801982826597"><ele>28.75</ele><time>2026-04-21T13:02:00Z</time></trkpt><trkpt lat="14.413006165165529" lon="120.96797998770685"><ele>27.5</ele><time>2026-04-21T13:02:01Z</time></trkpt><trkpt lat="14.413096972027567" lon="120.96793452304027"><ele>26.25</ele><time>2026-04-21T13:02:02Z</time></trkpt><trkpt lat="14.4132934826892" lon="120.96785129539988"><ele>25.0</ele><time>2026-04-21T13:02:04Z</time></trkpt><trkpt lat="14.413405725498817" lon="120.96781917305033"><ele>25.0</ele><time>2026-04-21T13:02:05Z</time></trkpt><trkpt lat="14.41351095316139" lon="120.96779612505732"><ele>25.0</ele><time>2026-04-21T13:02:06Z</time></trkpt><trkpt lat="14.413615856271585" lon="120.967770227232"><ele>25.0</ele><time>2026-04-21T13:02:07Z</time></trkpt><trkpt lat="14.413718596723378" lon="120.96774591915968"><ele>25.0</ele><time>2026-04-21T13:02:08Z</time></trkpt><trkpt lat="14.413833037420137" lon="120.96771182767301"><ele>25.0</ele><time>2026-04-21T13:02:09Z</time></trkpt><trkpt lat="14.413949416233923" lon="120.96767890904684"><ele>25.0</ele><time>2026-04-21T13:02:10Z</time></trkpt><trkpt lat="14.414058487490479" lon="120.96764717806595"><ele>25.0</ele><time>2026-04-21T13:02:11Z</time></trkpt><trkpt lat="14.414147139942656" lon="120.96762556291253"><ele>25.0</ele><time>2026-04-21T13:02:12Z</time></trkpt><trkpt lat="14.414240874470623" lon="120.96760060637668"><ele>25.0</ele><time>2026-04-21T13:02:13Z</time></trkpt><trkpt lat="14.414324240189675" lon="120.96757983176907"><ele>25.0</ele><time>2026-04-21T13:02:14Z</time></trkpt><trkpt lat="14.414412178946527" lon="120.96755541120339"><ele>25.0</ele><time>2026-04-21T13:02:15Z</time></trkpt><trkpt lat="14.414494413002652" lon="120.96753215297694"><ele>25.0</ele><time>2026-04-21T13:02:16Z</time></trkpt><trkpt lat="14.414580272121041" lon="120.9675027817627"><ele>25.0</ele><time>2026-04-21T13:02:17Z</time></trkpt><trkpt lat="14.414675574229028" lon="120.96747556950905"><ele>25.0</ele><time>2026-04-21T13:02:18Z</time></trkpt><trkpt lat="14.414782056538266" lon="120.96744932132083"><ele>25.0</ele><time>2026-04-21T13:02:19Z</time></trkpt><trkpt lat="14.414887640392983" lon="120.96742552742366"><ele>25.25</ele><time>2026-04-21T13:02:20Z</time></trkpt><trkpt lat="14.415000877548808" lon="120.96739687342976"><ele>25.5</ele><time>2026-04-21T13:02:21Z</time></trkpt><trkpt lat="14.41511120543086" lon="120.9673685658471"><ele>25.75</ele><time>2026-04-21T13:02:22Z</time></trkpt><trkpt lat="14.415220689472934" lon="120.96734252614826"><ele>26.0</ele><time>2026-04-21T13:02:23Z</time></trkpt><trkpt lat="14.415419115072233" lon="120.96729078947466"><ele>26.25</ele><time>2026-04-21T13:02:25Z</time></trkpt><trkpt lat="14.415522942810952" lon="120.96726270448481"><ele>26.5</ele><time>2026-04-21T13:02:26Z</time></trkpt><trkpt lat="14.415635451046974" lon="120.9672384343069"><ele>26.75</ele><time>2026-04-21T13:02:27Z</time></trkpt><trkpt lat="14.415747666026348" lon="120.96722095686862"><ele>27.0</ele><time>2026-04-21T13:02:28Z</time></trkpt><trkpt lat="14.415866208153492" lon="120.96720999066595"><ele>27.0</ele><time>2026-04-21T13:02:29Z</time></trkpt><trkpt lat="14.415992563535415" lon="120.96720459708733"><ele>27.0</ele><time>2026-04-21T13:02:30Z</time></trkpt><trkpt lat="14.416129465144715" lon="120.96720995486314"><ele>27.0</ele><time>2026-04-21T13:02:31Z</time></trkpt><trkpt lat="14.416277411979681" lon="120.96720276614084"><ele>27.0</ele><time>2026-04-21T13:02:32Z</time></trkpt><trkpt lat="14.416427090874294" lon="120.96723576530603"><ele>26.333333333333336</ele><time>2026-04-21T13:02:33Z</time></trkpt><trkpt lat="14.416580783321908" lon="120.96725405118667"><ele>25.666666666666668</ele><time>2026-04-21T13:02:34Z</time></trkpt><trkpt lat="14.416736434951295" lon="120.96727444658971"><ele>25.0</ele><time>2026-04-21T13:02:35Z</time></trkpt><trkpt lat="14.416889552719974" lon="120.96729688011816"><ele>25.0</ele><time>2026-04-21T13:02:36Z</time></trkpt><trkpt lat="14.417040393107133" lon="120.96731446807073"><ele>25.0</ele><time>2026-04-21T13:02:37Z</time></trkpt><trkpt lat="14.417186454679044" lon="120.96730802131896"><ele>25.0</ele><time>2026-04-21T13:02:38Z</time></trkpt><trkpt lat="14.41733351797529" lon="120.96732611844826"><ele>25.0</ele><time>2026-04-21T13:02:39Z</time></trkpt><trkpt lat="14.41748403342548" lon="120.9673446403912"><ele>24.75</ele><time>2026-04-21T13:02:40Z</time></trkpt><trkpt lat="14.417631207654914" lon="120.96736275117469"><ele>24.5</ele><time>2026-04-21T13:02:41Z</time></trkpt><trkpt lat="14.417777184793794" lon="120.96738759895054"><ele>24.25</ele><time>2026-04-21T13:02:42Z</time></trkpt><trkpt lat="14.417927501198527" lon="120.96738925890844"><ele>24.0</ele><time>2026-04-21T13:02:43Z</time></trkpt><trkpt lat="14.418081858237992" lon="120.96738302123048"><ele>23.333333333333332</ele><time>2026-04-21T13:02:44Z</time></trkpt><trkpt lat="14.418380134794186" lon="120.96737143464829"><ele>22.666666666666664</ele><time>2026-04-21T13:02:46Z</time></trkpt><trkpt lat="14.418529137985189" lon="120.96735994311426"><ele>22.0</ele><time>2026-04-21T13:02:47Z</time></trkpt><trkpt lat="14.418674310537831" lon="120.96735001359905"><ele>21.666666666666664</ele><time>2026-04-21T13:02:48Z</time></trkpt><trkpt lat="14.418826526236415" lon="120.96734632077097"><ele>21.333333333333332</ele><time>2026-04-21T13:02:49Z</time></trkpt><trkpt lat="14.418975325030443" lon="120.9673470198558"><ele>21.0</ele><time>2026-04-21T13:02:50Z</time></trkpt><trkpt lat="14.41913108451811" lon="120.96734332921457"><ele>21.0</ele><time>2026-04-21T13:02:51Z</time></trkpt><trkpt lat="14.419282623073261" lon="120.96733625755631"><ele>21.0</ele><time>2026-04-21T13:02:52Z</time></trkpt><trkpt lat="14.419440715638927" lon="120.96732009438934"><ele>21.0</ele><time>2026-04-21T13:02:53Z</time></trkpt><trkpt lat="14.419595447137983" lon="120.96730182983043"><ele>21.666666666666668</ele><time>2026-04-21T13:02:54Z</time></trkpt><trkpt lat="14.419744843050392" lon="120.96728018344089"><ele>22.333333333333336</ele><time>2026-04-21T13:02:55Z</time></trkpt><trkpt lat="14.419897642967014" lon="120.9672423812837"><ele>23.0</ele><time>2026-04-21T13:02:56Z</time></trkpt><trkpt lat="14.420049817953126" lon="120.96719353539147"><ele>23.0</ele><time>2026-04-21T13:02:57Z</time></trkpt><trkpt lat="14.420205183374746" lon="120.96713288556633"><ele>23.0</ele><time>2026-04-21T13:02:58Z</time></trkpt><trkpt lat="14.420361408168631" lon="120.96706832196797"><ele>23.0</ele><time>2026-04-21T13:02:59Z</time></trkpt><trkpt lat="14.420516781140352" lon="120.96700628836685"><ele>22.333333333333336</ele><time>2026-04-21T13:03:00Z</time></trkpt><trkpt lat="14.4206700457181" lon="120.96694366912482"><ele>21.666666666666668</ele><time>2026-04-21T13:03:01Z</time></trkpt><trkpt lat="14.420830520073373" lon="120.96687232290986"><ele>21.0</ele><time>2026-04-21T13:03:02Z</time></trkpt><trkpt lat="14.420978959448792" lon="120.96681041196078"><ele>21.0</ele><time>2026-04-21T13:03:03Z</time></trkpt><trkpt lat="14.421127776252181" lon="120.96674570680892"><ele>21.0</ele><time>2026-04-21T13:03:04Z</time></trkpt><trkpt lat="14.421281769056177" lon="120.96667481681673"><ele>21.0</ele><time>2026-04-21T13:03:05Z</time></trkpt><trkpt lat="14.421587549460241" lon="120.96653912147501"><ele>21.666666666666668</ele><time>2026-04-21T13:03:07Z</time></trkpt><trkpt lat="14.42174224464483" lon="120.96647528172085"><ele>22.333333333333336</ele><time>2026-04-21T13:03:08Z</time></trkpt><trkpt lat="14.421892899466819" lon="120.96640493380764"><ele>23.0</ele><time>2026-04-21T13:03:09Z</time></trkpt><trkpt lat="14.422048529138774" lon="120.96633609314435"><ele>22.333333333333336</ele><time>2026-04-21T13:03:10Z</time></trkpt><trkpt lat="14.422208639742895" lon="120.96626771292146"><ele>21.666666666666668</ele><time>2026-04-21T13:03:11Z</time></trkpt><trkpt lat="14.422364281636813" lon="120.96619796407506"><ele>21.0</ele><time>2026-04-21T13:03:12Z</time></trkpt><trkpt lat="14.422520713268165" lon="120.96613074810068"><ele>21.0</ele><time>2026-04-21T13:03:13Z</time></trkpt><trkpt lat="14.422668830517821" lon="120.96606955075848"><ele>21.0</ele><time>2026-04-21T13:03:14Z</time></trkpt><trkpt lat="14.422809687592618" lon="120.96601595825794"><ele>21.0</ele><time>2026-04-21T13:03:15Z</time></trkpt><trkpt lat="14.422925540483856" lon="120.96598260135997"><ele>21.0</ele><time>2026-04-21T13:03:16Z</time></trkpt><trkpt lat="14.423009709110913" lon="120.96596616467107"><ele>21.333333333333332</ele><time>2026-04-21T13:03:17Z</time></trkpt><trkpt lat="14.423092504199282" lon="120.96595388017445"><ele>21.666666666666668</ele><time>2026-04-21T13:03:18Z</time></trkpt><trkpt lat="14.423163351895527" lon="120.96594325083709"><ele>22.0</ele><time>2026-04-21T13:03:19Z</time></trkpt><trkpt lat="14.423252285557625" lon="120.96592792052756"><ele>22.333333333333336</ele><time>2026-04-21T13:03:20Z</time></trkpt><trkpt lat="14.423333617361747" lon="120.96591790616326"><ele>22.666666666666668</ele><time>2026-04-21T13:03:21Z</time></trkpt><trkpt lat="14.423407425016665" lon="120.9659119503114"><ele>23.0</ele><time>2026-04-21T13:03:22Z</time></trkpt><trkpt lat="14.423477742238509" lon="120.96590456096399"><ele>23.0</ele><time>2026-04-21T13:03:23Z</time></trkpt><trkpt lat="14.423542971508422" lon="120.96589780557383"><ele>23.0</ele><time>2026-04-21T13:03:24Z</time></trkpt><trkpt lat="14.423610538364985" lon="120.96589075063049"><ele>23.0</ele><time>2026-04-21T13:03:25Z</time></trkpt><trkpt lat="14.42368324965471" lon="120.965885067861"><ele>23.0</ele><time>2026-04-21T13:03:26Z</time></trkpt><trkpt lat="14.423849899818146" lon="120.96587511516529"><ele>23.0</ele><time>2026-04-21T13:03:28Z</time></trkpt><trkpt lat="14.423933440930712" lon="120.96587121915799"><ele>22.799999999999997</ele><time>2026-04-21T13:03:29Z</time></trkpt><trkpt lat="14.424032479816532" lon="120.96586368274659"><ele>22.6</ele><time>2026-04-21T13:03:30Z</time></trkpt><trkpt lat="14.424128372126875" lon="120.96585608821587"><ele>22.4</ele><time>2026-04-21T13:03:31Z</time></trkpt><trkpt lat="14.424219023901156" lon="120.9658461535486"><ele>22.200000000000003</ele><time>2026-04-21T13:03:32Z</time></trkpt><trkpt lat="14.424313367943212" lon="120.96582876404348"><ele>22.0</ele><time>2026-04-21T13:03:33Z</time></trkpt><trkpt lat="14.424403360244074" lon="120.96580392768712"><ele>22.0</ele><time>2026-04-21T13:03:34Z</time></trkpt><trkpt lat="14.424498524474833" lon="120.96577135533106"><ele>22.0</ele><time>2026-04-21T13:03:35Z</time></trkpt><trkpt lat="14.424608353951955" lon="120.96572465646577"><ele>22.0</ele><time>2026-04-21T13:03:36Z</time></trkpt><trkpt lat="14.424725957407313" lon="120.96566271099483"><ele>22.0</ele><time>2026-04-21T13:03:37Z</time></trkpt><trkpt lat="14.424848377662066" lon="120.96557998430455"><ele>21.666666666666664</ele><time>2026-04-21T13:03:38Z</time></trkpt><trkpt lat="14.424967147432776" lon="120.96547551155564"><ele>21.333333333333332</ele><time>2026-04-21T13:03:39Z</time></trkpt><trkpt lat="14.425087288972769" lon="120.96537027112926"><ele>21.0</ele><time>2026-04-21T13:03:40Z</time></trkpt><trkpt lat="14.425204591079805" lon="120.96527151223295"><ele>21.0</ele><time>2026-04-21T13:03:41Z</time></trkpt><trkpt lat="14.425317425919538" lon="120.96518883831894"><ele>21.0</ele><time>2026-04-21T13:03:42Z</time></trkpt><trkpt lat="14.425424370245047" lon="120.96511036672942"><ele>21.0</ele><time>2026-04-21T13:03:43Z</time></trkpt><trkpt lat="14.425529143743454" lon="120.96503336578968"><ele>21.0</ele><time>2026-04-21T13:03:44Z</time></trkpt><trkpt lat="14.425629371364815" lon="120.96496604475672"><ele>20.75</ele><time>2026-04-21T13:03:45Z</time></trkpt><trkpt lat="14.425730176965853" lon="120.9649000422476"><ele>20.5</ele><time>2026-04-21T13:03:46Z</time></trkpt><trkpt lat="14.425822595306625" lon="120.96484098162666"><ele>20.25</ele><time>2026-04-21T13:03:47Z</time></trkpt><trkpt lat="14.426021976379504" lon="120.9647469706051"><ele>20.0</ele><time>2026-04-21T13:03:49Z</time></trkpt><trkpt lat="14.426130884302736" lon="120.96469486168108"><ele>20.0</ele><time>2026-04-21T13:03:50Z</time></trkpt><trkpt lat="14.42624475308505" lon="120.9646486149609"><ele>20.0</ele><time>2026-04-21T13:03:51Z</time></trkpt><trkpt lat="14.426361471358703" lon="120.96461473158467"><ele>20.0</ele><time>2026-04-21T13:03:52Z</time></trkpt><trkpt lat="14.426489701118907" lon="120.96456599616097"><ele>20.0</ele><time>2026-04-21T13:03:53Z</time></trkpt><trkpt lat="14.426608910813023" lon="120.964537629015"><ele>19.0</ele><time>2026-04-21T13:03:54Z</time></trkpt><trkpt lat="14.426732989885704" lon="120.96447669642913"><ele>18.0</ele><time>2026-04-21T13:03:55Z</time></trkpt><trkpt lat="14.426860979509618" lon="120.9644380028369"><ele>17.0</ele><time>2026-04-21T13:03:56Z</time></trkpt><trkpt lat="14.426995508019399" lon="120.96441183491025"><ele>16.0</ele><time>2026-04-21T13:03:57Z</time></trkpt><trkpt lat="14.427132917817351" lon="120.9643910735921"><ele>16.25</ele><time>2026-04-21T13:03:58Z</time></trkpt><trkpt lat="14.427254752536111" lon="120.96437012318671"><ele>16.5</ele><time>2026-04-21T13:03:59Z</time></trkpt><trkpt lat="14.4273801446791" lon="120.96435780960252"><ele>16.75</ele><time>2026-04-21T13:04:00Z</time></trkpt><trkpt lat="14.42751876342412" lon="120.964352132324"><ele>17.0</ele><time>2026-04-21T13:04:01Z</time></trkpt><trkpt lat="14.427653188711307" lon="120.9643449800191"><ele>17.0</ele><time>2026-04-21T13:04:02Z</time></trkpt><trkpt lat="14.427784786758515" lon="120.96434571469729"><ele>17.0</ele><time>2026-04-21T13:04:03Z</time></trkpt><trkpt lat="14.4279147439072" lon="120.96435150229155"><ele>17.0</ele><time>2026-04-21T13:04:04Z</time></trkpt><trkpt lat="14.428049403632361" lon="120.96435305535095"><ele>17.0</ele><time>2026-04-21T13:04:05Z</time></trkpt><trkpt lat="14.428191077464355" lon="120.96435918640914"><ele>18.0</ele><time>2026-04-21T13:04:06Z</time></trkpt><trkpt lat="14.428317403265764" lon="120.96436831413266"><ele>19.0</ele><time>2026-04-21T13:04:07Z</time></trkpt><trkpt lat="14.428438504979233" lon="120.96438454733399"><ele>20.0</ele><time>2026-04-21T13:04:08Z</time></trkpt><trkpt lat="14.428638749883056" lon="120.96442515208469"><ele>20.0</ele><time>2026-04-21T13:04:10Z</time></trkpt><trkpt lat="14.428722568748805" lon="120.96444905217814"><ele>20.0</ele><time>2026-04-21T13:04:11Z</time></trkpt><trkpt lat="14.428808903937288" lon="120.96447128966457"><ele>20.0</ele><time>2026-04-21T13:04:12Z</time></trkpt><trkpt lat="14.428909199143096" lon="120.96449335144477"><ele>20.0</ele><time>2026-04-21T13:04:13Z</time></trkpt><trkpt lat="14.429021458978397" lon="120.96452706538625"><ele>20.0</ele><time>2026-04-21T13:04:14Z</time></trkpt><trkpt lat="14.429134466765108" lon="120.96457036770241"><ele>19.5</ele><time>2026-04-21T13:04:15Z</time></trkpt><trkpt lat="14.429250057027353" lon="120.96461444368856"><ele>19.0</ele><time>2026-04-21T13:04:16Z</time></trkpt><trkpt lat="14.429362430249673" lon="120.9646599122196"><ele>18.5</ele><time>2026-04-21T13:04:17Z</time></trkpt><trkpt lat="14.429477673183952" lon="120.9647121786364"><ele>18.0</ele><time>2026-04-21T13:04:18Z</time></trkpt><trkpt lat="14.429602893723947" lon="120.96477497119037"><ele>18.0</ele><time>2026-04-21T13:04:19Z</time></trkpt><trkpt lat="14.429724222095388" lon="120.9648493166546"><ele>18.0</ele><time>2026-04-21T13:04:20Z</time></trkpt><trkpt lat="14.429847296194424" lon="120.96492171893897"><ele>18.0</ele><time>2026-04-21T13:04:21Z</time></trkpt><trkpt lat="14.429953681030812" lon="120.96499121873143"><ele>18.0</ele><time>2026-04-21T13:04:22Z</time></trkpt><trkpt lat="14.430040518742882" lon="120.965050435729"><ele>17.6</ele><time>2026-04-21T13:04:23Z</time></trkpt><trkpt lat="14.430109956328973" lon="120.9650952287596"><ele>17.200000000000003</ele><time>2026-04-21T13:04:24Z</time></trkpt><trkpt lat="14.430174672582742" lon="120.96513443687489"><ele>16.8</ele><time>2026-04-21T13:04:25Z</time></trkpt><trkpt lat="14.430264231837599" lon="120.96520079589428"><ele>16.400000000000002</ele><time>2026-04-21T13:04:27Z</time></trkpt><trkpt lat="14.430317786943418" lon="120.96524098579138"><ele>16.0</ele><time>2026-04-21T13:04:29Z</time></trkpt><trkpt lat="14.430475722413325" lon="120.96527555331515"><ele>15.75</ele><time>2026-04-21T13:04:53Z</time></trkpt><trkpt lat="14.430686714327829" lon="120.9653888219752"><ele>15.5</ele><time>2026-04-21T13:04:57Z</time></trkpt><trkpt lat="14.430751099551957" lon="120.96542695741005"><ele>15.25</ele><time>2026-04-21T13:04:58Z</time></trkpt><trkpt lat="14.430827554721956" lon="120.96547224186887"><ele>15.0</ele><time>2026-04-21T13:04:59Z</time></trkpt><trkpt lat="14.430890948656021" lon="120.9655264880982"><ele>15.0</ele><time>2026-04-21T13:05:00Z</time></trkpt><trkpt lat="14.430962670790349" lon="120.9655444542948"><ele>15.0</ele><time>2026-04-21T13:05:01Z</time></trkpt><trkpt lat="14.431023250071101" lon="120.96557632287906"><ele>15.0</ele><time>2026-04-21T13:05:02Z</time></trkpt><trkpt lat="14.431087682928569" lon="120.96561021868357"><ele>15.0</ele><time>2026-04-21T13:05:03Z</time></trkpt><trkpt lat="14.43115291512951" lon="120.96566054102418"><ele>15.0</ele><time>2026-04-21T13:05:04Z</time></trkpt><trkpt lat="14.431230577377637" lon="120.9657019137467"><ele>15.0</ele><time>2026-04-21T13:05:05Z</time></trkpt><trkpt lat="14.43131129652202" lon="120.96574282563924"><ele>15.166666666666666</ele><time>2026-04-21T13:05:06Z</time></trkpt><trkpt lat="14.431379942837866" lon="120.96578057938342"><ele>15.333333333333332</ele><time>2026-04-21T13:05:07Z</time></trkpt><trkpt lat="14.431439345129833" lon="120.96581867813882"><ele>15.5</ele><time>2026-04-21T13:05:08Z</time></trkpt><trkpt lat="14.431505993925306" lon="120.96584840881583"><ele>15.666666666666666</ele><time>2026-04-21T13:05:09Z</time></trkpt><trkpt lat="14.431583990360883" lon="120.9658804838713"><ele>15.833333333333332</ele><time>2026-04-21T13:05:10Z</time></trkpt><trkpt lat="14.431666629296004" lon="120.9659203029358"><ele>16.0</ele><time>2026-04-21T13:05:11Z</time></trkpt><trkpt lat="14.43172844957482" lon="120.96595869665974"><ele>16.0</ele><time>2026-04-21T13:05:12Z</time></trkpt><trkpt lat="14.431800724507864" lon="120.96600233689644"><ele>16.0</ele><time>2026-04-21T13:05:13Z</time></trkpt><trkpt lat="14.43188356737489" lon="120.96604917041448"><ele>16.0</ele><time>2026-04-21T13:05:14Z</time></trkpt><trkpt lat="14.432088898453049" lon="120.9661615817768"><ele>16.0</ele><time>2026-04-21T13:05:16Z</time></trkpt><trkpt lat="14.432200064302807" lon="120.96621773358194"><ele>15.75</ele><time>2026-04-21T13:05:17Z</time></trkpt><trkpt lat="14.432324095470564" lon="120.96628993230193"><ele>15.5</ele><time>2026-04-21T13:05:18Z</time></trkpt><trkpt lat="14.432438928849086" lon="120.96635527608977"><ele>15.25</ele><time>2026-04-21T13:05:19Z</time></trkpt><trkpt lat="14.432561130566265" lon="120.9664227744237"><ele>15.0</ele><time>2026-04-21T13:05:20Z</time></trkpt><trkpt lat="14.4326860748058" lon="120.96648828728891"><ele>15.0</ele><time>2026-04-21T13:05:21Z</time></trkpt><trkpt lat="14.432814438381552" lon="120.96655107209891"><ele>15.0</ele><time>2026-04-21T13:05:22Z</time></trkpt><trkpt lat="14.432953057616814" lon="120.96661749770338"><ele>15.0</ele><time>2026-04-21T13:05:23Z</time></trkpt><trkpt lat="14.433087861659448" lon="120.96668401383408"><ele>15.0</ele><time>2026-04-21T13:05:24Z</time></trkpt><trkpt lat="14.433216614845922" lon="120.96674994570198"><ele>14.25</ele><time>2026-04-21T13:05:25Z</time></trkpt><trkpt lat="14.433347573615277" lon="120.96681748837719"><ele>13.5</ele><time>2026-04-21T13:05:26Z</time></trkpt><trkpt lat="14.433476929842644" lon="120.96688520461669"><ele>12.75</ele><time>2026-04-21T13:05:27Z</time></trkpt><trkpt lat="14.433604529041766" lon="120.96695351891395"><ele>12.0</ele><time>2026-04-21T13:05:28Z</time></trkpt><trkpt lat="14.433732924571723" lon="120.9670238283779"><ele>11.75</ele><time>2026-04-21T13:05:29Z</time></trkpt><trkpt lat="14.433861338784652" lon="120.96709329321594"><ele>11.5</ele><time>2026-04-21T13:05:30Z</time></trkpt><trkpt lat="14.433990110232342" lon="120.96716119278248"><ele>11.25</ele><time>2026-04-21T13:05:31Z</time></trkpt><trkpt lat="14.434122076933834" lon="120.96723382998873"><ele>11.0</ele><time>2026-04-21T13:05:32Z</time></trkpt><trkpt lat="14.434254671170958" lon="120.96730741921947"><ele>11.0</ele><time>2026-04-21T13:05:33Z</time></trkpt><trkpt lat="14.434386766972615" lon="120.96737926391936"><ele>11.0</ele><time>2026-04-21T13:05:34Z</time></trkpt><trkpt lat="14.434523938726786" lon="120.96745530271897"><ele>11.0</ele><time>2026-04-21T13:05:35Z</time></trkpt><trkpt lat="14.434796788012656" lon="120.96760948630006"><ele>10.25</ele><time>2026-04-21T13:05:37Z</time></trkpt><trkpt lat="14.434925127716202" lon="120.96768019928653"><ele>9.5</ele><time>2026-04-21T13:05:38Z</time></trkpt><trkpt lat="14.435046739723898" lon="120.96774689984647"><ele>8.75</ele><time>2026-04-21T13:05:39Z</time></trkpt><trkpt lat="14.43516132843372" lon="120.9678100892044"><ele>8.0</ele><time>2026-04-21T13:05:40Z</time></trkpt><trkpt lat="14.435268830966091" lon="120.96786981895058"><ele>8.0</ele><time>2026-04-21T13:05:41Z</time></trkpt><trkpt lat="14.435376229786428" lon="120.96792869590737"><ele>8.0</ele><time>2026-04-21T13:05:42Z</time></trkpt><trkpt lat="14.43547494559581" lon="120.96798516952072"><ele>8.0</ele><time>2026-04-21T13:05:43Z</time></trkpt><trkpt lat="14.435584004464152" lon="120.96804787396711"><ele>8.0</ele><time>2026-04-21T13:05:44Z</time></trkpt><trkpt lat="14.4356769932133" lon="120.96810255978362"><ele>8.8</ele><time>2026-04-21T13:05:45Z</time></trkpt><trkpt lat="14.435773074400448" lon="120.9681532829287"><ele>9.600000000000001</ele><time>2026-04-21T13:05:46Z</time></trkpt><trkpt lat="14.435856397190731" lon="120.96819941405826"><ele>10.399999999999999</ele><time>2026-04-21T13:05:47Z</time></trkpt><trkpt lat="14.435939423552517" lon="120.96823391255968"><ele>11.2</ele><time>2026-04-21T13:05:48Z</time></trkpt><trkpt lat="14.436020994186853" lon="120.968257294102"><ele>12.0</ele><time>2026-04-21T13:05:49Z</time></trkpt><trkpt lat="14.436101490618661" lon="120.96828111820822"><ele>12.0</ele><time>2026-04-21T13:05:50Z</time></trkpt><trkpt lat="14.436176611603324" lon="120.96830685799351"><ele>12.0</ele><time>2026-04-21T13:05:51Z</time></trkpt><trkpt lat="14.436245076553043" lon="120.9683334454249"><ele>12.0</ele><time>2026-04-21T13:05:52Z</time></trkpt><trkpt lat="14.436365257617549" lon="120.96837093636822"><ele>12.0</ele><time>2026-04-21T13:05:54Z</time></trkpt><trkpt lat="14.436437459730481" lon="120.96838863760757"><ele>12.0</ele><time>2026-04-21T13:05:55Z</time></trkpt><trkpt lat="14.436511594557171" lon="120.96839560917095"><ele>12.0</ele><time>2026-04-21T13:05:56Z</time></trkpt><trkpt lat="14.43671323483796" lon="120.96839218637645"><ele>11.5</ele><time>2026-04-21T13:05:58Z</time></trkpt><trkpt lat="14.436820683963543" lon="120.96837348172288"><ele>11.0</ele><time>2026-04-21T13:05:59Z</time></trkpt><trkpt lat="14.43694662297455" lon="120.96835041019641"><ele>10.5</ele><time>2026-04-21T13:06:00Z</time></trkpt><trkpt lat="14.43706372674585" lon="120.9683163473182"><ele>10.0</ele><time>2026-04-21T13:06:01Z</time></trkpt><trkpt lat="14.437188672694544" lon="120.96828333574929"><ele>9.75</ele><time>2026-04-21T13:06:02Z</time></trkpt><trkpt lat="14.43731437135321" lon="120.96825095166722"><ele>9.5</ele><time>2026-04-21T13:06:03Z</time></trkpt><trkpt lat="14.437446000944025" lon="120.96821784745191"><ele>9.25</ele><time>2026-04-21T13:06:04Z</time></trkpt><trkpt lat="14.437578679294319" lon="120.96819196812288"><ele>9.0</ele><time>2026-04-21T13:06:05Z</time></trkpt><trkpt lat="14.437705184675938" lon="120.96815787594521"><ele>9.0</ele><time>2026-04-21T13:06:06Z</time></trkpt><trkpt lat="14.437842226392013" lon="120.96812468650745"><ele>9.0</ele><time>2026-04-21T13:06:07Z</time></trkpt><trkpt lat="14.437980647817337" lon="120.9680915225533"><ele>9.0</ele><time>2026-04-21T13:06:08Z</time></trkpt><trkpt lat="14.43812008706634" lon="120.96806017417092"><ele>9.0</ele><time>2026-04-21T13:06:09Z</time></trkpt><trkpt lat="14.438261449129682" lon="120.9680226527207"><ele>9.25</ele><time>2026-04-21T13:06:10Z</time></trkpt><trkpt lat="14.438406590388825" lon="120.96798436987861"><ele>9.5</ele><time>2026-04-21T13:06:11Z</time></trkpt><trkpt lat="14.438550542339065" lon="120.96794760460203"><ele>9.75</ele><time>2026-04-21T13:06:12Z</time></trkpt><trkpt lat="14.438694341201321" lon="120.96791074814418"><ele>10.0</ele><time>2026-04-21T13:06:13Z</time></trkpt><trkpt lat="14.438834764767376" lon="120.96787468378193"><ele>10.0</ele><time>2026-04-21T13:06:14Z</time></trkpt><trkpt lat="14.438966266812034" lon="120.96783525653262"><ele>10.0</ele><time>2026-04-21T13:06:15Z</time></trkpt><trkpt lat="14.439089664721113" lon="120.9678005442209"><ele>10.0</ele><time>2026-04-21T13:06:16Z</time></trkpt><trkpt lat="14.439209020835865" lon="120.96777073933634"><ele>10.0</ele><time>2026-04-21T13:06:17Z</time></trkpt><trkpt lat="14.439445426639006" lon="120.96770530336552"><ele>10.0</ele><time>2026-04-21T13:06:19Z</time></trkpt><trkpt lat="14.4395667712312" lon="120.96765811441257"><ele>10.0</ele><time>2026-04-21T13:06:20Z</time></trkpt><trkpt lat="14.439680840334587" lon="120.96761155068752"><ele>10.0</ele><time>2026-04-21T13:06:21Z</time></trkpt><trkpt lat="14.43978857201803" lon="120.9675680939316"><ele>10.0</ele><time>2026-04-21T13:06:22Z</time></trkpt><trkpt lat="14.439903615944996" lon="120.9675199843583"><ele>10.0</ele><time>2026-04-21T13:06:23Z</time></trkpt><trkpt lat="14.440010283660072" lon="120.96747219563048"><ele>10.0</ele><time>2026-04-21T13:06:24Z</time></trkpt><trkpt lat="14.440131853829524" lon="120.96741593953088"><ele>10.0</ele><time>2026-04-21T13:06:25Z</time></trkpt><trkpt lat="14.440237623976389" lon="120.96736839924499"><ele>10.0</ele><time>2026-04-21T13:06:26Z</time></trkpt><trkpt lat="14.440341848630414" lon="120.96731926307037"><ele>10.0</ele><time>2026-04-21T13:06:27Z</time></trkpt><trkpt lat="14.440446940285348" lon="120.96726964830627"><ele>10.0</ele><time>2026-04-21T13:06:28Z</time></trkpt><trkpt lat="14.440552656008215" lon="120.96721975773751"><ele>10.0</ele><time>2026-04-21T13:06:29Z</time></trkpt><trkpt lat="14.440650344333344" lon="120.96717879270439"><ele>10.0</ele><time>2026-04-21T13:06:30Z</time></trkpt><trkpt lat="14.440754947911367" lon="120.96713242753351"><ele>9.6</ele><time>2026-04-21T13:06:31Z</time></trkpt><trkpt lat="14.44085393562168" lon="120.96708950164268"><ele>9.2</ele><time>2026-04-21T13:06:32Z</time></trkpt><trkpt lat="14.44096086792238" lon="120.96704011303726"><ele>8.8</ele><time>2026-04-21T13:06:33Z</time></trkpt><trkpt lat="14.441054578820419" lon="120.96699554619804"><ele>8.4</ele><time>2026-04-21T13:06:34Z</time></trkpt><trkpt lat="14.441142873652097" lon="120.96695809607958"><ele>8.0</ele><time>2026-04-21T13:06:35Z</time></trkpt><trkpt lat="14.441240369212045" lon="120.9669131853634"><ele>8.0</ele><time>2026-04-21T13:06:36Z</time></trkpt><trkpt lat="14.441328623218455" lon="120.966878183685"><ele>8.0</ele><time>2026-04-21T13:06:37Z</time></trkpt><trkpt lat="14.441420369381554" lon="120.96683876326055"><ele>8.0</ele><time>2026-04-21T13:06:38Z</time></trkpt><trkpt lat="14.441598996203965" lon="120.96676594513433"><ele>8.0</ele><time>2026-04-21T13:06:40Z</time></trkpt><trkpt lat="14.441700447753327" lon="120.96671612581254"><ele>8.200000000000001</ele><time>2026-04-21T13:06:41Z</time></trkpt><trkpt lat="14.441802917664338" lon="120.96667990250184"><ele>8.4</ele><time>2026-04-21T13:06:42Z</time></trkpt><trkpt lat="14.441909164194703" lon="120.96662613098063"><ele>8.600000000000001</ele><time>2026-04-21T13:06:43Z</time></trkpt><trkpt lat="14.442013209865262" lon="120.96659063572585"><ele>8.8</ele><time>2026-04-21T13:06:44Z</time></trkpt><trkpt lat="14.44211482175819" lon="120.96656290667242"><ele>9.0</ele><time>2026-04-21T13:06:45Z</time></trkpt><trkpt lat="14.442222993325316" lon="120.96648549114943"><ele>9.2</ele><time>2026-04-21T13:06:46Z</time></trkpt><trkpt lat="14.44232534572304" lon="120.96644056761663"><ele>9.4</ele><time>2026-04-21T13:06:47Z</time></trkpt><trkpt lat="14.442430564776936" lon="120.96640456450807"><ele>9.6</ele><time>2026-04-21T13:06:48Z</time></trkpt><trkpt lat="14.442539166958902" lon="120.96636893128584"><ele>9.8</ele><time>2026-04-21T13:06:49Z</time></trkpt><trkpt lat="14.442647388023124" lon="120.96634108754145"><ele>10.0</ele><time>2026-04-21T13:06:50Z</time></trkpt><trkpt lat="14.44274015226472" lon="120.96632472544732"><ele>10.0</ele><time>2026-04-21T13:06:51Z</time></trkpt><trkpt lat="14.442824091516028" lon="120.96631462920965"><ele>10.0</ele><time>2026-04-21T13:06:52Z</time></trkpt><trkpt lat="14.442914766298205" lon="120.96630318073308"><ele>10.0</ele><time>2026-04-21T13:06:53Z</time></trkpt><trkpt lat="14.443012559793088" lon="120.9663018662587"><ele>10.0</ele><time>2026-04-21T13:06:54Z</time></trkpt><trkpt lat="14.443122294311577" lon="120.96630967503127"><ele>10.0</ele><time>2026-04-21T13:06:55Z</time></trkpt><trkpt lat="14.443248958188596" lon="120.9663301622592"><ele>10.0</ele><time>2026-04-21T13:06:56Z</time></trkpt><trkpt lat="14.443381250619693" lon="120.96635225854847"><ele>10.0</ele><time>2026-04-21T13:06:57Z</time></trkpt><trkpt lat="14.443515805073465" lon="120.96637455272528"><ele>10.0</ele><time>2026-04-21T13:06:58Z</time></trkpt><trkpt lat="14.443660369112987" lon="120.96639441574644"><ele>10.0</ele><time>2026-04-21T13:06:59Z</time></trkpt><trkpt lat="14.443959716934812" lon="120.96643230554464"><ele>10.0</ele><time>2026-04-21T13:07:01Z</time></trkpt><trkpt lat="14.444097472583836" lon="120.96644434597465"><ele>10.0</ele><time>2026-04-21T13:07:02Z</time></trkpt><trkpt lat="14.444221946438548" lon="120.9664419556134"><ele>10.0</ele><time>2026-04-21T13:07:03Z</time></trkpt><trkpt lat="14.444340466621897" lon="120.96642552096372"><ele>10.0</ele><time>2026-04-21T13:07:04Z</time></trkpt><trkpt lat="14.444446968032938" lon="120.96639228679318"><ele>10.0</ele><time>2026-04-21T13:07:05Z</time></trkpt><trkpt lat="14.444537610059232" lon="120.96634760030875"><ele>10.0</ele><time>2026-04-21T13:07:06Z</time></trkpt><trkpt lat="14.444603017644155" lon="120.9663181540346"><ele>10.0</ele><time>2026-04-21T13:07:07Z</time></trkpt><trkpt lat="14.444685123835953" lon="120.96629063001248"><ele>10.0</ele><time>2026-04-21T13:07:09Z</time></trkpt><trkpt lat="14.444769287586722" lon="120.96625195847197"><ele>10.0</ele><time>2026-04-21T13:07:11Z</time></trkpt><trkpt lat="14.444853193934414" lon="120.96622972754237"><ele>10.0</ele><time>2026-04-21T13:07:13Z</time></trkpt><trkpt lat="14.444953954607993" lon="120.96617574245744"><ele>10.0</ele><time>2026-04-21T13:07:15Z</time></trkpt><trkpt lat="14.445074581748232" lon="120.96614984720786"><ele>10.0</ele><time>2026-04-21T13:07:16Z</time></trkpt><trkpt lat="14.445160869393517" lon="120.96610359356289"><ele>10.0</ele><time>2026-04-21T13:07:17Z</time></trkpt><trkpt lat="14.445257396897535" lon="120.96605443291253"><ele>10.0</ele><time>2026-04-21T13:07:18Z</time></trkpt><trkpt lat="14.445358911230159" lon="120.96599710881456"><ele>10.0</ele><time>2026-04-21T13:07:19Z</time></trkpt><trkpt lat="14.44546471938489" lon="120.96593634886814"><ele>10.333333333333334</ele><time>2026-04-21T13:07:20Z</time></trkpt><trkpt lat="14.44570314939179" lon="120.96579766265178"><ele>10.666666666666666</ele><time>2026-04-21T13:07:22Z</time></trkpt><trkpt lat="14.445834827534595" lon="120.96572844651544"><ele>11.0</ele><time>2026-04-21T13:07:23Z</time></trkpt><trkpt lat="14.44596907587766" lon="120.96566165795521"><ele>11.0</ele><time>2026-04-21T13:07:24Z</time></trkpt><trkpt lat="14.446098966776395" lon="120.96559425428272"><ele>11.0</ele><time>2026-04-21T13:07:25Z</time></trkpt><trkpt lat="14.446216331601855" lon="120.96551055550458"><ele>11.0</ele><time>2026-04-21T13:07:26Z</time></trkpt><trkpt lat="14.446319158173148" lon="120.96541665326468"><ele>11.0</ele><time>2026-04-21T13:07:27Z</time></trkpt><trkpt lat="14.446406241133637" lon="120.96531178215264"><ele>11.5</ele><time>2026-04-21T13:07:28Z</time></trkpt><trkpt lat="14.446495067825902" lon="120.96520004142427"><ele>12.0</ele><time>2026-04-21T13:07:29Z</time></trkpt><trkpt lat="14.446581920139097" lon="120.96507553231552"><ele>12.5</ele><time>2026-04-21T13:07:30Z</time></trkpt><trkpt lat="14.446659413356436" lon="120.96493978063707"><ele>13.0</ele><time>2026-04-21T13:07:31Z</time></trkpt><trkpt lat="14.446723233217538" lon="120.9647977222591"><ele>13.0</ele><time>2026-04-21T13:07:32Z</time></trkpt><trkpt lat="14.44678838224654" lon="120.96464136865266"><ele>13.0</ele><time>2026-04-21T13:07:33Z</time></trkpt><trkpt lat="14.446851120555607" lon="120.96447539898355"><ele>13.0</ele><time>2026-04-21T13:07:34Z</time></trkpt><trkpt lat="14.446914569850895" lon="120.96430238262408"><ele>13.333333333333332</ele><time>2026-04-21T13:07:35Z</time></trkpt><trkpt lat="14.446981405028808" lon="120.96412338181676"><ele>13.666666666666668</ele><time>2026-04-21T13:07:36Z</time></trkpt><trkpt lat="14.447060198265428" lon="120.96394130230648"><ele>14.0</ele><time>2026-04-21T13:07:37Z</time></trkpt><trkpt lat="14.447144089193163" lon="120.96376472541947"><ele>12.666666666666668</ele><time>2026-04-21T13:07:38Z</time></trkpt><trkpt lat="14.447238950977974" lon="120.96358755613143"><ele>11.333333333333334</ele><time>2026-04-21T13:07:39Z</time></trkpt><trkpt lat="14.447345887958871" lon="120.9634153277002"><ele>10.0</ele><time>2026-04-21T13:07:40Z</time></trkpt><trkpt lat="14.447463414754179" lon="120.96324876438358"><ele>9.0</ele><time>2026-04-21T13:07:41Z</time></trkpt><trkpt lat="14.447726104951709" lon="120.96293294097381"><ele>8.0</ele><time>2026-04-21T13:07:43Z</time></trkpt><trkpt lat="14.447872373878976" lon="120.96278756952782"><ele>8.666666666666666</ele><time>2026-04-21T13:07:44Z</time></trkpt><trkpt lat="14.448024638942186" lon="120.96265050191809"><ele>9.333333333333334</ele><time>2026-04-21T13:07:45Z</time></trkpt><trkpt lat="14.448188782481617" lon="120.96251714125036"><ele>10.0</ele><time>2026-04-21T13:07:46Z</time></trkpt><trkpt lat="14.448362757573104" lon="120.96239154417358"><ele>10.666666666666668</ele><time>2026-04-21T13:07:47Z</time></trkpt><trkpt lat="14.448543180085784" lon="120.96227206902982"><ele>11.333333333333334</ele><time>2026-04-21T13:07:48Z</time></trkpt><trkpt lat="14.448729416528655" lon="120.96215777387927"><ele>12.0</ele><time>2026-04-21T13:07:49Z</time></trkpt><trkpt lat="14.448921737784097" lon="120.96204371383865"><ele>12.0</ele><time>2026-04-21T13:07:50Z</time></trkpt><trkpt lat="14.449114110488287" lon="120.96193664236561"><ele>12.0</ele><time>2026-04-21T13:07:51Z</time></trkpt><trkpt lat="14.449308128741478" lon="120.96184101377199"><ele>12.0</ele><time>2026-04-21T13:07:52Z</time></trkpt><trkpt lat="14.449502984110469" lon="120.96173604496185"><ele>11.0</ele><time>2026-04-21T13:07:53Z</time></trkpt><trkpt lat="14.449697250918726" lon="120.96162662667962"><ele>10.0</ele><time>2026-04-21T13:07:54Z</time></trkpt><trkpt lat="14.44988922278951" lon="120.96151217920968"><ele>9.0</ele><time>2026-04-21T13:07:55Z</time></trkpt><trkpt lat="14.45008641765105" lon="120.96140084046303"><ele>9.0</ele><time>2026-04-21T13:07:56Z</time></trkpt><trkpt lat="14.450284399184797" lon="120.96128826501197"><ele>9.0</ele><time>2026-04-21T13:07:57Z</time></trkpt><trkpt lat="14.450468387257272" lon="120.96118687155456"><ele>9.0</ele><time>2026-04-21T13:07:58Z</time></trkpt><trkpt lat="14.450645264029188" lon="120.96109290610454"><ele>9.0</ele><time>2026-04-21T13:07:59Z</time></trkpt><trkpt lat="14.450823501135849" lon="120.96101224432603"><ele>9.0</ele><time>2026-04-21T13:08:00Z</time></trkpt><trkpt lat="14.451007175708094" lon="120.96094079742767"><ele>9.0</ele><time>2026-04-21T13:08:01Z</time></trkpt><trkpt lat="14.451186535411786" lon="120.96088845492207"><ele>8.5</ele><time>2026-04-21T13:08:02Z</time></trkpt><trkpt lat="14.451520865417285" lon="120.96081444956285"><ele>8.0</ele><time>2026-04-21T13:08:04Z</time></trkpt><trkpt lat="14.451674203823556" lon="120.96079667197836"><ele>8.0</ele><time>2026-04-21T13:08:05Z</time></trkpt><trkpt lat="14.45183003903707" lon="120.96078844850291"><ele>8.0</ele><time>2026-04-21T13:08:06Z</time></trkpt><trkpt lat="14.451984315597532" lon="120.96080039766153"><ele>8.0</ele><time>2026-04-21T13:08:07Z</time></trkpt><trkpt lat="14.45214275919906" lon="120.96082026632588"><ele>7.333333333333333</ele><time>2026-04-21T13:08:08Z</time></trkpt><trkpt lat="14.452308325140665" lon="120.9608341404947"><ele>6.666666666666666</ele><time>2026-04-21T13:08:09Z</time></trkpt><trkpt lat="14.452477140355642" lon="120.96084257693893"><ele>6.0</ele><time>2026-04-21T13:08:10Z</time></trkpt><trkpt lat="14.452649178086453" lon="120.96083832808576"><ele>6.0</ele><time>2026-04-21T13:08:11Z</time></trkpt><trkpt lat="14.45283152532722" lon="120.96081799254459"><ele>6.0</ele><time>2026-04-21T13:08:12Z</time></trkpt><trkpt lat="14.453009808557868" lon="120.96079198823277"><ele>6.0</ele><time>2026-04-21T13:08:13Z</time></trkpt><trkpt lat="14.45319461577044" lon="120.96076365159192"><ele>6.333333333333334</ele><time>2026-04-21T13:08:14Z</time></trkpt><trkpt lat="14.453380972444576" lon="120.96073919302908"><ele>6.666666666666667</ele><time>2026-04-21T13:08:15Z</time></trkpt><trkpt lat="14.453571067827863" lon="120.96071222061724"><ele>7.0</ele><time>2026-04-21T13:08:16Z</time></trkpt><trkpt lat="14.453768208805869" lon="120.96068428977682"><ele>6.666666666666667</ele><time>2026-04-21T13:08:17Z</time></trkpt><trkpt lat="14.453963742065426" lon="120.9606539949912"><ele>6.333333333333334</ele><time>2026-04-21T13:08:18Z</time></trkpt><trkpt lat="14.45416694578338" lon="120.96062555278255"><ele>6.0</ele><time>2026-04-21T13:08:19Z</time></trkpt><trkpt lat="14.454374216456179" lon="120.96060322362607"><ele>6.0</ele><time>2026-04-21T13:08:20Z</time></trkpt><trkpt lat="14.454580643305256" lon="120.96058635965731"><ele>6.0</ele><time>2026-04-21T13:08:21Z</time></trkpt><trkpt lat="14.454791277025068" lon="120.96057796273655"><ele>6.0</ele><time>2026-04-21T13:08:22Z</time></trkpt><trkpt lat="14.455000823346326" lon="120.96057456695767"><ele>6.5</ele><time>2026-04-21T13:08:23Z</time></trkpt><trkpt lat="14.45543359582228" lon="120.9605655335896"><ele>7.0</ele><time>2026-04-21T13:08:25Z</time></trkpt><trkpt lat="14.455651296986632" lon="120.96056163215115"><ele>7.0</ele><time>2026-04-21T13:08:26Z</time></trkpt><trkpt lat="14.455849279934016" lon="120.96055186087676"><ele>7.0</ele><time>2026-04-21T13:08:27Z</time></trkpt><trkpt lat="14.456032845878127" lon="120.96053598679015"><ele>7.0</ele><time>2026-04-21T13:08:28Z</time></trkpt><trkpt lat="14.456207665620568" lon="120.96051598031138"><ele>7.0</ele><time>2026-04-21T13:08:29Z</time></trkpt><trkpt lat="14.456374583931575" lon="120.9604934403813"><ele>7.0</ele><time>2026-04-21T13:08:30Z</time></trkpt><trkpt lat="14.4565404591287" lon="120.96046221898501"><ele>7.0</ele><time>2026-04-21T13:08:31Z</time></trkpt><trkpt lat="14.456706262825156" lon="120.96041776245092"><ele>7.0</ele><time>2026-04-21T13:08:32Z</time></trkpt><trkpt lat="14.456868585691888" lon="120.9603674769515"><ele>7.0</ele><time>2026-04-21T13:08:33Z</time></trkpt><trkpt lat="14.457030415173584" lon="120.96031671089686"><ele>7.0</ele><time>2026-04-21T13:08:34Z</time></trkpt><trkpt lat="14.457191460590787" lon="120.96026835300317"><ele>6.666666666666667</ele><time>2026-04-21T13:08:35Z</time></trkpt><trkpt lat="14.457351974673733" lon="120.96022552627382"><ele>6.333333333333334</ele><time>2026-04-21T13:08:36Z</time></trkpt><trkpt lat="14.457513776542303" lon="120.96019194622149"><ele>6.0</ele><time>2026-04-21T13:08:37Z</time></trkpt><trkpt lat="14.457674406504516" lon="120.96016727174737"><ele>6.0</ele><time>2026-04-21T13:08:38Z</time></trkpt><trkpt lat="14.45782858191567" lon="120.9601448223035"><ele>6.0</ele><time>2026-04-21T13:08:39Z</time></trkpt><trkpt lat="14.457968469221104" lon="120.96012276550415"><ele>6.0</ele><time>2026-04-21T13:08:40Z</time></trkpt><trkpt lat="14.458092203701128" lon="120.96010436878566"><ele>6.0</ele><time>2026-04-21T13:08:41Z</time></trkpt><trkpt lat="14.458201619631321" lon="120.96008663183596"><ele>6.333333333333334</ele><time>2026-04-21T13:08:42Z</time></trkpt><trkpt lat="14.458313648191927" lon="120.96006722869627"><ele>6.666666666666667</ele><time>2026-04-21T13:08:43Z</time></trkpt><trkpt lat="14.458432689182002" lon="120.96003980908714"><ele>7.0</ele><time>2026-04-21T13:08:44Z</time></trkpt><trkpt lat="14.458662572746213" lon="120.95999196569846"><ele>7.75</ele><time>2026-04-21T13:08:46Z</time></trkpt><trkpt lat="14.458794070196245" lon="120.95997584968005"><ele>8.5</ele><time>2026-04-21T13:08:47Z</time></trkpt><trkpt lat="14.458912207318932" lon="120.95996214755382"><ele>9.25</ele><time>2026-04-21T13:08:48Z</time></trkpt><trkpt lat="14.4590321949602" lon="120.95994896633147"><ele>10.0</ele><time>2026-04-21T13:08:49Z</time></trkpt><trkpt lat="14.459128646644444" lon="120.959932854538"><ele>10.0</ele><time>2026-04-21T13:08:50Z</time></trkpt><trkpt lat="14.459239328343697" lon="120.95991746427336"><ele>10.0</ele><time>2026-04-21T13:08:51Z</time></trkpt><trkpt lat="14.459329459854382" lon="120.95990346245321"><ele>10.0</ele><time>2026-04-21T13:08:52Z</time></trkpt><trkpt lat="14.459411765922727" lon="120.95989399883861"><ele>10.0</ele><time>2026-04-21T13:08:53Z</time></trkpt><trkpt lat="14.459487396168095" lon="120.95989029004977"><ele>10.0</ele><time>2026-04-21T13:08:54Z</time></trkpt><trkpt lat="14.459557088502088" lon="120.95989854252846"><ele>10.0</ele><time>2026-04-21T13:08:55Z</time></trkpt><trkpt lat="14.459624125374866" lon="120.95988357325284"><ele>10.0</ele><time>2026-04-21T13:08:56Z</time></trkpt><trkpt lat="14.459698417282663" lon="120.95997852701832"><ele>10.0</ele><time>2026-04-21T13:08:57Z</time></trkpt><trkpt lat="14.459761039675902" lon="120.96005024418467"><ele>10.0</ele><time>2026-04-21T13:08:58Z</time></trkpt><trkpt lat="14.459827114040912" lon="120.96012979240828"><ele>10.0</ele><time>2026-04-21T13:08:59Z</time></trkpt><trkpt lat="14.459903051491022" lon="120.96021070801527"><ele>10.0</ele><time>2026-04-21T13:09:00Z</time></trkpt><trkpt lat="14.459985020709048" lon="120.96029556716648"><ele>10.0</ele><time>2026-04-21T13:09:01Z</time></trkpt><trkpt lat="14.460074372021772" lon="120.96038859259633"><ele>10.0</ele><time>2026-04-21T13:09:02Z</time></trkpt><trkpt lat="14.46016118135755" lon="120.96049171187835"><ele>10.0</ele><time>2026-04-21T13:09:03Z</time></trkpt><trkpt lat="14.460251725487593" lon="120.96059512551855"><ele>10.0</ele><time>2026-04-21T13:09:04Z</time></trkpt><trkpt lat="14.460342374992127" lon="120.96069988526075"><ele>9.333333333333334</ele><time>2026-04-21T13:09:05Z</time></trkpt><trkpt lat="14.460512541649273" lon="120.96091455273265"><ele>8.666666666666666</ele><time>2026-04-21T13:09:07Z</time></trkpt><trkpt lat="14.460590410863652" lon="120.96102113791869"><ele>8.0</ele><time>2026-04-21T13:09:08Z</time></trkpt><trkpt lat="14.460665599267498" lon="120.96112273571794"><ele>8.0</ele><time>2026-04-21T13:09:09Z</time></trkpt><trkpt lat="14.46073641722961" lon="120.9612184359344"><ele>8.0</ele><time>2026-04-21T13:09:10Z</time></trkpt><trkpt lat="14.460806958053748" lon="120.96131191762497"><ele>8.0</ele><time>2026-04-21T13:09:11Z</time></trkpt><trkpt lat="14.460880252777242" lon="120.96141241797775"><ele>8.0</ele><time>2026-04-21T13:09:12Z</time></trkpt><trkpt lat="14.46095008713569" lon="120.96151600984918"><ele>8.0</ele><time>2026-04-21T13:09:13Z</time></trkpt><trkpt lat="14.461012996518557" lon="120.9616162719774"><ele>8.0</ele><time>2026-04-21T13:09:14Z</time></trkpt><trkpt lat="14.461071322290595" lon="120.96170757939224"><ele>8.0</ele><time>2026-04-21T13:09:15Z</time></trkpt><trkpt lat="14.461124477793701" lon="120.96179549040902"><ele>8.0</ele><time>2026-04-21T13:09:16Z</time></trkpt><trkpt lat="14.461172938395096" lon="120.96187763831674"><ele>8.0</ele><time>2026-04-21T13:09:17Z</time></trkpt><trkpt lat="14.461217134289772" lon="120.96195205639906"><ele>7.999999999999999</ele><time>2026-04-21T13:09:18Z</time></trkpt><trkpt lat="14.461256194884491" lon="120.96202293982708"><ele>8.0</ele><time>2026-04-21T13:09:19Z</time></trkpt><trkpt lat="14.461314064943723" lon="120.96213480635407"><ele>8.0</ele><time>2026-04-21T13:09:21Z</time></trkpt><trkpt lat="14.46136231843903" lon="120.96219706835362"><ele>8.0</ele><time>2026-04-21T13:09:22Z</time></trkpt><trkpt lat="14.461415019896991" lon="120.96225399779932"><ele>7.999999999999999</ele><time>2026-04-21T13:09:23Z</time></trkpt><trkpt lat="14.461455502495218" lon="120.96231382631039"><ele>8.0</ele><time>2026-04-21T13:09:24Z</time></trkpt><trkpt lat="14.461523908156764" lon="120.96240117766622"><ele>7.999999999999999</ele><time>2026-04-21T13:09:26Z</time></trkpt><trkpt lat="14.461608793146054" lon="120.96250651481874"><ele>8.0</ele><time>2026-04-21T13:09:28Z</time></trkpt><trkpt lat="14.461649495314463" lon="120.96257432419881"><ele>8.0</ele><time>2026-04-21T13:09:29Z</time></trkpt><trkpt lat="14.461695740057793" lon="120.96264516916305"><ele>8.0</ele><time>2026-04-21T13:09:30Z</time></trkpt><trkpt lat="14.461733146789248" lon="120.96270256105565"><ele>7.999999999999999</ele><time>2026-04-21T13:09:31Z</time></trkpt><trkpt lat="14.46177265723263" lon="120.96276342632461"><ele>8.0</ele><time>2026-04-21T13:09:32Z</time></trkpt><trkpt lat="14.461813315112174" lon="120.96282561196804"><ele>7.999999999999999</ele><time>2026-04-21T13:09:33Z</time></trkpt><trkpt lat="14.461858236773416" lon="120.96289445633973"><ele>8.0</ele><time>2026-04-21T13:09:34Z</time></trkpt><trkpt lat="14.461898040596376" lon="120.9629505654126"><ele>8.0</ele><time>2026-04-21T13:09:35Z</time></trkpt><trkpt lat="14.461954027861001" lon="120.96304072956985"><ele>8.0</ele><time>2026-04-21T13:09:37Z</time></trkpt><trkpt lat="14.461989754023783" lon="120.96310537461143"><ele>7.999999999999999</ele><time>2026-04-21T13:09:39Z</time></trkpt><trkpt lat="14.462042276393836" lon="120.96319306138368"><ele>8.0</ele><time>2026-04-21T13:09:42Z</time></trkpt><trkpt lat="14.462095083625812" lon="120.96327235954149"><ele>8.200000000000001</ele><time>2026-04-21T13:09:44Z</time></trkpt><trkpt lat="14.46214373431779" lon="120.96335097465258"><ele>8.4</ele><time>2026-04-21T13:09:46Z</time></trkpt><trkpt lat="14.462194200202198" lon="120.96343234367711"><ele>8.600000000000001</ele><time>2026-04-21T13:09:48Z</time></trkpt><trkpt lat="14.462299544478839" lon="120.96358153633673"><ele>8.8</ele><time>2026-04-21T13:09:51Z</time></trkpt><trkpt lat="14.462328672885342" lon="120.96365607716365"><ele>9.0</ele><time>2026-04-21T13:09:52Z</time></trkpt><trkpt lat="14.462380310599723" lon="120.96370805257476"><ele>9.0</ele><time>2026-04-21T13:09:53Z</time></trkpt><trkpt lat="14.462403211066908" lon="120.96377550316114"><ele>9.0</ele><time>2026-04-21T13:09:54Z</time></trkpt><trkpt lat="14.462442626547597" lon="120.9638378656339"><ele>9.0</ele><time>2026-04-21T13:09:55Z</time></trkpt><trkpt lat="14.462509963408683" lon="120.96394182428968"><ele>9.0</ele><time>2026-04-21T13:09:57Z</time></trkpt><trkpt lat="14.462545747302286" lon="120.96399706960067"><ele>9.0</ele><time>2026-04-21T13:09:58Z</time></trkpt><trkpt lat="14.462585487563715" lon="120.96405842301169"><ele>9.0</ele><time>2026-04-21T13:09:59Z</time></trkpt><trkpt lat="14.462626379579675" lon="120.96412155453103"><ele>9.000000000000002</ele><time>2026-04-21T13:10:00Z</time></trkpt><trkpt lat="14.462666566529043" lon="120.96418359759092"><ele>9.0</ele><time>2026-04-21T13:10:01Z</time></trkpt><trkpt lat="14.46270983694011" lon="120.96425216563787"><ele>9.0</ele><time>2026-04-21T13:10:02Z</time></trkpt><trkpt lat="14.462752811320888" lon="120.96432012511076"><ele>9.0</ele><time>2026-04-21T13:10:03Z</time></trkpt><trkpt lat="14.462793652931232" lon="120.96438471185573"><ele>9.0</ele><time>2026-04-21T13:10:04Z</time></trkpt><trkpt lat="14.462830342009173" lon="120.96444273176158"><ele>9.000000000000002</ele><time>2026-04-21T13:10:05Z</time></trkpt><trkpt lat="14.462884121520084" lon="120.96449780027534"><ele>9.0</ele><time>2026-04-21T13:10:06Z</time></trkpt><trkpt lat="14.46292259997299" lon="120.96456001886138"><ele>8.8</ele><time>2026-04-21T13:10:07Z</time></trkpt><trkpt lat="14.462953020707403" lon="120.96463381513047"><ele>8.600000000000001</ele><time>2026-04-21T13:10:08Z</time></trkpt><trkpt lat="14.463006455021187" lon="120.96468616275317"><ele>8.4</ele><time>2026-04-21T13:10:09Z</time></trkpt><trkpt lat="14.463095718901858" lon="120.9648519280162"><ele>8.200000000000001</ele><time>2026-04-21T13:10:11Z</time></trkpt><trkpt lat="14.463145831510827" lon="120.9649285114471"><ele>8.0</ele><time>2026-04-21T13:10:12Z</time></trkpt><trkpt lat="14.46319138106586" lon="120.96499811847902"><ele>8.200000000000001</ele><time>2026-04-21T13:10:13Z</time></trkpt><trkpt lat="14.463231471403606" lon="120.96505938295716"><ele>8.4</ele><time>2026-04-21T13:10:14Z</time></trkpt><trkpt lat="14.463271546663984" lon="120.9651206231059"><ele>8.600000000000001</ele><time>2026-04-21T13:10:15Z</time></trkpt><trkpt lat="14.463346672578382" lon="120.96523541202238"><ele>8.8</ele><time>2026-04-21T13:10:17Z</time></trkpt><trkpt lat="14.463394460167576" lon="120.96531595262391"><ele>9.0</ele><time>2026-04-21T13:10:18Z</time></trkpt><trkpt lat="14.463460487494636" lon="120.96540807204103"><ele>9.0</ele><time>2026-04-21T13:10:19Z</time></trkpt><trkpt lat="14.463525239042522" lon="120.96549954078546"><ele>9.0</ele><time>2026-04-21T13:10:20Z</time></trkpt><trkpt lat="14.463585639450693" lon="120.96558751125589"><ele>9.0</ele><time>2026-04-21T13:10:21Z</time></trkpt><trkpt lat="14.463624923370546" lon="120.96565953330476"><ele>9.0</ele><time>2026-04-21T13:10:22Z</time></trkpt><trkpt lat="14.46366233767421" lon="120.96571191769323"><ele>9.0</ele><time>2026-04-21T13:10:23Z</time></trkpt><trkpt lat="14.463721968806052" lon="120.96579644680583"><ele>9.0</ele><time>2026-04-21T13:10:27Z</time></trkpt><trkpt lat="14.463757956474481" lon="120.96585986036189"><ele>9.0</ele><time>2026-04-21T13:10:28Z</time></trkpt><trkpt lat="14.463800369393907" lon="120.9659256675154"><ele>9.0</ele><time>2026-04-21T13:10:29Z</time></trkpt><trkpt lat="14.463850511580377" lon="120.96599855514278"><ele>9.0</ele><time>2026-04-21T13:10:30Z</time></trkpt><trkpt lat="14.463949413255447" lon="120.9661089971912"><ele>9.0</ele><time>2026-04-21T13:10:32Z</time></trkpt><trkpt lat="14.463999323496205" lon="120.96621437047888"><ele>9.0</ele><time>2026-04-21T13:10:34Z</time></trkpt><trkpt lat="14.464071836475814" lon="120.96632917217798"><ele>9.0</ele><time>2026-04-21T13:10:36Z</time></trkpt><trkpt lat="14.464112192157387" lon="120.9663936912935"><ele>9.0</ele><time>2026-04-21T13:10:37Z</time></trkpt><trkpt lat="14.46415169028155" lon="120.96645683922164"><ele>9.0</ele><time>2026-04-21T13:10:38Z</time></trkpt><trkpt lat="14.464197216450547" lon="120.96652799193244"><ele>9.0</ele><time>2026-04-21T13:10:39Z</time></trkpt><trkpt lat="14.464247189443876" lon="120.96660272065057"><ele>9.0</ele><time>2026-04-21T13:10:40Z</time></trkpt><trkpt lat="14.46429759726238" lon="120.96667836995711"><ele>9.0</ele><time>2026-04-21T13:10:41Z</time></trkpt><trkpt lat="14.464351855186989" lon="120.96676103438801"><ele>9.0</ele><time>2026-04-21T13:10:42Z</time></trkpt><trkpt lat="14.464413728473096" lon="120.96685530117146"><ele>9.0</ele><time>2026-04-21T13:10:43Z</time></trkpt><trkpt lat="14.464475928901388" lon="120.96695006692059"><ele>9.0</ele><time>2026-04-21T13:10:44Z</time></trkpt><trkpt lat="14.464554298742764" lon="120.96703388152238"><ele>9.4</ele><time>2026-04-21T13:10:45Z</time></trkpt><trkpt lat="14.464622555848326" lon="120.96712053936626"><ele>9.8</ele><time>2026-04-21T13:10:46Z</time></trkpt><trkpt lat="14.464694309697112" lon="120.96720109356674"><ele>10.200000000000001</ele><time>2026-04-21T13:10:47Z</time></trkpt><trkpt lat="14.464772515252358" lon="120.96727995609187"><ele>10.600000000000001</ele><time>2026-04-21T13:10:48Z</time></trkpt><trkpt lat="14.464862418053817" lon="120.96735119430608"><ele>11.0</ele><time>2026-04-21T13:10:49Z</time></trkpt><trkpt lat="14.464958393937707" lon="120.96741909592276"><ele>11.0</ele><time>2026-04-21T13:10:50Z</time></trkpt><trkpt lat="14.465061177771709" lon="120.9674905557221"><ele>11.0</ele><time>2026-04-21T13:10:51Z</time></trkpt><trkpt lat="14.46524359798459" lon="120.96762125912953"><ele>11.0</ele><time>2026-04-21T13:10:53Z</time></trkpt><trkpt lat="14.465321154888908" lon="120.96767889890232"><ele>11.0</ele><time>2026-04-21T13:10:54Z</time></trkpt><trkpt lat="14.465392682246982" lon="120.96773278249889"><ele>10.200000000000001</ele><time>2026-04-21T13:10:55Z</time></trkpt><trkpt lat="14.465454626578058" lon="120.96777776724863"><ele>9.4</ele><time>2026-04-21T13:10:56Z</time></trkpt><trkpt lat="14.465507248696108" lon="120.96781604314036"><ele>8.6</ele><time>2026-04-21T13:10:56.999Z</time></trkpt><trkpt lat="14.465577940096392" lon="120.96786557202658"><ele>7.8</ele><time>2026-04-21T13:10:58.999Z</time></trkpt><trkpt lat="14.465637112337605" lon="120.96791056136242"><ele>7.0</ele><time>2026-04-21T13:12:48.999Z</time></trkpt><trkpt lat="14.46578161419369" lon="120.96801542876821"><ele>7.000000000000001</ele><time>2026-04-21T13:12:51.999Z</time></trkpt><trkpt lat="14.465881704338571" lon="120.9680756034687"><ele>7.0</ele><time>2026-04-21T13:12:53.999Z</time></trkpt><trkpt lat="14.46593812947909" lon="120.96811389471502"><ele>7.0</ele><time>2026-04-21T13:12:54.999Z</time></trkpt><trkpt lat="14.465976566219199" lon="120.96818365770679"><ele>7.0</ele><time>2026-04-21T13:12:55.999Z</time></trkpt><trkpt lat="14.46603527699756" lon="120.96822358954662"><ele>7.000000000000001</ele><time>2026-04-21T13:12:56.999Z</time></trkpt><trkpt lat="14.466086762391207" lon="120.9682880437829"><ele>7.0</ele><time>2026-04-21T13:12:57.999Z</time></trkpt><trkpt lat="14.466155527658172" lon="120.96835856195369"><ele>7.000000000000001</ele><time>2026-04-21T13:12:58.999Z</time></trkpt><trkpt lat="14.46623130595813" lon="120.96842773268138"><ele>7.0</ele><time>2026-04-21T13:12:59.999Z</time></trkpt><trkpt lat="14.466301593932577" lon="120.96849786344372"><ele>7.0</ele><time>2026-04-21T13:13:00.999Z</time></trkpt><trkpt lat="14.466374218978784" lon="120.96855591295018"><ele>7.0</ele><time>2026-04-21T13:13:01.999Z</time></trkpt><trkpt lat="14.466437494629437" lon="120.96860443541581"><ele>7.000000000000001</ele><time>2026-04-21T13:13:02.999Z</time></trkpt><trkpt lat="14.466496619807836" lon="120.96865353302705"><ele>7.0</ele><time>2026-04-21T13:13:03.999Z</time></trkpt><trkpt lat="14.466550715991607" lon="120.96870169889861"><ele>7.166666666666667</ele><time>2026-04-21T13:13:04.999Z</time></trkpt><trkpt lat="14.466640043686123" lon="120.96877130637472"><ele>7.333333333333334</ele><time>2026-04-21T13:13:06.999Z</time></trkpt><trkpt lat="14.466690426410242" lon="120.96881625510429"><ele>7.5</ele><time>2026-04-21T13:13:08.999Z</time></trkpt><trkpt lat="14.466749244952561" lon="120.96884421528604"><ele>7.666666666666666</ele><time>2026-04-21T13:13:11.999Z</time></trkpt><trkpt lat="14.466795937608484" lon="120.96884963082583"><ele>7.833333333333333</ele><time>2026-04-21T13:13:19.999Z</time></trkpt><trkpt lat="14.466811573904657" lon="120.96875861836813"><ele>8.0</ele><time>2026-04-21T13:13:37.999Z</time></trkpt><trkpt lat="14.466930036229" lon="120.96891960812782"><ele>8.0</ele><time>2026-04-21T13:20:10.999Z</time></trkpt><trkpt lat="14.466951676595572" lon="120.96899079099457"><ele>8.0</ele><time>2026-04-21T13:20:18.999Z</time></trkpt><trkpt lat="14.46702006444253" lon="120.96907398360405"><ele>8.0</ele><time>2026-04-21T13:20:20.999Z</time></trkpt><trkpt lat="14.467080999346933" lon="120.96911274654079"><ele>8.0</ele><time>2026-04-21T13:20:21.999Z</time></trkpt><trkpt lat="14.467206804023265" lon="120.96920710577265"><ele>8.0</ele><time>2026-04-21T13:20:23.999Z</time></trkpt><trkpt lat="14.46727637955505" lon="120.96926374131566"><ele>7.800000000000001</ele><time>2026-04-21T13:20:24.999Z</time></trkpt><trkpt lat="14.467347852393816" lon="120.96932324653304"><ele>7.6000000000000005</ele><time>2026-04-21T13:20:25.999Z</time></trkpt><trkpt lat="14.46742055875213" lon="120.96938288966578"><ele>7.3999999999999995</ele><time>2026-04-21T13:20:26.999Z</time></trkpt><trkpt lat="14.467488748141513" lon="120.96942841881517"><ele>7.199999999999999</ele><time>2026-04-21T13:20:27.999Z</time></trkpt><trkpt lat="14.46757080795401" lon="120.96948822876523"><ele>7.0</ele><time>2026-04-21T13:20:28.999Z</time></trkpt><trkpt lat="14.467655586222572" lon="120.96955611013486"><ele>7.0</ele><time>2026-04-21T13:20:29.999Z</time></trkpt><trkpt lat="14.467746154836687" lon="120.96962839868796"><ele>7.0</ele><time>2026-04-21T13:20:30.999Z</time></trkpt><trkpt lat="14.467839817110102" lon="120.9696959898859"><ele>7.0</ele><time>2026-04-21T13:20:31.999Z</time></trkpt><trkpt lat="14.46793620352949" lon="120.96975172503743"><ele>7.0</ele><time>2026-04-21T13:20:32.999Z</time></trkpt><trkpt lat="14.468036308427683" lon="120.96981761468605"><ele>7.0</ele><time>2026-04-21T13:20:33.999Z</time></trkpt><trkpt lat="14.468142486599188" lon="120.96987844241964"><ele>7.0</ele><time>2026-04-21T13:20:34.999Z</time></trkpt><trkpt lat="14.468251451535094" lon="120.96993936900678"><ele>7.0</ele><time>2026-04-21T13:20:35.999Z</time></trkpt><trkpt lat="14.468366784747346" lon="120.96998999144634"><ele>7.0</ele><time>2026-04-21T13:20:36.999Z</time></trkpt><trkpt lat="14.468486045185829" lon="120.97003391545672"><ele>7.25</ele><time>2026-04-21T13:20:37.999Z</time></trkpt><trkpt lat="14.468605068405333" lon="120.97007548884683"><ele>7.5</ele><time>2026-04-21T13:20:38.999Z</time></trkpt><trkpt lat="14.468716462329633" lon="120.9701221420864"><ele>7.75</ele><time>2026-04-21T13:20:39.999Z</time></trkpt><trkpt lat="14.46882392763952" lon="120.97017160773127"><ele>8.0</ele><time>2026-04-21T13:20:40.999Z</time></trkpt><trkpt lat="14.468929445939139" lon="120.97022560448774"><ele>8.0</ele><time>2026-04-21T13:20:41.999Z</time></trkpt><trkpt lat="14.469028270226966" lon="120.97029179312067"><ele>8.0</ele><time>2026-04-21T13:20:42.999Z</time></trkpt><trkpt lat="14.469187691618426" lon="120.9704608489735"><ele>8.0</ele><time>2026-04-21T13:20:44.999Z</time></trkpt><trkpt lat="14.4692640382659" lon="120.97055032063523"><ele>8.0</ele><time>2026-04-21T13:20:45.999Z</time></trkpt><trkpt lat="14.469336146237701" lon="120.97063004263046"><ele>8.0</ele><time>2026-04-21T13:20:46.999Z</time></trkpt><trkpt lat="14.469405188887428" lon="120.9707042107482"><ele>8.0</ele><time>2026-04-21T13:20:47.999Z</time></trkpt><trkpt lat="14.469464120069405" lon="120.970774680373"><ele>8.0</ele><time>2026-04-21T13:20:48.999Z</time></trkpt><trkpt lat="14.469517564087814" lon="120.97084086079713"><ele>8.0</ele><time>2026-04-21T13:20:49.999Z</time></trkpt><trkpt lat="14.469559303025024" lon="120.97090088486418"><ele>7.800000000000001</ele><time>2026-04-21T13:20:50.999Z</time></trkpt><trkpt lat="14.469608367020362" lon="120.97096306327326"><ele>7.6000000000000005</ele><time>2026-04-21T13:20:51.999Z</time></trkpt><trkpt lat="14.469649519350954" lon="120.97101231505447"><ele>7.3999999999999995</ele><time>2026-04-21T13:20:52.999Z</time></trkpt><trkpt lat="14.469719927342801" lon="120.97110488722952"><ele>7.199999999999999</ele><time>2026-04-21T13:20:54.999Z</time></trkpt><trkpt lat="14.469804844997117" lon="120.971207195811"><ele>7.0</ele><time>2026-04-21T13:20:56.999Z</time></trkpt><trkpt lat="14.4698507793176" lon="120.97126285479271"><ele>7.000000000000001</ele><time>2026-04-21T13:20:57.999Z</time></trkpt><trkpt lat="14.469903049467085" lon="120.9713279280174"><ele>7.0</ele><time>2026-04-21T13:20:58.999Z</time></trkpt><trkpt lat="14.469951279488418" lon="120.97138982304688"><ele>7.0</ele><time>2026-04-21T13:20:59.999Z</time></trkpt><trkpt lat="14.469998026996954" lon="120.97144938443564"><ele>7.0</ele><time>2026-04-21T13:21:00.999Z</time></trkpt><trkpt lat="14.470072361447007" lon="120.97155015953999"><ele>7.000000000000001</ele><time>2026-04-21T13:21:02.999Z</time></trkpt><trkpt lat="14.470112706616058" lon="120.97160445623041"><ele>7.0</ele><time>2026-04-21T13:21:03.999Z</time></trkpt><trkpt lat="14.4702002665556" lon="120.9717322531855"><ele>7.000000000000001</ele><time>2026-04-21T13:21:05.999Z</time></trkpt><trkpt lat="14.470249595363596" lon="120.97180740070048"><ele>7.0</ele><time>2026-04-21T13:21:06.999Z</time></trkpt><trkpt lat="14.470296914199237" lon="120.971882936805"><ele>7.0</ele><time>2026-04-21T13:21:07.999Z</time></trkpt><trkpt lat="14.470351834911078" lon="120.9719704736944"><ele>7.0</ele><time>2026-04-21T13:21:08.999Z</time></trkpt><trkpt lat="14.4703974794845" lon="120.97204203488383"><ele>7.000000000000001</ele><time>2026-04-21T13:21:09.999Z</time></trkpt><trkpt lat="14.470443586378698" lon="120.97211256517974"><ele>7.0</ele><time>2026-04-21T13:21:10.999Z</time></trkpt><trkpt lat="14.470483572721049" lon="120.97217544126083"><ele>7.0</ele><time>2026-04-21T13:21:11.999Z</time></trkpt><trkpt lat="14.470520912389206" lon="120.97223065303568"><ele>7.0</ele><time>2026-04-21T13:21:12.999Z</time></trkpt><trkpt lat="14.470557488903534" lon="120.97229153042058"><ele>7.0</ele><time>2026-04-21T13:21:13.999Z</time></trkpt><trkpt lat="14.470595300608869" lon="120.97235408377878"><ele>7.0</ele><time>2026-04-21T13:21:14.999Z</time></trkpt><trkpt lat="14.470638300041516" lon="120.97242137453638"><ele>7.0</ele><time>2026-04-21T13:21:15.999Z</time></trkpt><trkpt lat="14.4706805636984" lon="120.97249025355619"><ele>7.0</ele><time>2026-04-21T13:21:16.999Z</time></trkpt><trkpt lat="14.47072080988005" lon="120.9725573071428"><ele>7.0</ele><time>2026-04-21T13:21:17.999Z</time></trkpt><trkpt lat="14.470756641947094" lon="120.9726314884672"><ele>7.000000000000001</ele><time>2026-04-21T13:21:18.999Z</time></trkpt><trkpt lat="14.470798210660591" lon="120.97270673020473"><ele>7.0</ele><time>2026-04-21T13:21:19.999Z</time></trkpt><trkpt lat="14.470846349591412" lon="120.97278910526235"><ele>7.0</ele><time>2026-04-21T13:21:20.999Z</time></trkpt><trkpt lat="14.470885614950427" lon="120.97286137841415"><ele>7.0</ele><time>2026-04-21T13:21:21.999Z</time></trkpt><trkpt lat="14.470930671430454" lon="120.97294463713077"><ele>7.000000000000001</ele><time>2026-04-21T13:21:22.999Z</time></trkpt><trkpt lat="14.470976025016276" lon="120.97301474105005"><ele>7.0</ele><time>2026-04-21T13:21:23.999Z</time></trkpt><trkpt lat="14.471016691559425" lon="120.97307969504233"><ele>7.0</ele><time>2026-04-21T13:21:24.999Z</time></trkpt><trkpt lat="14.471094155310391" lon="120.97322767298284"><ele>7.0</ele><time>2026-04-21T13:21:26.999Z</time></trkpt><trkpt lat="14.471138737017398" lon="120.97331789247379"><ele>7.0</ele><time>2026-04-21T13:21:27.999Z</time></trkpt><trkpt lat="14.471190154995195" lon="120.97341322392626"><ele>7.0</ele><time>2026-04-21T13:21:28.999Z</time></trkpt><trkpt lat="14.471235897640039" lon="120.97351172596545"><ele>6.75</ele><time>2026-04-21T13:21:29.999Z</time></trkpt><trkpt lat="14.471290670006972" lon="120.97361979431773"><ele>6.5</ele><time>2026-04-21T13:21:30.999Z</time></trkpt><trkpt lat="14.471341087139175" lon="120.97372308905196"><ele>6.25</ele><time>2026-04-21T13:21:31.999Z</time></trkpt><trkpt lat="14.471388247007066" lon="120.97382798381129"><ele>6.0</ele><time>2026-04-21T13:21:32.999Z</time></trkpt><trkpt lat="14.471436509061878" lon="120.97393073102171"><ele>6.0</ele><time>2026-04-21T13:21:33.999Z</time></trkpt><trkpt lat="14.471485873042369" lon="120.9740245803875"><ele>6.0</ele><time>2026-04-21T13:21:34.999Z</time></trkpt><trkpt lat="14.471525766926701" lon="120.9741078663364"><ele>6.0</ele><time>2026-04-21T13:21:35.999Z</time></trkpt><trkpt lat="14.471567467417675" lon="120.9741889223632"><ele>6.0</ele><time>2026-04-21T13:21:36.999Z</time></trkpt><trkpt lat="14.471610334845277" lon="120.97426668372586"><ele>6.0</ele><time>2026-04-21T13:21:37.999Z</time></trkpt><trkpt lat="14.471646530409862" lon="120.97434028407338"><ele>6.0</ele><time>2026-04-21T13:21:38.999Z</time></trkpt><trkpt lat="14.471685824581776" lon="120.97441267062736"><ele>6.142857142857142</ele><time>2026-04-21T13:21:39.999Z</time></trkpt><trkpt lat="14.471725180999844" lon="120.97448761990204"><ele>6.285714285714286</ele><time>2026-04-21T13:21:40.999Z</time></trkpt><trkpt lat="14.471762910522878" lon="120.97455971828835"><ele>6.428571428571429</ele><time>2026-04-21T13:21:41.999Z</time></trkpt><trkpt lat="14.471794419538153" lon="120.97462006117559"><ele>6.571428571428571</ele><time>2026-04-21T13:21:42.999Z</time></trkpt><trkpt lat="14.471829218568395" lon="120.97468049575366"><ele>6.714285714285714</ele><time>2026-04-21T13:21:43.999Z</time></trkpt><trkpt lat="14.471863243831875" lon="120.97474460246843"><ele>6.857142857142857</ele><time>2026-04-21T13:21:44.999Z</time></trkpt><trkpt lat="14.471897730715824" lon="120.97480741691093"><ele>7.0</ele><time>2026-04-21T13:21:45.999Z</time></trkpt><trkpt lat="14.471971574769093" lon="120.97493282388464"><ele>7.000000000000001</ele><time>2026-04-21T13:21:47.999Z</time></trkpt><trkpt lat="14.472010910617321" lon="120.97500025686055"><ele>7.0</ele><time>2026-04-21T13:21:48.999Z</time></trkpt><trkpt lat="14.47205522202013" lon="120.97506719194791"><ele>7.0</ele><time>2026-04-21T13:21:49.999Z</time></trkpt><trkpt lat="14.472101965856396" lon="120.97514189103225"><ele>7.0</ele><time>2026-04-21T13:21:50.999Z</time></trkpt><trkpt lat="14.472143055671411" lon="120.97520450058407"><ele>7.000000000000001</ele><time>2026-04-21T13:21:51.999Z</time></trkpt><trkpt lat="14.472191129891174" lon="120.97527322424226"><ele>7.0</ele><time>2026-04-21T13:21:52.999Z</time></trkpt><trkpt lat="14.472239331028007" lon="120.97533672359012"><ele>7.0</ele><time>2026-04-21T13:21:53.999Z</time></trkpt><trkpt lat="14.472279805831349" lon="120.97539126075358"><ele>7.0</ele><time>2026-04-21T13:21:54.999Z</time></trkpt><trkpt lat="14.472325400895224" lon="120.97545786224438"><ele>7.0</ele><time>2026-04-21T13:21:55.999Z</time></trkpt><trkpt lat="14.472369442324437" lon="120.9755219675868"><ele>7.0</ele><time>2026-04-21T13:21:56.999Z</time></trkpt><trkpt lat="14.472414151541608" lon="120.97558234970859"><ele>7.0</ele><time>2026-04-21T13:21:57.999Z</time></trkpt><trkpt lat="14.472453312366405" lon="120.97564069726175"><ele>7.0</ele><time>2026-04-21T13:21:58.999Z</time></trkpt><trkpt lat="14.472499130392949" lon="120.97570407537644"><ele>7.0</ele><time>2026-04-21T13:21:59.999Z</time></trkpt><trkpt lat="14.47254892989303" lon="120.9757693922445"><ele>7.0</ele><time>2026-04-21T13:22:00.999Z</time></trkpt><trkpt lat="14.472594690297527" lon="120.9758243564534"><ele>6.999999999999999</ele><time>2026-04-21T13:22:01.999Z</time></trkpt><trkpt lat="14.472670771416917" lon="120.97592150822607"><ele>6.999999999999999</ele><time>2026-04-21T13:22:03.999Z</time></trkpt><trkpt lat="14.472714518151436" lon="120.97598571237054"><ele>7.0</ele><time>2026-04-21T13:22:04.999Z</time></trkpt><trkpt lat="14.472774155027114" lon="120.97606098597885"><ele>7.0</ele><time>2026-04-21T13:22:05.999Z</time></trkpt><trkpt lat="14.47283577596546" lon="120.97614122430019"><ele>7.0</ele><time>2026-04-21T13:22:06.999Z</time></trkpt><trkpt lat="14.472944890923959" lon="120.97627750890739"><ele>6.999999999999999</ele><time>2026-04-21T13:22:08.999Z</time></trkpt><trkpt lat="14.472991996121275" lon="120.97633261828668"><ele>6.999999999999999</ele><time>2026-04-21T13:22:09.999Z</time></trkpt><trkpt lat="14.473045949270814" lon="120.97641144587887"><ele>7.0</ele><time>2026-04-21T13:22:11.999Z</time></trkpt><trkpt lat="14.473087653077986" lon="120.97646889216873"><ele>7.0</ele><time>2026-04-21T13:22:13.999Z</time></trkpt><trkpt lat="14.473151417079762" lon="120.97653155912465"><ele>7.0</ele><time>2026-04-21T13:22:16.999Z</time></trkpt><trkpt lat="14.473229021186512" lon="120.97660925422551"><ele>6.999999999999999</ele><time>2026-04-21T13:22:18.999Z</time></trkpt><trkpt lat="14.473271160035615" lon="120.97666110123077"><ele>6.999999999999999</ele><time>2026-04-21T13:22:19.999Z</time></trkpt><trkpt lat="14.473354979543185" lon="120.97677807604029"><ele>7.0</ele><time>2026-04-21T13:22:21.999Z</time></trkpt><trkpt lat="14.473401477226913" lon="120.97684575966039"><ele>7.0</ele><time>2026-04-21T13:22:22.999Z</time></trkpt><trkpt lat="14.47345391762537" lon="120.97692335222641"><ele>6.8</ele><time>2026-04-21T13:22:23.999Z</time></trkpt><trkpt lat="14.473508220983765" lon="120.97700810280915"><ele>6.6</ele><time>2026-04-21T13:22:24.999Z</time></trkpt><trkpt lat="14.47356185945897" lon="120.97709265269815"><ele>6.3999999999999995</ele><time>2026-04-21T13:22:25.999Z</time></trkpt><trkpt lat="14.473617615491463" lon="120.9771860225585"><ele>6.199999999999999</ele><time>2026-04-21T13:22:26.999Z</time></trkpt><trkpt lat="14.473661182666282" lon="120.97727184798985"><ele>6.0</ele><time>2026-04-21T13:22:27.999Z</time></trkpt><trkpt lat="14.473740772320813" lon="120.97742042612273"><ele>6.0</ele><time>2026-04-21T13:22:29.999Z</time></trkpt><trkpt lat="14.473774752030195" lon="120.97748194140067"><ele>6.0</ele><time>2026-04-21T13:22:30.999Z</time></trkpt><trkpt lat="14.473828581097225" lon="120.97758172083998"><ele>6.0</ele><time>2026-04-21T13:22:32.999Z</time></trkpt><trkpt lat="14.473872994779596" lon="120.97764843804069"><ele>6.0</ele><time>2026-04-21T13:22:36.999Z</time></trkpt><trkpt lat="14.473918781796936" lon="120.97773436018133"><ele>6.0</ele><time>2026-04-21T13:22:38.999Z</time></trkpt><trkpt lat="14.473972020366096" lon="120.9778560047592"><ele>6.0</ele><time>2026-04-21T13:22:40.999Z</time></trkpt><trkpt lat="14.473986982924739" lon="120.97793603700353"><ele>6.0</ele><time>2026-04-21T13:22:41.999Z</time></trkpt><trkpt lat="14.47401538738452" lon="120.97800016410575"><ele>6.0</ele><time>2026-04-21T13:22:42.999Z</time></trkpt><trkpt lat="14.474051345437948" lon="120.97805759623765"><ele>6.0</ele><time>2026-04-21T13:22:44Z</time></trkpt><trkpt lat="14.473956917781896" lon="120.97819520938896"><ele>6.0</ele><time>2026-04-21T13:22:45Z</time></trkpt><trkpt lat="14.473912527092649" lon="120.97829633540528"><ele>6.25</ele><time>2026-04-21T13:22:46Z</time></trkpt><trkpt lat="14.473858075707867" lon="120.97839908585382"><ele>6.5</ele><time>2026-04-21T13:22:47Z</time></trkpt><trkpt lat="14.473806497161975" lon="120.97850195356155"><ele>6.75</ele><time>2026-04-21T13:22:48Z</time></trkpt><trkpt lat="14.473763406878001" lon="120.97860157943609"><ele>7.0</ele><time>2026-04-21T13:22:49Z</time></trkpt><trkpt lat="14.473699015062817" lon="120.97878884349981"><ele>6.75</ele><time>2026-04-21T13:22:51Z</time></trkpt><trkpt lat="14.473699967368805" lon="120.97889963056754"><ele>6.5</ele><time>2026-04-21T13:22:52Z</time></trkpt><trkpt lat="14.473710137126998" lon="120.97901503971833"><ele>6.25</ele><time>2026-04-21T13:22:53Z</time></trkpt><trkpt lat="14.473725190792639" lon="120.97913819045127"><ele>6.0</ele><time>2026-04-21T13:22:54Z</time></trkpt><trkpt lat="14.473735049521364" lon="120.97926564467737"><ele>6.0</ele><time>2026-04-21T13:22:55Z</time></trkpt><trkpt lat="14.473752497842252" lon="120.97940154347238"><ele>6.0</ele><time>2026-04-21T13:22:56Z</time></trkpt><trkpt lat="14.473769639211048" lon="120.97953687347525"><ele>6.0</ele><time>2026-04-21T13:22:57Z</time></trkpt><trkpt lat="14.473790189183559" lon="120.97967882965362"><ele>6.0</ele><time>2026-04-21T13:22:58Z</time></trkpt><trkpt lat="14.473805684019185" lon="120.97982581381764"><ele>6.0</ele><time>2026-04-21T13:22:59Z</time></trkpt><trkpt lat="14.473823010772884" lon="120.97997377081529"><ele>6.0</ele><time>2026-04-21T13:23:00Z</time></trkpt><trkpt lat="14.473852204045944" lon="120.98011440064211"><ele>6.0</ele><time>2026-04-21T13:23:01Z</time></trkpt><trkpt lat="14.47388839014627" lon="120.98023736094153"><ele>6.0</ele><time>2026-04-21T13:23:02Z</time></trkpt><trkpt lat="14.473942805701357" lon="120.98035544627498"><ele>5.75</ele><time>2026-04-21T13:23:03Z</time></trkpt><trkpt lat="14.474011628912427" lon="120.98047606553872"><ele>5.5</ele><time>2026-04-21T13:23:04Z</time></trkpt><trkpt lat="14.474087337537688" lon="120.98059503814275"><ele>5.25</ele><time>2026-04-21T13:23:05Z</time></trkpt><trkpt lat="14.474166827531828" lon="120.98071705280584"><ele>5.0</ele><time>2026-04-21T13:23:06Z</time></trkpt><trkpt lat="14.474244652257083" lon="120.98084552830282"><ele>6.333333333333334</ele><time>2026-04-21T13:23:07Z</time></trkpt><trkpt lat="14.474323148146523" lon="120.9809761631739"><ele>7.666666666666667</ele><time>2026-04-21T13:23:08Z</time></trkpt><trkpt lat="14.474410720310706" lon="120.98110590417778"><ele>9.0</ele><time>2026-04-21T13:23:09Z</time></trkpt><trkpt lat="14.474511837977504" lon="120.98123433698494"><ele>8.5</ele><time>2026-04-21T13:23:10Z</time></trkpt><trkpt lat="14.4747307016344" lon="120.98148851534027"><ele>8.0</ele><time>2026-04-21T13:23:12Z</time></trkpt><trkpt lat="14.474846147548226" lon="120.98161038637201"><ele>8.0</ele><time>2026-04-21T13:23:13Z</time></trkpt><trkpt lat="14.474970585341232" lon="120.98173268952725"><ele>8.0</ele><time>2026-04-21T13:23:14Z</time></trkpt><trkpt lat="14.47509128906332" lon="120.98185375087027"><ele>8.0</ele><time>2026-04-21T13:23:15Z</time></trkpt><trkpt lat="14.475211264415023" lon="120.98197701972583"><ele>8.0</ele><time>2026-04-21T13:23:16Z</time></trkpt><trkpt lat="14.475331519469364" lon="120.98210403761529"><ele>8.0</ele><time>2026-04-21T13:23:17Z</time></trkpt><trkpt lat="14.475452177062776" lon="120.98222652196564"><ele>8.0</ele><time>2026-04-21T13:23:18Z</time></trkpt><trkpt lat="14.475581360919172" lon="120.9823536163565"><ele>8.0</ele><time>2026-04-21T13:23:19Z</time></trkpt><trkpt lat="14.475705229274688" lon="120.98248374903798"><ele>8.0</ele><time>2026-04-21T13:23:20Z</time></trkpt><trkpt lat="14.475830623536263" lon="120.98261456144394"><ele>8.0</ele><time>2026-04-21T13:23:21Z</time></trkpt><trkpt lat="14.475958885617842" lon="120.9827492217089"><ele>7.666666666666666</ele><time>2026-04-21T13:23:22Z</time></trkpt><trkpt lat="14.47608914734" lon="120.98288186081216"><ele>7.333333333333334</ele><time>2026-04-21T13:23:23Z</time></trkpt><trkpt lat="14.47621304795417" lon="120.98300918630756"><ele>7.0</ele><time>2026-04-21T13:23:24Z</time></trkpt><trkpt lat="14.476336744153587" lon="120.98313436496525"><ele>7.0</ele><time>2026-04-21T13:23:25Z</time></trkpt><trkpt lat="14.476462494814887" lon="120.98326212869313"><ele>7.0</ele><time>2026-04-21T13:23:26Z</time></trkpt><trkpt lat="14.476584907644009" lon="120.98338940496191"><ele>7.0</ele><time>2026-04-21T13:23:27Z</time></trkpt><trkpt lat="14.476707965197742" lon="120.98351916114395"><ele>7.666666666666667</ele><time>2026-04-21T13:23:28Z</time></trkpt><trkpt lat="14.476832296683172" lon="120.98364915310445"><ele>8.333333333333334</ele><time>2026-04-21T13:23:29Z</time></trkpt><trkpt lat="14.47695735503985" lon="120.98377372590681"><ele>9.0</ele><time>2026-04-21T13:23:30Z</time></trkpt><trkpt lat="14.477079365911752" lon="120.98389962962963"><ele>5.5</ele><time>2026-04-21T13:23:31Z</time></trkpt><trkpt lat="14.477318922691083" lon="120.98414617407614"><ele>2.0</ele><time>2026-04-21T13:23:33Z</time></trkpt><trkpt lat="14.477437038062721" lon="120.98426697962894"><ele>2.0</ele><time>2026-04-21T13:23:34Z</time></trkpt><trkpt lat="14.477555453895496" lon="120.98438544221564"><ele>2.0</ele><time>2026-04-21T13:23:35Z</time></trkpt><trkpt lat="14.477674099535854" lon="120.98450246222203"><ele>2.0</ele><time>2026-04-21T13:23:36Z</time></trkpt><trkpt lat="14.477788770495389" lon="120.98461930414189"><ele>2.0</ele><time>2026-04-21T13:23:37Z</time></trkpt><trkpt lat="14.477899880282758" lon="120.98473458115082"><ele>2.0</ele><time>2026-04-21T13:23:38Z</time></trkpt><trkpt lat="14.478011263577649" lon="120.98484747106774"><ele>2.0</ele><time>2026-04-21T13:23:39Z</time></trkpt><trkpt lat="14.478114594269977" lon="120.98495834536345"><ele>4.25</ele><time>2026-04-21T13:23:40Z</time></trkpt><trkpt lat="14.478213701019042" lon="120.98506300246042"><ele>6.5</ele><time>2026-04-21T13:23:41Z</time></trkpt><trkpt lat="14.478313467624105" lon="120.98516868742131"><ele>8.75</ele><time>2026-04-21T13:23:42Z</time></trkpt><trkpt lat="14.478403185158092" lon="120.98526440115668"><ele>11.0</ele><time>2026-04-21T13:23:43Z</time></trkpt><trkpt lat="14.478485682903855" lon="120.98535557780777"><ele>11.0</ele><time>2026-04-21T13:23:44Z</time></trkpt><trkpt lat="14.478564628438578" lon="120.98544460688534"><ele>11.0</ele><time>2026-04-21T13:23:45Z</time></trkpt><trkpt lat="14.478641887407695" lon="120.98552718059854"><ele>11.0</ele><time>2026-04-21T13:23:46Z</time></trkpt><trkpt lat="14.478707012659706" lon="120.98559420722313"><ele>11.0</ele><time>2026-04-21T13:23:47Z</time></trkpt><trkpt lat="14.478755947628466" lon="120.98564697297817"><ele>11.0</ele><time>2026-04-21T13:23:48Z</time></trkpt><trkpt lat="14.478807205865115" lon="120.9857025307473"><ele>9.0</ele><time>2026-04-21T13:23:50Z</time></trkpt><trkpt lat="14.478842832565135" lon="120.9857586441035"><ele>7.0</ele><time>2026-04-21T13:23:58Z</time></trkpt><trkpt lat="14.479010746069743" lon="120.98592024288176"><ele>5.0</ele><time>2026-04-21T13:24:03Z</time></trkpt><trkpt lat="14.47907614453136" lon="120.9859839570201"><ele>3.0</ele><time>2026-04-21T13:24:04Z</time></trkpt><trkpt lat="14.479148634399577" lon="120.98605622035721"><ele>2.75</ele><time>2026-04-21T13:24:05Z</time></trkpt><trkpt lat="14.479221337330197" lon="120.98613524638216"><ele>2.5</ele><time>2026-04-21T13:24:06Z</time></trkpt><trkpt lat="14.479299389945687" lon="120.98621908223865"><ele>2.25</ele><time>2026-04-21T13:24:07Z</time></trkpt><trkpt lat="14.47940591047928" lon="120.98630919692035"><ele>2.0</ele><time>2026-04-21T13:24:08Z</time></trkpt><trkpt lat="14.479506290663519" lon="120.9864104385127"><ele>2.0</ele><time>2026-04-21T13:24:09Z</time></trkpt><trkpt lat="14.479609883258675" lon="120.98651779647733"><ele>2.0</ele><time>2026-04-21T13:24:10Z</time></trkpt><trkpt lat="14.47972172568951" lon="120.98663002112193"><ele>2.0</ele><time>2026-04-21T13:24:11Z</time></trkpt><trkpt lat="14.47983847194086" lon="120.98674722371298"><ele>2.6666666666666665</ele><time>2026-04-21T13:24:12Z</time></trkpt><trkpt lat="14.479953780190847" lon="120.9868660011271"><ele>3.333333333333333</ele><time>2026-04-21T13:24:13Z</time></trkpt><trkpt lat="14.480064305220992" lon="120.98697805264823"><ele>4.0</ele><time>2026-04-21T13:24:14Z</time></trkpt><trkpt lat="14.48016752757093" lon="120.98707998596959"><ele>4.0</ele><time>2026-04-21T13:24:15Z</time></trkpt><trkpt lat="14.480267319292093" lon="120.98717633105817"><ele>4.0</ele><time>2026-04-21T13:24:16Z</time></trkpt><trkpt lat="14.480371892632697" lon="120.9872663069271"><ele>4.0</ele><time>2026-04-21T13:24:17Z</time></trkpt><trkpt lat="14.480480367138801" lon="120.9873502023571"><ele>4.0</ele><time>2026-04-21T13:24:18Z</time></trkpt><trkpt lat="14.480591471134074" lon="120.9874203905318"><ele>3.6666666666666665</ele><time>2026-04-21T13:24:19Z</time></trkpt><trkpt lat="14.480836400682163" lon="120.98754933325067"><ele>3.333333333333333</ele><time>2026-04-21T13:24:21Z</time></trkpt><trkpt lat="14.480968062615037" lon="120.98761161083573"><ele>3.0</ele><time>2026-04-21T13:24:22Z</time></trkpt><trkpt lat="14.481104232426375" lon="120.98767773288746"><ele>3.0</ele><time>2026-04-21T13:24:23Z</time></trkpt><trkpt lat="14.481243777421616" lon="120.98774307058314"><ele>3.0</ele><time>2026-04-21T13:24:24Z</time></trkpt><trkpt lat="14.481386188917238" lon="120.98780628414931"><ele>3.0</ele><time>2026-04-21T13:24:25Z</time></trkpt><trkpt lat="14.481531998426497" lon="120.98787142704708"><ele>0.6666666666666667</ele><time>2026-04-21T13:24:26Z</time></trkpt><trkpt lat="14.481672661424918" lon="120.98794218765948"><ele>-1.6666666666666665</ele><time>2026-04-21T13:24:27Z</time></trkpt><trkpt lat="14.481814077907217" lon="120.98801011613081"><ele>-4.0</ele><time>2026-04-21T13:24:28Z</time></trkpt><trkpt lat="14.481952406449004" lon="120.98807485033264"><ele>-4.0</ele><time>2026-04-21T13:24:29Z</time></trkpt><trkpt lat="14.482091316145508" lon="120.98813924801587"><ele>-4.0</ele><time>2026-04-21T13:24:30Z</time></trkpt><trkpt lat="14.482225446862062" lon="120.98820420746583"><ele>-4.0</ele><time>2026-04-21T13:24:31Z</time></trkpt><trkpt lat="14.482352673948643" lon="120.98826830916724"><ele>-4.0</ele><time>2026-04-21T13:24:32Z</time></trkpt><trkpt lat="14.482471039104372" lon="120.98832907099106"><ele>-2.25</ele><time>2026-04-21T13:24:33Z</time></trkpt><trkpt lat="14.48258879493338" lon="120.98839246091215"><ele>-0.5</ele><time>2026-04-21T13:24:34Z</time></trkpt><trkpt lat="14.482695984059987" lon="120.98846627387609"><ele>1.25</ele><time>2026-04-21T13:24:35Z</time></trkpt><trkpt lat="14.482801441518834" lon="120.98854630383694"><ele>3.0</ele><time>2026-04-21T13:24:36Z</time></trkpt><trkpt lat="14.482883465018782" lon="120.98864405413188"><ele>3.0</ele><time>2026-04-21T13:24:37Z</time></trkpt><trkpt lat="14.482966833841736" lon="120.98875462281931"><ele>3.0</ele><time>2026-04-21T13:24:38Z</time></trkpt><trkpt lat="14.483022874437248" lon="120.98886410790502"><ele>3.0</ele><time>2026-04-21T13:24:39Z</time></trkpt><trkpt lat="14.483095410755041" lon="120.98899290102213"><ele>3.0</ele><time>2026-04-21T13:24:40Z</time></trkpt><trkpt lat="14.483220879336566" lon="120.9892652217211"><ele>3.0</ele><time>2026-04-21T13:24:42Z</time></trkpt><trkpt lat="14.483291887394165" lon="120.98940584086257"><ele>3.0</ele><time>2026-04-21T13:24:43Z</time></trkpt><trkpt lat="14.483365931322389" lon="120.98954543881312"><ele>3.0</ele><time>2026-04-21T13:24:44Z</time></trkpt><trkpt lat="14.483435280288669" lon="120.98967869347003"><ele>3.0</ele><time>2026-04-21T13:24:45Z</time></trkpt><trkpt lat="14.483492618574214" lon="120.98980543594647"><ele>3.0</ele><time>2026-04-21T13:24:46Z</time></trkpt><trkpt lat="14.48351741576375" lon="120.98992384053862"><ele>3.0</ele><time>2026-04-21T13:24:47Z</time></trkpt><trkpt lat="14.483514362439372" lon="120.99004718584843"><ele>3.0</ele><time>2026-04-21T13:24:48Z</time></trkpt><trkpt lat="14.48348339501415" lon="120.99016622227025"><ele>4.0</ele><time>2026-04-21T13:24:49Z</time></trkpt><trkpt lat="14.483432741257346" lon="120.99028818043897"><ele>5.0</ele><time>2026-04-21T13:24:50Z</time></trkpt><trkpt lat="14.483373044492598" lon="120.99041822028738"><ele>6.0</ele><time>2026-04-21T13:24:51Z</time></trkpt><trkpt lat="14.483316024546816" lon="120.99054616301702"><ele>7.0</ele><time>2026-04-21T13:24:52Z</time></trkpt><trkpt lat="14.48326601002086" lon="120.99069542156154"><ele>7.0</ele><time>2026-04-21T13:24:53Z</time></trkpt><trkpt lat="14.483221775039404" lon="120.99084384735099"><ele>7.0</ele><time>2026-04-21T13:24:54Z</time></trkpt><trkpt lat="14.48318166686503" lon="120.99098947048914"><ele>7.0</ele><time>2026-04-21T13:24:55Z</time></trkpt><trkpt lat="14.483156760138801" lon="120.99114105328151"><ele>7.0</ele><time>2026-04-21T13:24:56Z</time></trkpt><trkpt lat="14.483155068907932" lon="120.99128606044313"><ele>7.0</ele><time>2026-04-21T13:24:57Z</time></trkpt><trkpt lat="14.48317860396288" lon="120.99142827270703"><ele>7.0</ele><time>2026-04-21T13:24:58Z</time></trkpt><trkpt lat="14.483219440093073" lon="120.99156302075264"><ele>7.0</ele><time>2026-04-21T13:24:59Z</time></trkpt><trkpt lat="14.483273245754653" lon="120.99170077826686"><ele>7.0</ele><time>2026-04-21T13:25:00Z</time></trkpt><trkpt lat="14.483324121769922" lon="120.99184008170093"><ele>5.333333333333334</ele><time>2026-04-21T13:25:01Z</time></trkpt><trkpt lat="14.483404315080701" lon="120.99209370456427"><ele>3.666666666666667</ele><time>2026-04-21T13:25:03Z</time></trkpt><trkpt lat="14.483448426915873" lon="120.99221029129137"><ele>2.0</ele><time>2026-04-21T13:25:04Z</time></trkpt><trkpt lat="14.483501701941819" lon="120.99231319985007"><ele>2.0</ele><time>2026-04-21T13:25:05Z</time></trkpt><trkpt lat="14.48356272051709" lon="120.99239910046688"><ele>2.0</ele><time>2026-04-21T13:25:06Z</time></trkpt><trkpt lat="14.483673390777595" lon="120.99248585051532"><ele>2.0</ele><time>2026-04-21T13:25:07Z</time></trkpt><trkpt lat="14.48379486601592" lon="120.99256779299922"><ele>2.0</ele><time>2026-04-21T13:25:08Z</time></trkpt><trkpt lat="14.48391891442332" lon="120.9926322646305"><ele>3.0</ele><time>2026-04-21T13:25:09Z</time></trkpt><trkpt lat="14.484042851963093" lon="120.99269871482001"><ele>4.0</ele><time>2026-04-21T13:25:10Z</time></trkpt><trkpt lat="14.484175098398763" lon="120.99277581723608"><ele>5.0</ele><time>2026-04-21T13:25:11Z</time></trkpt><trkpt lat="14.48429834546855" lon="120.99285864317112"><ele>6.0</ele><time>2026-04-21T13:25:12Z</time></trkpt><trkpt lat="14.484420934211823" lon="120.99293987563993"><ele>6.0</ele><time>2026-04-21T13:25:13Z</time></trkpt><trkpt lat="14.48455825172042" lon="120.99302577840906"><ele>6.0</ele><time>2026-04-21T13:25:14Z</time></trkpt><trkpt lat="14.484686530980412" lon="120.99310771717859"><ele>6.0</ele><time>2026-04-21T13:25:15Z</time></trkpt><trkpt lat="14.484813429327003" lon="120.99318950026615"><ele>6.25</ele><time>2026-04-21T13:25:16Z</time></trkpt><trkpt lat="14.484942492163572" lon="120.99327283930631"><ele>6.5</ele><time>2026-04-21T13:25:17Z</time></trkpt><trkpt lat="14.485068689972652" lon="120.99335647079349"><ele>6.75</ele><time>2026-04-21T13:25:18Z</time></trkpt><trkpt lat="14.485186953967107" lon="120.99343686802874"><ele>7.0</ele><time>2026-04-21T13:25:19Z</time></trkpt><trkpt lat="14.485308236054978" lon="120.99353733963648"><ele>6.0</ele><time>2026-04-21T13:25:20Z</time></trkpt><trkpt lat="14.485423474741289" lon="120.99364273434048"><ele>5.0</ele><time>2026-04-21T13:25:21Z</time></trkpt><trkpt lat="14.485539398450266" lon="120.99376073433123"><ele>4.0</ele><time>2026-04-21T13:25:22Z</time></trkpt><trkpt lat="14.485766075975366" lon="120.99400041154972"><ele>4.0</ele><time>2026-04-21T13:25:24Z</time></trkpt><trkpt lat="14.48588143512481" lon="120.99412013872963"><ele>4.0</ele><time>2026-04-21T13:25:25Z</time></trkpt><trkpt lat="14.485979336068233" lon="120.99425013710947"><ele>4.0</ele><time>2026-04-21T13:25:26Z</time></trkpt><trkpt lat="14.486070473952529" lon="120.99438297464249"><ele>4.0</ele><time>2026-04-21T13:25:27Z</time></trkpt><trkpt lat="14.486152693844822" lon="120.99451285608416"><ele>4.0</ele><time>2026-04-21T13:25:28Z</time></trkpt><trkpt lat="14.486222732452173" lon="120.9946433891952"><ele>4.0</ele><time>2026-04-21T13:25:29Z</time></trkpt><trkpt lat="14.486262057083731" lon="120.99477788190225"><ele>4.0</ele><time>2026-04-21T13:25:30Z</time></trkpt><trkpt lat="14.486272918080289" lon="120.99490544767478"><ele>4.25</ele><time>2026-04-21T13:25:31Z</time></trkpt><trkpt lat="14.486281948344622" lon="120.99503510710224"><ele>4.5</ele><time>2026-04-21T13:25:32Z</time></trkpt><trkpt lat="14.48627658576655" lon="120.9951724058329"><ele>4.75</ele><time>2026-04-21T13:25:33Z</time></trkpt><trkpt lat="14.48626112834756" lon="120.99530287934363"><ele>5.0</ele><time>2026-04-21T13:25:34Z</time></trkpt><trkpt lat="14.486236237883787" lon="120.99543018645414"><ele>5.0</ele><time>2026-04-21T13:25:35Z</time></trkpt><trkpt lat="14.486198888733503" lon="120.99555023049466"><ele>5.0</ele><time>2026-04-21T13:25:36Z</time></trkpt><trkpt lat="14.486147446427667" lon="120.99566571983996"><ele>5.0</ele><time>2026-04-21T13:25:37Z</time></trkpt><trkpt lat="14.486102887279548" lon="120.99578132867322"><ele>5.0</ele><time>2026-04-21T13:25:38Z</time></trkpt><trkpt lat="14.486053244604326" lon="120.9958975721848"><ele>4.75</ele><time>2026-04-21T13:25:39Z</time></trkpt><trkpt lat="14.486009486959517" lon="120.99601392255175"><ele>4.5</ele><time>2026-04-21T13:25:40Z</time></trkpt><trkpt lat="14.48596376948764" lon="120.9961334640004"><ele>4.25</ele><time>2026-04-21T13:25:41Z</time></trkpt><trkpt lat="14.485923420803571" lon="120.99624519561434"><ele>4.0</ele><time>2026-04-21T13:25:42Z</time></trkpt><trkpt lat="14.485888922536713" lon="120.99635813977837"><ele>4.0</ele><time>2026-04-21T13:25:43Z</time></trkpt><trkpt lat="14.485858717912965" lon="120.99660594696252"><ele>4.0</ele><time>2026-04-21T13:25:45Z</time></trkpt><trkpt lat="14.48586358122987" lon="120.99672323937712"><ele>4.0</ele><time>2026-04-21T13:25:46Z</time></trkpt><trkpt lat="14.485877676233294" lon="120.99683932726857"><ele>4.75</ele><time>2026-04-21T13:25:47Z</time></trkpt><trkpt lat="14.48590774088788" lon="120.99695129748953"><ele>5.5</ele><time>2026-04-21T13:25:48Z</time></trkpt><trkpt lat="14.485935003769336" lon="120.9970675661161"><ele>6.25</ele><time>2026-04-21T13:25:49Z</time></trkpt><trkpt lat="14.485979240051021" lon="120.99718022096148"><ele>7.0</ele><time>2026-04-21T13:25:50Z</time></trkpt><trkpt lat="14.48603832048051" lon="120.9972864902843"><ele>7.0</ele><time>2026-04-21T13:25:51Z</time></trkpt><trkpt lat="14.48610568479342" lon="120.99738842168739"><ele>7.0</ele><time>2026-04-21T13:25:52Z</time></trkpt><trkpt lat="14.486175157839519" lon="120.99747779237215"><ele>7.0</ele><time>2026-04-21T13:25:53Z</time></trkpt><trkpt lat="14.486248960626996" lon="120.99756486462732"><ele>7.0</ele><time>2026-04-21T13:25:54Z</time></trkpt><trkpt lat="14.48633301261885" lon="120.99765241779004"><ele>7.25</ele><time>2026-04-21T13:25:55Z</time></trkpt><trkpt lat="14.486424007944775" lon="120.99774269006343"><ele>7.5</ele><time>2026-04-21T13:25:56Z</time></trkpt><trkpt lat="14.486524762871877" lon="120.99784830661308"><ele>7.75</ele><time>2026-04-21T13:25:57Z</time></trkpt><trkpt lat="14.486613791469246" lon="120.99796722103584"><ele>8.0</ele><time>2026-04-21T13:25:58Z</time></trkpt><trkpt lat="14.48671677028231" lon="120.99809010460848"><ele>8.0</ele><time>2026-04-21T13:25:59Z</time></trkpt><trkpt lat="14.48682375246104" lon="120.99822105644293"><ele>8.0</ele><time>2026-04-21T13:26:00Z</time></trkpt><trkpt lat="14.486927532437816" lon="120.99835220097864"><ele>8.0</ele><time>2026-04-21T13:26:01Z</time></trkpt><trkpt lat="14.487029020991763" lon="120.99847166308025"><ele>7.0</ele><time>2026-04-21T13:26:02Z</time></trkpt><trkpt lat="14.487120354893579" lon="120.99857775639613"><ele>6.0</ele><time>2026-04-21T13:26:03Z</time></trkpt><trkpt lat="14.487205085356095" lon="120.99867572919405"><ele>5.0</ele><time>2026-04-21T13:26:04Z</time></trkpt><trkpt lat="14.487382360511372" lon="120.99886110017934"><ele>5.0</ele><time>2026-04-21T13:26:06Z</time></trkpt><trkpt lat="14.487470018025025" lon="120.99895611358575"><ele>5.0</ele><time>2026-04-21T13:26:07Z</time></trkpt><trkpt lat="14.487557298423356" lon="120.99904929738508"><ele>5.0</ele><time>2026-04-21T13:26:08Z</time></trkpt><trkpt lat="14.48763909769687" lon="120.99914109524532"><ele>5.0</ele><time>2026-04-21T13:26:09Z</time></trkpt><trkpt lat="14.487714498841235" lon="120.99922447197413"><ele>5.6</ele><time>2026-04-21T13:26:10Z</time></trkpt><trkpt lat="14.487788660886862" lon="120.99930074175505"><ele>6.2</ele><time>2026-04-21T13:26:11Z</time></trkpt><trkpt lat="14.487860629123757" lon="120.99936445721679"><ele>6.800000000000001</ele><time>2026-04-21T13:26:12Z</time></trkpt><trkpt lat="14.48793397345173" lon="120.99941725177347"><ele>7.4</ele><time>2026-04-21T13:26:13Z</time></trkpt><trkpt lat="14.488004051058615" lon="120.99946164924091"><ele>8.0</ele><time>2026-04-21T13:26:14Z</time></trkpt><trkpt lat="14.48807741266356" lon="120.99950414357828"><ele>8.0</ele><time>2026-04-21T13:26:15Z</time></trkpt><trkpt lat="14.488157481014802" lon="120.99954114337383"><ele>8.0</ele><time>2026-04-21T13:26:16Z</time></trkpt><trkpt lat="14.488239504046613" lon="120.99957351711193"><ele>8.0</ele><time>2026-04-21T13:26:17Z</time></trkpt><trkpt lat="14.488328073325446" lon="120.99960622844871"><ele>8.0</ele><time>2026-04-21T13:26:18Z</time></trkpt><trkpt lat="14.488416507599435" lon="120.99963175072985"><ele>8.0</ele><time>2026-04-21T13:26:19Z</time></trkpt><trkpt lat="14.488506916056695" lon="120.99965056506184"><ele>8.0</ele><time>2026-04-21T13:26:20Z</time></trkpt><trkpt lat="14.488608083518683" lon="120.99966652898021"><ele>8.0</ele><time>2026-04-21T13:26:21Z</time></trkpt><trkpt lat="14.488713902555174" lon="120.99967471217333"><ele>8.0</ele><time>2026-04-21T13:26:22Z</time></trkpt><trkpt lat="14.4888281302519" lon="120.9996727778786"><ele>8.0</ele><time>2026-04-21T13:26:23Z</time></trkpt><trkpt lat="14.48894508013196" lon="120.99966147803404"><ele>8.0</ele><time>2026-04-21T13:26:24Z</time></trkpt><trkpt lat="14.489066355752488" lon="120.99964133762872"><ele>6.333333333333333</ele><time>2026-04-21T13:26:25Z</time></trkpt><trkpt lat="14.489325345948231" lon="120.99956712315807"><ele>4.666666666666666</ele><time>2026-04-21T13:26:27Z</time></trkpt><trkpt lat="14.489446949916944" lon="120.99951086132945"><ele>3.0</ele><time>2026-04-21T13:26:28Z</time></trkpt><trkpt lat="14.489566097020225" lon="120.99944235257844"><ele>3.0</ele><time>2026-04-21T13:26:29Z</time></trkpt><trkpt lat="14.489681078273584" lon="120.9993678338498"><ele>3.0</ele><time>2026-04-21T13:26:30Z</time></trkpt><trkpt lat="14.489800547678422" lon="120.99928059852735"><ele>3.0</ele><time>2026-04-21T13:26:31Z</time></trkpt><trkpt lat="14.489915990086946" lon="120.9991726609503"><ele>3.0</ele><time>2026-04-21T13:26:32Z</time></trkpt><trkpt lat="14.490033220989346" lon="120.9990563569317"><ele>1.6666666666666667</ele><time>2026-04-21T13:26:33Z</time></trkpt><trkpt lat="14.490159556719572" lon="120.99894115334634"><ele>0.33333333333333337</ele><time>2026-04-21T13:26:34Z</time></trkpt><trkpt lat="14.490286116765793" lon="120.99882100102613"><ele>-1.0</ele><time>2026-04-21T13:26:35Z</time></trkpt><trkpt lat="14.49041396052712" lon="120.99868929317496"><ele>-1.6666666666666665</ele><time>2026-04-21T13:26:36Z</time></trkpt><trkpt lat="14.490546086306042" lon="120.99855371259875"><ele>-2.3333333333333335</ele><time>2026-04-21T13:26:37Z</time></trkpt><trkpt lat="14.490685836635086" lon="120.99842777110156"><ele>-3.0</ele><time>2026-04-21T13:26:38Z</time></trkpt><trkpt lat="14.490811035273678" lon="120.9983043244316"><ele>-1.6666666666666667</ele><time>2026-04-21T13:26:39Z</time></trkpt><trkpt lat="14.490910703607325" lon="120.99819067551118"><ele>-0.33333333333333337</ele><time>2026-04-21T13:26:40Z</time></trkpt><trkpt lat="14.491025291765574" lon="120.99807428038096"><ele>1.0</ele><time>2026-04-21T13:26:41Z</time></trkpt><trkpt lat="14.49110760225487" lon="120.9979349021472"><ele>1.0</ele><time>2026-04-21T13:26:42Z</time></trkpt><trkpt lat="14.491178981228348" lon="120.99778854343742"><ele>1.0</ele><time>2026-04-21T13:26:43Z</time></trkpt><trkpt lat="14.491239853711079" lon="120.99763937070931"><ele>1.0</ele><time>2026-04-21T13:26:44Z</time></trkpt><trkpt lat="14.491284953565266" lon="120.99749411596238"><ele>0.75</ele><time>2026-04-21T13:26:45Z</time></trkpt><trkpt lat="14.491321820126416" lon="120.9973709647604"><ele>0.5</ele><time>2026-04-21T13:26:46Z</time></trkpt><trkpt lat="14.491383150490941" lon="120.9971656081735"><ele>0.25</ele><time>2026-04-21T13:26:48Z</time></trkpt><trkpt lat="14.49140990323447" lon="120.99707603014359"><ele>0.0</ele><time>2026-04-21T13:26:49Z</time></trkpt><trkpt lat="14.491438399969763" lon="120.99698061263793"><ele>0.0</ele><time>2026-04-21T13:26:50Z</time></trkpt><trkpt lat="14.491466895553916" lon="120.99688378458407"><ele>0.0</ele><time>2026-04-21T13:26:51Z</time></trkpt><trkpt lat="14.491497569226352" lon="120.99677951061454"><ele>0.0</ele><time>2026-04-21T13:26:52Z</time></trkpt><trkpt lat="14.49155943330807" lon="120.996689978187"><ele>0.0</ele><time>2026-04-21T13:26:53Z</time></trkpt><trkpt lat="14.491611410199718" lon="120.99659239880253"><ele>0.0</ele><time>2026-04-21T13:26:54Z</time></trkpt><trkpt lat="14.49168938366173" lon="120.99649940465038"><ele>1.25</ele><time>2026-04-21T13:26:55Z</time></trkpt><trkpt lat="14.491776831180335" lon="120.99639938329405"><ele>2.5</ele><time>2026-04-21T13:26:56Z</time></trkpt><trkpt lat="14.491875678788551" lon="120.99632977398461"><ele>3.75</ele><time>2026-04-21T13:26:57Z</time></trkpt><trkpt lat="14.491979669447582" lon="120.99626546302201"><ele>5.0</ele><time>2026-04-21T13:26:58Z</time></trkpt><trkpt lat="14.492092265463079" lon="120.99622225515174"><ele>6.25</ele><time>2026-04-21T13:26:59Z</time></trkpt><trkpt lat="14.492210794499098" lon="120.99620809907246"><ele>7.5</ele><time>2026-04-21T13:27:00Z</time></trkpt><trkpt lat="14.492334702660315" lon="120.9962105734125"><ele>8.75</ele><time>2026-04-21T13:27:01Z</time></trkpt><trkpt lat="14.492462191764664" lon="120.99621551048162"><ele>10.0</ele><time>2026-04-21T13:27:02Z</time></trkpt><trkpt lat="14.492592764418749" lon="120.99620714819102"><ele>10.0</ele><time>2026-04-21T13:27:03Z</time></trkpt><trkpt lat="14.492720724342679" lon="120.9962136750894"><ele>10.0</ele><time>2026-04-21T13:27:04Z</time></trkpt><trkpt lat="14.492851235885743" lon="120.99622018203839"><ele>10.0</ele><time>2026-04-21T13:27:05Z</time></trkpt><trkpt lat="14.492981335737639" lon="120.99622524591747"><ele>10.0</ele><time>2026-04-21T13:27:06Z</time></trkpt><trkpt lat="14.493115539242236" lon="120.99623219817977"><ele>9.666666666666668</ele><time>2026-04-21T13:27:07Z</time></trkpt><trkpt lat="14.493370159430581" lon="120.99624112491792"><ele>9.333333333333334</ele><time>2026-04-21T13:27:09Z</time></trkpt><trkpt lat="14.493476462859896" lon="120.99624408668764"><ele>9.0</ele><time>2026-04-21T13:27:10Z</time></trkpt><trkpt lat="14.493573806609303" lon="120.99626334718778"><ele>9.0</ele><time>2026-04-21T13:27:11Z</time></trkpt><trkpt lat="14.49367662229289" lon="120.99627230397869"><ele>9.0</ele><time>2026-04-21T13:27:12Z</time></trkpt><trkpt lat="14.493772867436922" lon="120.9962870790044"><ele>9.0</ele><time>2026-04-21T13:27:13Z</time></trkpt><trkpt lat="14.49386413080944" lon="120.99631473910411"><ele>9.0</ele><time>2026-04-21T13:27:14Z</time></trkpt><trkpt lat="14.493944414849558" lon="120.99635262812586"><ele>9.0</ele><time>2026-04-21T13:27:15Z</time></trkpt><trkpt lat="14.494034181619748" lon="120.99638716390075"><ele>8.8</ele><time>2026-04-21T13:27:16Z</time></trkpt><trkpt lat="14.494111219778976" lon="120.9964606144147"><ele>8.600000000000001</ele><time>2026-04-21T13:27:17Z</time></trkpt><trkpt lat="14.49418064331697" lon="120.99654402557314"><ele>8.4</ele><time>2026-04-21T13:27:18Z</time></trkpt><trkpt lat="14.49424330245955" lon="120.99664400450256"><ele>8.200000000000001</ele><time>2026-04-21T13:27:19Z</time></trkpt><trkpt lat="14.494291095848265" lon="120.99675302208479"><ele>8.0</ele><time>2026-04-21T13:27:20Z</time></trkpt><trkpt lat="14.494338722523304" lon="120.99687329997474"><ele>8.0</ele><time>2026-04-21T13:27:21Z</time></trkpt><trkpt lat="14.494379566136875" lon="120.99699601205752"><ele>8.0</ele><time>2026-04-21T13:27:22Z</time></trkpt><trkpt lat="14.49444055672589" lon="120.99712283968356"><ele>8.0</ele><time>2026-04-21T13:27:23Z</time></trkpt><trkpt lat="14.494499139626264" lon="120.9972613242482"><ele>8.0</ele><time>2026-04-21T13:27:24Z</time></trkpt><trkpt lat="14.494557990332039" lon="120.9974031522102"><ele>6.333333333333333</ele><time>2026-04-21T13:27:25Z</time></trkpt><trkpt lat="14.494620492947433" lon="120.9975522420515"><ele>4.666666666666666</ele><time>2026-04-21T13:27:26Z</time></trkpt><trkpt lat="14.494685488199282" lon="120.99770194011249"><ele>3.0</ele><time>2026-04-21T13:27:27Z</time></trkpt><trkpt lat="14.494750218424906" lon="120.99784554314974"><ele>3.0</ele><time>2026-04-21T13:27:28Z</time></trkpt><trkpt lat="14.494880328461484" lon="120.99812382164642"><ele>3.0</ele><time>2026-04-21T13:27:30Z</time></trkpt><trkpt lat="14.494959013418793" lon="120.9982675577454"><ele>4.666666666666666</ele><time>2026-04-21T13:27:31Z</time></trkpt><trkpt lat="14.495043851715518" lon="120.99841226266301"><ele>6.333333333333333</ele><time>2026-04-21T13:27:32Z</time></trkpt><trkpt lat="14.495126831679606" lon="120.99856225747452"><ele>8.0</ele><time>2026-04-21T13:27:33Z</time></trkpt><trkpt lat="14.495209443741286" lon="120.99871896546414"><ele>8.0</ele><time>2026-04-21T13:27:34Z</time></trkpt><trkpt lat="14.495285392376363" lon="120.99886205753937"><ele>8.0</ele><time>2026-04-21T13:27:35Z</time></trkpt><trkpt lat="14.495355614116402" lon="120.99899034349778"><ele>8.0</ele><time>2026-04-21T13:27:36Z</time></trkpt><trkpt lat="14.495427502181602" lon="120.9991124584286"><ele>8.0</ele><time>2026-04-21T13:27:37Z</time></trkpt><trkpt lat="14.495496540287208" lon="120.99922341383991"><ele>7.25</ele><time>2026-04-21T13:27:38Z</time></trkpt><trkpt lat="14.495559983226052" lon="120.9993350324141"><ele>6.5</ele><time>2026-04-21T13:27:39Z</time></trkpt><trkpt lat="14.49562060265572" lon="120.9994462347297"><ele>5.75</ele><time>2026-04-21T13:27:40Z</time></trkpt><trkpt lat="14.49568256240275" lon="120.99955957897436"><ele>5.0</ele><time>2026-04-21T13:27:41Z</time></trkpt><trkpt lat="14.495742804173128" lon="120.99966607597969"><ele>5.0</ele><time>2026-04-21T13:27:42Z</time></trkpt><trkpt lat="14.495782947555824" lon="120.99976649648966"><ele>5.0</ele><time>2026-04-21T13:27:43Z</time></trkpt><trkpt lat="14.495842897652679" lon="120.99983699602588"><ele>5.0</ele><time>2026-04-21T13:27:44Z</time></trkpt><trkpt lat="14.495884891551256" lon="120.99990964596265"><ele>5.0</ele><time>2026-04-21T13:27:45Z</time></trkpt><trkpt lat="14.495923198832061" lon="120.99997497859248"><ele>5.0</ele><time>2026-04-21T13:27:46Z</time></trkpt><trkpt lat="14.495969904876633" lon="121.00005131322345"><ele>5.0</ele><time>2026-04-21T13:27:48Z</time></trkpt><trkpt lat="14.496000842947641" lon="121.00010860055917"><ele>5.0</ele><time>2026-04-21T13:28:35.001Z</time></trkpt><trkpt lat="14.496062885613593" lon="121.00023246421662"><ele>5.0</ele><time>2026-04-21T13:28:39.001Z</time></trkpt><trkpt lat="14.496258469929522" lon="121.00020198934116"><ele>5.0</ele><time>2026-04-21T13:28:42.001Z</time></trkpt><trkpt lat="14.496288463630572" lon="121.00012627073443"><ele>5.0</ele><time>2026-04-21T13:28:43.001Z</time></trkpt><trkpt lat="14.496335569298669" lon="121.00006504927204"><ele>4.8</ele><time>2026-04-21T13:28:44.001Z</time></trkpt><trkpt lat="14.49639005114596" lon="120.99999352240985"><ele>4.6</ele><time>2026-04-21T13:28:45.001Z</time></trkpt><trkpt lat="14.496455236507224" lon="120.99991170745346"><ele>4.4</ele><time>2026-04-21T13:28:46.001Z</time></trkpt><trkpt lat="14.49652125533461" lon="120.9998350803777"><ele>4.2</ele><time>2026-04-21T13:28:47.001Z</time></trkpt><trkpt lat="14.496613645291506" lon="120.99975674634527"><ele>4.0</ele><time>2026-04-21T13:28:48.001Z</time></trkpt><trkpt lat="14.49667915090473" lon="120.99968470223938"><ele>4.0</ele><time>2026-04-21T13:28:49.001Z</time></trkpt><trkpt lat="14.496747043168769" lon="120.99961038603512"><ele>4.0</ele><time>2026-04-21T13:28:50.001Z</time></trkpt><trkpt lat="14.496806183308621" lon="120.99952722911121"><ele>4.0</ele><time>2026-04-21T13:28:51.001Z</time></trkpt><trkpt lat="14.496833472319304" lon="120.99943464411973"><ele>4.0</ele><time>2026-04-21T13:28:52.001Z</time></trkpt><trkpt lat="14.496869099001463" lon="120.99934479624638"><ele>4.0</ele><time>2026-04-21T13:28:53.001Z</time></trkpt><trkpt lat="14.49689260913509" lon="120.99924736890867"><ele>4.0</ele><time>2026-04-21T13:28:54.001Z</time></trkpt><trkpt lat="14.496911384623457" lon="120.99914748654936"><ele>4.0</ele><time>2026-04-21T13:28:55.001Z</time></trkpt><trkpt lat="14.496934867134403" lon="120.99904082043321"><ele>4.0</ele><time>2026-04-21T13:28:56.001Z</time></trkpt><trkpt lat="14.49697917257027" lon="120.9988504435987"><ele>4.0</ele><time>2026-04-21T13:28:58.001Z</time></trkpt><trkpt lat="14.49699633869881" lon="120.99876478687112"><ele>3.9999999999999996</ele><time>2026-04-21T13:28:59.001Z</time></trkpt><trkpt lat="14.497037551876577" lon="120.9986940301255"><ele>4.0</ele><time>2026-04-21T13:29:00.001Z</time></trkpt><trkpt lat="14.4970653770403" lon="120.99861664618047"><ele>4.0</ele><time>2026-04-21T13:29:01.001Z</time></trkpt><trkpt lat="14.497122907419852" lon="120.9985611910213"><ele>4.0</ele><time>2026-04-21T13:29:02.001Z</time></trkpt><trkpt lat="14.49717264943025" lon="120.99848670567589"><ele>3.9999999999999996</ele><time>2026-04-21T13:29:03.001Z</time></trkpt><trkpt lat="14.49722585609455" lon="120.99841179063117"><ele>4.0</ele><time>2026-04-21T13:29:04.001Z</time></trkpt><trkpt lat="14.4972776964405" lon="120.99834238129465"><ele>4.166666666666666</ele><time>2026-04-21T13:29:05.001Z</time></trkpt><trkpt lat="14.497329199252825" lon="120.99827342386482"><ele>4.333333333333333</ele><time>2026-04-21T13:29:06.001Z</time></trkpt><trkpt lat="14.497378376605898" lon="120.99820758003177"><ele>4.5</ele><time>2026-04-21T13:29:07.001Z</time></trkpt><trkpt lat="14.49742741929365" lon="120.99815826115439"><ele>4.666666666666667</ele><time>2026-04-21T13:29:08.001Z</time></trkpt><trkpt lat="14.49748330030489" lon="120.99811418942468"><ele>4.833333333333334</ele><time>2026-04-21T13:29:09.001Z</time></trkpt><trkpt lat="14.497553575671184" lon="120.99808191068965"><ele>5.0</ele><time>2026-04-21T13:29:10.001Z</time></trkpt><trkpt lat="14.497634965075113" lon="120.99806524460197"><ele>5.0</ele><time>2026-04-21T13:29:11.001Z</time></trkpt><trkpt lat="14.497726177938283" lon="120.99804748446886"><ele>5.0</ele><time>2026-04-21T13:29:12.001Z</time></trkpt><trkpt lat="14.497829374187427" lon="120.99802739104146"><ele>5.0</ele><time>2026-04-21T13:29:13.001Z</time></trkpt><trkpt lat="14.497953060460489" lon="120.99800321861073"><ele>5.0</ele><time>2026-04-21T13:29:14.001Z</time></trkpt><trkpt lat="14.49805344582022" lon="120.99798350040079"><ele>5.0</ele><time>2026-04-21T13:29:15.001Z</time></trkpt><trkpt lat="14.498161910151204" lon="120.99796219527566"><ele>5.0</ele><time>2026-04-21T13:29:16.001Z</time></trkpt><trkpt lat="14.498268759700972" lon="120.99794120733458"><ele>5.0</ele><time>2026-04-21T13:29:17.001Z</time></trkpt><trkpt lat="14.498483840429278" lon="120.9978989599972"><ele>5.0</ele><time>2026-04-21T13:29:19.001Z</time></trkpt><trkpt lat="14.498594467867175" lon="120.99787554586293"><ele>5.0</ele><time>2026-04-21T13:29:20.001Z</time></trkpt><trkpt lat="14.498707352641164" lon="120.99784813870387"><ele>4.6</ele><time>2026-04-21T13:29:21.001Z</time></trkpt><trkpt lat="14.4988189635262" lon="120.99782141928871"><ele>4.2</ele><time>2026-04-21T13:29:22.001Z</time></trkpt><trkpt lat="14.498922594545329" lon="120.99779910914096"><ele>3.8</ele><time>2026-04-21T13:29:23.001Z</time></trkpt><trkpt lat="14.499021458280776" lon="120.99777698430776"><ele>3.4</ele><time>2026-04-21T13:29:24.001Z</time></trkpt><trkpt lat="14.499122079123545" lon="120.99775446624778"><ele>3.0</ele><time>2026-04-21T13:29:25.001Z</time></trkpt><trkpt lat="14.499225289795078" lon="120.99773136860948"><ele>3.0</ele><time>2026-04-21T13:29:26.001Z</time></trkpt><trkpt lat="14.499329908476428" lon="120.99770808810486"><ele>3.0</ele><time>2026-04-21T13:29:27.001Z</time></trkpt><trkpt lat="14.49943792629309" lon="120.99768405728247"><ele>3.0</ele><time>2026-04-21T13:29:28.001Z</time></trkpt><trkpt lat="14.499542476611548" lon="120.9976607914552"><ele>3.0</ele><time>2026-04-21T13:29:29.001Z</time></trkpt><trkpt lat="14.499639312352803" lon="120.99763924135374"><ele>3.0</ele><time>2026-04-21T13:29:30.001Z</time></trkpt><trkpt lat="14.499737604723048" lon="120.99761736709073"><ele>3.2</ele><time>2026-04-21T13:29:31.001Z</time></trkpt><trkpt lat="14.499841124411137" lon="120.99759432952675"><ele>3.4</ele><time>2026-04-21T13:29:32.001Z</time></trkpt><trkpt lat="14.49993764427319" lon="120.99755996510608"><ele>3.6000000000000005</ele><time>2026-04-21T13:29:33.001Z</time></trkpt><trkpt lat="14.500032921873878" lon="120.9975492694763"><ele>3.8000000000000003</ele><time>2026-04-21T13:29:34.001Z</time></trkpt><trkpt lat="14.500111385607909" lon="120.99752421378193"><ele>4.0</ele><time>2026-04-21T13:29:35.001Z</time></trkpt><trkpt lat="14.500216874128526" lon="120.99746423681822"><ele>4.25</ele><time>2026-04-21T13:29:36.001Z</time></trkpt><trkpt lat="14.5002791227742" lon="120.99742511649346"><ele>4.5</ele><time>2026-04-21T13:29:37.001Z</time></trkpt><trkpt lat="14.500361116095112" lon="120.99736660155327"><ele>4.75</ele><time>2026-04-21T13:29:39.001Z</time></trkpt><trkpt lat="14.500505957455191" lon="120.99747798457997"><ele>5.0</ele><time>2026-04-21T13:29:42.001Z</time></trkpt><trkpt lat="14.500591358525288" lon="120.99754382135221"><ele>5.0</ele><time>2026-04-21T13:29:43.001Z</time></trkpt><trkpt lat="14.500680937435993" lon="120.99761287797327"><ele>5.0</ele><time>2026-04-21T13:29:44.001Z</time></trkpt><trkpt lat="14.500773569877916" lon="120.99768433297577"><ele>5.0</ele><time>2026-04-21T13:29:45.001Z</time></trkpt><trkpt lat="14.50088402972274" lon="120.99775717892241"><ele>5.0</ele><time>2026-04-21T13:29:46.001Z</time></trkpt><trkpt lat="14.50099503078941" lon="120.99782527745509"><ele>5.0</ele><time>2026-04-21T13:29:47.001Z</time></trkpt><trkpt lat="14.501089978582334" lon="120.99788352792224"><ele>5.0</ele><time>2026-04-21T13:29:48.001Z</time></trkpt><trkpt lat="14.50118323342248" lon="120.99794073977272"><ele>5.0</ele><time>2026-04-21T13:29:49.001Z</time></trkpt><trkpt lat="14.50125609437638" lon="120.99798740326776"><ele>5.0</ele><time>2026-04-21T13:29:50.001Z</time></trkpt><trkpt lat="14.501315791394173" lon="120.99802630536239"><ele>5.0</ele><time>2026-04-21T13:29:51.001Z</time></trkpt><trkpt lat="14.501371763195387" lon="120.9980627895088"><ele>5.0</ele><time>2026-04-21T13:29:52.001Z</time></trkpt><trkpt lat="14.501432200388633" lon="120.99810188451909"><ele>5.2</ele><time>2026-04-21T13:29:53.001Z</time></trkpt><trkpt lat="14.501502337909884" lon="120.99814678277536"><ele>5.4</ele><time>2026-04-21T13:29:54.001Z</time></trkpt><trkpt lat="14.501546065360587" lon="120.99819585929399"><ele>5.6</ele><time>2026-04-21T13:29:55.001Z</time></trkpt><trkpt lat="14.501628142319648" lon="120.99824049079143"><ele>5.8</ele><time>2026-04-21T13:29:56.001Z</time></trkpt><trkpt lat="14.501718312819763" lon="120.99829171676038"><ele>6.0</ele><time>2026-04-21T13:29:57.001Z</time></trkpt><trkpt lat="14.501815571494529" lon="120.99834555511147"><ele>7.0</ele><time>2026-04-21T13:29:58.001Z</time></trkpt><trkpt lat="14.501918385948354" lon="120.99840552889114"><ele>8.0</ele><time>2026-04-21T13:29:59.001Z</time></trkpt><trkpt lat="14.502028338739755" lon="120.99847203818362"><ele>9.0</ele><time>2026-04-21T13:30:00.001Z</time></trkpt><trkpt lat="14.502258815170562" lon="120.99861621861008"><ele>9.0</ele><time>2026-04-21T13:30:02.001Z</time></trkpt><trkpt lat="14.502378414113762" lon="120.9986913740904"><ele>9.0</ele><time>2026-04-21T13:30:03.001Z</time></trkpt><trkpt lat="14.50249344363332" lon="120.99876703592001"><ele>9.0</ele><time>2026-04-21T13:30:04.001Z</time></trkpt><trkpt lat="14.502612936523548" lon="120.99883898440014"><ele>9.0</ele><time>2026-04-21T13:30:05.001Z</time></trkpt><trkpt lat="14.50272669830104" lon="120.99891457633275"><ele>9.0</ele><time>2026-04-21T13:30:06.001Z</time></trkpt><trkpt lat="14.502847831969286" lon="120.99898968517029"><ele>9.0</ele><time>2026-04-21T13:30:07.001Z</time></trkpt><trkpt lat="14.502965366168267" lon="120.99906326170621"><ele>9.0</ele><time>2026-04-21T13:30:08.001Z</time></trkpt><trkpt lat="14.503087249037673" lon="120.99914318740377"><ele>9.0</ele><time>2026-04-21T13:30:09.001Z</time></trkpt><trkpt lat="14.503213202743927" lon="120.99922422246343"><ele>9.0</ele><time>2026-04-21T13:30:10.001Z</time></trkpt><trkpt lat="14.503337461982758" lon="120.99930634514465"><ele>9.0</ele><time>2026-04-21T13:30:11.001Z</time></trkpt><trkpt lat="14.503466288136547" lon="120.999386303383"><ele>9.0</ele><time>2026-04-21T13:30:12.001Z</time></trkpt><trkpt lat="14.503592408890636" lon="120.9994699426591"><ele>9.0</ele><time>2026-04-21T13:30:13.001Z</time></trkpt><trkpt lat="14.503725196450063" lon="120.99954597715373"><ele>9.25</ele><time>2026-04-21T13:30:14.001Z</time></trkpt><trkpt lat="14.50384997978914" lon="120.99962431192169"><ele>9.5</ele><time>2026-04-21T13:30:15.001Z</time></trkpt><trkpt lat="14.50397652010009" lon="120.99970406721607"><ele>9.75</ele><time>2026-04-21T13:30:16.001Z</time></trkpt><trkpt lat="14.50409540651586" lon="120.99978421157812"><ele>10.0</ele><time>2026-04-21T13:30:17.001Z</time></trkpt><trkpt lat="14.504216109209016" lon="120.99986788276887"><ele>10.0</ele><time>2026-04-21T13:30:18.001Z</time></trkpt><trkpt lat="14.504334539395979" lon="120.99996688816292"><ele>10.0</ele><time>2026-04-21T13:30:19.001Z</time></trkpt><trkpt lat="14.504453968200199" lon="121.00006788676497"><ele>10.0</ele><time>2026-04-21T13:30:20.001Z</time></trkpt><trkpt lat="14.504579581211944" lon="121.00016009837954"><ele>9.0</ele><time>2026-04-21T13:30:21.001Z</time></trkpt><trkpt lat="14.504839298199727" lon="121.00031886893343"><ele>8.0</ele><time>2026-04-21T13:30:23.001Z</time></trkpt><trkpt lat="14.504958452526003" lon="121.00039312226218"><ele>7.0</ele><time>2026-04-21T13:30:24.001Z</time></trkpt><trkpt lat="14.505081466597082" lon="121.00047080305647"><ele>7.0</ele><time>2026-04-21T13:30:25.001Z</time></trkpt><trkpt lat="14.505199236474011" lon="121.00055333385168"><ele>7.0</ele><time>2026-04-21T13:30:26.001Z</time></trkpt><trkpt lat="14.505322291359949" lon="121.00062162749246"><ele>7.0</ele><time>2026-04-21T13:30:27.001Z</time></trkpt><trkpt lat="14.505450600058024" lon="121.00067822693394"><ele>7.0</ele><time>2026-04-21T13:30:28.001Z</time></trkpt><trkpt lat="14.505585860363023" lon="121.00073053310902"><ele>7.75</ele><time>2026-04-21T13:30:29.001Z</time></trkpt><trkpt lat="14.505722050658942" lon="121.00078704078966"><ele>8.5</ele><time>2026-04-21T13:30:30.001Z</time></trkpt><trkpt lat="14.505858779991883" lon="121.00084753692391"><ele>9.25</ele><time>2026-04-21T13:30:31.001Z</time></trkpt><trkpt lat="14.505994427291935" lon="121.0009079524741"><ele>10.0</ele><time>2026-04-21T13:30:32.001Z</time></trkpt><trkpt lat="14.506134072257995" lon="121.00096686146063"><ele>10.0</ele><time>2026-04-21T13:30:33.001Z</time></trkpt><trkpt lat="14.506263797824822" lon="121.00101902200464"><ele>10.0</ele><time>2026-04-21T13:30:34.001Z</time></trkpt><trkpt lat="14.506379015408836" lon="121.00105769008732"><ele>10.0</ele><time>2026-04-21T13:30:35.001Z</time></trkpt><trkpt lat="14.5064696291503" lon="121.00108322871469"><ele>10.0</ele><time>2026-04-21T13:30:36.001Z</time></trkpt><trkpt lat="14.506552212158804" lon="121.00111112905874"><ele>10.0</ele><time>2026-04-21T13:30:37.001Z</time></trkpt><trkpt lat="14.506625396261715" lon="121.00113330941441"><ele>10.0</ele><time>2026-04-21T13:30:38.001Z</time></trkpt><trkpt lat="14.506704327417703" lon="121.0011568274936"><ele>10.0</ele><time>2026-04-21T13:30:39.001Z</time></trkpt><trkpt lat="14.50676803259914" lon="121.00119921329261"><ele>10.0</ele><time>2026-04-21T13:30:40.001Z</time></trkpt><trkpt lat="14.506839504464834" lon="121.00122832503108"><ele>10.0</ele><time>2026-04-21T13:30:41.001Z</time></trkpt><trkpt lat="14.506917357907705" lon="121.00125612118859"><ele>10.0</ele><time>2026-04-21T13:30:42.001Z</time></trkpt><trkpt lat="14.507091648496452" lon="121.0013095995075"><ele>9.666666666666668</ele><time>2026-04-21T13:30:44.001Z</time></trkpt><trkpt lat="14.5071774981758" lon="121.00134226179188"><ele>9.333333333333334</ele><time>2026-04-21T13:30:45.001Z</time></trkpt><trkpt lat="14.507252789108374" lon="121.0013718058979"><ele>9.0</ele><time>2026-04-21T13:30:46.001Z</time></trkpt><trkpt lat="14.50732695005728" lon="121.00140264735631"><ele>8.666666666666666</ele><time>2026-04-21T13:30:47.001Z</time></trkpt><trkpt lat="14.507413009292064" lon="121.00143000706845"><ele>8.333333333333332</ele><time>2026-04-21T13:30:48.001Z</time></trkpt><trkpt lat="14.507510364098426" lon="121.00146394448996"><ele>8.0</ele><time>2026-04-21T13:30:49.001Z</time></trkpt><trkpt lat="14.507597798727764" lon="121.00149965656539"><ele>8.0</ele><time>2026-04-21T13:30:50.001Z</time></trkpt><trkpt lat="14.507699818705492" lon="121.00154888276104"><ele>8.0</ele><time>2026-04-21T13:30:51.001Z</time></trkpt><trkpt lat="14.507803171505886" lon="121.00160706954058"><ele>8.0</ele><time>2026-04-21T13:30:52.001Z</time></trkpt><trkpt lat="14.507910022885232" lon="121.00166666034157"><ele>8.0</ele><time>2026-04-21T13:30:53.001Z</time></trkpt><trkpt lat="14.508025817274202" lon="121.00173063195685"><ele>8.25</ele><time>2026-04-21T13:30:54.001Z</time></trkpt><trkpt lat="14.508137223889403" lon="121.00177882610245"><ele>8.5</ele><time>2026-04-21T13:30:55.001Z</time></trkpt><trkpt lat="14.508251257678369" lon="121.00182253149029"><ele>8.75</ele><time>2026-04-21T13:30:56.001Z</time></trkpt><trkpt lat="14.508370821311678" lon="121.00186558492706"><ele>9.0</ele><time>2026-04-21T13:30:57.001Z</time></trkpt><trkpt lat="14.508502176870861" lon="121.0019114168881"><ele>9.0</ele><time>2026-04-21T13:30:58.001Z</time></trkpt><trkpt lat="14.508629750924786" lon="121.00195446960795"><ele>9.0</ele><time>2026-04-21T13:30:59.001Z</time></trkpt><trkpt lat="14.508758566479864" lon="121.0019900907445"><ele>9.0</ele><time>2026-04-21T13:31:00.001Z</time></trkpt><trkpt lat="14.508886263484145" lon="121.00201619555521"><ele>9.0</ele><time>2026-04-21T13:31:01.001Z</time></trkpt><trkpt lat="14.509017229616592" lon="121.00204073369291"><ele>8.333333333333334</ele><time>2026-04-21T13:31:02.001Z</time></trkpt><trkpt lat="14.509147054518886" lon="121.00206657350925"><ele>7.666666666666667</ele><time>2026-04-21T13:31:03.001Z</time></trkpt><trkpt lat="14.50940931074804" lon="121.00215147016833"><ele>7.0</ele><time>2026-04-21T13:31:05.001Z</time></trkpt><trkpt lat="14.509543621472485" lon="121.00220222682384"><ele>6.5</ele><time>2026-04-21T13:31:06.001Z</time></trkpt><trkpt lat="14.509683170294391" lon="121.00225465106053"><ele>6.0</ele><time>2026-04-21T13:31:07.001Z</time></trkpt><trkpt lat="14.509825975082352" lon="121.00230054091108"><ele>5.5</ele><time>2026-04-21T13:31:08.001Z</time></trkpt><trkpt lat="14.509965747216206" lon="121.00235605788473"><ele>5.0</ele><time>2026-04-21T13:31:09.001Z</time></trkpt><trkpt lat="14.510117290180915" lon="121.00239979578076"><ele>5.0</ele><time>2026-04-21T13:31:10.001Z</time></trkpt><trkpt lat="14.51026357374524" lon="121.0024544994389"><ele>5.0</ele><time>2026-04-21T13:31:11.001Z</time></trkpt><trkpt lat="14.510416933933142" lon="121.00251280043095"><ele>5.0</ele><time>2026-04-21T13:31:12.001Z</time></trkpt><trkpt lat="14.51057858502634" lon="121.00256748580559"><ele>5.333333333333334</ele><time>2026-04-21T13:31:13.001Z</time></trkpt><trkpt lat="14.510743113575186" lon="121.00263068438845"><ele>5.666666666666667</ele><time>2026-04-21T13:31:14.001Z</time></trkpt><trkpt lat="14.510902904305665" lon="121.00269487433596"><ele>6.0</ele><time>2026-04-21T13:31:15.001Z</time></trkpt><trkpt lat="14.511057041100646" lon="121.00275696575702"><ele>6.0</ele><time>2026-04-21T13:31:16.001Z</time></trkpt><trkpt lat="14.511201975921056" lon="121.00281256153126"><ele>6.0</ele><time>2026-04-21T13:31:17.001Z</time></trkpt><trkpt lat="14.511343313601342" lon="121.00286149945516"><ele>6.0</ele><time>2026-04-21T13:31:18.001Z</time></trkpt><trkpt lat="14.51148507380801" lon="121.00291448164835"><ele>6.0</ele><time>2026-04-21T13:31:19.001Z</time></trkpt><trkpt lat="14.51162655298639" lon="121.0029672077289"><ele>6.0</ele><time>2026-04-21T13:31:20.001Z</time></trkpt><trkpt lat="14.511769926903419" lon="121.00301722595717"><ele>6.0</ele><time>2026-04-21T13:31:21.001Z</time></trkpt><trkpt lat="14.511912636425974" lon="121.00306467278612"><ele>6.0</ele><time>2026-04-21T13:31:22.001Z</time></trkpt><trkpt lat="14.512050469028543" lon="121.00311298062881"><ele>6.0</ele><time>2026-04-21T13:31:23.001Z</time></trkpt><trkpt lat="14.512179266685079" lon="121.00316059344453"><ele>6.0</ele><time>2026-04-21T13:31:24.001Z</time></trkpt><trkpt lat="14.512430282972653" lon="121.00325968138287"><ele>6.25</ele><time>2026-04-21T13:31:26.001Z</time></trkpt><trkpt lat="14.512558437345767" lon="121.00330515156396"><ele>6.5</ele><time>2026-04-21T13:31:27.001Z</time></trkpt><trkpt lat="14.51269295228636" lon="121.00334564481082"><ele>6.75</ele><time>2026-04-21T13:31:28.001Z</time></trkpt><trkpt lat="14.51282661583654" lon="121.00339290511918"><ele>7.0</ele><time>2026-04-21T13:31:29.001Z</time></trkpt><trkpt lat="14.5129578572511" lon="121.00343932721734"><ele>7.25</ele><time>2026-04-21T13:31:30.001Z</time></trkpt><trkpt lat="14.513081594201086" lon="121.00348448628482"><ele>7.5</ele><time>2026-04-21T13:31:31.001Z</time></trkpt><trkpt lat="14.513196873487646" lon="121.0035269145221"><ele>7.75</ele><time>2026-04-21T13:31:32.001Z</time></trkpt><trkpt lat="14.513302596861461" lon="121.0035629038101"><ele>8.0</ele><time>2026-04-21T13:31:33.001Z</time></trkpt><trkpt lat="14.513405427638151" lon="121.00359850485513"><ele>8.0</ele><time>2026-04-21T13:31:34.001Z</time></trkpt><trkpt lat="14.51350049219396" lon="121.00363520887075"><ele>8.0</ele><time>2026-04-21T13:31:35.001Z</time></trkpt><trkpt lat="14.513591697272584" lon="121.00367032633068"><ele>8.0</ele><time>2026-04-21T13:31:36.001Z</time></trkpt><trkpt lat="14.513667381583012" lon="121.00369807895139"><ele>8.0</ele><time>2026-04-21T13:31:37.001Z</time></trkpt><trkpt lat="14.513728480169783" lon="121.00371926215358"><ele>8.0</ele><time>2026-04-21T13:31:38.001Z</time></trkpt><trkpt lat="14.513841046317614" lon="121.00375328922416"><ele>9.0</ele><time>2026-04-21T13:31:40.001Z</time></trkpt><trkpt lat="14.51395960409609" lon="121.00378914594434"><ele>10.0</ele><time>2026-04-21T13:31:42.001Z</time></trkpt><trkpt lat="14.51406954020977" lon="121.00382585914572"><ele>11.0</ele><time>2026-04-21T13:31:44.001Z</time></trkpt><trkpt lat="14.514174169719277" lon="121.00386421846787"><ele>12.0</ele><time>2026-04-21T13:31:46.001Z</time></trkpt><trkpt lat="14.51436506143943" lon="121.00392833242417"><ele>12.0</ele><time>2026-04-21T13:31:49.001Z</time></trkpt><trkpt lat="14.514479872015745" lon="121.00396822506866"><ele>12.0</ele><time>2026-04-21T13:31:51.001Z</time></trkpt><trkpt lat="14.514570015955655" lon="121.0039983310443"><ele>12.0</ele><time>2026-04-21T13:31:53.001Z</time></trkpt><trkpt lat="14.514647935622119" lon="121.00402815479295"><ele>12.0</ele><time>2026-04-21T13:31:55.001Z</time></trkpt><trkpt lat="14.514715585613056" lon="121.004050239487"><ele>12.0</ele><time>2026-04-21T13:31:57.001Z</time></trkpt><trkpt lat="14.514776086970409" lon="121.00407162390063"><ele>12.0</ele><time>2026-04-21T13:31:59.001Z</time></trkpt><trkpt lat="14.51485194195593" lon="121.00409961904231"><ele>11.4</ele><time>2026-04-21T13:32:02.001Z</time></trkpt><trkpt lat="14.514914983471877" lon="121.00412026612565"><ele>10.799999999999999</ele><time>2026-04-21T13:32:04.001Z</time></trkpt><trkpt lat="14.514992279816472" lon="121.00414465063587"><ele>10.2</ele><time>2026-04-21T13:32:08.001Z</time></trkpt><trkpt lat="14.515119415738821" lon="121.00422224294141"><ele>9.6</ele><time>2026-04-21T13:32:14.001Z</time></trkpt><trkpt lat="14.51519106087473" lon="121.00424963157856"><ele>9.0</ele><time>2026-04-21T13:32:18.001Z</time></trkpt><trkpt lat="14.515270340155105" lon="121.00427897404612"><ele>8.666666666666666</ele><time>2026-04-21T13:32:21.001Z</time></trkpt><trkpt lat="14.515430921602276" lon="121.0041317602636"><ele>8.333333333333332</ele><time>2026-04-21T13:32:25.001Z</time></trkpt><trkpt lat="14.515485074013943" lon="121.00401752545092"><ele>8.0</ele><time>2026-04-21T13:32:27.001Z</time></trkpt><trkpt lat="14.51554309710863" lon="121.00389673991225"><ele>8.0</ele><time>2026-04-21T13:32:29.001Z</time></trkpt><trkpt lat="14.515621961429249" lon="121.00373005212678"><ele>8.0</ele><time>2026-04-21T13:32:31.001Z</time></trkpt><trkpt lat="14.515668127625215" lon="121.00363137877734"><ele>8.0</ele><time>2026-04-21T13:32:32.001Z</time></trkpt><trkpt lat="14.515720190329967" lon="121.0035180370645"><ele>8.0</ele><time>2026-04-21T13:32:33.001Z</time></trkpt><trkpt lat="14.515779044496346" lon="121.00339838993402"><ele>7.5</ele><time>2026-04-21T13:32:34.001Z</time></trkpt><trkpt lat="14.515843366992883" lon="121.00327154574016"><ele>7.0</ele><time>2026-04-21T13:32:35.001Z</time></trkpt><trkpt lat="14.515911282830707" lon="121.00313764309189"><ele>6.5</ele><time>2026-04-21T13:32:36.001Z</time></trkpt><trkpt lat="14.515981996814409" lon="121.00299829329994"><ele>6.0</ele><time>2026-04-21T13:32:37.001Z</time></trkpt><trkpt lat="14.51605621830705" lon="121.00286174025514"><ele>6.0</ele><time>2026-04-21T13:32:38.001Z</time></trkpt><trkpt lat="14.516128076972429" lon="121.0027166300436"><ele>6.0</ele><time>2026-04-21T13:32:39.001Z</time></trkpt><trkpt lat="14.51613567301543" lon="121.00256206043177"><ele>6.0</ele><time>2026-04-21T13:32:40.001Z</time></trkpt><trkpt lat="14.516197305347225" lon="121.00243808877649"><ele>6.0</ele><time>2026-04-21T13:32:41.001Z</time></trkpt><trkpt lat="14.516259139279818" lon="121.00231068574418"><ele>6.25</ele><time>2026-04-21T13:32:42.001Z</time></trkpt><trkpt lat="14.516321975432943" lon="121.00218283292376"><ele>6.5</ele><time>2026-04-21T13:32:43.001Z</time></trkpt><trkpt lat="14.51638514812436" lon="121.00205261165334"><ele>6.75</ele><time>2026-04-21T13:32:44.001Z</time></trkpt><trkpt lat="14.516450317257581" lon="121.00192148440674"><ele>7.0</ele><time>2026-04-21T13:32:45.001Z</time></trkpt><trkpt lat="14.516517469472001" lon="121.0017875740821"><ele>6.75</ele><time>2026-04-21T13:32:46.001Z</time></trkpt><trkpt lat="14.516583164502089" lon="121.00165919559322"><ele>6.5</ele><time>2026-04-21T13:32:47.001Z</time></trkpt><trkpt lat="14.5166489332286" lon="121.00152714757604"><ele>6.25</ele><time>2026-04-21T13:32:48.001Z</time></trkpt><trkpt lat="14.516705339884282" lon="121.00140288541382"><ele>6.0</ele><time>2026-04-21T13:32:49.001Z</time></trkpt><trkpt lat="14.516758171471624" lon="121.0012765890894"><ele>6.0</ele><time>2026-04-21T13:32:50.001Z</time></trkpt><trkpt lat="14.516845891002896" lon="121.00103764643075"><ele>6.0</ele><time>2026-04-21T13:32:52.001Z</time></trkpt><trkpt lat="14.516877870766637" lon="121.00092143990761"><ele>6.0</ele><time>2026-04-21T13:32:53.001Z</time></trkpt><trkpt lat="14.51690219623349" lon="121.00080328705012"><ele>5.75</ele><time>2026-04-21T13:32:54.001Z</time></trkpt><trkpt lat="14.516924892972476" lon="121.00068382782862"><ele>5.5</ele><time>2026-04-21T13:32:55.001Z</time></trkpt><trkpt lat="14.516946037246539" lon="121.00055829992229"><ele>5.25</ele><time>2026-04-21T13:32:56.001Z</time></trkpt><trkpt lat="14.51696415990314" lon="121.00043556434973"><ele>5.0</ele><time>2026-04-21T13:32:57.001Z</time></trkpt><trkpt lat="14.516971580283984" lon="121.0002993643045"><ele>5.0</ele><time>2026-04-21T13:32:58.001Z</time></trkpt><trkpt lat="14.516976864050164" lon="121.00015290517379"><ele>5.0</ele><time>2026-04-21T13:32:59.001Z</time></trkpt><trkpt lat="14.516980920349171" lon="121.00000486270291"><ele>5.0</ele><time>2026-04-21T13:33:00.001Z</time></trkpt><trkpt lat="14.516987686012564" lon="120.9998499520239"><ele>5.0</ele><time>2026-04-21T13:33:01.001Z</time></trkpt><trkpt lat="14.516990776217913" lon="120.99969291479745"><ele>5.0</ele><time>2026-04-21T13:33:02.001Z</time></trkpt><trkpt lat="14.516989723059776" lon="120.99954056944108"><ele>5.0</ele><time>2026-04-21T13:33:03.001Z</time></trkpt><trkpt lat="14.5169891853" lon="120.99939409599025"><ele>5.0</ele><time>2026-04-21T13:33:04.001Z</time></trkpt><trkpt lat="14.516974605794678" lon="120.99923311254771"><ele>5.0</ele><time>2026-04-21T13:33:05.001Z</time></trkpt><trkpt lat="14.5169646236769" lon="120.99908151846223"><ele>5.25</ele><time>2026-04-21T13:33:06.001Z</time></trkpt><trkpt lat="14.516970427535009" lon="120.99893139079691"><ele>5.5</ele><time>2026-04-21T13:33:07.001Z</time></trkpt><trkpt lat="14.516981629889" lon="120.99877861198509"><ele>5.75</ele><time>2026-04-21T13:33:08.001Z</time></trkpt><trkpt lat="14.51698229362178" lon="120.9986239893053"><ele>6.0</ele><time>2026-04-21T13:33:09.001Z</time></trkpt><trkpt lat="14.516991601847149" lon="120.99848198532175"><ele>6.0</ele><time>2026-04-21T13:33:10.001Z</time></trkpt><trkpt lat="14.516993379036112" lon="120.99835345798782"><ele>6.0</ele><time>2026-04-21T13:33:11.001Z</time></trkpt><trkpt lat="14.517001137590894" lon="120.99811277765805"><ele>6.0</ele><time>2026-04-21T13:33:13.001Z</time></trkpt><trkpt lat="14.517001558157112" lon="120.99800170519303"><ele>5.833333333333333</ele><time>2026-04-21T13:33:14.001Z</time></trkpt><trkpt lat="14.51699594100193" lon="120.99789809881823"><ele>5.666666666666667</ele><time>2026-04-21T13:33:15.001Z</time></trkpt><trkpt lat="14.516998510182866" lon="120.99780184600206"><ele>5.5</ele><time>2026-04-21T13:33:16.001Z</time></trkpt><trkpt lat="14.516997719771863" lon="120.99771534463659"><ele>5.333333333333334</ele><time>2026-04-21T13:33:17.001Z</time></trkpt><trkpt lat="14.51699497202555" lon="120.99762589590412"><ele>5.166666666666667</ele><time>2026-04-21T13:33:18.001Z</time></trkpt><trkpt lat="14.517000192313693" lon="120.99753881951652"><ele>5.0</ele><time>2026-04-21T13:33:19.001Z</time></trkpt><trkpt lat="14.517003440213543" lon="120.99746319083478"><ele>4.833333333333334</ele><time>2026-04-21T13:33:20.001Z</time></trkpt><trkpt lat="14.517016113621837" lon="120.99739688729225"><ele>4.666666666666667</ele><time>2026-04-21T13:33:21.001Z</time></trkpt><trkpt lat="14.517042385497222" lon="120.99730423008344"><ele>4.5</ele><time>2026-04-21T13:33:23.001Z</time></trkpt><trkpt lat="14.517068097694967" lon="120.99721026035127"><ele>4.333333333333333</ele><time>2026-04-21T13:33:25.001Z</time></trkpt><trkpt lat="14.51708093538213" lon="120.99714377568343"><ele>4.166666666666666</ele><time>2026-04-21T13:33:27.001Z</time></trkpt><trkpt lat="14.517077210248726" lon="120.99704999024226"><ele>4.0</ele><time>2026-04-21T13:33:29Z</time></trkpt><trkpt lat="14.517079866635521" lon="120.9969807916941"><ele>5.5</ele><time>2026-04-21T13:33:32Z</time></trkpt><trkpt lat="14.517139651198185" lon="120.9965335016718"><ele>7.0</ele><time>2026-04-21T13:36:23Z</time></trkpt><trkpt lat="14.517150869536946" lon="120.99645825386787"><ele>7.000000000000001</ele><time>2026-04-21T13:36:24Z</time></trkpt><trkpt lat="14.517157937866118" lon="120.99637623906305"><ele>7.0</ele><time>2026-04-21T13:36:25Z</time></trkpt><trkpt lat="14.517170106022292" lon="120.99627675936546"><ele>7.0</ele><time>2026-04-21T13:36:26Z</time></trkpt><trkpt lat="14.517181218988913" lon="120.9961774122516"><ele>7.0</ele><time>2026-04-21T13:36:27Z</time></trkpt><trkpt lat="14.517197524869925" lon="120.99609289877068"><ele>7.000000000000001</ele><time>2026-04-21T13:36:28Z</time></trkpt><trkpt lat="14.517210127018226" lon="120.99601264454924"><ele>7.0</ele><time>2026-04-21T13:36:29Z</time></trkpt><trkpt lat="14.517223359803358" lon="120.99590546551507"><ele>7.0</ele><time>2026-04-21T13:36:30Z</time></trkpt><trkpt lat="14.517248691736286" lon="120.99579907354232"><ele>6.999999999999999</ele><time>2026-04-21T13:36:31Z</time></trkpt><trkpt lat="14.517271843077795" lon="120.99568537207232"><ele>6.999999999999999</ele><time>2026-04-21T13:36:32Z</time></trkpt><trkpt lat="14.51728944233806" lon="120.99558557137672"><ele>7.0</ele><time>2026-04-21T13:36:33Z</time></trkpt><trkpt lat="14.517300953826647" lon="120.9954721963642"><ele>7.0</ele><time>2026-04-21T13:36:34Z</time></trkpt><trkpt lat="14.517316749550464" lon="120.99535859407595"><ele>7.0</ele><time>2026-04-21T13:36:35Z</time></trkpt><trkpt lat="14.517330462267678" lon="120.99524473938197"><ele>7.0</ele><time>2026-04-21T13:36:36Z</time></trkpt><trkpt lat="14.517340027787082" lon="120.99512557446424"><ele>7.0</ele><time>2026-04-21T13:36:37Z</time></trkpt><trkpt lat="14.517356797176948" lon="120.99500325803515"><ele>7.0</ele><time>2026-04-21T13:36:38Z</time></trkpt><trkpt lat="14.517373593280736" lon="120.99488562620184"><ele>7.25</ele><time>2026-04-21T13:36:39Z</time></trkpt><trkpt lat="14.517396952292183" lon="120.99476070902372"><ele>7.5</ele><time>2026-04-21T13:36:40Z</time></trkpt><trkpt lat="14.517446028225438" lon="120.99459246023956"><ele>7.75</ele><time>2026-04-21T13:36:42Z</time></trkpt><trkpt lat="14.517464754766396" lon="120.99451089914017"><ele>8.0</ele><time>2026-04-21T13:36:43Z</time></trkpt><trkpt lat="14.517467263642272" lon="120.99442757983434"><ele>7.999999999999999</ele><time>2026-04-21T13:36:44Z</time></trkpt><trkpt lat="14.517485185668361" lon="120.99436003873367"><ele>8.0</ele><time>2026-04-21T13:36:45Z</time></trkpt><trkpt lat="14.517478445982096" lon="120.99428910829168"><ele>8.0</ele><time>2026-04-21T13:36:46Z</time></trkpt><trkpt lat="14.517488686280945" lon="120.99419668241876"><ele>8.0</ele><time>2026-04-21T13:36:48Z</time></trkpt><trkpt lat="14.51749686357182" lon="120.99410296095643"><ele>7.999999999999999</ele><time>2026-04-21T13:36:50Z</time></trkpt><trkpt lat="14.51749352735105" lon="120.99402452344603"><ele>8.0</ele><time>2026-04-21T13:36:52Z</time></trkpt><trkpt lat="14.517496868150214" lon="120.99394044241015"><ele>8.200000000000001</ele><time>2026-04-21T13:36:54Z</time></trkpt><trkpt lat="14.517500987865535" lon="120.9938622405966"><ele>8.4</ele><time>2026-04-21T13:36:56Z</time></trkpt><trkpt lat="14.517527310693918" lon="120.9937439873727"><ele>8.600000000000001</ele><time>2026-04-21T13:36:58Z</time></trkpt><trkpt lat="14.517544775268956" lon="120.9936576457131"><ele>8.8</ele><time>2026-04-21T13:37:00Z</time></trkpt><trkpt lat="14.517560429674964" lon="120.99356821495407"><ele>9.0</ele><time>2026-04-21T13:37:02Z</time></trkpt><trkpt lat="14.517732485250766" lon="120.99346322365933"><ele>9.0</ele><time>2026-04-21T13:37:05Z</time></trkpt><trkpt lat="14.517837815225972" lon="120.99346373405244"><ele>9.0</ele><time>2026-04-21T13:37:06Z</time></trkpt><trkpt lat="14.517949834606922" lon="120.99347758969839"><ele>9.0</ele><time>2026-04-21T13:37:07Z</time></trkpt><trkpt lat="14.518071851600462" lon="120.99348712850178"><ele>9.0</ele><time>2026-04-21T13:37:08Z</time></trkpt><trkpt lat="14.51820437787511" lon="120.99349452823576"><ele>12.0</ele><time>2026-04-21T13:37:09Z</time></trkpt><trkpt lat="14.51834267984749" lon="120.99350410528277"><ele>15.0</ele><time>2026-04-21T13:37:10Z</time></trkpt><trkpt lat="14.518484949505945" lon="120.99351966682502"><ele>18.0</ele><time>2026-04-21T13:37:11Z</time></trkpt><trkpt lat="14.518635233105476" lon="120.99353303805506"><ele>21.0</ele><time>2026-04-21T13:37:12Z</time></trkpt><trkpt lat="14.518788579012545" lon="120.99354420084758"><ele>23.0</ele><time>2026-04-21T13:37:13Z</time></trkpt><trkpt lat="14.518940310566354" lon="120.99355001412786"><ele>25.0</ele><time>2026-04-21T13:37:14Z</time></trkpt><trkpt lat="14.519090754702026" lon="120.99355214773563"><ele>27.0</ele><time>2026-04-21T13:37:15Z</time></trkpt><trkpt lat="14.51924286974983" lon="120.9935520232782"><ele>27.0</ele><time>2026-04-21T13:37:16Z</time></trkpt><trkpt lat="14.519401205510158" lon="120.99355260859222"><ele>27.0</ele><time>2026-04-21T13:37:17Z</time></trkpt><trkpt lat="14.519567674229666" lon="120.99356691424883"><ele>27.0</ele><time>2026-04-21T13:37:18Z</time></trkpt><trkpt lat="14.51974039955032" lon="120.99358438228927"><ele>20.666666666666668</ele><time>2026-04-21T13:37:19Z</time></trkpt><trkpt lat="14.519920448076666" lon="120.99360011151728"><ele>14.333333333333332</ele><time>2026-04-21T13:37:20Z</time></trkpt><trkpt lat="14.52010635464464" lon="120.99361506472243"><ele>8.0</ele><time>2026-04-21T13:37:21Z</time></trkpt><trkpt lat="14.520294163540676" lon="120.99362359161707"><ele>6.5</ele><time>2026-04-21T13:37:22Z</time></trkpt><trkpt lat="14.52048579865903" lon="120.99363090881208"><ele>5.0</ele><time>2026-04-21T13:37:23Z</time></trkpt><trkpt lat="14.52088218554551" lon="120.9936687410531"><ele>5.0</ele><time>2026-04-21T13:37:25Z</time></trkpt><trkpt lat="14.52108415738646" lon="120.99368229733169"><ele>5.0</ele><time>2026-04-21T13:37:26Z</time></trkpt><trkpt lat="14.521300248536118" lon="120.99369643273013"><ele>5.0</ele><time>2026-04-21T13:37:27Z</time></trkpt><trkpt lat="14.521505531084037" lon="120.9937130818259"><ele>5.0</ele><time>2026-04-21T13:37:28Z</time></trkpt><trkpt lat="14.521721385338523" lon="120.99372268870313"><ele>5.0</ele><time>2026-04-21T13:37:29Z</time></trkpt><trkpt lat="14.521939857227133" lon="120.99373345535801"><ele>5.0</ele><time>2026-04-21T13:37:30Z</time></trkpt><trkpt lat="14.522159264956844" lon="120.99374426812601"><ele>5.0</ele><time>2026-04-21T13:37:31Z</time></trkpt><trkpt lat="14.522376901220996" lon="120.99374802274656"><ele>5.0</ele><time>2026-04-21T13:37:32Z</time></trkpt><trkpt lat="14.522582136474096" lon="120.99374820916687"><ele>5.0</ele><time>2026-04-21T13:37:33Z</time></trkpt><trkpt lat="14.522767348687443" lon="120.99375167993732"><ele>6.0</ele><time>2026-04-21T13:37:34Z</time></trkpt><trkpt lat="14.522956048498903" lon="120.99375494767548"><ele>7.0</ele><time>2026-04-21T13:37:35Z</time></trkpt><trkpt lat="14.523202105493798" lon="120.99375920869232"><ele>8.0</ele><time>2026-04-21T13:37:36Z</time></trkpt><trkpt lat="14.523475843864576" lon="120.99376456923821"><ele>8.0</ele><time>2026-04-21T13:37:37Z</time></trkpt><trkpt lat="14.523724397940146" lon="120.99376817144686"><ele>8.0</ele><time>2026-04-21T13:37:38Z</time></trkpt><trkpt lat="14.523923517061585" lon="120.99376700918148"><ele>8.0</ele><time>2026-04-21T13:37:39Z</time></trkpt><trkpt lat="14.524095280611615" lon="120.99376700918134"><ele>8.0</ele><time>2026-04-21T13:37:40Z</time></trkpt><trkpt lat="14.524273436479167" lon="120.99376700920142"><ele>8.0</ele><time>2026-04-21T13:37:41Z</time></trkpt><trkpt lat="14.524465418710157" lon="120.99376700922241"><ele>8.0</ele><time>2026-04-21T13:37:42Z</time></trkpt><trkpt lat="14.524627500721403" lon="120.99376700922429"><ele>8.5</ele><time>2026-04-21T13:37:43Z</time></trkpt><trkpt lat="14.52478856964819" lon="120.9937670092283"><ele>9.0</ele><time>2026-04-21T13:37:44Z</time></trkpt><trkpt lat="14.525078153412247" lon="120.99376998843172"><ele>9.0</ele><time>2026-04-21T13:37:46Z</time></trkpt><trkpt lat="14.52521439565864" lon="120.99377128762394"><ele>9.0</ele><time>2026-04-21T13:37:47Z</time></trkpt><trkpt lat="14.525347050308069" lon="120.99377222804392"><ele>9.0</ele><time>2026-04-21T13:37:48Z</time></trkpt><trkpt lat="14.52548178008962" lon="120.99377318432842"><ele>9.0</ele><time>2026-04-21T13:37:49Z</time></trkpt><trkpt lat="14.525614759389613" lon="120.99377446617733"><ele>10.2</ele><time>2026-04-21T13:37:50Z</time></trkpt><trkpt lat="14.525736100244362" lon="120.9937760240502"><ele>11.4</ele><time>2026-04-21T13:37:51Z</time></trkpt><trkpt lat="14.525853236515042" lon="120.99377640810367"><ele>12.6</ele><time>2026-04-21T13:37:52Z</time></trkpt><trkpt lat="14.525951584674596" lon="120.99377640810123"><ele>13.8</ele><time>2026-04-21T13:37:53Z</time></trkpt><trkpt lat="14.526047499943415" lon="120.99377640810471"><ele>15.0</ele><time>2026-04-21T13:37:54Z</time></trkpt><trkpt lat="14.526122471885078" lon="120.99377373505271"><ele>15.0</ele><time>2026-04-21T13:37:55Z</time></trkpt><trkpt lat="14.526192917380582" lon="120.99377179643368"><ele>15.0</ele><time>2026-04-21T13:37:56Z</time></trkpt><trkpt lat="14.5263070710177" lon="120.99376738736922"><ele>15.0</ele><time>2026-04-21T13:37:58Z</time></trkpt><trkpt lat="14.526390419076673" lon="120.99376183759114"><ele>15.0</ele><time>2026-04-21T13:38:00Z</time></trkpt><trkpt lat="14.526454622599472" lon="120.99374366082077"><ele>15.0</ele><time>2026-04-21T13:38:03Z</time></trkpt><trkpt lat="14.52652417431253" lon="120.99374416794792"><ele>15.0</ele><time>2026-04-21T13:38:08Z</time></trkpt><trkpt lat="14.526664257327944" lon="120.9937756068939"><ele>14.0</ele><time>2026-04-21T13:38:19Z</time></trkpt><trkpt lat="14.526733628382317" lon="120.99378050453555"><ele>13.0</ele><time>2026-04-21T13:38:24Z</time></trkpt><trkpt lat="14.526798557795964" lon="120.99380057032612"><ele>12.0</ele><time>2026-04-21T13:38:29Z</time></trkpt><trkpt lat="14.526935563617954" lon="120.9937560734671"><ele>11.0</ele><time>2026-04-21T13:39:26Z</time></trkpt><trkpt lat="14.527095178190498" lon="120.9937396205103"><ele>10.0</ele><time>2026-04-21T13:39:30Z</time></trkpt><trkpt lat="14.52717698291978" lon="120.99373373767203"><ele>10.0</ele><time>2026-04-21T13:39:32Z</time></trkpt><trkpt lat="14.527270320166183" lon="120.99372388786418"><ele>10.0</ele><time>2026-04-21T13:39:34Z</time></trkpt><trkpt lat="14.527397016223398" lon="120.99370999175174"><ele>10.0</ele><time>2026-04-21T13:39:36Z</time></trkpt><trkpt lat="14.527471484833775" lon="120.99369830974773"><ele>10.0</ele><time>2026-04-21T13:39:37Z</time></trkpt><trkpt lat="14.527544621297203" lon="120.99368903869023"><ele>10.0</ele><time>2026-04-21T13:39:38Z</time></trkpt><trkpt lat="14.527620844954034" lon="120.9936816481985"><ele>10.0</ele><time>2026-04-21T13:39:39Z</time></trkpt><trkpt lat="14.527687009329131" lon="120.99367742920536"><ele>10.0</ele><time>2026-04-21T13:39:40Z</time></trkpt><trkpt lat="14.527757624540362" lon="120.99366967526902"><ele>10.0</ele><time>2026-04-21T13:39:41Z</time></trkpt><trkpt lat="14.527824291064059" lon="120.99366206949152"><ele>10.0</ele><time>2026-04-21T13:39:42Z</time></trkpt><trkpt lat="14.527894747871715" lon="120.99365680910729"><ele>10.0</ele><time>2026-04-21T13:39:43Z</time></trkpt><trkpt lat="14.527973330370699" lon="120.99365072541187"><ele>10.0</ele><time>2026-04-21T13:39:44Z</time></trkpt><trkpt lat="14.528069448495929" lon="120.99364194198799"><ele>10.0</ele><time>2026-04-21T13:39:45Z</time></trkpt><trkpt lat="14.528162490133075" lon="120.99363049760646"><ele>9.666666666666668</ele><time>2026-04-21T13:39:46Z</time></trkpt><trkpt lat="14.528268889394594" lon="120.99361808095175"><ele>9.333333333333334</ele><time>2026-04-21T13:39:47Z</time></trkpt><trkpt lat="14.52838100822724" lon="120.99360326595539"><ele>9.0</ele><time>2026-04-21T13:39:48Z</time></trkpt><trkpt lat="14.528629621139558" lon="120.99358255808482"><ele>8.5</ele><time>2026-04-21T13:39:50Z</time></trkpt><trkpt lat="14.52875206388989" lon="120.99356418807363"><ele>8.0</ele><time>2026-04-21T13:39:51Z</time></trkpt><trkpt lat="14.528872312880408" lon="120.9935512203856"><ele>7.5</ele><time>2026-04-21T13:39:52Z</time></trkpt><trkpt lat="14.528998505013577" lon="120.99353836049926"><ele>7.0</ele><time>2026-04-21T13:39:53Z</time></trkpt><trkpt lat="14.52913131754058" lon="120.9935207791153"><ele>7.0</ele><time>2026-04-21T13:39:54Z</time></trkpt><trkpt lat="14.529265389667978" lon="120.99350631625032"><ele>7.0</ele><time>2026-04-21T13:39:55Z</time></trkpt><trkpt lat="14.529404136760789" lon="120.99348525518057"><ele>7.0</ele><time>2026-04-21T13:39:56Z</time></trkpt><trkpt lat="14.5295548468323" lon="120.99345598367948"><ele>7.0</ele><time>2026-04-21T13:39:57Z</time></trkpt><trkpt lat="14.529709537583997" lon="120.99343501620376"><ele>8.0</ele><time>2026-04-21T13:39:58Z</time></trkpt><trkpt lat="14.52987406683604" lon="120.99341155330309"><ele>9.0</ele><time>2026-04-21T13:39:59Z</time></trkpt><trkpt lat="14.530042852595232" lon="120.99338994561002"><ele>10.0</ele><time>2026-04-21T13:40:00Z</time></trkpt><trkpt lat="14.530202638442441" lon="120.99337064465408"><ele>10.0</ele><time>2026-04-21T13:40:01Z</time></trkpt><trkpt lat="14.530380244098351" lon="120.99334882939247"><ele>10.0</ele><time>2026-04-21T13:40:02Z</time></trkpt><trkpt lat="14.530563132356908" lon="120.9933264155669"><ele>10.0</ele><time>2026-04-21T13:40:03Z</time></trkpt><trkpt lat="14.530755182984771" lon="120.99330305517198"><ele>8.666666666666668</ele><time>2026-04-21T13:40:04Z</time></trkpt><trkpt lat="14.530961754518867" lon="120.99326332366574"><ele>7.333333333333334</ele><time>2026-04-21T13:40:05Z</time></trkpt><trkpt lat="14.531169685733333" lon="120.9932389765058"><ele>6.0</ele><time>2026-04-21T13:40:06Z</time></trkpt><trkpt lat="14.531367707665087" lon="120.99321362106092"><ele>6.0</ele><time>2026-04-21T13:40:07Z</time></trkpt><trkpt lat="14.531564589951824" lon="120.99319334223205"><ele>6.0</ele><time>2026-04-21T13:40:08Z</time></trkpt><trkpt lat="14.53175818416744" lon="120.99316875211272"><ele>6.0</ele><time>2026-04-21T13:40:09Z</time></trkpt><trkpt lat="14.532132522479559" lon="120.99313133175836"><ele>6.666666666666666</ele><time>2026-04-21T13:40:11Z</time></trkpt><trkpt lat="14.532330849138928" lon="120.99309586260065"><ele>7.333333333333333</ele><time>2026-04-21T13:40:12Z</time></trkpt><trkpt lat="14.532527679510512" lon="120.99305257570356"><ele>8.0</ele><time>2026-04-21T13:40:13Z</time></trkpt><trkpt lat="14.532719514307358" lon="120.99301525915075"><ele>9.666666666666666</ele><time>2026-04-21T13:40:14Z</time></trkpt><trkpt lat="14.532909876231308" lon="120.99297926309109"><ele>11.333333333333332</ele><time>2026-04-21T13:40:15Z</time></trkpt><trkpt lat="14.53310454623076" lon="120.99296355536411"><ele>13.0</ele><time>2026-04-21T13:40:16Z</time></trkpt><trkpt lat="14.533285557538138" lon="120.99292816567642"><ele>13.0</ele><time>2026-04-21T13:40:17Z</time></trkpt><trkpt lat="14.53347254534246" lon="120.99290512574966"><ele>13.0</ele><time>2026-04-21T13:40:18Z</time></trkpt><trkpt lat="14.533654362346175" lon="120.99288440448436"><ele>13.0</ele><time>2026-04-21T13:40:19Z</time></trkpt><trkpt lat="14.53383712261519" lon="120.99286323776232"><ele>11.0</ele><time>2026-04-21T13:40:20Z</time></trkpt><trkpt lat="14.534023996681224" lon="120.9928582182753"><ele>9.0</ele><time>2026-04-21T13:40:21Z</time></trkpt><trkpt lat="14.534202023786257" lon="120.99283952421953"><ele>7.0</ele><time>2026-04-21T13:40:22Z</time></trkpt><trkpt lat="14.534388500797212" lon="120.99281311869068"><ele>7.666666666666667</ele><time>2026-04-21T13:40:23Z</time></trkpt><trkpt lat="14.534562113005366" lon="120.99277465546228"><ele>8.333333333333334</ele><time>2026-04-21T13:40:24Z</time></trkpt><trkpt lat="14.53473574921498" lon="120.99274894892318"><ele>9.0</ele><time>2026-04-21T13:40:25Z</time></trkpt><trkpt lat="14.534894853976791" lon="120.99272614203716"><ele>9.0</ele><time>2026-04-21T13:40:26Z</time></trkpt><trkpt lat="14.535040218372366" lon="120.99271083426558"><ele>9.0</ele><time>2026-04-21T13:40:27Z</time></trkpt><trkpt lat="14.535199029268158" lon="120.9926865165211"><ele>9.0</ele><time>2026-04-21T13:40:28Z</time></trkpt><trkpt lat="14.535355181118497" lon="120.99266596323211"><ele>9.0</ele><time>2026-04-21T13:40:29Z</time></trkpt><trkpt lat="14.53550538118746" lon="120.99265228998183"><ele>9.0</ele><time>2026-04-21T13:40:30Z</time></trkpt><trkpt lat="14.535815435362938" lon="120.99261790802207"><ele>9.0</ele><time>2026-04-21T13:40:32Z</time></trkpt><trkpt lat="14.53596241462872" lon="120.99260281468543"><ele>9.0</ele><time>2026-04-21T13:40:33Z</time></trkpt><trkpt lat="14.536109663329022" lon="120.99258490140542"><ele>9.0</ele><time>2026-04-21T13:40:34Z</time></trkpt><trkpt lat="14.536260751283402" lon="120.99256788963008"><ele>9.0</ele><time>2026-04-21T13:40:35Z</time></trkpt><trkpt lat="14.53640603077768" lon="120.99255234042039"><ele>10.25</ele><time>2026-04-21T13:40:36Z</time></trkpt><trkpt lat="14.536549563927654" lon="120.99253748623713"><ele>11.5</ele><time>2026-04-21T13:40:37Z</time></trkpt><trkpt lat="14.536698561432898" lon="120.99252467205997"><ele>12.75</ele><time>2026-04-21T13:40:38Z</time></trkpt><trkpt lat="14.536834889943956" lon="120.9925117847401"><ele>14.0</ele><time>2026-04-21T13:40:39Z</time></trkpt><trkpt lat="14.536981646666137" lon="120.99249616709184"><ele>11.75</ele><time>2026-04-21T13:40:40Z</time></trkpt><trkpt lat="14.537122506759058" lon="120.99248471825928"><ele>9.5</ele><time>2026-04-21T13:40:41Z</time></trkpt><trkpt lat="14.537266664856032" lon="120.99247084339082"><ele>7.25</ele><time>2026-04-21T13:40:42Z</time></trkpt><trkpt lat="14.537404977499222" lon="120.99245489906583"><ele>5.0</ele><time>2026-04-21T13:40:43Z</time></trkpt><trkpt lat="14.537534146787365" lon="120.99244373903531"><ele>5.0</ele><time>2026-04-21T13:40:44Z</time></trkpt><trkpt lat="14.53765752795844" lon="120.99243237831953"><ele>5.0</ele><time>2026-04-21T13:40:45Z</time></trkpt><trkpt lat="14.537776852484077" lon="120.99242121318711"><ele>5.0</ele><time>2026-04-21T13:40:46Z</time></trkpt><trkpt lat="14.537891258935609" lon="120.99240247591096"><ele>5.0</ele><time>2026-04-21T13:40:47Z</time></trkpt><trkpt lat="14.53801689628119" lon="120.99238465580629"><ele>6.0</ele><time>2026-04-21T13:40:48Z</time></trkpt><trkpt lat="14.53814628302972" lon="120.99237020990792"><ele>7.0</ele><time>2026-04-21T13:40:49Z</time></trkpt><trkpt lat="14.538282538199265" lon="120.99235507620307"><ele>8.0</ele><time>2026-04-21T13:40:50Z</time></trkpt><trkpt lat="14.53841770841285" lon="120.99233993605752"><ele>9.0</ele><time>2026-04-21T13:40:51Z</time></trkpt><trkpt lat="14.538671679468877" lon="120.99231110354228"><ele>8.25</ele><time>2026-04-21T13:40:53Z</time></trkpt><trkpt lat="14.53879630330389" lon="120.99229852261237"><ele>7.5</ele><time>2026-04-21T13:40:54Z</time></trkpt><trkpt lat="14.538918291800968" lon="120.99228511069332"><ele>6.75</ele><time>2026-04-21T13:40:55Z</time></trkpt><trkpt lat="14.539041285274376" lon="120.99227267823638"><ele>6.0</ele><time>2026-04-21T13:40:56Z</time></trkpt><trkpt lat="14.539173356741902" lon="120.99226285878242"><ele>6.0</ele><time>2026-04-21T13:40:57Z</time></trkpt><trkpt lat="14.539302903986519" lon="120.99224960497793"><ele>6.0</ele><time>2026-04-21T13:40:58Z</time></trkpt><trkpt lat="14.5394569095097" lon="120.99223104950997"><ele>6.0</ele><time>2026-04-21T13:40:59Z</time></trkpt><trkpt lat="14.539617285687557" lon="120.99221308185076"><ele>6.0</ele><time>2026-04-21T13:41:00Z</time></trkpt><trkpt lat="14.53977790073017" lon="120.99219730013311"><ele>7.0</ele><time>2026-04-21T13:41:01Z</time></trkpt><trkpt lat="14.53994314888581" lon="120.99218054799448"><ele>8.0</ele><time>2026-04-21T13:41:02Z</time></trkpt><trkpt lat="14.540113119223287" lon="120.9921632267416"><ele>9.0</ele><time>2026-04-21T13:41:03Z</time></trkpt><trkpt lat="14.540278591130786" lon="120.9921381524283"><ele>12.666666666666668</ele><time>2026-04-21T13:41:04Z</time></trkpt><trkpt lat="14.540459826545694" lon="120.99211582544402"><ele>16.333333333333336</ele><time>2026-04-21T13:41:05Z</time></trkpt><trkpt lat="14.540623482187957" lon="120.99209482725634"><ele>20.0</ele><time>2026-04-21T13:41:06Z</time></trkpt><trkpt lat="14.540793167332263" lon="120.99206820094746"><ele>20.0</ele><time>2026-04-21T13:41:07Z</time></trkpt><trkpt lat="14.540967090501717" lon="120.9920380724815"><ele>20.0</ele><time>2026-04-21T13:41:08Z</time></trkpt><trkpt lat="14.541130980141853" lon="120.9920117867993"><ele>20.0</ele><time>2026-04-21T13:41:09Z</time></trkpt><trkpt lat="14.541312153023721" lon="120.99197776814977"><ele>15.666666666666668</ele><time>2026-04-21T13:41:10Z</time></trkpt><trkpt lat="14.541506301797435" lon="120.99193965257548"><ele>11.333333333333334</ele><time>2026-04-21T13:41:11Z</time></trkpt><trkpt lat="14.541643309723879" lon="120.99191513250302"><ele>7.0</ele><time>2026-04-21T13:41:12Z</time></trkpt><trkpt lat="14.541976885856027" lon="120.99185199201897"><ele>7.333333333333334</ele><time>2026-04-21T13:41:14Z</time></trkpt><trkpt lat="14.542140843923507" lon="120.99182226602922"><ele>7.666666666666666</ele><time>2026-04-21T13:41:15Z</time></trkpt><trkpt lat="14.542317549073381" lon="120.99179054701673"><ele>8.0</ele><time>2026-04-21T13:41:16Z</time></trkpt><trkpt lat="14.542486627103568" lon="120.9917633056775"><ele>8.0</ele><time>2026-04-21T13:41:17Z</time></trkpt><trkpt lat="14.54267022236502" lon="120.99172886364941"><ele>8.0</ele><time>2026-04-21T13:41:18Z</time></trkpt><trkpt lat="14.542854033774846" lon="120.99168499319391"><ele>8.0</ele><time>2026-04-21T13:41:19Z</time></trkpt><trkpt lat="14.54301635832467" lon="120.99166820034448"><ele>7.333333333333333</ele><time>2026-04-21T13:41:20Z</time></trkpt><trkpt lat="14.543199906503206" lon="120.9916377241556"><ele>6.666666666666666</ele><time>2026-04-21T13:41:21Z</time></trkpt><trkpt lat="14.543383085896043" lon="120.99160593104219"><ele>6.0</ele><time>2026-04-21T13:41:22Z</time></trkpt><trkpt lat="14.54356559071608" lon="120.99156915584352"><ele>6.666666666666666</ele><time>2026-04-21T13:41:23Z</time></trkpt><trkpt lat="14.543732710594185" lon="120.99155132692572"><ele>7.333333333333333</ele><time>2026-04-21T13:41:24Z</time></trkpt><trkpt lat="14.543910860039704" lon="120.9915203377941"><ele>8.0</ele><time>2026-04-21T13:41:25Z</time></trkpt><trkpt lat="14.544108473212953" lon="120.99147143236654"><ele>8.0</ele><time>2026-04-21T13:41:26Z</time></trkpt><trkpt lat="14.544307806062543" lon="120.9914357045891"><ele>8.0</ele><time>2026-04-21T13:41:27Z</time></trkpt><trkpt lat="14.544478191989608" lon="120.99139993114295"><ele>8.0</ele><time>2026-04-21T13:41:28Z</time></trkpt><trkpt lat="14.544672374646364" lon="120.99136322095993"><ele>9.0</ele><time>2026-04-21T13:41:29Z</time></trkpt><trkpt lat="14.544862113952487" lon="120.99133001178097"><ele>10.0</ele><time>2026-04-21T13:41:30Z</time></trkpt><trkpt lat="14.545036578703614" lon="120.99131159084999"><ele>11.0</ele><time>2026-04-21T13:41:31Z</time></trkpt><trkpt lat="14.545211426594895" lon="120.99128026789883"><ele>9.0</ele><time>2026-04-21T13:41:32Z</time></trkpt><trkpt lat="14.54538359396101" lon="120.99124406736996"><ele>7.0</ele><time>2026-04-21T13:41:33Z</time></trkpt><trkpt lat="14.54572749237726" lon="120.9911686211636"><ele>7.0</ele><time>2026-04-21T13:41:35Z</time></trkpt><trkpt lat="14.545906071675804" lon="120.9911174977868"><ele>7.0</ele><time>2026-04-21T13:41:36Z</time></trkpt><trkpt lat="14.546083106996639" lon="120.991082035062"><ele>7.0</ele><time>2026-04-21T13:41:37Z</time></trkpt><trkpt lat="14.54627072511855" lon="120.99103689350108"><ele>8.666666666666668</ele><time>2026-04-21T13:41:38Z</time></trkpt><trkpt lat="14.546454596127347" lon="120.99099687534338"><ele>10.333333333333334</ele><time>2026-04-21T13:41:39Z</time></trkpt><trkpt lat="14.546651684223859" lon="120.9909338216116"><ele>12.0</ele><time>2026-04-21T13:41:40Z</time></trkpt><trkpt lat="14.546857585639236" lon="120.9908676708744"><ele>10.666666666666666</ele><time>2026-04-21T13:41:41Z</time></trkpt><trkpt lat="14.54703537238512" lon="120.99084080600063"><ele>9.333333333333332</ele><time>2026-04-21T13:41:42Z</time></trkpt><trkpt lat="14.547231284178185" lon="120.99079945510009"><ele>8.0</ele><time>2026-04-21T13:41:43Z</time></trkpt><trkpt lat="14.547426322345897" lon="120.99075040815406"><ele>8.0</ele><time>2026-04-21T13:41:44Z</time></trkpt><trkpt lat="14.547623492371113" lon="120.99069679096849"><ele>8.0</ele><time>2026-04-21T13:41:45Z</time></trkpt><trkpt lat="14.547818243256481" lon="120.99065440055766"><ele>8.0</ele><time>2026-04-21T13:41:46Z</time></trkpt><trkpt lat="14.54801880390478" lon="120.990608289561"><ele>10.333333333333332</ele><time>2026-04-21T13:41:47Z</time></trkpt><trkpt lat="14.548219014557903" lon="120.99056552870701"><ele>12.666666666666666</ele><time>2026-04-21T13:41:48Z</time></trkpt><trkpt lat="14.548421632428775" lon="120.99051563328788"><ele>15.0</ele><time>2026-04-21T13:41:49Z</time></trkpt><trkpt lat="14.548624153363596" lon="120.99047135788426"><ele>12.666666666666666</ele><time>2026-04-21T13:41:50Z</time></trkpt><trkpt lat="14.548823539017972" lon="120.99042884066034"><ele>10.333333333333332</ele><time>2026-04-21T13:41:51Z</time></trkpt><trkpt lat="14.549015625187781" lon="120.99037445411348"><ele>8.0</ele><time>2026-04-21T13:41:52Z</time></trkpt><trkpt lat="14.549207668289151" lon="120.99032678004676"><ele>8.0</ele><time>2026-04-21T13:41:53Z</time></trkpt><trkpt lat="14.549387765671955" lon="120.99028626114844"><ele>8.0</ele><time>2026-04-21T13:41:54Z</time></trkpt><trkpt lat="14.549718258932245" lon="120.99020651279952"><ele>8.333333333333332</ele><time>2026-04-21T13:41:56Z</time></trkpt><trkpt lat="14.549880524978864" lon="120.99016155179103"><ele>8.666666666666666</ele><time>2026-04-21T13:41:57Z</time></trkpt><trkpt lat="14.550046510672743" lon="120.99013107220962"><ele>9.0</ele><time>2026-04-21T13:41:58Z</time></trkpt><trkpt lat="14.550205787966695" lon="120.99009562929888"><ele>9.0</ele><time>2026-04-21T13:41:59Z</time></trkpt><trkpt lat="14.550365084530789" lon="120.99005831294646"><ele>9.0</ele><time>2026-04-21T13:42:00Z</time></trkpt><trkpt lat="14.550518896903018" lon="120.99002192193534"><ele>9.0</ele><time>2026-04-21T13:42:01Z</time></trkpt><trkpt lat="14.550669611196437" lon="120.98999461213786"><ele>8.333333333333334</ele><time>2026-04-21T13:42:02Z</time></trkpt><trkpt lat="14.550824139356903" lon="120.98995958329965"><ele>7.666666666666667</ele><time>2026-04-21T13:42:03Z</time></trkpt><trkpt lat="14.55097050336793" lon="120.98992507047505"><ele>7.0</ele><time>2026-04-21T13:42:04Z</time></trkpt><trkpt lat="14.551115577741434" lon="120.98989312793421"><ele>7.5</ele><time>2026-04-21T13:42:05Z</time></trkpt><trkpt lat="14.551255589137922" lon="120.98985935792587"><ele>8.0</ele><time>2026-04-21T13:42:06Z</time></trkpt><trkpt lat="14.551382998875994" lon="120.98983373034912"><ele>8.5</ele><time>2026-04-21T13:42:07Z</time></trkpt><trkpt lat="14.55150768011114" lon="120.98980337573764"><ele>9.0</ele><time>2026-04-21T13:42:08Z</time></trkpt><trkpt lat="14.55162518279304" lon="120.98977566429613"><ele>9.0</ele><time>2026-04-21T13:42:09Z</time></trkpt><trkpt lat="14.551732157553777" lon="120.98975941579842"><ele>9.0</ele><time>2026-04-21T13:42:10Z</time></trkpt><trkpt lat="14.551834101584351" lon="120.98973507401269"><ele>9.0</ele><time>2026-04-21T13:42:11Z</time></trkpt><trkpt lat="14.551926766471961" lon="120.98971582478154"><ele>9.0</ele><time>2026-04-21T13:42:12Z</time></trkpt><trkpt lat="14.552004899008022" lon="120.98969923853139"><ele>9.0</ele><time>2026-04-21T13:42:13Z</time></trkpt><trkpt lat="14.552107216998479" lon="120.9896883643464"><ele>9.2</ele><time>2026-04-21T13:42:15Z</time></trkpt><trkpt lat="14.552230493413429" lon="120.98982662536535"><ele>9.4</ele><time>2026-04-21T13:42:24Z</time></trkpt><trkpt lat="14.552255397030466" lon="120.98989949917998"><ele>9.6</ele><time>2026-04-21T13:42:25Z</time></trkpt><trkpt lat="14.552282452418995" lon="120.98998608678757"><ele>9.8</ele><time>2026-04-21T13:42:26Z</time></trkpt><trkpt lat="14.552308263540436" lon="120.99007697157266"><ele>10.0</ele><time>2026-04-21T13:42:27Z</time></trkpt><trkpt lat="14.552338624599377" lon="120.99017055794627"><ele>10.0</ele><time>2026-04-21T13:42:28Z</time></trkpt><trkpt lat="14.552371638156526" lon="120.99026603549946"><ele>10.0</ele><time>2026-04-21T13:42:29Z</time></trkpt><trkpt lat="14.552400725844024" lon="120.9903573383152"><ele>10.0</ele><time>2026-04-21T13:42:30Z</time></trkpt><trkpt lat="14.552427326350843" lon="120.99044736099387"><ele>10.0</ele><time>2026-04-21T13:42:31Z</time></trkpt><trkpt lat="14.552452220525645" lon="120.99053016663281"><ele>10.0</ele><time>2026-04-21T13:42:32Z</time></trkpt><trkpt lat="14.552475621691343" lon="120.99060698346491"><ele>10.0</ele><time>2026-04-21T13:42:33Z</time></trkpt><trkpt lat="14.552502813354034" lon="120.99068831604829"><ele>10.0</ele><time>2026-04-21T13:42:34Z</time></trkpt><trkpt lat="14.552535389845524" lon="120.99077264697684"><ele>10.0</ele><time>2026-04-21T13:42:35Z</time></trkpt><trkpt lat="14.55257303185512" lon="120.99086309815169"><ele>10.0</ele><time>2026-04-21T13:42:36Z</time></trkpt><trkpt lat="14.552661200511189" lon="120.99107346625657"><ele>10.0</ele><time>2026-04-21T13:42:38Z</time></trkpt><trkpt lat="14.552703371827352" lon="120.9911895213296"><ele>10.0</ele><time>2026-04-21T13:42:39Z</time></trkpt><trkpt lat="14.55274697398407" lon="120.99131377449919"><ele>10.0</ele><time>2026-04-21T13:42:40Z</time></trkpt><trkpt lat="14.552792175209113" lon="120.99144290818684"><ele>10.0</ele><time>2026-04-21T13:42:41Z</time></trkpt><trkpt lat="14.552838829050799" lon="120.99157709096455"><ele>10.0</ele><time>2026-04-21T13:42:42Z</time></trkpt><trkpt lat="14.552887858238899" lon="120.99171991238998"><ele>10.0</ele><time>2026-04-21T13:42:43Z</time></trkpt><trkpt lat="14.552936894437977" lon="120.99186962625197"><ele>10.0</ele><time>2026-04-21T13:42:44Z</time></trkpt><trkpt lat="14.552982890095414" lon="120.99202255260408"><ele>10.0</ele><time>2026-04-21T13:42:45Z</time></trkpt><trkpt lat="14.553026388854565" lon="120.99217877067437"><ele>10.0</ele><time>2026-04-21T13:42:46Z</time></trkpt><trkpt lat="14.553067408083592" lon="120.99234030764215"><ele>10.0</ele><time>2026-04-21T13:42:47Z</time></trkpt><trkpt lat="14.553113170439024" lon="120.99251447154695"><ele>10.0</ele><time>2026-04-21T13:42:48Z</time></trkpt><trkpt lat="14.553154007507539" lon="120.99268566518069"><ele>9.666666666666668</ele><time>2026-04-21T13:42:49Z</time></trkpt><trkpt lat="14.553189140449112" lon="120.99286332583426"><ele>9.333333333333334</ele><time>2026-04-21T13:42:50Z</time></trkpt><trkpt lat="14.553220644551885" lon="120.99303622561422"><ele>9.0</ele><time>2026-04-21T13:42:51Z</time></trkpt><trkpt lat="14.553250890041387" lon="120.99320958822811"><ele>9.333333333333334</ele><time>2026-04-21T13:42:52Z</time></trkpt><trkpt lat="14.553272804121438" lon="120.9933821231713"><ele>9.666666666666668</ele><time>2026-04-21T13:42:53Z</time></trkpt><trkpt lat="14.553298582258854" lon="120.99355505038996"><ele>10.0</ele><time>2026-04-21T13:42:54Z</time></trkpt><trkpt lat="14.553322649726075" lon="120.99372835571093"><ele>10.0</ele><time>2026-04-21T13:42:55Z</time></trkpt><trkpt lat="14.553336779789662" lon="120.9938973916257"><ele>10.0</ele><time>2026-04-21T13:42:56Z</time></trkpt><trkpt lat="14.55335330664947" lon="120.99406542544966"><ele>10.0</ele><time>2026-04-21T13:42:57Z</time></trkpt><trkpt lat="14.553400482632558" lon="120.99440199965547"><ele>9.0</ele><time>2026-04-21T13:42:59Z</time></trkpt><trkpt lat="14.553425659759544" lon="120.99457073340882"><ele>8.0</ele><time>2026-04-21T13:43:00Z</time></trkpt><trkpt lat="14.553448892156819" lon="120.99474497086631"><ele>7.0</ele><time>2026-04-21T13:43:01Z</time></trkpt><trkpt lat="14.55347483206181" lon="120.99491680246257"><ele>9.0</ele><time>2026-04-21T13:43:02Z</time></trkpt><trkpt lat="14.553506566269" lon="120.99508906682195"><ele>11.0</ele><time>2026-04-21T13:43:03Z</time></trkpt><trkpt lat="14.553534337575378" lon="120.99525738067588"><ele>13.0</ele><time>2026-04-21T13:43:04Z</time></trkpt><trkpt lat="14.55356000746026" lon="120.99542189589411"><ele>13.0</ele><time>2026-04-21T13:43:05Z</time></trkpt><trkpt lat="14.553588564609178" lon="120.9955799696232"><ele>13.0</ele><time>2026-04-21T13:43:06Z</time></trkpt><trkpt lat="14.553627897439492" lon="120.9957482233404"><ele>13.0</ele><time>2026-04-21T13:43:07Z</time></trkpt><trkpt lat="14.55366659577392" lon="120.99589531419171"><ele>13.75</ele><time>2026-04-21T13:43:08Z</time></trkpt><trkpt lat="14.553694024731264" lon="120.99602745483102"><ele>14.5</ele><time>2026-04-21T13:43:09Z</time></trkpt><trkpt lat="14.553726306819623" lon="120.99614864772053"><ele>15.25</ele><time>2026-04-21T13:43:10Z</time></trkpt><trkpt lat="14.553751756192936" lon="120.99626469246901"><ele>16.0</ele><time>2026-04-21T13:43:11Z</time></trkpt><trkpt lat="14.553777986921038" lon="120.99637568099202"><ele>14.600000000000001</ele><time>2026-04-21T13:43:12Z</time></trkpt><trkpt lat="14.553799985867865" lon="120.99647758498341"><ele>13.200000000000001</ele><time>2026-04-21T13:43:13Z</time></trkpt><trkpt lat="14.553825971692811" lon="120.99657804580424"><ele>11.8</ele><time>2026-04-21T13:43:14Z</time></trkpt><trkpt lat="14.5538519017178" lon="120.9966832160525"><ele>10.4</ele><time>2026-04-21T13:43:15Z</time></trkpt><trkpt lat="14.553878791290522" lon="120.99678016609263"><ele>9.0</ele><time>2026-04-21T13:43:16Z</time></trkpt><trkpt lat="14.553902279103744" lon="120.99686065188074"><ele>8.25</ele><time>2026-04-21T13:43:17Z</time></trkpt><trkpt lat="14.553926520457782" lon="120.99694045928115"><ele>7.5</ele><time>2026-04-21T13:43:18Z</time></trkpt><trkpt lat="14.554012624923326" lon="120.99710424082474"><ele>6.75</ele><time>2026-04-21T13:43:21Z</time></trkpt><trkpt lat="14.554106937679089" lon="120.99714676369264"><ele>6.0</ele><time>2026-04-21T13:43:23Z</time></trkpt><trkpt lat="14.554227169223344" lon="120.99712552912204"><ele>6.0</ele><time>2026-04-21T13:43:25Z</time></trkpt><trkpt lat="14.55428450283853" lon="120.99709564681808"><ele>6.0</ele><time>2026-04-21T13:43:26Z</time></trkpt><trkpt lat="14.554360090320444" lon="120.99709077926002"><ele>6.0</ele><time>2026-04-21T13:43:28Z</time></trkpt><trkpt lat="14.554439906171131" lon="120.9970663283489"><ele>6.0</ele><time>2026-04-21T13:43:35Z</time></trkpt><trkpt lat="14.554520594209938" lon="120.99705591551779"><ele>6.0</ele><time>2026-04-21T13:43:39Z</time></trkpt><trkpt lat="14.554613958595324" lon="120.99704489611295"><ele>6.0</ele><time>2026-04-21T13:43:42Z</time></trkpt><trkpt lat="14.554806196622467" lon="120.99701547198121"><ele>6.5</ele><time>2026-04-21T13:43:45Z</time></trkpt><trkpt lat="14.554876231862151" lon="120.99700110609051"><ele>7.0</ele><time>2026-04-21T13:43:46Z</time></trkpt><trkpt lat="14.554944540843712" lon="120.99698782865225"><ele>7.5</ele><time>2026-04-21T13:43:47Z</time></trkpt><trkpt lat="14.555017978042757" lon="120.99697381846617"><ele>8.0</ele><time>2026-04-21T13:43:48Z</time></trkpt><trkpt lat="14.55510678557279" lon="120.99695398725592"><ele>8.5</ele><time>2026-04-21T13:43:49Z</time></trkpt><trkpt lat="14.555196171739585" lon="120.99693286687507"><ele>9.0</ele><time>2026-04-21T13:43:50Z</time></trkpt><trkpt lat="14.555290930561828" lon="120.99691027867077"><ele>9.0</ele><time>2026-04-21T13:43:51Z</time></trkpt><trkpt lat="14.555376908677886" lon="120.99688716169855"><ele>9.0</ele><time>2026-04-21T13:43:52Z</time></trkpt><trkpt lat="14.555461283510422" lon="120.99686834254835"><ele>9.0</ele><time>2026-04-21T13:43:53Z</time></trkpt><trkpt lat="14.555539834354011" lon="120.99685055793037"><ele>9.0</ele><time>2026-04-21T13:43:54Z</time></trkpt><trkpt lat="14.555614794285606" lon="120.99683655173658"><ele>9.0</ele><time>2026-04-21T13:43:55Z</time></trkpt><trkpt lat="14.555683061295555" lon="120.9968210114157"><ele>9.0</ele><time>2026-04-21T13:43:56Z</time></trkpt><trkpt lat="14.555747436312604" lon="120.99680638551847"><ele>9.0</ele><time>2026-04-21T13:43:57Z</time></trkpt><trkpt lat="14.555810393520808" lon="120.99678888885941"><ele>9.0</ele><time>2026-04-21T13:43:58Z</time></trkpt><trkpt lat="14.555870115567785" lon="120.99676721203289"><ele>9.0</ele><time>2026-04-21T13:43:59Z</time></trkpt><trkpt lat="14.55598876117443" lon="120.99673493267844"><ele>9.0</ele><time>2026-04-21T13:44:01Z</time></trkpt><trkpt lat="14.556099491347153" lon="120.996696090972"><ele>9.0</ele><time>2026-04-21T13:44:03Z</time></trkpt><trkpt lat="14.55623056836979" lon="120.99667624775131"><ele>8.857142857142858</ele><time>2026-04-21T13:44:05Z</time></trkpt><trkpt lat="14.556310173204752" lon="120.99664674894936"><ele>8.714285714285715</ele><time>2026-04-21T13:44:06Z</time></trkpt><trkpt lat="14.556377714719824" lon="120.99662087105455"><ele>8.571428571428571</ele><time>2026-04-21T13:44:07Z</time></trkpt><trkpt lat="14.556452714284633" lon="120.99660636652165"><ele>8.428571428571429</ele><time>2026-04-21T13:44:08Z</time></trkpt><trkpt lat="14.556514948020773" lon="120.99659004124368"><ele>8.285714285714285</ele><time>2026-04-21T13:44:09Z</time></trkpt><trkpt lat="14.556578554352502" lon="120.99657540459678"><ele>8.142857142857142</ele><time>2026-04-21T13:44:10Z</time></trkpt><trkpt lat="14.556643220242044" lon="120.99656135286136"><ele>8.0</ele><time>2026-04-21T13:44:11Z</time></trkpt><trkpt lat="14.556710764960402" lon="120.9965469206938"><ele>7.999999999999999</ele><time>2026-04-21T13:44:12Z</time></trkpt><trkpt lat="14.55678077992367" lon="120.99651222835581"><ele>8.0</ele><time>2026-04-21T13:44:13Z</time></trkpt><trkpt lat="14.556856382642472" lon="120.99648015381679"><ele>8.0</ele><time>2026-04-21T13:44:14Z</time></trkpt><trkpt lat="14.556937193571104" lon="120.99645895111423"><ele>8.0</ele><time>2026-04-21T13:44:15Z</time></trkpt><trkpt lat="14.557026767172148" lon="120.99645043678184"><ele>7.999999999999999</ele><time>2026-04-21T13:44:16Z</time></trkpt><trkpt lat="14.55710702430046" lon="120.99643668291547"><ele>8.0</ele><time>2026-04-21T13:44:17Z</time></trkpt><trkpt lat="14.557185542719589" lon="120.99641947099488"><ele>8.5</ele><time>2026-04-21T13:44:18Z</time></trkpt><trkpt lat="14.557259114309819" lon="120.99640084633857"><ele>9.0</ele><time>2026-04-21T13:44:19Z</time></trkpt><trkpt lat="14.557337197887326" lon="120.99638103078158"><ele>9.5</ele><time>2026-04-21T13:44:20Z</time></trkpt><trkpt lat="14.55742020148733" lon="120.99636103989359"><ele>10.0</ele><time>2026-04-21T13:44:21Z</time></trkpt><trkpt lat="14.557496127237753" lon="120.99632975550841"><ele>10.5</ele><time>2026-04-21T13:44:22Z</time></trkpt><trkpt lat="14.557568317804913" lon="120.9963229298405"><ele>11.0</ele><time>2026-04-21T13:44:23Z</time></trkpt><trkpt lat="14.557636423462126" lon="120.99631129952141"><ele>11.0</ele><time>2026-04-21T13:44:24Z</time></trkpt><trkpt lat="14.557763521102283" lon="120.99627230394714"><ele>11.0</ele><time>2026-04-21T13:44:26Z</time></trkpt><trkpt lat="14.557827007053515" lon="120.99625745846375"><ele>11.0</ele><time>2026-04-21T13:44:27Z</time></trkpt><trkpt lat="14.557888289041" lon="120.99623750617272"><ele>11.0</ele><time>2026-04-21T13:44:28Z</time></trkpt><trkpt lat="14.557950776613872" lon="120.99622319373609"><ele>11.0</ele><time>2026-04-21T13:44:29Z</time></trkpt><trkpt lat="14.558020233426289" lon="120.99620594401127"><ele>11.0</ele><time>2026-04-21T13:44:30Z</time></trkpt><trkpt lat="14.55808809868713" lon="120.99619543527415"><ele>10.600000000000001</ele><time>2026-04-21T13:44:31Z</time></trkpt><trkpt lat="14.55818406749273" lon="120.99618343459886"><ele>10.200000000000001</ele><time>2026-04-21T13:44:33Z</time></trkpt><trkpt lat="14.558177260578978" lon="120.99609041697124"><ele>9.8</ele><time>2026-04-21T13:44:43Z</time></trkpt><trkpt lat="14.558151524837433" lon="120.99601532294658"><ele>9.4</ele><time>2026-04-21T13:44:45Z</time></trkpt><trkpt lat="14.558093758014452" lon="120.99590126031859"><ele>9.0</ele><time>2026-04-21T13:44:50Z</time></trkpt><trkpt lat="14.558069464459" lon="120.99582900316292"><ele>9.0</ele><time>2026-04-21T13:44:54Z</time></trkpt><trkpt lat="14.55796041445593" lon="120.99579445815635"><ele>9.0</ele><time>2026-04-21T13:45:02Z</time></trkpt><trkpt lat="14.557904802038543" lon="120.99572761414885"><ele>9.0</ele><time>2026-04-21T13:45:05Z</time></trkpt><trkpt lat="14.557865093832886" lon="120.99564612257781"><ele>9.0</ele><time>2026-04-21T13:45:06.076Z</time></trkpt><trkpt lat="14.557786388584757" lon="120.99549838446117"><ele>8.8</ele><time>2026-04-21T13:45:08.045Z</time></trkpt><trkpt lat="14.557742986144506" lon="120.99545019569429"><ele>8.600000000000001</ele><time>2026-04-21T13:45:09.041Z</time></trkpt><trkpt lat="14.557649281174747" lon="120.99535503736966"><ele>8.4</ele><time>2026-04-21T13:45:12.034Z</time></trkpt><trkpt lat="14.5575567910827" lon="120.99530185733038"><ele>8.200000000000001</ele><time>2026-04-21T13:45:14.03Z</time></trkpt><trkpt lat="14.557506144423835" lon="120.99525087095684"><ele>8.0</ele><time>2026-04-21T13:45:16.029Z</time></trkpt><trkpt lat="14.557480845263953" lon="120.99515896393869"><ele>8.0</ele><time>2026-04-21T13:45:18.028Z</time></trkpt><trkpt lat="14.557419290429424" lon="120.9950994700789"><ele>8.0</ele><time>2026-04-21T13:45:20.026Z</time></trkpt><trkpt lat="14.558335639978326" lon="120.9953385594161"><ele>9.0</ele><time>2026-04-21T13:46:34Z</time></trkpt></trkseg></trk></gpx>